﻿<?xml version="1.0" encoding="utf-8"?><gpx creator="Garmin Desktop App" version="1.1" xsi:schemaLocation="http://www.topografix.com/GPX/1/1 http://www.topografix.com/GPX/1/1/gpx.xsd http://www.garmin.com/xmlschemas/WaypointExtension/v1 http://www8.garmin.com/xmlschemas/WaypointExtensionv1.xsd http://www.garmin.com/xmlschemas/TrackPointExtension/v1 http://www.garmin.com/xmlschemas/TrackPointExtensionv1.xsd http://www.garmin.com/xmlschemas/GpxExtensions/v3 http://www8.garmin.com/xmlschemas/GpxExtensionsv3.xsd http://www.garmin.com/xmlschemas/ActivityExtension/v1 http://www8.garmin.com/xmlschemas/ActivityExtensionv1.xsd http://www.garmin.com/xmlschemas/AdventuresExtensions/v1 http://www8.garmin.com/xmlschemas/AdventuresExtensionv1.xsd http://www.garmin.com/xmlschemas/PressureExtension/v1 http://www.garmin.com/xmlschemas/PressureExtensionv1.xsd http://www.garmin.com/xmlschemas/TripExtensions/v1 http://www.garmin.com/xmlschemas/TripExtensionsv1.xsd http://www.garmin.com/xmlschemas/TripMetaDataExtensions/v1 http://www.garmin.com/xmlschemas/TripMetaDataExtensionsv1.xsd http://www.garmin.com/xmlschemas/ViaPointTransportationModeExtensions/v1 http://www.garmin.com/xmlschemas/ViaPointTransportationModeExtensionsv1.xsd http://www.garmin.com/xmlschemas/CreationTimeExtension/v1 http://www.garmin.com/xmlschemas/CreationTimeExtensionsv1.xsd http://www.garmin.com/xmlschemas/AccelerationExtension/v1 http://www.garmin.com/xmlschemas/AccelerationExtensionv1.xsd http://www.garmin.com/xmlschemas/PowerExtension/v1 http://www.garmin.com/xmlschemas/PowerExtensionv1.xsd http://www.garmin.com/xmlschemas/VideoExtension/v1 http://www.garmin.com/xmlschemas/VideoExtensionv1.xsd" xmlns="http://www.topografix.com/GPX/1/1" xmlns:xsi="http://www.w3.org/2001/XMLSchema-instance" xmlns:wptx1="http://www.garmin.com/xmlschemas/WaypointExtension/v1" xmlns:gpxtrx="http://www.garmin.com/xmlschemas/GpxExtensions/v3" xmlns:gpxtpx="http://www.garmin.com/xmlschemas/TrackPointExtension/v1" xmlns:gpxx="http://www.garmin.com/xmlschemas/GpxExtensions/v3" xmlns:trp="http://www.garmin.com/xmlschemas/TripExtensions/v1" xmlns:adv="http://www.garmin.com/xmlschemas/AdventuresExtensions/v1" xmlns:prs="http://www.garmin.com/xmlschemas/PressureExtension/v1" xmlns:tmd="http://www.garmin.com/xmlschemas/TripMetaDataExtensions/v1" xmlns:vptm="http://www.garmin.com/xmlschemas/ViaPointTransportationModeExtensions/v1" xmlns:ctx="http://www.garmin.com/xmlschemas/CreationTimeExtension/v1" xmlns:gpxacc="http://www.garmin.com/xmlschemas/AccelerationExtension/v1" xmlns:gpxpx="http://www.garmin.com/xmlschemas/PowerExtension/v1" xmlns:vidx1="http://www.garmin.com/xmlschemas/VideoExtension/v1">

  <metadata>
    <link href="http://www.garmin.com">
      <text>Garmin International</text>
    </link>
    <time>2018-04-17T11:32:52Z</time>
    <bounds maxlat="44.440682474523783" maxlon="8.74324475415051" minlat="44.40518151037395" minlon="8.666061339899898" />
  </metadata>

  <trk>
    <name>arenzano voltri2018-04-15</name>
    <extensions>
      <gpxx:TrackExtension>
        <gpxx:DisplayColor>Yellow</gpxx:DisplayColor>
      </gpxx:TrackExtension>
      <gpxtrkx:TrackStatsExtension xmlns:gpxtrkx="http://www.garmin.com/xmlschemas/TrackStatsExtension/v1">
        <gpxtrkx:Distance>17718</gpxtrkx:Distance>
        <gpxtrkx:TotalElapsedTime>23024</gpxtrkx:TotalElapsedTime>
        <gpxtrkx:MovingTime>18647</gpxtrkx:MovingTime>
        <gpxtrkx:StoppedTime>4212</gpxtrkx:StoppedTime>
        <gpxtrkx:MovingSpeed>1</gpxtrkx:MovingSpeed>
        <gpxtrkx:MaxSpeed>3</gpxtrkx:MaxSpeed>
        <gpxtrkx:MaxElevation>891</gpxtrkx:MaxElevation>
        <gpxtrkx:MinElevation>11</gpxtrkx:MinElevation>
        <gpxtrkx:Ascent>1493</gpxtrkx:Ascent>
        <gpxtrkx:Descent>1533</gpxtrkx:Descent>
        <gpxtrkx:AvgAscentRate>0</gpxtrkx:AvgAscentRate>
        <gpxtrkx:MaxAscentRate>2</gpxtrkx:MaxAscentRate>
        <gpxtrkx:AvgDescentRate>0</gpxtrkx:AvgDescentRate>
        <gpxtrkx:MaxDescentRate>-1</gpxtrkx:MaxDescentRate>
      </gpxtrkx:TrackStatsExtension>
    </extensions>
    <trkseg>
      <trkpt lat="44.40518151037395" lon="8.679834064096212">
        <ele>44.840000000000003</ele>
        <time>2018-04-15T07:45:05Z</time>
      </trkpt>
      <trkpt lat="44.405198274180293" lon="8.679833728820086">
        <ele>44.840000000000003</ele>
        <time>2018-04-15T07:45:07Z</time>
      </trkpt>
      <trkpt lat="44.405287289991975" lon="8.6797846108675">
        <ele>45.799999999999997</ele>
        <time>2018-04-15T07:45:18Z</time>
      </trkpt>
      <trkpt lat="44.405391309410334" lon="8.679717471823096">
        <ele>46.280000000000001</ele>
        <time>2018-04-15T07:45:29Z</time>
      </trkpt>
      <trkpt lat="44.405545704066753" lon="8.679658882319927">
        <ele>47.240000000000002</ele>
        <time>2018-04-15T07:45:41Z</time>
      </trkpt>
      <trkpt lat="44.405639749020338" lon="8.679620744660497">
        <ele>48.200000000000003</ele>
        <time>2018-04-15T07:45:50Z</time>
      </trkpt>
      <trkpt lat="44.405739828944206" lon="8.679586462676525">
        <ele>48.200000000000003</ele>
        <time>2018-04-15T07:46:00Z</time>
      </trkpt>
      <trkpt lat="44.405844770371914" lon="8.679511528462172">
        <ele>48.68</ele>
        <time>2018-04-15T07:46:11Z</time>
      </trkpt>
      <trkpt lat="44.405855499207973" lon="8.679503398016095">
        <ele>48.68</ele>
        <time>2018-04-15T07:46:12Z</time>
      </trkpt>
      <trkpt lat="44.405867988243699" lon="8.679501805454493">
        <ele>49.159999999999997</ele>
        <time>2018-04-15T07:46:13Z</time>
      </trkpt>
      <trkpt lat="44.405887434259057" lon="8.679510271176696">
        <ele>49.159999999999997</ele>
        <time>2018-04-15T07:46:15Z</time>
      </trkpt>
      <trkpt lat="44.405895564705133" lon="8.679524939507246">
        <ele>49.649999999999999</ele>
        <time>2018-04-15T07:46:16Z</time>
      </trkpt>
      <trkpt lat="44.405923895537853" lon="8.679573303088546">
        <ele>49.649999999999999</ele>
        <time>2018-04-15T07:46:20Z</time>
      </trkpt>
      <trkpt lat="44.405931942164898" lon="8.679598784074187">
        <ele>49.159999999999997</ele>
        <time>2018-04-15T07:46:22Z</time>
      </trkpt>
      <trkpt lat="44.405987178906798" lon="8.679733481258154">
        <ele>52.049999999999997</ele>
        <time>2018-04-15T07:46:34Z</time>
      </trkpt>
      <trkpt lat="44.405989106744528" lon="8.679827358573675">
        <ele>52.049999999999997</ele>
        <time>2018-04-15T07:46:41Z</time>
      </trkpt>
      <trkpt lat="44.40598089247942" lon="8.679845798760653">
        <ele>52.049999999999997</ele>
        <time>2018-04-15T07:46:42Z</time>
      </trkpt>
      <trkpt lat="44.405971840023994" lon="8.680003294721246">
        <ele>53.009999999999998</ele>
        <time>2018-04-15T07:46:55Z</time>
      </trkpt>
      <trkpt lat="44.405999332666397" lon="8.680019052699208">
        <ele>53.490000000000002</ele>
        <time>2018-04-15T07:46:58Z</time>
      </trkpt>
      <trkpt lat="44.406054653227329" lon="8.680047299712896">
        <ele>53.490000000000002</ele>
        <time>2018-04-15T07:47:07Z</time>
      </trkpt>
      <trkpt lat="44.40613335929811" lon="8.679954763501883">
        <ele>54.450000000000003</ele>
        <time>2018-04-15T07:47:17Z</time>
      </trkpt>
      <trkpt lat="44.40621642395854" lon="8.679865999147296">
        <ele>54.450000000000003</ele>
        <time>2018-04-15T07:47:28Z</time>
      </trkpt>
      <trkpt lat="44.406287251040339" lon="8.679799698293209">
        <ele>54.93</ele>
        <time>2018-04-15T07:47:39Z</time>
      </trkpt>
      <trkpt lat="44.406314911320806" lon="8.679750999435782">
        <ele>54.93</ele>
        <time>2018-04-15T07:47:43Z</time>
      </trkpt>
      <trkpt lat="44.406343577429652" lon="8.679678412154317">
        <ele>54.93</ele>
        <time>2018-04-15T07:47:48Z</time>
      </trkpt>
      <trkpt lat="44.406362688168883" lon="8.679620828479528">
        <ele>54.450000000000003</ele>
        <time>2018-04-15T07:47:54Z</time>
      </trkpt>
      <trkpt lat="44.406378110870719" lon="8.679616888985038">
        <ele>54.450000000000003</ele>
        <time>2018-04-15T07:47:55Z</time>
      </trkpt>
      <trkpt lat="44.406399484723806" lon="8.679628958925605">
        <ele>54.450000000000003</ele>
        <time>2018-04-15T07:47:57Z</time>
      </trkpt>
      <trkpt lat="44.406420271843672" lon="8.679689224809408">
        <ele>55.890000000000001</ele>
        <time>2018-04-15T07:48:05Z</time>
      </trkpt>
      <trkpt lat="44.406484561040998" lon="8.679852336645126">
        <ele>58.299999999999997</ele>
        <time>2018-04-15T07:48:17Z</time>
      </trkpt>
      <trkpt lat="44.406462265178561" lon="8.679950656369329">
        <ele>59.259999999999998</ele>
        <time>2018-04-15T07:48:25Z</time>
      </trkpt>
      <trkpt lat="44.40639965236187" lon="8.680049814283848">
        <ele>60.700000000000003</ele>
        <time>2018-04-15T07:48:36Z</time>
      </trkpt>
      <trkpt lat="44.406315581873059" lon="8.680224409326911">
        <ele>61.18</ele>
        <time>2018-04-15T07:48:49Z</time>
      </trkpt>
      <trkpt lat="44.406303260475397" lon="8.680248381569982">
        <ele>62.619999999999997</ele>
        <time>2018-04-15T07:48:51Z</time>
      </trkpt>
      <trkpt lat="44.40628875978291" lon="8.680273862555623">
        <ele>62.140000000000001</ele>
        <time>2018-04-15T07:48:53Z</time>
      </trkpt>
      <trkpt lat="44.406318431720138" lon="8.680449295789003">
        <ele>64.069999999999993</ele>
        <time>2018-04-15T07:49:06Z</time>
      </trkpt>
      <trkpt lat="44.406360341235995" lon="8.680449044331908">
        <ele>65.510000000000005</ele>
        <time>2018-04-15T07:49:12Z</time>
      </trkpt>
      <trkpt lat="44.406374590471387" lon="8.680431107059121">
        <ele>65.510000000000005</ele>
        <time>2018-04-15T07:49:14Z</time>
      </trkpt>
      <trkpt lat="44.406423876062036" lon="8.68037385866046">
        <ele>67.430000000000007</ele>
        <time>2018-04-15T07:49:23Z</time>
      </trkpt>
      <trkpt lat="44.406418176367879" lon="8.680361034348607">
        <ele>66.950000000000003</ele>
        <time>2018-04-15T07:49:24Z</time>
      </trkpt>
      <trkpt lat="44.40641725435853" lon="8.680342175066471">
        <ele>66.950000000000003</ele>
        <time>2018-04-15T07:49:25Z</time>
      </trkpt>
      <trkpt lat="44.40644659101963" lon="8.680301774293184">
        <ele>67.430000000000007</ele>
        <time>2018-04-15T07:49:31Z</time>
      </trkpt>
      <trkpt lat="44.406563602387905" lon="8.680208567529917">
        <ele>68.870000000000005</ele>
        <time>2018-04-15T07:49:42Z</time>
      </trkpt>
      <trkpt lat="44.406607607379556" lon="8.680140255019069">
        <ele>69.829999999999998</ele>
        <time>2018-04-15T07:49:47Z</time>
      </trkpt>
      <trkpt lat="44.406692767515779" lon="8.680017041042447">
        <ele>71.269999999999996</ele>
        <time>2018-04-15T07:49:58Z</time>
      </trkpt>
      <trkpt lat="44.406779101118445" lon="8.67995853535831">
        <ele>72.719999999999999</ele>
        <time>2018-04-15T07:50:08Z</time>
      </trkpt>
      <trkpt lat="44.40679058432579" lon="8.679969850927591">
        <ele>73.200000000000003</ele>
        <time>2018-04-15T07:50:09Z</time>
      </trkpt>
      <trkpt lat="44.406797289848328" lon="8.679986195638776">
        <ele>73.680000000000007</ele>
        <time>2018-04-15T07:50:10Z</time>
      </trkpt>
      <trkpt lat="44.406799385324121" lon="8.680001785978675">
        <ele>74.159999999999997</ele>
        <time>2018-04-15T07:50:11Z</time>
      </trkpt>
      <trkpt lat="44.406797373667359" lon="8.680019471794367">
        <ele>74.159999999999997</ele>
        <time>2018-04-15T07:50:12Z</time>
      </trkpt>
      <trkpt lat="44.406719924882054" lon="8.680159114301205">
        <ele>74.640000000000001</ele>
        <time>2018-04-15T07:50:23Z</time>
      </trkpt>
      <trkpt lat="44.406649935990572" lon="8.680288027971983">
        <ele>75.599999999999994</ele>
        <time>2018-04-15T07:50:34Z</time>
      </trkpt>
      <trkpt lat="44.406634178012609" lon="8.680358352139592">
        <ele>76.079999999999998</ele>
        <time>2018-04-15T07:50:39Z</time>
      </trkpt>
      <trkpt lat="44.40668891184032" lon="8.680337816476822">
        <ele>77.519999999999996</ele>
        <time>2018-04-15T07:50:48Z</time>
      </trkpt>
      <trkpt lat="44.406695030629635" lon="8.680325578898192">
        <ele>78</ele>
        <time>2018-04-15T07:50:49Z</time>
      </trkpt>
      <trkpt lat="44.406729228794575" lon="8.680247627198696">
        <ele>78</ele>
        <time>2018-04-15T07:50:56Z</time>
      </trkpt>
      <trkpt lat="44.406759990379214" lon="8.680198006331921">
        <ele>79.930000000000007</ele>
        <time>2018-04-15T07:51:01Z</time>
      </trkpt>
      <trkpt lat="44.406829979270697" lon="8.680089879781008">
        <ele>80.890000000000001</ele>
        <time>2018-04-15T07:51:11Z</time>
      </trkpt>
      <trkpt lat="44.406862333416939" lon="8.68003380484879">
        <ele>80.890000000000001</ele>
        <time>2018-04-15T07:51:17Z</time>
      </trkpt>
      <trkpt lat="44.40687557682395" lon="8.680008994415402">
        <ele>81.849999999999994</ele>
        <time>2018-04-15T07:51:19Z</time>
      </trkpt>
      <trkpt lat="44.406932489946485" lon="8.67989500053227">
        <ele>82.329999999999998</ele>
        <time>2018-04-15T07:51:29Z</time>
      </trkpt>
      <trkpt lat="44.406996611505747" lon="8.679794333875179">
        <ele>83.769999999999996</ele>
        <time>2018-04-15T07:51:39Z</time>
      </trkpt>
      <trkpt lat="44.407031144946814" lon="8.679738007485867">
        <ele>84.25</ele>
        <time>2018-04-15T07:51:44Z</time>
      </trkpt>
      <trkpt lat="44.407056206837296" lon="8.679707832634449">
        <ele>84.730000000000004</ele>
        <time>2018-04-15T07:51:47Z</time>
      </trkpt>
      <trkpt lat="44.407080933451653" lon="8.67963801138103">
        <ele>85.209999999999994</ele>
        <time>2018-04-15T07:51:57Z</time>
      </trkpt>
      <trkpt lat="44.407085375860333" lon="8.679648321121931">
        <ele>85.689999999999998</ele>
        <time>2018-04-15T07:52:01Z</time>
      </trkpt>
      <trkpt lat="44.407098283991218" lon="8.67962141521275">
        <ele>85.689999999999998</ele>
        <time>2018-04-15T07:52:03Z</time>
      </trkpt>
      <trkpt lat="44.407102139666677" lon="8.679604232311249">
        <ele>85.689999999999998</ele>
        <time>2018-04-15T07:52:04Z</time>
      </trkpt>
      <trkpt lat="44.407104989513755" lon="8.679586546495557">
        <ele>85.689999999999998</ele>
        <time>2018-04-15T07:52:05Z</time>
      </trkpt>
      <trkpt lat="44.407099206000566" lon="8.679479425773025">
        <ele>86.180000000000007</ele>
        <time>2018-04-15T07:52:13Z</time>
      </trkpt>
      <trkpt lat="44.407098786905408" lon="8.679357469081879">
        <ele>87.620000000000005</ele>
        <time>2018-04-15T07:52:21Z</time>
      </trkpt>
      <trkpt lat="44.407100128009915" lon="8.679313296452165">
        <ele>87.620000000000005</ele>
        <time>2018-04-15T07:52:24Z</time>
      </trkpt>
      <trkpt lat="44.407103816047311" lon="8.679256299510598">
        <ele>88.099999999999994</ele>
        <time>2018-04-15T07:52:28Z</time>
      </trkpt>
      <trkpt lat="44.407127453014255" lon="8.679119171574712">
        <ele>87.620000000000005</ele>
        <time>2018-04-15T07:52:40Z</time>
      </trkpt>
      <trkpt lat="44.407158214598894" lon="8.678990844637156">
        <ele>88.099999999999994</ele>
        <time>2018-04-15T07:52:49Z</time>
      </trkpt>
      <trkpt lat="44.407233651727438" lon="8.678861344233155">
        <ele>88.099999999999994</ele>
        <time>2018-04-15T07:52:59Z</time>
      </trkpt>
      <trkpt lat="44.407309591770172" lon="8.678795713931322">
        <ele>88.099999999999994</ele>
        <time>2018-04-15T07:53:07Z</time>
      </trkpt>
      <trkpt lat="44.407320655882359" lon="8.678787751123309">
        <ele>88.099999999999994</ele>
        <time>2018-04-15T07:53:08Z</time>
      </trkpt>
      <trkpt lat="44.407438840717077" lon="8.678722875192761">
        <ele>87.620000000000005</ele>
        <time>2018-04-15T07:53:20Z</time>
      </trkpt>
      <trkpt lat="44.407574124634266" lon="8.678652383387089">
        <ele>86.659999999999997</ele>
        <time>2018-04-15T07:53:33Z</time>
      </trkpt>
      <trkpt lat="44.407603461295366" lon="8.678640900179744">
        <ele>88.099999999999994</ele>
        <time>2018-04-15T07:53:36Z</time>
      </trkpt>
      <trkpt lat="44.407658614218235" lon="8.678601756691933">
        <ele>89.540000000000006</ele>
        <time>2018-04-15T07:53:42Z</time>
      </trkpt>
      <trkpt lat="44.40775316208601" lon="8.67854886688292">
        <ele>88.579999999999998</ele>
        <time>2018-04-15T07:53:51Z</time>
      </trkpt>
      <trkpt lat="44.407791383564472" lon="8.678524140268564">
        <ele>89.540000000000006</ele>
        <time>2018-04-15T07:53:55Z</time>
      </trkpt>
      <trkpt lat="44.407819798216224" lon="8.678508466109633">
        <ele>89.060000000000002</ele>
        <time>2018-04-15T07:53:58Z</time>
      </trkpt>
      <trkpt lat="44.407831784337759" lon="8.678504191339016">
        <ele>89.060000000000002</ele>
        <time>2018-04-15T07:53:59Z</time>
      </trkpt>
      <trkpt lat="44.407937899231911" lon="8.678480051457882">
        <ele>89.540000000000006</ele>
        <time>2018-04-15T07:54:09Z</time>
      </trkpt>
      <trkpt lat="44.407983161509037" lon="8.678450882434845">
        <ele>90.5</ele>
        <time>2018-04-15T07:54:14Z</time>
      </trkpt>
      <trkpt lat="44.408000931143761" lon="8.67841986939311">
        <ele>88.579999999999998</ele>
        <time>2018-04-15T07:54:18Z</time>
      </trkpt>
      <trkpt lat="44.408019119873643" lon="8.678380809724331">
        <ele>89.540000000000006</ele>
        <time>2018-04-15T07:54:21Z</time>
      </trkpt>
      <trkpt lat="44.407997578382492" lon="8.67818970233202">
        <ele>90.019999999999996</ele>
        <time>2018-04-15T07:54:35Z</time>
      </trkpt>
      <trkpt lat="44.408030770719051" lon="8.6779610440135">
        <ele>89.540000000000006</ele>
        <time>2018-04-15T07:54:48Z</time>
      </trkpt>
      <trkpt lat="44.408041751012206" lon="8.677912261337042">
        <ele>90.5</ele>
        <time>2018-04-15T07:54:51Z</time>
      </trkpt>
      <trkpt lat="44.408099502325058" lon="8.677783850580454">
        <ele>90.980000000000004</ele>
        <time>2018-04-15T07:55:02Z</time>
      </trkpt>
      <trkpt lat="44.408137975260615" lon="8.677749652415514">
        <ele>89.540000000000006</ele>
        <time>2018-04-15T07:55:11Z</time>
      </trkpt>
      <trkpt lat="44.408227242529392" lon="8.677699528634548">
        <ele>89.540000000000006</ele>
        <time>2018-04-15T07:55:22Z</time>
      </trkpt>
      <trkpt lat="44.40827258862555" lon="8.677673880010843">
        <ele>89.060000000000002</ele>
        <time>2018-04-15T07:55:27Z</time>
      </trkpt>
      <trkpt lat="44.408296141773462" lon="8.67766491137445">
        <ele>88.099999999999994</ele>
        <time>2018-04-15T07:55:29Z</time>
      </trkpt>
      <trkpt lat="44.408364957198501" lon="8.677629036828876">
        <ele>88.579999999999998</ele>
        <time>2018-04-15T07:55:37Z</time>
      </trkpt>
      <trkpt lat="44.408417930826545" lon="8.677581511437893">
        <ele>90.5</ele>
        <time>2018-04-15T07:55:43Z</time>
      </trkpt>
      <trkpt lat="44.408513652160764" lon="8.677481934428215">
        <ele>90.5</ele>
        <time>2018-04-15T07:55:56Z</time>
      </trkpt>
      <trkpt lat="44.408542569726706" lon="8.677444886416197">
        <ele>89.060000000000002</ele>
        <time>2018-04-15T07:56:00Z</time>
      </trkpt>
      <trkpt lat="44.40863904543221" lon="8.6773722153157">
        <ele>90.5</ele>
        <time>2018-04-15T07:56:11Z</time>
      </trkpt>
      <trkpt lat="44.408657485619187" lon="8.677363162860274">
        <ele>90.5</ele>
        <time>2018-04-15T07:56:13Z</time>
      </trkpt>
      <trkpt lat="44.408764773979783" lon="8.677374813705683">
        <ele>90.5</ele>
        <time>2018-04-15T07:56:24Z</time>
      </trkpt>
      <trkpt lat="44.408896118402481" lon="8.677412951365113">
        <ele>90.5</ele>
        <time>2018-04-15T07:56:37Z</time>
      </trkpt>
      <trkpt lat="44.408908020704985" lon="8.677417812868953">
        <ele>90.980000000000004</ele>
        <time>2018-04-15T07:56:38Z</time>
      </trkpt>
      <trkpt lat="44.409005669876933" lon="8.677457710728049">
        <ele>90.980000000000004</ele>
        <time>2018-04-15T07:56:49Z</time>
      </trkpt>
      <trkpt lat="44.409130811691284" lon="8.677449161186814">
        <ele>90.980000000000004</ele>
        <time>2018-04-15T07:57:03Z</time>
      </trkpt>
      <trkpt lat="44.40915310755372" lon="8.677439270541072">
        <ele>89.540000000000006</ele>
        <time>2018-04-15T07:57:06Z</time>
      </trkpt>
      <trkpt lat="44.409174984320998" lon="8.677430720999837">
        <ele>91.459999999999994</ele>
        <time>2018-04-15T07:57:09Z</time>
      </trkpt>
      <trkpt lat="44.409277411177754" lon="8.677358133718371">
        <ele>92.900000000000006</ele>
        <time>2018-04-15T07:57:22Z</time>
      </trkpt>
      <trkpt lat="44.409300880506635" lon="8.677266603335738">
        <ele>93.390000000000001</ele>
        <time>2018-04-15T07:57:34Z</time>
      </trkpt>
      <trkpt lat="44.409234495833516" lon="8.677235338836908">
        <ele>94.829999999999998</ele>
        <time>2018-04-15T07:57:45Z</time>
      </trkpt>
      <trkpt lat="44.409185545518994" lon="8.677247241139412">
        <ele>94.349999999999994</ele>
        <time>2018-04-15T07:57:50Z</time>
      </trkpt>
      <trkpt lat="44.409097200259566" lon="8.677214719355106">
        <ele>94.349999999999994</ele>
        <time>2018-04-15T07:57:59Z</time>
      </trkpt>
      <trkpt lat="44.409000054001808" lon="8.677106173709035">
        <ele>96.269999999999996</ele>
        <time>2018-04-15T07:58:11Z</time>
      </trkpt>
      <trkpt lat="44.408913971856236" lon="8.676993940025568">
        <ele>95.790000000000006</ele>
        <time>2018-04-15T07:58:24Z</time>
      </trkpt>
      <trkpt lat="44.408898465335369" lon="8.676974829286337">
        <ele>95.790000000000006</ele>
        <time>2018-04-15T07:58:26Z</time>
      </trkpt>
      <trkpt lat="44.408850101754069" lon="8.676915485411882">
        <ele>95.790000000000006</ele>
        <time>2018-04-15T07:58:33Z</time>
      </trkpt>
      <trkpt lat="44.408837947994471" lon="8.676904672756791">
        <ele>96.75</ele>
        <time>2018-04-15T07:58:35Z</time>
      </trkpt>
      <trkpt lat="44.408780029043555" lon="8.676826218143106">
        <ele>97.230000000000004</ele>
        <time>2018-04-15T07:58:45Z</time>
      </trkpt>
      <trkpt lat="44.408758655190468" lon="8.676776764914393">
        <ele>97.230000000000004</ele>
        <time>2018-04-15T07:58:49Z</time>
      </trkpt>
      <trkpt lat="44.408799223601818" lon="8.676718175411224">
        <ele>98.670000000000002</ele>
        <time>2018-04-15T07:58:56Z</time>
      </trkpt>
      <trkpt lat="44.408873319625854" lon="8.676770059391856">
        <ele>99.150000000000006</ele>
        <time>2018-04-15T07:59:06Z</time>
      </trkpt>
      <trkpt lat="44.40889217890799" lon="8.67678590118885">
        <ele>99.150000000000006</ele>
        <time>2018-04-15T07:59:09Z</time>
      </trkpt>
      <trkpt lat="44.408967364579439" lon="8.676880700513721">
        <ele>99.629999999999995</ele>
        <time>2018-04-15T07:59:20Z</time>
      </trkpt>
      <trkpt lat="44.409060319885612" lon="8.676981450989842">
        <ele>100.59999999999999</ele>
        <time>2018-04-15T07:59:33Z</time>
      </trkpt>
      <trkpt lat="44.409135337918997" lon="8.677063509821892">
        <ele>101.56</ele>
        <time>2018-04-15T07:59:43Z</time>
      </trkpt>
      <trkpt lat="44.409171715378761" lon="8.677091337740421">
        <ele>100.59999999999999</ele>
        <time>2018-04-15T07:59:48Z</time>
      </trkpt>
      <trkpt lat="44.409218737855554" lon="8.677088571712375">
        <ele>100.59999999999999</ele>
        <time>2018-04-15T07:59:53Z</time>
      </trkpt>
      <trkpt lat="44.409218821674585" lon="8.677084464579821">
        <ele>99.629999999999995</ele>
        <time>2018-04-15T07:59:55Z</time>
      </trkpt>
      <trkpt lat="44.409205745905638" lon="8.677101144567132">
        <ele>99.629999999999995</ele>
        <time>2018-04-15T08:00:17Z</time>
      </trkpt>
      <trkpt lat="44.409212954342365" lon="8.677118243649602">
        <ele>101.08</ele>
        <time>2018-04-15T08:00:30Z</time>
      </trkpt>
      <trkpt lat="44.409209936857224" lon="8.677116818726063">
        <ele>101.08</ele>
        <time>2018-04-15T08:00:44Z</time>
      </trkpt>
      <trkpt lat="44.409272465854883" lon="8.677071891725063">
        <ele>101.08</ele>
        <time>2018-04-15T08:00:51Z</time>
      </trkpt>
      <trkpt lat="44.409297779202461" lon="8.677072394639254">
        <ele>102.52</ele>
        <time>2018-04-15T08:00:53Z</time>
      </trkpt>
      <trkpt lat="44.409327115863562" lon="8.677071304991841">
        <ele>100.11</ele>
        <time>2018-04-15T08:00:56Z</time>
      </trkpt>
      <trkpt lat="44.409346897155046" lon="8.677070047706366">
        <ele>103</ele>
        <time>2018-04-15T08:00:58Z</time>
      </trkpt>
      <trkpt lat="44.409462064504623" lon="8.676999052986503">
        <ele>103</ele>
        <time>2018-04-15T08:01:09Z</time>
      </trkpt>
      <trkpt lat="44.409498022869229" lon="8.676971811801195">
        <ele>102.04000000000001</ele>
        <time>2018-04-15T08:01:13Z</time>
      </trkpt>
      <trkpt lat="44.409578153863549" lon="8.676885310560465">
        <ele>103</ele>
        <time>2018-04-15T08:01:23Z</time>
      </trkpt>
      <trkpt lat="44.409680832177401" lon="8.676846669986844">
        <ele>104.44</ele>
        <time>2018-04-15T08:01:35Z</time>
      </trkpt>
      <trkpt lat="44.409793568775058" lon="8.676832672208548">
        <ele>103</ele>
        <time>2018-04-15T08:01:46Z</time>
      </trkpt>
      <trkpt lat="44.409871269017458" lon="8.676840215921402">
        <ele>105.40000000000001</ele>
        <time>2018-04-15T08:01:56Z</time>
      </trkpt>
      <trkpt lat="44.409978892654181" lon="8.676831079646945">
        <ele>106.36</ele>
        <time>2018-04-15T08:02:05Z</time>
      </trkpt>
      <trkpt lat="44.410100262612104" lon="8.676841221749783">
        <ele>106.84</ele>
        <time>2018-04-15T08:02:16Z</time>
      </trkpt>
      <trkpt lat="44.410184919834137" lon="8.676910037174821">
        <ele>107.31999999999999</ele>
        <time>2018-04-15T08:02:26Z</time>
      </trkpt>
      <trkpt lat="44.410195481032133" lon="8.676949599757791">
        <ele>107.81</ele>
        <time>2018-04-15T08:02:37Z</time>
      </trkpt>
      <trkpt lat="44.410231858491898" lon="8.677026797086">
        <ele>107.81</ele>
        <time>2018-04-15T08:02:46Z</time>
      </trkpt>
      <trkpt lat="44.410265637561679" lon="8.677090080454946">
        <ele>109.73</ele>
        <time>2018-04-15T08:02:55Z</time>
      </trkpt>
      <trkpt lat="44.410346020013094" lon="8.677142048254609">
        <ele>110.69</ele>
        <time>2018-04-15T08:03:06Z</time>
      </trkpt>
      <trkpt lat="44.410353479906917" lon="8.67714112624526">
        <ele>111.17</ele>
        <time>2018-04-15T08:03:07Z</time>
      </trkpt>
      <trkpt lat="44.410473927855492" lon="8.677125703543425">
        <ele>112.13</ele>
        <time>2018-04-15T08:03:21Z</time>
      </trkpt>
      <trkpt lat="44.410521285608411" lon="8.677119081839919">
        <ele>113.09</ele>
        <time>2018-04-15T08:03:27Z</time>
      </trkpt>
      <trkpt lat="44.410620778799057" lon="8.677010955289006">
        <ele>112.61</ele>
        <time>2018-04-15T08:03:40Z</time>
      </trkpt>
      <trkpt lat="44.410685990005732" lon="8.676918502897024">
        <ele>112.13</ele>
        <time>2018-04-15T08:03:51Z</time>
      </trkpt>
      <trkpt lat="44.410748519003391" lon="8.676804257556796">
        <ele>112.61</ele>
        <time>2018-04-15T08:04:03Z</time>
      </trkpt>
      <trkpt lat="44.41076947376132" lon="8.676707446575165">
        <ele>113.56999999999999</ele>
        <time>2018-04-15T08:04:14Z</time>
      </trkpt>
      <trkpt lat="44.41078020259738" lon="8.676638547331095">
        <ele>113.56999999999999</ele>
        <time>2018-04-15T08:04:25Z</time>
      </trkpt>
      <trkpt lat="44.410799564793706" lon="8.676551710814238">
        <ele>114.53</ele>
        <time>2018-04-15T08:04:36Z</time>
      </trkpt>
      <trkpt lat="44.410810880362988" lon="8.676511477679014">
        <ele>114.05</ele>
        <time>2018-04-15T08:04:40Z</time>
      </trkpt>
      <trkpt lat="44.410794703289866" lon="8.676390610635281">
        <ele>114.53</ele>
        <time>2018-04-15T08:04:53Z</time>
      </trkpt>
      <trkpt lat="44.410742819309235" lon="8.676411984488368">
        <ele>115.5</ele>
        <time>2018-04-15T08:05:04Z</time>
      </trkpt>
      <trkpt lat="44.410727731883526" lon="8.676504017785192">
        <ele>116.45999999999999</ele>
        <time>2018-04-15T08:05:15Z</time>
      </trkpt>
      <trkpt lat="44.410707447677851" lon="8.676552129909396">
        <ele>116.94</ele>
        <time>2018-04-15T08:05:22Z</time>
      </trkpt>
      <trkpt lat="44.410639302805066" lon="8.676667464897037">
        <ele>117.90000000000001</ele>
        <time>2018-04-15T08:05:33Z</time>
      </trkpt>
      <trkpt lat="44.410536289215088" lon="8.67669646628201">
        <ele>118.86</ele>
        <time>2018-04-15T08:05:44Z</time>
      </trkpt>
      <trkpt lat="44.410422379150987" lon="8.676698226481676">
        <ele>118.86</ele>
        <time>2018-04-15T08:05:56Z</time>
      </trkpt>
      <trkpt lat="44.410403603687882" lon="8.676693448796868">
        <ele>119.81999999999999</ele>
        <time>2018-04-15T08:05:58Z</time>
      </trkpt>
      <trkpt lat="44.410314671695232" lon="8.676679953932762">
        <ele>120.78</ele>
        <time>2018-04-15T08:06:07Z</time>
      </trkpt>
      <trkpt lat="44.410228757187724" lon="8.67665640078485">
        <ele>121.73999999999999</ele>
        <time>2018-04-15T08:06:17Z</time>
      </trkpt>
      <trkpt lat="44.410153906792402" lon="8.676617927849293">
        <ele>121.73999999999999</ele>
        <time>2018-04-15T08:06:28Z</time>
      </trkpt>
      <trkpt lat="44.41014644689858" lon="8.676612814888358">
        <ele>122.22</ele>
        <time>2018-04-15T08:06:29Z</time>
      </trkpt>
      <trkpt lat="44.410124151036143" lon="8.676592782139778">
        <ele>122.22</ele>
        <time>2018-04-15T08:06:32Z</time>
      </trkpt>
      <trkpt lat="44.410087857395411" lon="8.676563277840614">
        <ele>123.67</ele>
        <time>2018-04-15T08:06:37Z</time>
      </trkpt>
      <trkpt lat="44.410014348104596" lon="8.676529666408896">
        <ele>123.19</ele>
        <time>2018-04-15T08:06:47Z</time>
      </trkpt>
      <trkpt lat="44.409939832985401" lon="8.676500748842955">
        <ele>123.19</ele>
        <time>2018-04-15T08:06:56Z</time>
      </trkpt>
      <trkpt lat="44.409869592636824" lon="8.676494797691703">
        <ele>124.15000000000001</ele>
        <time>2018-04-15T08:07:07Z</time>
      </trkpt>
      <trkpt lat="44.409787617623806" lon="8.676490690559149">
        <ele>125.11</ele>
        <time>2018-04-15T08:07:17Z</time>
      </trkpt>
      <trkpt lat="44.409706899896264" lon="8.676498234272003">
        <ele>125.59</ele>
        <time>2018-04-15T08:07:27Z</time>
      </trkpt>
      <trkpt lat="44.409634983167052" lon="8.676518183201551">
        <ele>125.59</ele>
        <time>2018-04-15T08:07:37Z</time>
      </trkpt>
      <trkpt lat="44.409543704241514" lon="8.676541903987527">
        <ele>126.06999999999999</ele>
        <time>2018-04-15T08:07:47Z</time>
      </trkpt>
      <trkpt lat="44.409522581845522" lon="8.676543245092034">
        <ele>126.06999999999999</ele>
        <time>2018-04-15T08:07:49Z</time>
      </trkpt>
      <trkpt lat="44.409420574083924" lon="8.676576185971499">
        <ele>128.47</ele>
        <time>2018-04-15T08:08:01Z</time>
      </trkpt>
      <trkpt lat="44.409370953217149" lon="8.676600493490696">
        <ele>127.51000000000001</ele>
        <time>2018-04-15T08:08:10Z</time>
      </trkpt>
      <trkpt lat="44.40933583304286" lon="8.676595380529761">
        <ele>128.94999999999999</ele>
        <time>2018-04-15T08:08:16Z</time>
      </trkpt>
      <trkpt lat="44.409341113641858" lon="8.676601834595203">
        <ele>129.43000000000001</ele>
        <time>2018-04-15T08:08:23Z</time>
      </trkpt>
      <trkpt lat="44.409363996237516" lon="8.676603762432933">
        <ele>127.51000000000001</ele>
        <time>2018-04-15T08:08:44Z</time>
      </trkpt>
      <trkpt lat="44.409314710646868" lon="8.676561936736107">
        <ele>127.03</ele>
        <time>2018-04-15T08:08:57Z</time>
      </trkpt>
      <trkpt lat="44.409293839707971" lon="8.676546765491366">
        <ele>127.03</ele>
        <time>2018-04-15T08:09:01Z</time>
      </trkpt>
      <trkpt lat="44.40923223271966" lon="8.676515584811568">
        <ele>127.51000000000001</ele>
        <time>2018-04-15T08:09:11Z</time>
      </trkpt>
      <trkpt lat="44.409203231334686" lon="8.676477866247296">
        <ele>127.51000000000001</ele>
        <time>2018-04-15T08:09:20Z</time>
      </trkpt>
      <trkpt lat="44.409225778654218" lon="8.676467221230269">
        <ele>128.94999999999999</ele>
        <time>2018-04-15T08:09:31Z</time>
      </trkpt>
      <trkpt lat="44.409238686785102" lon="8.67647903971374">
        <ele>127.98999999999999</ele>
        <time>2018-04-15T08:09:44Z</time>
      </trkpt>
      <trkpt lat="44.409222677350044" lon="8.676498737186194">
        <ele>127.51000000000001</ele>
        <time>2018-04-15T08:09:50Z</time>
      </trkpt>
      <trkpt lat="44.409183952957392" lon="8.676484320312738">
        <ele>127.03</ele>
        <time>2018-04-15T08:10:01Z</time>
      </trkpt>
      <trkpt lat="44.409184623509645" lon="8.676479626446962">
        <ele>126.55</ele>
        <time>2018-04-15T08:10:03Z</time>
      </trkpt>
      <trkpt lat="44.409113293513656" lon="8.676396729424596">
        <ele>127.03</ele>
        <time>2018-04-15T08:10:15Z</time>
      </trkpt>
      <trkpt lat="44.409061158075929" lon="8.676344593986869">
        <ele>127.98999999999999</ele>
        <time>2018-04-15T08:10:25Z</time>
      </trkpt>
      <trkpt lat="44.409013465046883" lon="8.676291201263666">
        <ele>127.98999999999999</ele>
        <time>2018-04-15T08:10:32Z</time>
      </trkpt>
      <trkpt lat="44.408933166414499" lon="8.676175279542804">
        <ele>127.98999999999999</ele>
        <time>2018-04-15T08:10:45Z</time>
      </trkpt>
      <trkpt lat="44.408923191949725" lon="8.67615164257586">
        <ele>129.43000000000001</ele>
        <time>2018-04-15T08:10:48Z</time>
      </trkpt>
      <trkpt lat="44.408896453678608" lon="8.676058854907751">
        <ele>128.94999999999999</ele>
        <time>2018-04-15T08:10:56Z</time>
      </trkpt>
      <trkpt lat="44.40893123857677" lon="8.675916278734803">
        <ele>130.40000000000001</ele>
        <time>2018-04-15T08:11:08Z</time>
      </trkpt>
      <trkpt lat="44.408945655450225" lon="8.6758819129318">
        <ele>131.84</ele>
        <time>2018-04-15T08:11:11Z</time>
      </trkpt>
      <trkpt lat="44.408955546095967" lon="8.675849558785558">
        <ele>129.43000000000001</ele>
        <time>2018-04-15T08:11:14Z</time>
      </trkpt>
      <trkpt lat="44.40897817723453" lon="8.675796249881387">
        <ele>132.31999999999999</ele>
        <time>2018-04-15T08:11:19Z</time>
      </trkpt>
      <trkpt lat="44.408982954919338" lon="8.675785521045327">
        <ele>132.31999999999999</ele>
        <time>2018-04-15T08:11:20Z</time>
      </trkpt>
      <trkpt lat="44.4089884031564" lon="8.675776300951839">
        <ele>132.31999999999999</ele>
        <time>2018-04-15T08:11:21Z</time>
      </trkpt>
      <trkpt lat="44.409039784222841" lon="8.675803374499083">
        <ele>129.91999999999999</ele>
        <time>2018-04-15T08:11:30Z</time>
      </trkpt>
      <trkpt lat="44.409030983224511" lon="8.675913931801915">
        <ele>132.31999999999999</ele>
        <time>2018-04-15T08:11:40Z</time>
      </trkpt>
      <trkpt lat="44.409032827243209" lon="8.675926001742482">
        <ele>132.80000000000001</ele>
        <time>2018-04-15T08:11:41Z</time>
      </trkpt>
      <trkpt lat="44.409053530544043" lon="8.676036391407251">
        <ele>133.75999999999999</ele>
        <time>2018-04-15T08:11:50Z</time>
      </trkpt>
      <trkpt lat="44.409076580777764" lon="8.676114762201905">
        <ele>133.28</ele>
        <time>2018-04-15T08:11:57Z</time>
      </trkpt>
      <trkpt lat="44.409095859155059" lon="8.676167568191886">
        <ele>133.28</ele>
        <time>2018-04-15T08:12:01Z</time>
      </trkpt>
      <trkpt lat="44.409180684015155" lon="8.676297990605235">
        <ele>134.24000000000001</ele>
        <time>2018-04-15T08:12:14Z</time>
      </trkpt>
      <trkpt lat="44.409271292388439" lon="8.676348617300391">
        <ele>134.72</ele>
        <time>2018-04-15T08:12:26Z</time>
      </trkpt>
      <trkpt lat="44.409373551607132" lon="8.676378624513745">
        <ele>134.72</ele>
        <time>2018-04-15T08:12:37Z</time>
      </trkpt>
      <trkpt lat="44.409407833591104" lon="8.676365716382861">
        <ele>136.63999999999999</ele>
        <time>2018-04-15T08:12:41Z</time>
      </trkpt>
      <trkpt lat="44.409502130001783" lon="8.676344007253647">
        <ele>137.13</ele>
        <time>2018-04-15T08:12:52Z</time>
      </trkpt>
      <trkpt lat="44.409530628472567" lon="8.67633487097919">
        <ele>136.16</ele>
        <time>2018-04-15T08:12:55Z</time>
      </trkpt>
      <trkpt lat="44.409607574343681" lon="8.676295476034284">
        <ele>135.19999999999999</ele>
        <time>2018-04-15T08:13:05Z</time>
      </trkpt>
      <trkpt lat="44.409681754186749" lon="8.676259266212583">
        <ele>136.16</ele>
        <time>2018-04-15T08:13:15Z</time>
      </trkpt>
      <trkpt lat="44.409735230728984" lon="8.67625230923295">
        <ele>133.28</ele>
        <time>2018-04-15T08:13:21Z</time>
      </trkpt>
      <trkpt lat="44.409742690622807" lon="8.676251051947475">
        <ele>136.16</ele>
        <time>2018-04-15T08:13:22Z</time>
      </trkpt>
      <trkpt lat="44.409761969000101" lon="8.67624937556684">
        <ele>137.13</ele>
        <time>2018-04-15T08:13:24Z</time>
      </trkpt>
      <trkpt lat="44.409847045317292" lon="8.676228588446975">
        <ele>136.16</ele>
        <time>2018-04-15T08:13:34Z</time>
      </trkpt>
      <trkpt lat="44.409944778308272" lon="8.676215345039964">
        <ele>138.09</ele>
        <time>2018-04-15T08:13:45Z</time>
      </trkpt>
      <trkpt lat="44.41000621765852" lon="8.676220625638962">
        <ele>138.09</ele>
        <time>2018-04-15T08:13:52Z</time>
      </trkpt>
      <trkpt lat="44.410121971741319" lon="8.676241245120764">
        <ele>139.53</ele>
        <time>2018-04-15T08:14:05Z</time>
      </trkpt>
      <trkpt lat="44.41013915464282" lon="8.676241664215922">
        <ele>139.05000000000001</ele>
        <time>2018-04-15T08:14:07Z</time>
      </trkpt>
      <trkpt lat="44.410186931490898" lon="8.676237221807241">
        <ele>141.44999999999999</ele>
        <time>2018-04-15T08:14:12Z</time>
      </trkpt>
      <trkpt lat="44.410201348364353" lon="8.676242334768176">
        <ele>140.00999999999999</ele>
        <time>2018-04-15T08:14:14Z</time>
      </trkpt>
      <trkpt lat="44.410249963402748" lon="8.676253985613585">
        <ele>141.93000000000001</ele>
        <time>2018-04-15T08:14:19Z</time>
      </trkpt>
      <trkpt lat="44.410336297005415" lon="8.676254488527775">
        <ele>142.88999999999999</ele>
        <time>2018-04-15T08:14:28Z</time>
      </trkpt>
      <trkpt lat="44.410355910658836" lon="8.67625473998487">
        <ele>140.97</ele>
        <time>2018-04-15T08:14:30Z</time>
      </trkpt>
      <trkpt lat="44.410435538738966" lon="8.67623956874013">
        <ele>140.49000000000001</ele>
        <time>2018-04-15T08:14:39Z</time>
      </trkpt>
      <trkpt lat="44.410513155162334" lon="8.676148876547813">
        <ele>140.97</ele>
        <time>2018-04-15T08:14:50Z</time>
      </trkpt>
      <trkpt lat="44.410526650026441" lon="8.676130939275026">
        <ele>140.00999999999999</ele>
        <time>2018-04-15T08:14:52Z</time>
      </trkpt>
      <trkpt lat="44.410557663068175" lon="8.676022309809923">
        <ele>140.49000000000001</ele>
        <time>2018-04-15T08:15:02Z</time>
      </trkpt>
      <trkpt lat="44.410551711916924" lon="8.67599967867136">
        <ele>141.44999999999999</ele>
        <time>2018-04-15T08:15:04Z</time>
      </trkpt>
      <trkpt lat="44.41051340661943" lon="8.675996996462345">
        <ele>142.88999999999999</ele>
        <time>2018-04-15T08:15:09Z</time>
      </trkpt>
      <trkpt lat="44.410483315587044" lon="8.676033960655332">
        <ele>142.88999999999999</ele>
        <time>2018-04-15T08:15:14Z</time>
      </trkpt>
      <trkpt lat="44.410389773547649" lon="8.67610914632678">
        <ele>145.78</ele>
        <time>2018-04-15T08:15:26Z</time>
      </trkpt>
      <trkpt lat="44.410381894558668" lon="8.67611400783062">
        <ele>145.78</ele>
        <time>2018-04-15T08:15:27Z</time>
      </trkpt>
      <trkpt lat="44.410350630059838" lon="8.676125574856997">
        <ele>147.22</ele>
        <time>2018-04-15T08:15:31Z</time>
      </trkpt>
      <trkpt lat="44.410308133810759" lon="8.676138650625944">
        <ele>146.74000000000001</ele>
        <time>2018-04-15T08:15:36Z</time>
      </trkpt>
      <trkpt lat="44.410236049443483" lon="8.676150972023606">
        <ele>145.78</ele>
        <time>2018-04-15T08:15:43Z</time>
      </trkpt>
      <trkpt lat="44.410125408321619" lon="8.676133034750819">
        <ele>146.74000000000001</ele>
        <time>2018-04-15T08:15:55Z</time>
      </trkpt>
      <trkpt lat="44.410022562369704" lon="8.676118114963174">
        <ele>146.74000000000001</ele>
        <time>2018-04-15T08:16:06Z</time>
      </trkpt>
      <trkpt lat="44.409917118027806" lon="8.676102440804243">
        <ele>147.22</ele>
        <time>2018-04-15T08:16:17Z</time>
      </trkpt>
      <trkpt lat="44.409908065572381" lon="8.676100848242641">
        <ele>147.22</ele>
        <time>2018-04-15T08:16:18Z</time>
      </trkpt>
      <trkpt lat="44.409812008962035" lon="8.676087269559503">
        <ele>145.78</ele>
        <time>2018-04-15T08:16:28Z</time>
      </trkpt>
      <trkpt lat="44.409768087789416" lon="8.675987692549825">
        <ele>148.66</ele>
        <time>2018-04-15T08:16:40Z</time>
      </trkpt>
      <trkpt lat="44.40981418825686" lon="8.675984172150493">
        <ele>147.69999999999999</ele>
        <time>2018-04-15T08:16:46Z</time>
      </trkpt>
      <trkpt lat="44.409868502989411" lon="8.675999594852328">
        <ele>148.66</ele>
        <time>2018-04-15T08:16:53Z</time>
      </trkpt>
      <trkpt lat="44.409949472174048" lon="8.676005965098739">
        <ele>149.13999999999999</ele>
        <time>2018-04-15T08:17:02Z</time>
      </trkpt>
      <trkpt lat="44.410016192123294" lon="8.676012000069022">
        <ele>149.62</ele>
        <time>2018-04-15T08:17:09Z</time>
      </trkpt>
      <trkpt lat="44.410034129396081" lon="8.676016610115767">
        <ele>149.13999999999999</ele>
        <time>2018-04-15T08:17:11Z</time>
      </trkpt>
      <trkpt lat="44.410146279260516" lon="8.676008228212595">
        <ele>150.09999999999999</ele>
        <time>2018-04-15T08:17:24Z</time>
      </trkpt>
      <trkpt lat="44.410251975059509" lon="8.676009150221944">
        <ele>149.62</ele>
        <time>2018-04-15T08:17:35Z</time>
      </trkpt>
      <trkpt lat="44.410304110497236" lon="8.675994398072362">
        <ele>151.53999999999999</ele>
        <time>2018-04-15T08:17:41Z</time>
      </trkpt>
      <trkpt lat="44.410372255370021" lon="8.67594008333981">
        <ele>149.62</ele>
        <time>2018-04-15T08:17:50Z</time>
      </trkpt>
      <trkpt lat="44.410448698326945" lon="8.675852157175541">
        <ele>150.09999999999999</ele>
        <time>2018-04-15T08:18:01Z</time>
      </trkpt>
      <trkpt lat="44.410466803237796" lon="8.675820473581553">
        <ele>150.09999999999999</ele>
        <time>2018-04-15T08:18:04Z</time>
      </trkpt>
      <trkpt lat="44.410531595349312" lon="8.675702875480056">
        <ele>150.09999999999999</ele>
        <time>2018-04-15T08:18:15Z</time>
      </trkpt>
      <trkpt lat="44.410592196509242" lon="8.675587708130479">
        <ele>151.53999999999999</ele>
        <time>2018-04-15T08:18:26Z</time>
      </trkpt>
      <trkpt lat="44.410620024427772" lon="8.675531884655356">
        <ele>149.62</ele>
        <time>2018-04-15T08:18:32Z</time>
      </trkpt>
      <trkpt lat="44.410661263391376" lon="8.675430295988917">
        <ele>151.06</ele>
        <time>2018-04-15T08:18:42Z</time>
      </trkpt>
      <trkpt lat="44.410690180957317" lon="8.675307165831327">
        <ele>150.58000000000001</ele>
        <time>2018-04-15T08:18:53Z</time>
      </trkpt>
      <trkpt lat="44.410697724670172" lon="8.675195435062051">
        <ele>149.62</ele>
        <time>2018-04-15T08:19:04Z</time>
      </trkpt>
      <trkpt lat="44.410738879814744" lon="8.67503416724503">
        <ele>151.06</ele>
        <time>2018-04-15T08:19:15Z</time>
      </trkpt>
      <trkpt lat="44.410796714946628" lon="8.67491933517158">
        <ele>151.06</ele>
        <time>2018-04-15T08:19:26Z</time>
      </trkpt>
      <trkpt lat="44.410858657211065" lon="8.674793355166912">
        <ele>150.58000000000001</ele>
        <time>2018-04-15T08:19:37Z</time>
      </trkpt>
      <trkpt lat="44.410888664424419" lon="8.674671985208988">
        <ele>152.03</ele>
        <time>2018-04-15T08:19:47Z</time>
      </trkpt>
      <trkpt lat="44.410903165116906" lon="8.674630662426353">
        <ele>150.09999999999999</ele>
        <time>2018-04-15T08:19:50Z</time>
      </trkpt>
      <trkpt lat="44.410934261977673" lon="8.674493953585625">
        <ele>149.62</ele>
        <time>2018-04-15T08:20:02Z</time>
      </trkpt>
      <trkpt lat="44.410944236442447" lon="8.674448104575276">
        <ele>146.25999999999999</ele>
        <time>2018-04-15T08:20:06Z</time>
      </trkpt>
      <trkpt lat="44.410949097946286" lon="8.674437375739217">
        <ele>145.78</ele>
        <time>2018-04-15T08:20:07Z</time>
      </trkpt>
      <trkpt lat="44.41097809933126" lon="8.674400076270104">
        <ele>149.13999999999999</ele>
        <time>2018-04-15T08:20:12Z</time>
      </trkpt>
      <trkpt lat="44.410986145958304" lon="8.67438867688179">
        <ele>149.13999999999999</ele>
        <time>2018-04-15T08:20:13Z</time>
      </trkpt>
      <trkpt lat="44.411051440984011" lon="8.674288932234049">
        <ele>151.53999999999999</ele>
        <time>2018-04-15T08:20:24Z</time>
      </trkpt>
      <trkpt lat="44.411000562831759" lon="8.674271581694484">
        <ele>152.99000000000001</ele>
        <time>2018-04-15T08:20:36Z</time>
      </trkpt>
      <trkpt lat="44.410953121259809" lon="8.67433394305408">
        <ele>155.87</ele>
        <time>2018-04-15T08:20:45Z</time>
      </trkpt>
      <trkpt lat="44.410923700779676" lon="8.674387922510505">
        <ele>154.43000000000001</ele>
        <time>2018-04-15T08:20:52Z</time>
      </trkpt>
      <trkpt lat="44.410879444330931" lon="8.67444827221334">
        <ele>153.94999999999999</ele>
        <time>2018-04-15T08:20:59Z</time>
      </trkpt>
      <trkpt lat="44.41081490367651" lon="8.674567043781281">
        <ele>156.34999999999999</ele>
        <time>2018-04-15T08:21:13Z</time>
      </trkpt>
      <trkpt lat="44.410771653056145" lon="8.674640217795968">
        <ele>159.24000000000001</ele>
        <time>2018-04-15T08:21:20Z</time>
      </trkpt>
      <trkpt lat="44.410707196220756" lon="8.674766281619668">
        <ele>158.75</ele>
        <time>2018-04-15T08:21:30Z</time>
      </trkpt>
      <trkpt lat="44.410609379410744" lon="8.674858901649714">
        <ele>159.24000000000001</ele>
        <time>2018-04-15T08:21:41Z</time>
      </trkpt>
      <trkpt lat="44.410503599792719" lon="8.674923107028008">
        <ele>161.63999999999999</ele>
        <time>2018-04-15T08:21:54Z</time>
      </trkpt>
      <trkpt lat="44.410457750782371" lon="8.675022935494781">
        <ele>161.16</ele>
        <time>2018-04-15T08:22:03Z</time>
      </trkpt>
      <trkpt lat="44.410426653921604" lon="8.675134163349867">
        <ele>161.16</ele>
        <time>2018-04-15T08:22:12Z</time>
      </trkpt>
      <trkpt lat="44.410447357222438" lon="8.675294341519475">
        <ele>160.68000000000001</ele>
        <time>2018-04-15T08:22:24Z</time>
      </trkpt>
      <trkpt lat="44.410461690276861" lon="8.675336502492428">
        <ele>165.47999999999999</ele>
        <time>2018-04-15T08:22:27Z</time>
      </trkpt>
      <trkpt lat="44.410462863743305" lon="8.675358714535832">
        <ele>165.47999999999999</ele>
        <time>2018-04-15T08:22:29Z</time>
      </trkpt>
      <trkpt lat="44.41045381128788" lon="8.675416968762875">
        <ele>168.84999999999999</ele>
        <time>2018-04-15T08:22:33Z</time>
      </trkpt>
      <trkpt lat="44.410440316423774" lon="8.675438845530152">
        <ele>170.28999999999999</ele>
        <time>2018-04-15T08:22:35Z</time>
      </trkpt>
      <trkpt lat="44.410329591482878" lon="8.675550324842334">
        <ele>172.21000000000001</ele>
        <time>2018-04-15T08:22:47Z</time>
      </trkpt>
      <trkpt lat="44.410193134099245" lon="8.675607405602932">
        <ele>172.21000000000001</ele>
        <time>2018-04-15T08:23:00Z</time>
      </trkpt>
      <trkpt lat="44.410174442455173" lon="8.675611596554518">
        <ele>176.53999999999999</ele>
        <time>2018-04-15T08:23:02Z</time>
      </trkpt>
      <trkpt lat="44.410153152421117" lon="8.675613775849342">
        <ele>177.5</ele>
        <time>2018-04-15T08:23:04Z</time>
      </trkpt>
      <trkpt lat="44.410132449120283" lon="8.675616960972548">
        <ele>175.58000000000001</ele>
        <time>2018-04-15T08:23:06Z</time>
      </trkpt>
      <trkpt lat="44.410047037526965" lon="8.675622744485736">
        <ele>175.09999999999999</ele>
        <time>2018-04-15T08:23:14Z</time>
      </trkpt>
      <trkpt lat="44.409920470789075" lon="8.675605729222298">
        <ele>176.06</ele>
        <time>2018-04-15T08:23:27Z</time>
      </trkpt>
      <trkpt lat="44.409854086115956" lon="8.67561855353415">
        <ele>176.06</ele>
        <time>2018-04-15T08:23:38Z</time>
      </trkpt>
      <trkpt lat="44.409807482734323" lon="8.67556675337255">
        <ele>177.5</ele>
        <time>2018-04-15T08:23:47Z</time>
      </trkpt>
      <trkpt lat="44.409777140244842" lon="8.675481425598264">
        <ele>175.09999999999999</ele>
        <time>2018-04-15T08:23:53Z</time>
      </trkpt>
      <trkpt lat="44.409781415015459" lon="8.675409676507115">
        <ele>178.46000000000001</ele>
        <time>2018-04-15T08:23:58Z</time>
      </trkpt>
      <trkpt lat="44.409792646765709" lon="8.675372460857034">
        <ele>176.06</ele>
        <time>2018-04-15T08:24:01Z</time>
      </trkpt>
      <trkpt lat="44.409807063639164" lon="8.675330383703113">
        <ele>178.94</ele>
        <time>2018-04-15T08:24:04Z</time>
      </trkpt>
      <trkpt lat="44.409886943176389" lon="8.675149669870734">
        <ele>179.41999999999999</ele>
        <time>2018-04-15T08:24:18Z</time>
      </trkpt>
      <trkpt lat="44.409962967038155" lon="8.675058307126164">
        <ele>178.46000000000001</ele>
        <time>2018-04-15T08:24:29Z</time>
      </trkpt>
      <trkpt lat="44.409983837977052" lon="8.675036681815982">
        <ele>178.46000000000001</ele>
        <time>2018-04-15T08:24:32Z</time>
      </trkpt>
      <trkpt lat="44.41001015715301" lon="8.675005501136184">
        <ele>178.46000000000001</ele>
        <time>2018-04-15T08:24:36Z</time>
      </trkpt>
      <trkpt lat="44.410039242357016" lon="8.674966190010309">
        <ele>178.94</ele>
        <time>2018-04-15T08:24:40Z</time>
      </trkpt>
      <trkpt lat="44.410084169358015" lon="8.674918496981263">
        <ele>178.94</ele>
        <time>2018-04-15T08:24:46Z</time>
      </trkpt>
      <trkpt lat="44.410148710012436" lon="8.674774579703808">
        <ele>178.46000000000001</ele>
        <time>2018-04-15T08:24:59Z</time>
      </trkpt>
      <trkpt lat="44.41016941331327" lon="8.67468573153019">
        <ele>182.31</ele>
        <time>2018-04-15T08:25:07Z</time>
      </trkpt>
      <trkpt lat="44.410171760246158" lon="8.674673158675432">
        <ele>182.31</ele>
        <time>2018-04-15T08:25:08Z</time>
      </trkpt>
      <trkpt lat="44.410164803266525" lon="8.674598978832364">
        <ele>181.34999999999999</ele>
        <time>2018-04-15T08:25:14Z</time>
      </trkpt>
      <trkpt lat="44.41016354598105" lon="8.674566457048059">
        <ele>182.78999999999999</ele>
        <time>2018-04-15T08:25:17Z</time>
      </trkpt>
      <trkpt lat="44.410203192383051" lon="8.674464952200651">
        <ele>182.78999999999999</ele>
        <time>2018-04-15T08:25:27Z</time>
      </trkpt>
      <trkpt lat="44.410276366397738" lon="8.674489092081785">
        <ele>180.87</ele>
        <time>2018-04-15T08:25:38Z</time>
      </trkpt>
      <trkpt lat="44.410358844324946" lon="8.674566121771932">
        <ele>179.41999999999999</ele>
        <time>2018-04-15T08:25:50Z</time>
      </trkpt>
      <trkpt lat="44.410442244261503" lon="8.674496049061418">
        <ele>179.41999999999999</ele>
        <time>2018-04-15T08:26:03Z</time>
      </trkpt>
      <trkpt lat="44.410499995574355" lon="8.674387503415346">
        <ele>179.90000000000001</ele>
        <time>2018-04-15T08:26:16Z</time>
      </trkpt>
      <trkpt lat="44.410540563985705" lon="8.674273174256086">
        <ele>179.41999999999999</ele>
        <time>2018-04-15T08:26:27Z</time>
      </trkpt>
      <trkpt lat="44.410579204559326" lon="8.674167562276125">
        <ele>177.5</ele>
        <time>2018-04-15T08:26:39Z</time>
      </trkpt>
      <trkpt lat="44.41058624535799" lon="8.674144092947245">
        <ele>176.53999999999999</ele>
        <time>2018-04-15T08:26:41Z</time>
      </trkpt>
      <trkpt lat="44.410630837082863" lon="8.674030182883143">
        <ele>176.53999999999999</ele>
        <time>2018-04-15T08:26:52Z</time>
      </trkpt>
      <trkpt lat="44.410678530111909" lon="8.673932030797005">
        <ele>176.06</ele>
        <time>2018-04-15T08:27:02Z</time>
      </trkpt>
      <trkpt lat="44.410679787397385" lon="8.673925409093499">
        <ele>176.53999999999999</ele>
        <time>2018-04-15T08:27:03Z</time>
      </trkpt>
      <trkpt lat="44.410704178735614" lon="8.673850726336241">
        <ele>175.58000000000001</ele>
        <time>2018-04-15T08:27:11Z</time>
      </trkpt>
      <trkpt lat="44.41073183901608" lon="8.673789706081152">
        <ele>179.41999999999999</ele>
        <time>2018-04-15T08:27:17Z</time>
      </trkpt>
      <trkpt lat="44.410734269768" lon="8.673779731616378">
        <ele>178.46000000000001</ele>
        <time>2018-04-15T08:27:18Z</time>
      </trkpt>
      <trkpt lat="44.410781795158982" lon="8.673655176535249">
        <ele>179.41999999999999</ele>
        <time>2018-04-15T08:27:31Z</time>
      </trkpt>
      <trkpt lat="44.410786153748631" lon="8.673638664186001">
        <ele>177.97999999999999</ele>
        <time>2018-04-15T08:27:34Z</time>
      </trkpt>
      <trkpt lat="44.41080903634429" lon="8.673566915094852">
        <ele>179.90000000000001</ele>
        <time>2018-04-15T08:27:44Z</time>
      </trkpt>
      <trkpt lat="44.410899812355638" lon="8.673482341691852">
        <ele>180.87</ele>
        <time>2018-04-15T08:27:55Z</time>
      </trkpt>
      <trkpt lat="44.410935854539275" lon="8.673393577337265">
        <ele>180.38</ele>
        <time>2018-04-15T08:28:06Z</time>
      </trkpt>
      <trkpt lat="44.410954127088189" lon="8.673309925943613">
        <ele>180.87</ele>
        <time>2018-04-15T08:28:16Z</time>
      </trkpt>
      <trkpt lat="44.410945242270827" lon="8.673275057226419">
        <ele>182.78999999999999</ele>
        <time>2018-04-15T08:28:19Z</time>
      </trkpt>
      <trkpt lat="44.41096150316298" lon="8.673183359205723">
        <ele>182.31</ele>
        <time>2018-04-15T08:28:30Z</time>
      </trkpt>
      <trkpt lat="44.411011040210724" lon="8.673085290938616">
        <ele>183.75</ele>
        <time>2018-04-15T08:28:40Z</time>
      </trkpt>
      <trkpt lat="44.41105236299336" lon="8.673079926520586">
        <ele>183.75</ele>
        <time>2018-04-15T08:28:46Z</time>
      </trkpt>
      <trkpt lat="44.411136182025075" lon="8.673072634264827">
        <ele>182.78999999999999</ele>
        <time>2018-04-15T08:28:57Z</time>
      </trkpt>
      <trkpt lat="44.411182785406709" lon="8.673136672005057">
        <ele>184.71000000000001</ele>
        <time>2018-04-15T08:29:04Z</time>
      </trkpt>
      <trkpt lat="44.411198459565639" lon="8.673171456903219">
        <ele>183.27000000000001</ele>
        <time>2018-04-15T08:29:07Z</time>
      </trkpt>
      <trkpt lat="44.411224108189344" lon="8.673214791342616">
        <ele>184.22999999999999</ele>
        <time>2018-04-15T08:29:11Z</time>
      </trkpt>
      <trkpt lat="44.411327792331576" lon="8.673232644796372">
        <ele>185.19</ele>
        <time>2018-04-15T08:29:23Z</time>
      </trkpt>
      <trkpt lat="44.41135729663074" lon="8.673229124397039">
        <ele>184.22999999999999</ele>
        <time>2018-04-15T08:29:27Z</time>
      </trkpt>
      <trkpt lat="44.411378670483828" lon="8.673223424702883">
        <ele>185.66999999999999</ele>
        <time>2018-04-15T08:29:30Z</time>
      </trkpt>
      <trkpt lat="44.411403145641088" lon="8.673197943717241">
        <ele>185.19</ele>
        <time>2018-04-15T08:29:34Z</time>
      </trkpt>
      <trkpt lat="44.41145796328783" lon="8.673148406669498">
        <ele>186.15000000000001</ele>
        <time>2018-04-15T08:29:41Z</time>
      </trkpt>
      <trkpt lat="44.411495262756944" lon="8.673119740560651">
        <ele>187.59</ele>
        <time>2018-04-15T08:29:46Z</time>
      </trkpt>
      <trkpt lat="44.411565754562616" lon="8.673083363100886">
        <ele>183.75</ele>
        <time>2018-04-15T08:29:54Z</time>
      </trkpt>
      <trkpt lat="44.411572627723217" lon="8.673082105815411">
        <ele>183.75</ele>
        <time>2018-04-15T08:29:55Z</time>
      </trkpt>
      <trkpt lat="44.411580841988325" lon="8.673076070845127">
        <ele>188.08000000000001</ele>
        <time>2018-04-15T08:29:57Z</time>
      </trkpt>
      <trkpt lat="44.411647897213697" lon="8.67306006141007">
        <ele>187.59</ele>
        <time>2018-04-15T08:30:06Z</time>
      </trkpt>
      <trkpt lat="44.411716377362609" lon="8.67299560457468">
        <ele>189.52000000000001</ele>
        <time>2018-04-15T08:30:15Z</time>
      </trkpt>
      <trkpt lat="44.411743031814694" lon="8.672984959557653">
        <ele>189.03999999999999</ele>
        <time>2018-04-15T08:30:18Z</time>
      </trkpt>
      <trkpt lat="44.411785444244742" lon="8.672950174659491">
        <ele>189.52000000000001</ele>
        <time>2018-04-15T08:30:24Z</time>
      </trkpt>
      <trkpt lat="44.411792736500502" lon="8.672943636775017">
        <ele>189.52000000000001</ele>
        <time>2018-04-15T08:30:25Z</time>
      </trkpt>
      <trkpt lat="44.411887200549245" lon="8.672887478023768">
        <ele>190.47999999999999</ele>
        <time>2018-04-15T08:30:36Z</time>
      </trkpt>
      <trkpt lat="44.411922404542565" lon="8.672854537144303">
        <ele>189.03999999999999</ele>
        <time>2018-04-15T08:30:42Z</time>
      </trkpt>
      <trkpt lat="44.41191821359098" lon="8.672814974561334">
        <ele>190</ele>
        <time>2018-04-15T08:30:50Z</time>
      </trkpt>
      <trkpt lat="44.41188795492053" lon="8.67283190600574">
        <ele>191.44</ele>
        <time>2018-04-15T08:30:56Z</time>
      </trkpt>
      <trkpt lat="44.411865994334221" lon="8.672835426405072">
        <ele>191.44</ele>
        <time>2018-04-15T08:30:59Z</time>
      </trkpt>
      <trkpt lat="44.411850236356258" lon="8.672842131927609">
        <ele>190.96000000000001</ele>
        <time>2018-04-15T08:31:01Z</time>
      </trkpt>
      <trkpt lat="44.41183271817863" lon="8.672852693125606">
        <ele>189.52000000000001</ele>
        <time>2018-04-15T08:31:03Z</time>
      </trkpt>
      <trkpt lat="44.411819307133555" lon="8.67286610417068">
        <ele>190.47999999999999</ele>
        <time>2018-04-15T08:31:05Z</time>
      </trkpt>
      <trkpt lat="44.411748312413692" lon="8.672887142747641">
        <ele>191.44</ele>
        <time>2018-04-15T08:31:14Z</time>
      </trkpt>
      <trkpt lat="44.411731380969286" lon="8.672897787764669">
        <ele>191.91999999999999</ele>
        <time>2018-04-15T08:31:16Z</time>
      </trkpt>
      <trkpt lat="44.411640521138906" lon="8.672925196588039">
        <ele>192.40000000000001</ele>
        <time>2018-04-15T08:31:26Z</time>
      </trkpt>
      <trkpt lat="44.411543123424053" lon="8.672943720594049">
        <ele>193.36000000000001</ele>
        <time>2018-04-15T08:31:37Z</time>
      </trkpt>
      <trkpt lat="44.411450000479817" lon="8.672951264306903">
        <ele>193.36000000000001</ele>
        <time>2018-04-15T08:31:47Z</time>
      </trkpt>
      <trkpt lat="44.411430219188333" lon="8.672949504107237">
        <ele>194.31999999999999</ele>
        <time>2018-04-15T08:31:50Z</time>
      </trkpt>
      <trkpt lat="44.411326618865132" lon="8.672930058091879">
        <ele>195.77000000000001</ele>
        <time>2018-04-15T08:32:02Z</time>
      </trkpt>
      <trkpt lat="44.411247158423066" lon="8.672879515215755">
        <ele>197.21000000000001</ele>
        <time>2018-04-15T08:32:13Z</time>
      </trkpt>
      <trkpt lat="44.411149173974991" lon="8.672816734761">
        <ele>196.72999999999999</ele>
        <time>2018-04-15T08:32:25Z</time>
      </trkpt>
      <trkpt lat="44.411047082394361" lon="8.672790583223105">
        <ele>196.25</ele>
        <time>2018-04-15T08:32:38Z</time>
      </trkpt>
      <trkpt lat="44.411037946119905" lon="8.672777926549316">
        <ele>197.21000000000001</ele>
        <time>2018-04-15T08:32:40Z</time>
      </trkpt>
      <trkpt lat="44.410982709378004" lon="8.672687234356999">
        <ele>198.16999999999999</ele>
        <time>2018-04-15T08:32:52Z</time>
      </trkpt>
      <trkpt lat="44.410910876467824" lon="8.672650521621108">
        <ele>199.61000000000001</ele>
        <time>2018-04-15T08:33:02Z</time>
      </trkpt>
      <trkpt lat="44.410859998315573" lon="8.672688910737634">
        <ele>199.61000000000001</ele>
        <time>2018-04-15T08:33:12Z</time>
      </trkpt>
      <trkpt lat="44.410737119615078" lon="8.672743728384376">
        <ele>202.00999999999999</ele>
        <time>2018-04-15T08:33:23Z</time>
      </trkpt>
      <trkpt lat="44.410718427971005" lon="8.672772143036127">
        <ele>202.00999999999999</ele>
        <time>2018-04-15T08:33:27Z</time>
      </trkpt>
      <trkpt lat="44.410707531496882" lon="8.672792343422771">
        <ele>202.97999999999999</ele>
        <time>2018-04-15T08:33:29Z</time>
      </trkpt>
      <trkpt lat="44.41064290702343" lon="8.672903152182698">
        <ele>202.00999999999999</ele>
        <time>2018-04-15T08:33:41Z</time>
      </trkpt>
      <trkpt lat="44.410598650574684" lon="8.672924442216754">
        <ele>204.90000000000001</ele>
        <time>2018-04-15T08:33:45Z</time>
      </trkpt>
      <trkpt lat="44.41056570969522" lon="8.672967106103897">
        <ele>203.94</ele>
        <time>2018-04-15T08:33:50Z</time>
      </trkpt>
      <trkpt lat="44.410504270344973" lon="8.673062743619084">
        <ele>206.34</ele>
        <time>2018-04-15T08:34:00Z</time>
      </trkpt>
      <trkpt lat="44.410408968105912" lon="8.673131726682186">
        <ele>208.25999999999999</ele>
        <time>2018-04-15T08:34:12Z</time>
      </trkpt>
      <trkpt lat="44.410310313105583" lon="8.673126362264156">
        <ele>208.74000000000001</ele>
        <time>2018-04-15T08:34:25Z</time>
      </trkpt>
      <trkpt lat="44.410308972001076" lon="8.673127116635442">
        <ele>209.22</ele>
        <time>2018-04-15T08:34:26Z</time>
      </trkpt>
      <trkpt lat="44.410280976444483" lon="8.673167349770665">
        <ele>210.19</ele>
        <time>2018-04-15T08:34:36Z</time>
      </trkpt>
      <trkpt lat="44.410231104120612" lon="8.673202972859144">
        <ele>211.63</ele>
        <time>2018-04-15T08:34:43Z</time>
      </trkpt>
      <trkpt lat="44.410146279260516" lon="8.673179000616074">
        <ele>213.06999999999999</ele>
        <time>2018-04-15T08:34:54Z</time>
      </trkpt>
      <trkpt lat="44.410126246511936" lon="8.673149077221751">
        <ele>214.03</ele>
        <time>2018-04-15T08:34:58Z</time>
      </trkpt>
      <trkpt lat="44.410111242905259" lon="8.673057714477181">
        <ele>214.99000000000001</ele>
        <time>2018-04-15T08:35:08Z</time>
      </trkpt>
      <trkpt lat="44.410104202106595" lon="8.672984624281526">
        <ele>215.94999999999999</ele>
        <time>2018-04-15T08:35:19Z</time>
      </trkpt>
      <trkpt lat="44.410094646736979" lon="8.672904409468174">
        <ele>219.31999999999999</ele>
        <time>2018-04-15T08:35:29Z</time>
      </trkpt>
      <trkpt lat="44.410083247348666" lon="8.672836180776358">
        <ele>219.31999999999999</ele>
        <time>2018-04-15T08:35:39Z</time>
      </trkpt>
      <trkpt lat="44.410074865445495" lon="8.672768790274859">
        <ele>220.75999999999999</ele>
        <time>2018-04-15T08:35:48Z</time>
      </trkpt>
      <trkpt lat="44.410074111074209" lon="8.672684049233794">
        <ele>221.24000000000001</ele>
        <time>2018-04-15T08:35:57Z</time>
      </trkpt>
      <trkpt lat="44.410064304247499" lon="8.672601990401745">
        <ele>222.68000000000001</ele>
        <time>2018-04-15T08:36:06Z</time>
      </trkpt>
      <trkpt lat="44.410067405551672" lon="8.672477854415774">
        <ele>224.12</ele>
        <time>2018-04-15T08:36:17Z</time>
      </trkpt>
      <trkpt lat="44.410101687535644" lon="8.672388084232807">
        <ele>224.61000000000001</ele>
        <time>2018-04-15T08:36:26Z</time>
      </trkpt>
      <trkpt lat="44.410114260390401" lon="8.672374505549669">
        <ele>225.09</ele>
        <time>2018-04-15T08:36:29Z</time>
      </trkpt>
      <trkpt lat="44.410126497969031" lon="8.672319939360023">
        <ele>224.61000000000001</ele>
        <time>2018-04-15T08:36:34Z</time>
      </trkpt>
      <trkpt lat="44.410125492140651" lon="8.672298649325967">
        <ele>224.61000000000001</ele>
        <time>2018-04-15T08:36:36Z</time>
      </trkpt>
      <trkpt lat="44.41013571806252" lon="8.672249699011445">
        <ele>226.05000000000001</ele>
        <time>2018-04-15T08:36:40Z</time>
      </trkpt>
      <trkpt lat="44.410179303959012" lon="8.672153642401099">
        <ele>226.53</ele>
        <time>2018-04-15T08:36:50Z</time>
      </trkpt>
      <trkpt lat="44.410203360021114" lon="8.672039145603776">
        <ele>226.05000000000001</ele>
        <time>2018-04-15T08:37:01Z</time>
      </trkpt>
      <trkpt lat="44.410204282030463" lon="8.671998744830489">
        <ele>227.49000000000001</ele>
        <time>2018-04-15T08:37:05Z</time>
      </trkpt>
      <trkpt lat="44.410244347527623" lon="8.671864215284586">
        <ele>228.44999999999999</ele>
        <time>2018-04-15T08:37:18Z</time>
      </trkpt>
      <trkpt lat="44.410303356125951" lon="8.671808978542686">
        <ele>228.93000000000001</ele>
        <time>2018-04-15T08:37:29Z</time>
      </trkpt>
      <trkpt lat="44.410344678908587" lon="8.67176472209394">
        <ele>230.84999999999999</ele>
        <time>2018-04-15T08:37:38Z</time>
      </trkpt>
      <trkpt lat="44.410380888730288" lon="8.671700097620487">
        <ele>232.30000000000001</ele>
        <time>2018-04-15T08:37:48Z</time>
      </trkpt>
      <trkpt lat="44.410429000854492" lon="8.671634634956718">
        <ele>234.22</ele>
        <time>2018-04-15T08:37:58Z</time>
      </trkpt>
      <trkpt lat="44.410471161827445" lon="8.671584511175752">
        <ele>236.62</ele>
        <time>2018-04-15T08:38:05Z</time>
      </trkpt>
      <trkpt lat="44.410526650026441" lon="8.671517455950379">
        <ele>233.25999999999999</ele>
        <time>2018-04-15T08:38:15Z</time>
      </trkpt>
      <trkpt lat="44.410536540672183" lon="8.671509828418493">
        <ele>233.25999999999999</ele>
        <time>2018-04-15T08:38:16Z</time>
      </trkpt>
      <trkpt lat="44.41064047627151" lon="8.671433804556727">
        <ele>233.25999999999999</ele>
        <time>2018-04-15T08:38:28Z</time>
      </trkpt>
      <trkpt lat="44.410688504576683" lon="8.671382842585445">
        <ele>232.30000000000001</ele>
        <time>2018-04-15T08:38:38Z</time>
      </trkpt>
      <trkpt lat="44.410722702741623" lon="8.671353589743376">
        <ele>234.22</ele>
        <time>2018-04-15T08:38:49Z</time>
      </trkpt>
      <trkpt lat="44.410800570622087" lon="8.671285193413496">
        <ele>235.18000000000001</ele>
        <time>2018-04-15T08:39:01Z</time>
      </trkpt>
      <trkpt lat="44.410841725766659" lon="8.671253845095635">
        <ele>237.09999999999999</ele>
        <time>2018-04-15T08:39:08Z</time>
      </trkpt>
      <trkpt lat="44.410875421017408" lon="8.671221574768424">
        <ele>238.06</ele>
        <time>2018-04-15T08:39:13Z</time>
      </trkpt>
      <trkpt lat="44.410898387432098" lon="8.671207157894969">
        <ele>236.62</ele>
        <time>2018-04-15T08:39:16Z</time>
      </trkpt>
      <trkpt lat="44.410917330533266" lon="8.671188885346055">
        <ele>237.09999999999999</ele>
        <time>2018-04-15T08:39:19Z</time>
      </trkpt>
      <trkpt lat="44.410942979156971" lon="8.671168768778443">
        <ele>239.02000000000001</ele>
        <time>2018-04-15T08:39:23Z</time>
      </trkpt>
      <trkpt lat="44.410988995805383" lon="8.671143874526024">
        <ele>239.02000000000001</ele>
        <time>2018-04-15T08:39:33Z</time>
      </trkpt>
      <trkpt lat="44.410999305546284" lon="8.6711451318115">
        <ele>239.02000000000001</ele>
        <time>2018-04-15T08:39:35Z</time>
      </trkpt>
      <trkpt lat="44.411064768210053" lon="8.671143455430865">
        <ele>240.94999999999999</ele>
        <time>2018-04-15T08:39:44Z</time>
      </trkpt>
      <trkpt lat="44.411137774586678" lon="8.671113196760416">
        <ele>241.91</ele>
        <time>2018-04-15T08:39:54Z</time>
      </trkpt>
      <trkpt lat="44.411221509799361" lon="8.671161057427526">
        <ele>241.43000000000001</ele>
        <time>2018-04-15T08:40:06Z</time>
      </trkpt>
      <trkpt lat="44.411274483427405" lon="8.671214366331697">
        <ele>243.34999999999999</ele>
        <time>2018-04-15T08:40:16Z</time>
      </trkpt>
      <trkpt lat="44.411287140101194" lon="8.671231549233198">
        <ele>244.31</ele>
        <time>2018-04-15T08:40:19Z</time>
      </trkpt>
      <trkpt lat="44.41133726388216" lon="8.671245044097304">
        <ele>246.22999999999999</ele>
        <time>2018-04-15T08:40:27Z</time>
      </trkpt>
      <trkpt lat="44.411388812586665" lon="8.671241523697972">
        <ele>245.75</ele>
        <time>2018-04-15T08:40:39Z</time>
      </trkpt>
      <trkpt lat="44.411407085135579" lon="8.671234147623181">
        <ele>247.19999999999999</ele>
        <time>2018-04-15T08:40:43Z</time>
      </trkpt>
      <trkpt lat="44.411461064592004" lon="8.671203553676605">
        <ele>249.12</ele>
        <time>2018-04-15T08:40:54Z</time>
      </trkpt>
      <trkpt lat="44.411521079018712" lon="8.671180671080947">
        <ele>251.03999999999999</ele>
        <time>2018-04-15T08:41:04Z</time>
      </trkpt>
      <trkpt lat="44.411565586924553" lon="8.671152591705322">
        <ele>252.47999999999999</ele>
        <time>2018-04-15T08:41:14Z</time>
      </trkpt>
      <trkpt lat="44.411611435934901" lon="8.671124931424856">
        <ele>253.44</ele>
        <time>2018-04-15T08:41:22Z</time>
      </trkpt>
      <trkpt lat="44.411679161712527" lon="8.671095091849566">
        <ele>254.88999999999999</ele>
        <time>2018-04-15T08:41:33Z</time>
      </trkpt>
      <trkpt lat="44.411715120077133" lon="8.671066928654909">
        <ele>255.37</ele>
        <time>2018-04-15T08:41:43Z</time>
      </trkpt>
      <trkpt lat="44.411766501143575" lon="8.671022588387132">
        <ele>255.37</ele>
        <time>2018-04-15T08:41:54Z</time>
      </trkpt>
      <trkpt lat="44.411813104525208" lon="8.670998951420188">
        <ele>258.73000000000002</ele>
        <time>2018-04-15T08:42:01Z</time>
      </trkpt>
      <trkpt lat="44.411815870553255" lon="8.670992078259587">
        <ele>258.25</ele>
        <time>2018-04-15T08:42:02Z</time>
      </trkpt>
      <trkpt lat="44.411863395944238" lon="8.670946061611176">
        <ele>258.73000000000002</ele>
        <time>2018-04-15T08:42:12Z</time>
      </trkpt>
      <trkpt lat="44.411914022639394" lon="8.670920245349407">
        <ele>260.64999999999998</ele>
        <time>2018-04-15T08:42:20Z</time>
      </trkpt>
      <trkpt lat="44.411978647112846" lon="8.670877078548074">
        <ele>260.17000000000002</ele>
        <time>2018-04-15T08:42:29Z</time>
      </trkpt>
      <trkpt lat="44.41203011199832" lon="8.670821506530047">
        <ele>261.13999999999999</ele>
        <time>2018-04-15T08:42:38Z</time>
      </trkpt>
      <trkpt lat="44.412057101726532" lon="8.670805832371116">
        <ele>264.01999999999998</ele>
        <time>2018-04-15T08:42:46Z</time>
      </trkpt>
      <trkpt lat="44.412090964615345" lon="8.670767191797495">
        <ele>264.5</ele>
        <time>2018-04-15T08:42:56Z</time>
      </trkpt>
      <trkpt lat="44.412103705108166" lon="8.670744728296995">
        <ele>265.45999999999998</ele>
        <time>2018-04-15T08:43:00Z</time>
      </trkpt>
      <trkpt lat="44.412117367610335" lon="8.670736262574792">
        <ele>266.42000000000002</ele>
        <time>2018-04-15T08:43:02Z</time>
      </trkpt>
      <trkpt lat="44.412149218842387" lon="8.670685132965446">
        <ele>266.89999999999998</ele>
        <time>2018-04-15T08:43:11Z</time>
      </trkpt>
      <trkpt lat="44.412204204127192" lon="8.670658897608519">
        <ele>266.89999999999998</ele>
        <time>2018-04-15T08:43:19Z</time>
      </trkpt>
      <trkpt lat="44.412226667627692" lon="8.670654119923711">
        <ele>268.82999999999998</ele>
        <time>2018-04-15T08:43:22Z</time>
      </trkpt>
      <trkpt lat="44.412292549386621" lon="8.67061598226428">
        <ele>268.35000000000002</ele>
        <time>2018-04-15T08:43:32Z</time>
      </trkpt>
      <trkpt lat="44.412352731451392" lon="8.670570552349091">
        <ele>269.31</ele>
        <time>2018-04-15T08:43:42Z</time>
      </trkpt>
      <trkpt lat="44.412365891039371" lon="8.670559069141746">
        <ele>270.75</ele>
        <time>2018-04-15T08:43:44Z</time>
      </trkpt>
      <trkpt lat="44.41242054104805" lon="8.670505424961448">
        <ele>270.26999999999998</ele>
        <time>2018-04-15T08:43:55Z</time>
      </trkpt>
      <trkpt lat="44.412465719506145" lon="8.670477848500013">
        <ele>272.19</ele>
        <time>2018-04-15T08:44:02Z</time>
      </trkpt>
      <trkpt lat="44.412505533546209" lon="8.670452032238245">
        <ele>272.67000000000002</ele>
        <time>2018-04-15T08:44:10Z</time>
      </trkpt>
      <trkpt lat="44.412557836622" lon="8.670391347259283">
        <ele>273.63</ele>
        <time>2018-04-15T08:44:22Z</time>
      </trkpt>
      <trkpt lat="44.412570241838694" lon="8.670364525169134">
        <ele>275.06999999999999</ele>
        <time>2018-04-15T08:44:30Z</time>
      </trkpt>
      <trkpt lat="44.412603601813316" lon="8.670317251235247">
        <ele>275.56</ele>
        <time>2018-04-15T08:44:41Z</time>
      </trkpt>
      <trkpt lat="44.412634614855051" lon="8.670256650075316">
        <ele>275.06999999999999</ele>
        <time>2018-04-15T08:44:52Z</time>
      </trkpt>
      <trkpt lat="44.412678452208638" lon="8.670225720852613">
        <ele>277</ele>
        <time>2018-04-15T08:45:02Z</time>
      </trkpt>
      <trkpt lat="44.41271910443902" lon="8.670177441090345">
        <ele>278.44</ele>
        <time>2018-04-15T08:45:12Z</time>
      </trkpt>
      <trkpt lat="44.412772245705128" lon="8.670117175206542">
        <ele>279.88</ele>
        <time>2018-04-15T08:45:23Z</time>
      </trkpt>
      <trkpt lat="44.412785153836012" lon="8.670102003961802">
        <ele>282.27999999999997</ele>
        <time>2018-04-15T08:45:26Z</time>
      </trkpt>
      <trkpt lat="44.412842318415642" lon="8.670029165223241">
        <ele>282.76999999999998</ele>
        <time>2018-04-15T08:45:38Z</time>
      </trkpt>
      <trkpt lat="44.412897722795606" lon="8.669989267364144">
        <ele>284.69</ele>
        <time>2018-04-15T08:45:46Z</time>
      </trkpt>
      <trkpt lat="44.412918426096439" lon="8.669934449717403">
        <ele>287.56999999999999</ele>
        <time>2018-04-15T08:45:57Z</time>
      </trkpt>
      <trkpt lat="44.412935106083751" lon="8.66988499648869">
        <ele>289.00999999999999</ele>
        <time>2018-04-15T08:46:06Z</time>
      </trkpt>
      <trkpt lat="44.412956228479743" lon="8.669834034517407">
        <ele>289.00999999999999</ele>
        <time>2018-04-15T08:46:16Z</time>
      </trkpt>
      <trkpt lat="44.412993947044015" lon="8.669801093637943">
        <ele>289.49000000000001</ele>
        <time>2018-04-15T08:46:25Z</time>
      </trkpt>
      <trkpt lat="44.412993527948856" lon="8.66977846249938">
        <ele>290.45999999999998</ele>
        <time>2018-04-15T08:46:32Z</time>
      </trkpt>
      <trkpt lat="44.413015237078071" lon="8.6697584297508">
        <ele>292.38</ele>
        <time>2018-04-15T08:46:39Z</time>
      </trkpt>
      <trkpt lat="44.41304499283433" lon="8.669735798612237">
        <ele>294.30000000000001</ele>
        <time>2018-04-15T08:46:45Z</time>
      </trkpt>
      <trkpt lat="44.413072401657701" lon="8.669707216322422">
        <ele>290.94</ele>
        <time>2018-04-15T08:46:51Z</time>
      </trkpt>
      <trkpt lat="44.413109365850687" lon="8.669664217159152">
        <ele>295.74000000000001</ele>
        <time>2018-04-15T08:46:58Z</time>
      </trkpt>
      <trkpt lat="44.413141468539834" lon="8.669682322070003">
        <ele>294.30000000000001</ele>
        <time>2018-04-15T08:47:02Z</time>
      </trkpt>
      <trkpt lat="44.413160998374224" lon="8.669717442244291">
        <ele>293.81999999999999</ele>
        <time>2018-04-15T08:47:07Z</time>
      </trkpt>
      <trkpt lat="44.413165524601936" lon="8.66973889991641">
        <ele>296.69999999999999</ele>
        <time>2018-04-15T08:47:14Z</time>
      </trkpt>
      <trkpt lat="44.413163429126143" lon="8.66975256241858">
        <ele>300.06999999999999</ele>
        <time>2018-04-15T08:47:15Z</time>
      </trkpt>
      <trkpt lat="44.413163345307112" lon="8.66976379416883">
        <ele>298.14999999999998</ele>
        <time>2018-04-15T08:47:16Z</time>
      </trkpt>
      <trkpt lat="44.413160076364875" lon="8.669819450005889">
        <ele>296.22000000000003</ele>
        <time>2018-04-15T08:47:20Z</time>
      </trkpt>
      <trkpt lat="44.413132164627314" lon="8.669857587665319">
        <ele>297.18000000000001</ele>
        <time>2018-04-15T08:47:33Z</time>
      </trkpt>
      <trkpt lat="44.413140714168549" lon="8.669865299016237">
        <ele>293.81999999999999</ele>
        <time>2018-04-15T08:47:36Z</time>
      </trkpt>
      <trkpt lat="44.413145910948515" lon="8.669873178005219">
        <ele>293.81999999999999</ele>
        <time>2018-04-15T08:47:37Z</time>
      </trkpt>
      <trkpt lat="44.413156136870384" lon="8.669888097792864">
        <ele>297.67000000000002</ele>
        <time>2018-04-15T08:47:40Z</time>
      </trkpt>
      <trkpt lat="44.41317692399025" lon="8.669883906841278">
        <ele>294.77999999999997</ele>
        <time>2018-04-15T08:47:46Z</time>
      </trkpt>
      <trkpt lat="44.41319989040494" lon="8.669913159683347">
        <ele>295.74000000000001</ele>
        <time>2018-04-15T08:47:55Z</time>
      </trkpt>
      <trkpt lat="44.413215396925807" lon="8.669922631233931">
        <ele>296.69999999999999</ele>
        <time>2018-04-15T08:48:18Z</time>
      </trkpt>
      <trkpt lat="44.413217073306441" lon="8.669880637899041">
        <ele>296.22000000000003</ele>
        <time>2018-04-15T08:48:26Z</time>
      </trkpt>
      <trkpt lat="44.413203075528145" lon="8.669821880757809">
        <ele>296.22000000000003</ele>
        <time>2018-04-15T08:48:36Z</time>
      </trkpt>
      <trkpt lat="44.413199219852686" lon="8.669760273769498">
        <ele>295.74000000000001</ele>
        <time>2018-04-15T08:48:45Z</time>
      </trkpt>
      <trkpt lat="44.41320089623332" lon="8.669718028977513">
        <ele>296.69999999999999</ele>
        <time>2018-04-15T08:48:48Z</time>
      </trkpt>
      <trkpt lat="44.41327222622931" lon="8.669725572690368">
        <ele>297.18000000000001</ele>
        <time>2018-04-15T08:48:57Z</time>
      </trkpt>
      <trkpt lat="44.413263844326138" lon="8.669714508578181">
        <ele>299.11000000000001</ele>
        <time>2018-04-15T08:49:01Z</time>
      </trkpt>
      <trkpt lat="44.413273734971881" lon="8.669742336496711">
        <ele>299.11000000000001</ele>
        <time>2018-04-15T08:49:13Z</time>
      </trkpt>
      <trkpt lat="44.413285804912448" lon="8.669739402830601">
        <ele>296.22000000000003</ele>
        <time>2018-04-15T08:49:25Z</time>
      </trkpt>
      <trkpt lat="44.413308352231979" lon="8.669738480821252">
        <ele>296.22000000000003</ele>
        <time>2018-04-15T08:49:40Z</time>
      </trkpt>
      <trkpt lat="44.413307346403599" lon="8.669758848845959">
        <ele>298.14999999999998</ele>
        <time>2018-04-15T08:49:49Z</time>
      </trkpt>
      <trkpt lat="44.41321162506938" lon="8.669810900464654">
        <ele>299.11000000000001</ele>
        <time>2018-04-15T08:50:01Z</time>
      </trkpt>
      <trkpt lat="44.413212463259697" lon="8.669808888807893">
        <ele>299.11000000000001</ele>
        <time>2018-04-15T08:50:10Z</time>
      </trkpt>
      <trkpt lat="44.413204165175557" lon="8.669814588502049">
        <ele>297.67000000000002</ele>
        <time>2018-04-15T08:50:25Z</time>
      </trkpt>
      <trkpt lat="44.413192765787244" lon="8.669825233519077">
        <ele>298.14999999999998</ele>
        <time>2018-04-15T08:50:46Z</time>
      </trkpt>
      <trkpt lat="44.413196705281734" lon="8.669806709513068">
        <ele>299.11000000000001</ele>
        <time>2018-04-15T08:51:03Z</time>
      </trkpt>
      <trkpt lat="44.413196621462703" lon="8.669808385893703">
        <ele>299.11000000000001</ele>
        <time>2018-04-15T08:51:04Z</time>
      </trkpt>
      <trkpt lat="44.41312956623733" lon="8.669757172465324">
        <ele>299.11000000000001</ele>
        <time>2018-04-15T08:51:14Z</time>
      </trkpt>
      <trkpt lat="44.413104336708784" lon="8.669774858281016">
        <ele>298.14999999999998</ele>
        <time>2018-04-15T08:51:23Z</time>
      </trkpt>
      <trkpt lat="44.413104588165879" lon="8.669748874381185">
        <ele>295.74000000000001</ele>
        <time>2018-04-15T08:51:36Z</time>
      </trkpt>
      <trkpt lat="44.413112550973892" lon="8.669745521619916">
        <ele>298.14999999999998</ele>
        <time>2018-04-15T08:51:45Z</time>
      </trkpt>
      <trkpt lat="44.413109617307782" lon="8.669747114181519">
        <ele>300.55000000000001</ele>
        <time>2018-04-15T08:51:51Z</time>
      </trkpt>
      <trkpt lat="44.413112131878734" lon="8.669766141101718">
        <ele>297.67000000000002</ele>
        <time>2018-04-15T08:52:01Z</time>
      </trkpt>
      <trkpt lat="44.413123112171888" lon="8.669760022312403">
        <ele>298.14999999999998</ele>
        <time>2018-04-15T08:52:18Z</time>
      </trkpt>
      <trkpt lat="44.413119172677398" lon="8.669755747541785">
        <ele>299.11000000000001</ele>
        <time>2018-04-15T08:52:31Z</time>
      </trkpt>
      <trkpt lat="44.413122944533825" lon="8.669751388952136">
        <ele>299.11000000000001</ele>
        <time>2018-04-15T08:52:39Z</time>
      </trkpt>
      <trkpt lat="44.413127806037664" lon="8.669760776683688">
        <ele>297.67000000000002</ele>
        <time>2018-04-15T08:52:48Z</time>
      </trkpt>
      <trkpt lat="44.413129733875394" lon="8.669755579903722">
        <ele>301.02999999999997</ele>
        <time>2018-04-15T08:52:57Z</time>
      </trkpt>
      <trkpt lat="44.413122441619635" lon="8.669744012877345">
        <ele>298.14999999999998</ele>
        <time>2018-04-15T08:53:16Z</time>
      </trkpt>
      <trkpt lat="44.413118837401271" lon="8.669749377295375">
        <ele>299.11000000000001</ele>
        <time>2018-04-15T08:53:31Z</time>
      </trkpt>
      <trkpt lat="44.413111880421638" lon="8.669744599610567">
        <ele>300.55000000000001</ele>
        <time>2018-04-15T08:53:36Z</time>
      </trkpt>
      <trkpt lat="44.413113808259368" lon="8.66974082775414">
        <ele>297.18000000000001</ele>
        <time>2018-04-15T08:53:48Z</time>
      </trkpt>
      <trkpt lat="44.413113640621305" lon="8.669739402830601">
        <ele>297.67000000000002</ele>
        <time>2018-04-15T08:54:06Z</time>
      </trkpt>
      <trkpt lat="44.413114227354527" lon="8.669740241020918">
        <ele>297.18000000000001</ele>
        <time>2018-04-15T08:54:11Z</time>
      </trkpt>
      <trkpt lat="44.413121854886413" lon="8.669749544933438">
        <ele>300.55000000000001</ele>
        <time>2018-04-15T08:54:23Z</time>
      </trkpt>
      <trkpt lat="44.41312269307673" lon="8.669747533276677">
        <ele>300.06999999999999</ele>
        <time>2018-04-15T08:54:24Z</time>
      </trkpt>
      <trkpt lat="44.41312956623733" lon="8.669756921008229">
        <ele>300.06999999999999</ele>
        <time>2018-04-15T08:54:43Z</time>
      </trkpt>
      <trkpt lat="44.413130236789584" lon="8.669753484427929">
        <ele>297.18000000000001</ele>
        <time>2018-04-15T08:55:06Z</time>
      </trkpt>
      <trkpt lat="44.413125878199935" lon="8.669750634580851">
        <ele>295.25999999999999</ele>
        <time>2018-04-15T08:55:12Z</time>
      </trkpt>
      <trkpt lat="44.413128979504108" lon="8.669753316789866">
        <ele>297.67000000000002</ele>
        <time>2018-04-15T08:55:15Z</time>
      </trkpt>
      <trkpt lat="44.413130404427648" lon="8.669750802218914">
        <ele>299.58999999999997</ele>
        <time>2018-04-15T08:55:30Z</time>
      </trkpt>
      <trkpt lat="44.413131242617965" lon="8.66974912583828">
        <ele>299.11000000000001</ele>
        <time>2018-04-15T08:55:36Z</time>
      </trkpt>
      <trkpt lat="44.413135265931487" lon="8.669746024534106">
        <ele>296.22000000000003</ele>
        <time>2018-04-15T08:55:40Z</time>
      </trkpt>
      <trkpt lat="44.413135685026646" lon="8.66974912583828">
        <ele>299.11000000000001</ele>
        <time>2018-04-15T08:55:42Z</time>
      </trkpt>
      <trkpt lat="44.413136271759868" lon="8.66975013166666">
        <ele>299.58999999999997</ele>
        <time>2018-04-15T08:55:43Z</time>
      </trkpt>
      <trkpt lat="44.413133421912789" lon="8.669748036190867">
        <ele>298.14999999999998</ele>
        <time>2018-04-15T08:55:46Z</time>
      </trkpt>
      <trkpt lat="44.4131397921592" lon="8.669744180515409">
        <ele>298.14999999999998</ele>
        <time>2018-04-15T08:55:58Z</time>
      </trkpt>
      <trkpt lat="44.413137445226312" lon="8.669750466942787">
        <ele>297.18000000000001</ele>
        <time>2018-04-15T08:56:15Z</time>
      </trkpt>
      <trkpt lat="44.41313736140728" lon="8.66975449025631">
        <ele>298.14999999999998</ele>
        <time>2018-04-15T08:56:29Z</time>
      </trkpt>
      <trkpt lat="44.413134679198265" lon="8.669751891866326">
        <ele>298.14999999999998</ele>
        <time>2018-04-15T08:56:44Z</time>
      </trkpt>
      <trkpt lat="44.413115736097097" lon="8.669728506356478">
        <ele>295.25999999999999</ele>
        <time>2018-04-15T08:56:57Z</time>
      </trkpt>
      <trkpt lat="44.413113808259368" lon="8.669727835804224">
        <ele>295.25999999999999</ele>
        <time>2018-04-15T08:56:58Z</time>
      </trkpt>
      <trkpt lat="44.413112970069051" lon="8.669734289869666">
        <ele>290.45999999999998</ele>
        <time>2018-04-15T08:57:01Z</time>
      </trkpt>
      <trkpt lat="44.413112802430987" lon="8.669738145545125">
        <ele>295.25999999999999</ele>
        <time>2018-04-15T08:57:03Z</time>
      </trkpt>
      <trkpt lat="44.413114059716463" lon="8.66973889991641">
        <ele>294.77999999999997</ele>
        <time>2018-04-15T08:57:04Z</time>
      </trkpt>
      <trkpt lat="44.413118334487081" lon="8.669738313183188">
        <ele>296.69999999999999</ele>
        <time>2018-04-15T08:57:07Z</time>
      </trkpt>
      <trkpt lat="44.413121519610286" lon="8.66972615942359">
        <ele>293.81999999999999</ele>
        <time>2018-04-15T08:57:11Z</time>
      </trkpt>
      <trkpt lat="44.413119088858366" lon="8.669726494699717">
        <ele>298.14999999999998</ele>
        <time>2018-04-15T08:57:12Z</time>
      </trkpt>
      <trkpt lat="44.413149347528815" lon="8.669722890481353">
        <ele>297.67000000000002</ele>
        <time>2018-04-15T08:57:21Z</time>
      </trkpt>
      <trkpt lat="44.413166530430317" lon="8.669726829975843">
        <ele>292.86000000000001</ele>
        <time>2018-04-15T08:57:25Z</time>
      </trkpt>
      <trkpt lat="44.413172984495759" lon="8.66973839700222">
        <ele>293.81999999999999</ele>
        <time>2018-04-15T08:57:26Z</time>
      </trkpt>
      <trkpt lat="44.413178432732821" lon="8.669749042019248">
        <ele>297.18000000000001</ele>
        <time>2018-04-15T08:57:27Z</time>
      </trkpt>
      <trkpt lat="44.413185222074389" lon="8.669762704521418">
        <ele>297.18000000000001</ele>
        <time>2018-04-15T08:57:28Z</time>
      </trkpt>
      <trkpt lat="44.413203578442335" lon="8.669806709513068">
        <ele>299.58999999999997</ele>
        <time>2018-04-15T08:57:35Z</time>
      </trkpt>
      <trkpt lat="44.413192514330149" lon="8.669819533824921">
        <ele>298.14999999999998</ele>
        <time>2018-04-15T08:57:50Z</time>
      </trkpt>
      <trkpt lat="44.413188910111785" lon="8.669833028689027">
        <ele>298.14999999999998</ele>
        <time>2018-04-15T08:58:06Z</time>
      </trkpt>
      <trkpt lat="44.413219252601266" lon="8.669762788340449">
        <ele>298.63</ele>
        <time>2018-04-15T08:58:16Z</time>
      </trkpt>
      <trkpt lat="44.413231490179896" lon="8.66971786133945">
        <ele>298.63</ele>
        <time>2018-04-15T08:58:27Z</time>
      </trkpt>
      <trkpt lat="44.413228472694755" lon="8.669725572690368">
        <ele>298.63</ele>
        <time>2018-04-15T08:58:42Z</time>
      </trkpt>
      <trkpt lat="44.413229478523135" lon="8.669736972078681">
        <ele>298.63</ele>
        <time>2018-04-15T08:58:54Z</time>
      </trkpt>
      <trkpt lat="44.413224197924137" lon="8.669742671772838">
        <ele>297.67000000000002</ele>
        <time>2018-04-15T08:58:55Z</time>
      </trkpt>
      <trkpt lat="44.413204248994589" lon="8.669741079211235">
        <ele>296.22000000000003</ele>
        <time>2018-04-15T08:58:57Z</time>
      </trkpt>
      <trkpt lat="44.413176085799932" lon="8.669693302363157">
        <ele>300.06999999999999</ele>
        <time>2018-04-15T08:59:01Z</time>
      </trkpt>
      <trkpt lat="44.413167955353856" lon="8.669682322070003">
        <ele>299.58999999999997</ele>
        <time>2018-04-15T08:59:02Z</time>
      </trkpt>
      <trkpt lat="44.413146497681737" lon="8.669652985408902">
        <ele>296.69999999999999</ele>
        <time>2018-04-15T08:59:06Z</time>
      </trkpt>
      <trkpt lat="44.413141971454024" lon="8.669658349826932">
        <ele>295.74000000000001</ele>
        <time>2018-04-15T08:59:08Z</time>
      </trkpt>
      <trkpt lat="44.413124453276396" lon="8.669664468616247">
        <ele>296.22000000000003</ele>
        <time>2018-04-15T08:59:14Z</time>
      </trkpt>
      <trkpt lat="44.413102576509118" lon="8.669660864397883">
        <ele>297.18000000000001</ele>
        <time>2018-04-15T08:59:16Z</time>
      </trkpt>
      <trkpt lat="44.413052452728152" lon="8.669659607112408">
        <ele>297.18000000000001</ele>
        <time>2018-04-15T08:59:27Z</time>
      </trkpt>
      <trkpt lat="44.413065947592258" lon="8.669662289321423">
        <ele>296.22000000000003</ele>
        <time>2018-04-15T08:59:29Z</time>
      </trkpt>
      <trkpt lat="44.413077095523477" lon="8.669660110026598">
        <ele>300.06999999999999</ele>
        <time>2018-04-15T08:59:36Z</time>
      </trkpt>
      <trkpt lat="44.413077682256699" lon="8.669655080884695">
        <ele>299.11000000000001</ele>
        <time>2018-04-15T08:59:37Z</time>
      </trkpt>
      <trkpt lat="44.413078101351857" lon="8.669654158875346">
        <ele>296.69999999999999</ele>
        <time>2018-04-15T08:59:40Z</time>
      </trkpt>
      <trkpt lat="44.413076844066381" lon="8.669661283493042">
        <ele>300.06999999999999</ele>
        <time>2018-04-15T08:59:42Z</time>
      </trkpt>
      <trkpt lat="44.413077095523477" lon="8.669661702588201">
        <ele>296.22000000000003</ele>
        <time>2018-04-15T08:59:43Z</time>
      </trkpt>
      <trkpt lat="44.413082292303443" lon="8.669661283493042">
        <ele>294.30000000000001</ele>
        <time>2018-04-15T08:59:44Z</time>
      </trkpt>
      <trkpt lat="44.413093104958534" lon="8.669671174138784">
        <ele>300.06999999999999</ele>
        <time>2018-04-15T08:59:46Z</time>
      </trkpt>
      <trkpt lat="44.413090674206614" lon="8.669671090319753">
        <ele>299.58999999999997</ele>
        <time>2018-04-15T08:59:47Z</time>
      </trkpt>
      <trkpt lat="44.413096541538835" lon="8.669729344546795">
        <ele>300.55000000000001</ele>
        <time>2018-04-15T08:59:55Z</time>
      </trkpt>
      <trkpt lat="44.413092434406281" lon="8.669740660116077">
        <ele>300.55000000000001</ele>
        <time>2018-04-15T08:59:56Z</time>
      </trkpt>
      <trkpt lat="44.413049602881074" lon="8.669800087809563">
        <ele>296.69999999999999</ele>
        <time>2018-04-15T09:00:03Z</time>
      </trkpt>
      <trkpt lat="44.413048680871725" lon="8.669805116951466">
        <ele>296.69999999999999</ele>
        <time>2018-04-15T09:00:04Z</time>
      </trkpt>
      <trkpt lat="44.413044573739171" lon="8.669810732826591">
        <ele>299.58999999999997</ele>
        <time>2018-04-15T09:00:16Z</time>
      </trkpt>
      <trkpt lat="44.413044573739171" lon="8.66981215775013">
        <ele>298.63</ele>
        <time>2018-04-15T09:00:19Z</time>
      </trkpt>
      <trkpt lat="44.413041388615966" lon="8.669813666492701">
        <ele>297.18000000000001</ele>
        <time>2018-04-15T09:00:27Z</time>
      </trkpt>
      <trkpt lat="44.413051027804613" lon="8.669816683977842">
        <ele>298.14999999999998</ele>
        <time>2018-04-15T09:00:48Z</time>
      </trkpt>
      <trkpt lat="44.413048680871725" lon="8.669803943485022">
        <ele>294.30000000000001</ele>
        <time>2018-04-15T09:01:00Z</time>
      </trkpt>
      <trkpt lat="44.41308262757957" lon="8.669725824147463">
        <ele>298.14999999999998</ele>
        <time>2018-04-15T09:01:08Z</time>
      </trkpt>
      <trkpt lat="44.413089249283075" lon="8.669718699529767">
        <ele>292.86000000000001</ele>
        <time>2018-04-15T09:01:09Z</time>
      </trkpt>
      <trkpt lat="44.413097128272057" lon="8.66971149109304">
        <ele>294.30000000000001</ele>
        <time>2018-04-15T09:01:10Z</time>
      </trkpt>
      <trkpt lat="44.4131466653198" lon="8.669716687873006">
        <ele>297.67000000000002</ele>
        <time>2018-04-15T09:01:18Z</time>
      </trkpt>
      <trkpt lat="44.413181031122804" lon="8.669778127223253">
        <ele>297.18000000000001</ele>
        <time>2018-04-15T09:01:28Z</time>
      </trkpt>
      <trkpt lat="44.413208523765206" lon="8.669742252677679">
        <ele>297.18000000000001</ele>
        <time>2018-04-15T09:01:36Z</time>
      </trkpt>
      <trkpt lat="44.413210200145841" lon="8.66973839700222">
        <ele>293.81999999999999</ele>
        <time>2018-04-15T09:01:37Z</time>
      </trkpt>
      <trkpt lat="44.413210032507777" lon="8.669730853289366">
        <ele>297.18000000000001</ele>
        <time>2018-04-15T09:01:39Z</time>
      </trkpt>
      <trkpt lat="44.413208775222301" lon="8.669733619317412">
        <ele>297.18000000000001</ele>
        <time>2018-04-15T09:01:40Z</time>
      </trkpt>
      <trkpt lat="44.41320332698524" lon="8.669731942936778">
        <ele>293.81999999999999</ele>
        <time>2018-04-15T09:01:55Z</time>
      </trkpt>
      <trkpt lat="44.413216151297092" lon="8.669737558811903">
        <ele>296.22000000000003</ele>
        <time>2018-04-15T09:02:07Z</time>
      </trkpt>
      <trkpt lat="44.413222186267376" lon="8.669755160808563">
        <ele>295.74000000000001</ele>
        <time>2018-04-15T09:02:23Z</time>
      </trkpt>
      <trkpt lat="44.413207937031984" lon="8.669762201607227">
        <ele>298.14999999999998</ele>
        <time>2018-04-15T09:02:42Z</time>
      </trkpt>
      <trkpt lat="44.413206428289413" lon="8.669743174687028">
        <ele>295.25999999999999</ele>
        <time>2018-04-15T09:02:46Z</time>
      </trkpt>
      <trkpt lat="44.413197543472052" lon="8.669740911573172">
        <ele>298.63</ele>
        <time>2018-04-15T09:02:49Z</time>
      </trkpt>
      <trkpt lat="44.413202237337828" lon="8.669726578518748">
        <ele>296.22000000000003</ele>
        <time>2018-04-15T09:03:04Z</time>
      </trkpt>
      <trkpt lat="44.413214223459363" lon="8.669720375910401">
        <ele>297.67000000000002</ele>
        <time>2018-04-15T09:03:18Z</time>
      </trkpt>
      <trkpt lat="44.413195112720132" lon="8.669723812490702">
        <ele>298.14999999999998</ele>
        <time>2018-04-15T09:03:25Z</time>
      </trkpt>
      <trkpt lat="44.413186646997929" lon="8.669735714793205">
        <ele>298.14999999999998</ele>
        <time>2018-04-15T09:03:42Z</time>
      </trkpt>
      <trkpt lat="44.413189077749848" lon="8.66972959600389">
        <ele>298.14999999999998</ele>
        <time>2018-04-15T09:03:58Z</time>
      </trkpt>
      <trkpt lat="44.413195364177227" lon="8.669721381738782">
        <ele>296.69999999999999</ele>
        <time>2018-04-15T09:04:03Z</time>
      </trkpt>
      <trkpt lat="44.413194106891751" lon="8.669743090867996">
        <ele>297.67000000000002</ele>
        <time>2018-04-15T09:04:16Z</time>
      </trkpt>
      <trkpt lat="44.413204835727811" lon="8.669768488034606">
        <ele>295.74000000000001</ele>
        <time>2018-04-15T09:04:32Z</time>
      </trkpt>
      <trkpt lat="44.413202572613955" lon="8.669774774461985">
        <ele>299.11000000000001</ele>
        <time>2018-04-15T09:04:40Z</time>
      </trkpt>
      <trkpt lat="44.413201650604606" lon="8.669776869937778">
        <ele>299.11000000000001</ele>
        <time>2018-04-15T09:04:41Z</time>
      </trkpt>
      <trkpt lat="44.413185222074389" lon="8.669779552146792">
        <ele>297.67000000000002</ele>
        <time>2018-04-15T09:04:47Z</time>
      </trkpt>
      <trkpt lat="44.413190837949514" lon="8.669760273769498">
        <ele>297.18000000000001</ele>
        <time>2018-04-15T09:04:56Z</time>
      </trkpt>
      <trkpt lat="44.413181617856026" lon="8.669755831360817">
        <ele>298.14999999999998</ele>
        <time>2018-04-15T09:05:00Z</time>
      </trkpt>
      <trkpt lat="44.41315202973783" lon="8.669759351760149">
        <ele>296.69999999999999</ele>
        <time>2018-04-15T09:05:08Z</time>
      </trkpt>
      <trkpt lat="44.413149179890752" lon="8.669748455286026">
        <ele>295.25999999999999</ele>
        <time>2018-04-15T09:05:11Z</time>
      </trkpt>
      <trkpt lat="44.413160746917129" lon="8.669748539105058">
        <ele>294.77999999999997</ele>
        <time>2018-04-15T09:05:22Z</time>
      </trkpt>
      <trkpt lat="44.413191676139832" lon="8.669766057282686">
        <ele>297.67000000000002</ele>
        <time>2018-04-15T09:05:28Z</time>
      </trkpt>
      <trkpt lat="44.413198130205274" lon="8.669767901301384">
        <ele>296.69999999999999</ele>
        <time>2018-04-15T09:05:29Z</time>
      </trkpt>
      <trkpt lat="44.413283877074718" lon="8.66972859017551">
        <ele>297.67000000000002</ele>
        <time>2018-04-15T09:05:42Z</time>
      </trkpt>
      <trkpt lat="44.413316398859024" lon="8.66973546333611">
        <ele>299.11000000000001</ele>
        <time>2018-04-15T09:05:49Z</time>
      </trkpt>
      <trkpt lat="44.413346070796251" lon="8.669719621539116">
        <ele>300.06999999999999</ele>
        <time>2018-04-15T09:06:00Z</time>
      </trkpt>
      <trkpt lat="44.413376832380891" lon="8.669693972915411">
        <ele>299.58999999999997</ele>
        <time>2018-04-15T09:06:09Z</time>
      </trkpt>
      <trkpt lat="44.413406755775213" lon="8.669675281271339">
        <ele>303.43000000000001</ele>
        <time>2018-04-15T09:06:16Z</time>
      </trkpt>
      <trkpt lat="44.413412539288402" lon="8.669672599062324">
        <ele>301.99000000000001</ele>
        <time>2018-04-15T09:06:17Z</time>
      </trkpt>
      <trkpt lat="44.413474481552839" lon="8.669649297371507">
        <ele>302.47000000000003</ele>
        <time>2018-04-15T09:06:28Z</time>
      </trkpt>
      <trkpt lat="44.413504069671035" lon="8.669636892154813">
        <ele>301.99000000000001</ele>
        <time>2018-04-15T09:06:39Z</time>
      </trkpt>
      <trkpt lat="44.413522342219949" lon="8.669624822214246">
        <ele>302.47000000000003</ele>
        <time>2018-04-15T09:06:45Z</time>
      </trkpt>
      <trkpt lat="44.413557965308428" lon="8.669594479724765">
        <ele>303.91000000000003</ele>
        <time>2018-04-15T09:06:55Z</time>
      </trkpt>
      <trkpt lat="44.413583613932133" lon="8.669588780030608">
        <ele>304.88</ele>
        <time>2018-04-15T09:06:59Z</time>
      </trkpt>
      <trkpt lat="44.4136284571141" lon="8.669624822214246">
        <ele>304.38999999999999</ele>
        <time>2018-04-15T09:07:09Z</time>
      </trkpt>
      <trkpt lat="44.413689728826284" lon="8.669615099206567">
        <ele>307.27999999999997</ele>
        <time>2018-04-15T09:07:19Z</time>
      </trkpt>
      <trkpt lat="44.413760555908084" lon="8.669606382027268">
        <ele>305.36000000000001</ele>
        <time>2018-04-15T09:07:31Z</time>
      </trkpt>
      <trkpt lat="44.41376868635416" lon="8.669601688161492">
        <ele>306.80000000000001</ele>
        <time>2018-04-15T09:07:33Z</time>
      </trkpt>
      <trkpt lat="44.413820067420602" lon="8.669602861627936">
        <ele>308.72000000000003</ele>
        <time>2018-04-15T09:07:44Z</time>
      </trkpt>
      <trkpt lat="44.413887541741133" lon="8.669600849971175">
        <ele>311.60000000000002</ele>
        <time>2018-04-15T09:07:53Z</time>
      </trkpt>
      <trkpt lat="44.41391671076417" lon="8.669591965153813">
        <ele>310.63999999999999</ele>
        <time>2018-04-15T09:07:57Z</time>
      </trkpt>
      <trkpt lat="44.413951998576522" lon="8.669591713696718">
        <ele>310.63999999999999</ele>
        <time>2018-04-15T09:08:03Z</time>
      </trkpt>
      <trkpt lat="44.414014695212245" lon="8.669607136398554">
        <ele>312.56999999999999</ele>
        <time>2018-04-15T09:08:13Z</time>
      </trkpt>
      <trkpt lat="44.414067333564162" lon="8.669607387855649">
        <ele>314.97000000000003</ele>
        <time>2018-04-15T09:08:21Z</time>
      </trkpt>
      <trkpt lat="44.414115194231272" lon="8.669608142226934">
        <ele>317.37</ele>
        <time>2018-04-15T09:08:30Z</time>
      </trkpt>
      <trkpt lat="44.414181243628263" lon="8.669600430876017">
        <ele>318.81</ele>
        <time>2018-04-15T09:08:41Z</time>
      </trkpt>
      <trkpt lat="44.414188787341118" lon="8.669600011780858">
        <ele>319.30000000000001</ele>
        <time>2018-04-15T09:08:42Z</time>
      </trkpt>
      <trkpt lat="44.414258524775505" lon="8.669609567150474">
        <ele>318.81</ele>
        <time>2018-04-15T09:08:54Z</time>
      </trkpt>
      <trkpt lat="44.414286352694035" lon="8.66960939951241">
        <ele>321.22000000000003</ele>
        <time>2018-04-15T09:08:59Z</time>
      </trkpt>
      <trkpt lat="44.414300099015236" lon="8.669609567150474">
        <ele>317.37</ele>
        <time>2018-04-15T09:09:05Z</time>
      </trkpt>
      <trkpt lat="44.414305463433266" lon="8.669606717303395">
        <ele>318.81</ele>
        <time>2018-04-15T09:09:06Z</time>
      </trkpt>
      <trkpt lat="44.414319125935435" lon="8.669606214389205">
        <ele>322.18000000000001</ele>
        <time>2018-04-15T09:09:08Z</time>
      </trkpt>
      <trkpt lat="44.414398334920406" lon="8.669595150277019">
        <ele>324.57999999999998</ele>
        <time>2018-04-15T09:09:18Z</time>
      </trkpt>
      <trkpt lat="44.414443345740438" lon="8.669561622664332">
        <ele>325.06</ele>
        <time>2018-04-15T09:09:28Z</time>
      </trkpt>
      <trkpt lat="44.414459271356463" lon="8.669561622664332">
        <ele>327.94999999999999</ele>
        <time>2018-04-15T09:09:30Z</time>
      </trkpt>
      <trkpt lat="44.41446547396481" lon="8.669560365378857">
        <ele>327.47000000000003</ele>
        <time>2018-04-15T09:09:31Z</time>
      </trkpt>
      <trkpt lat="44.414505874738097" lon="8.66955173201859">
        <ele>330.82999999999998</ele>
        <time>2018-04-15T09:09:36Z</time>
      </trkpt>
      <trkpt lat="44.414520543068647" lon="8.669548127800226">
        <ele>328.91000000000003</ele>
        <time>2018-04-15T09:09:39Z</time>
      </trkpt>
      <trkpt lat="44.414559099823236" lon="8.6695322021842">
        <ele>332.26999999999998</ele>
        <time>2018-04-15T09:09:47Z</time>
      </trkpt>
      <trkpt lat="44.414563626050949" lon="8.669526670128107">
        <ele>332.26999999999998</ele>
        <time>2018-04-15T09:09:48Z</time>
      </trkpt>
      <trkpt lat="44.414602434262633" lon="8.669507391750813">
        <ele>330.82999999999998</ele>
        <time>2018-04-15T09:09:56Z</time>
      </trkpt>
      <trkpt lat="44.414615593850613" lon="8.669483168050647">
        <ele>329.38999999999999</ele>
        <time>2018-04-15T09:10:03Z</time>
      </trkpt>
      <trkpt lat="44.414627244696021" lon="8.669476043432951">
        <ele>331.31</ele>
        <time>2018-04-15T09:10:07Z</time>
      </trkpt>
      <trkpt lat="44.414632776752114" lon="8.669498087838292">
        <ele>332.75</ele>
        <time>2018-04-15T09:10:10Z</time>
      </trkpt>
      <trkpt lat="44.414649959653616" lon="8.669533710926771">
        <ele>331.31</ele>
        <time>2018-04-15T09:10:16Z</time>
      </trkpt>
      <trkpt lat="44.41465456970036" lon="8.669559778645635">
        <ele>334.68000000000001</ele>
        <time>2018-04-15T09:10:19Z</time>
      </trkpt>
      <trkpt lat="44.414653982967138" lon="8.669583918526769">
        <ele>336.60000000000002</ele>
        <time>2018-04-15T09:10:22Z</time>
      </trkpt>
      <trkpt lat="44.414651719853282" lon="8.669664720073342">
        <ele>337.56</ele>
        <time>2018-04-15T09:10:32Z</time>
      </trkpt>
      <trkpt lat="44.414649792015553" lon="8.66970956325531">
        <ele>338.04000000000002</ele>
        <time>2018-04-15T09:10:37Z</time>
      </trkpt>
      <trkpt lat="44.414646523073316" lon="8.669741833582521">
        <ele>339.48000000000002</ele>
        <time>2018-04-15T09:10:44Z</time>
      </trkpt>
      <trkpt lat="44.41464576870203" lon="8.66975256241858">
        <ele>340.44</ele>
        <time>2018-04-15T09:10:49Z</time>
      </trkpt>
      <trkpt lat="44.414594974368811" lon="8.669848786666989">
        <ele>339.95999999999998</ele>
        <time>2018-04-15T09:11:00Z</time>
      </trkpt>
      <trkpt lat="44.414619114249945" lon="8.669873680919409">
        <ele>342.37</ele>
        <time>2018-04-15T09:11:07Z</time>
      </trkpt>
      <trkpt lat="44.414637889713049" lon="8.669851971790195">
        <ele>342.37</ele>
        <time>2018-04-15T09:11:10Z</time>
      </trkpt>
      <trkpt lat="44.414663957431912" lon="8.669804697856307">
        <ele>344.29000000000002</ele>
        <time>2018-04-15T09:11:15Z</time>
      </trkpt>
      <trkpt lat="44.41473956219852" lon="8.66974325850606">
        <ele>345.73000000000002</ele>
        <time>2018-04-15T09:11:26Z</time>
      </trkpt>
      <trkpt lat="44.414746602997184" lon="8.669736888259649">
        <ele>345.73000000000002</ele>
        <time>2018-04-15T09:11:27Z</time>
      </trkpt>
      <trkpt lat="44.414801839739084" lon="8.669704282656312">
        <ele>347.17000000000002</ele>
        <time>2018-04-15T09:11:34Z</time>
      </trkpt>
      <trkpt lat="44.414849281311035" lon="8.669682908803225">
        <ele>346.20999999999998</ele>
        <time>2018-04-15T09:11:43Z</time>
      </trkpt>
      <trkpt lat="44.414930753409863" lon="8.669705037027597">
        <ele>345.73000000000002</ele>
        <time>2018-04-15T09:11:53Z</time>
      </trkpt>
      <trkpt lat="44.415017673745751" lon="8.669738229364157">
        <ele>345.25</ele>
        <time>2018-04-15T09:12:03Z</time>
      </trkpt>
      <trkpt lat="44.415043322369456" lon="8.669744180515409">
        <ele>347.17000000000002</ele>
        <time>2018-04-15T09:12:06Z</time>
      </trkpt>
      <trkpt lat="44.415126219391823" lon="8.669781479984522">
        <ele>345.73000000000002</ele>
        <time>2018-04-15T09:12:16Z</time>
      </trkpt>
      <trkpt lat="44.415147174149752" lon="8.66978969424963">
        <ele>346.69</ele>
        <time>2018-04-15T09:12:19Z</time>
      </trkpt>
      <trkpt lat="44.415192771703005" lon="8.669827664270997">
        <ele>343.32999999999998</ele>
        <time>2018-04-15T09:12:25Z</time>
      </trkpt>
      <trkpt lat="44.415200734511018" lon="8.669832274317741">
        <ele>347.17000000000002</ele>
        <time>2018-04-15T09:12:26Z</time>
      </trkpt>
      <trkpt lat="44.415284553542733" lon="8.669894970953465">
        <ele>345.25</ele>
        <time>2018-04-15T09:12:36Z</time>
      </trkpt>
      <trkpt lat="44.415300730615854" lon="8.669907543808222">
        <ele>350.06</ele>
        <time>2018-04-15T09:12:39Z</time>
      </trkpt>
      <trkpt lat="44.415308190509677" lon="8.66990989074111">
        <ele>349.10000000000002</ele>
        <time>2018-04-15T09:12:40Z</time>
      </trkpt>
      <trkpt lat="44.415339455008507" lon="8.669933862984181">
        <ele>348.13</ele>
        <time>2018-04-15T09:12:44Z</time>
      </trkpt>
      <trkpt lat="44.415410365909338" lon="8.669965462759137">
        <ele>351.98000000000002</ele>
        <time>2018-04-15T09:12:52Z</time>
      </trkpt>
      <trkpt lat="44.415426207706332" lon="8.669972838833928">
        <ele>346.69</ele>
        <time>2018-04-15T09:12:54Z</time>
      </trkpt>
      <trkpt lat="44.415433667600155" lon="8.669974682852626">
        <ele>351.01999999999998</ele>
        <time>2018-04-15T09:12:55Z</time>
      </trkpt>
      <trkpt lat="44.415450263768435" lon="8.66997535340488">
        <ele>351.98000000000002</ele>
        <time>2018-04-15T09:12:57Z</time>
      </trkpt>
      <trkpt lat="44.415480270981789" lon="8.669978454709053">
        <ele>355.33999999999997</ele>
        <time>2018-04-15T09:13:01Z</time>
      </trkpt>
      <trkpt lat="44.415550343692303" lon="8.66999396122992">
        <ele>354.38</ele>
        <time>2018-04-15T09:13:10Z</time>
      </trkpt>
      <trkpt lat="44.415638018399477" lon="8.66999295540154">
        <ele>357.26999999999998</ele>
        <time>2018-04-15T09:13:22Z</time>
      </trkpt>
      <trkpt lat="44.415677832439542" lon="8.66999295540154">
        <ele>359.19</ele>
        <time>2018-04-15T09:13:27Z</time>
      </trkpt>
      <trkpt lat="44.415731811895967" lon="8.669978035613895">
        <ele>359.67000000000002</ele>
        <time>2018-04-15T09:13:33Z</time>
      </trkpt>
      <trkpt lat="44.415809009224176" lon="8.669969318434596">
        <ele>362.06999999999999</ele>
        <time>2018-04-15T09:13:43Z</time>
      </trkpt>
      <trkpt lat="44.41587908193469" lon="8.669960349798203">
        <ele>360.63</ele>
        <time>2018-04-15T09:13:52Z</time>
      </trkpt>
      <trkpt lat="44.415893834084272" lon="8.669961942359805">
        <ele>361.58999999999997</ele>
        <time>2018-04-15T09:13:54Z</time>
      </trkpt>
      <trkpt lat="44.415968768298626" lon="8.669962277635932">
        <ele>364.95999999999998</ele>
        <time>2018-04-15T09:14:04Z</time>
      </trkpt>
      <trkpt lat="44.415983939543366" lon="8.669960098341107">
        <ele>365.92000000000002</ele>
        <time>2018-04-15T09:14:06Z</time>
      </trkpt>
      <trkpt lat="44.415991650894284" lon="8.669957751408219">
        <ele>364.95999999999998</ele>
        <time>2018-04-15T09:14:07Z</time>
      </trkpt>
      <trkpt lat="44.416076391935349" lon="8.669922463595867">
        <ele>366.88</ele>
        <time>2018-04-15T09:14:17Z</time>
      </trkpt>
      <trkpt lat="44.416085109114647" lon="8.669917853549123">
        <ele>366.88</ele>
        <time>2018-04-15T09:14:18Z</time>
      </trkpt>
      <trkpt lat="44.41611947491765" lon="8.669918859377503">
        <ele>367.83999999999997</ele>
        <time>2018-04-15T09:14:22Z</time>
      </trkpt>
      <trkpt lat="44.416200863197446" lon="8.66987912915647">
        <ele>372.17000000000002</ele>
        <time>2018-04-15T09:14:31Z</time>
      </trkpt>
      <trkpt lat="44.416280072182417" lon="8.669868232682347">
        <ele>370.24000000000001</ele>
        <time>2018-04-15T09:14:40Z</time>
      </trkpt>
      <trkpt lat="44.416381744667888" lon="8.669922798871994">
        <ele>369.27999999999997</ele>
        <time>2018-04-15T09:14:52Z</time>
      </trkpt>
      <trkpt lat="44.416425162926316" lon="8.669933527708054">
        <ele>372.64999999999998</ele>
        <time>2018-04-15T09:14:57Z</time>
      </trkpt>
      <trkpt lat="44.416440669447184" lon="8.669942244887352">
        <ele>369.27999999999997</ele>
        <time>2018-04-15T09:14:59Z</time>
      </trkpt>
      <trkpt lat="44.416533624753356" lon="8.66996512748301">
        <ele>375.05000000000001</ele>
        <time>2018-04-15T09:15:09Z</time>
      </trkpt>
      <trkpt lat="44.416626915335655" lon="8.669993123039603">
        <ele>375.05000000000001</ele>
        <time>2018-04-15T09:15:19Z</time>
      </trkpt>
      <trkpt lat="44.416707968339324" lon="8.670022962614894">
        <ele>375.05000000000001</ele>
        <time>2018-04-15T09:15:28Z</time>
      </trkpt>
      <trkpt lat="44.416717104613781" lon="8.670027069747448">
        <ele>373.61000000000001</ele>
        <time>2018-04-15T09:15:29Z</time>
      </trkpt>
      <trkpt lat="44.416757756844163" lon="8.670037211850286">
        <ele>375.52999999999997</ele>
        <time>2018-04-15T09:15:34Z</time>
      </trkpt>
      <trkpt lat="44.416765887290239" lon="8.670042408630252">
        <ele>376.00999999999999</ele>
        <time>2018-04-15T09:15:35Z</time>
      </trkpt>
      <trkpt lat="44.416785584762692" lon="8.670044587925077">
        <ele>376.97000000000003</ele>
        <time>2018-04-15T09:15:37Z</time>
      </trkpt>
      <trkpt lat="44.416806623339653" lon="8.670043498277664">
        <ele>377.94</ele>
        <time>2018-04-15T09:15:40Z</time>
      </trkpt>
      <trkpt lat="44.416832439601421" lon="8.670050455257297">
        <ele>377.44999999999999</ele>
        <time>2018-04-15T09:15:43Z</time>
      </trkpt>
      <trkpt lat="44.416877701878548" lon="8.670063950121403">
        <ele>379.38</ele>
        <time>2018-04-15T09:15:48Z</time>
      </trkpt>
      <trkpt lat="44.416910307481885" lon="8.670068727806211">
        <ele>379.38</ele>
        <time>2018-04-15T09:15:53Z</time>
      </trkpt>
      <trkpt lat="44.416951965540648" lon="8.670075600966811">
        <ele>373.61000000000001</ele>
        <time>2018-04-15T09:15:58Z</time>
      </trkpt>
      <trkpt lat="44.416964454576373" lon="8.670079289004207">
        <ele>378.42000000000002</ele>
        <time>2018-04-15T09:16:00Z</time>
      </trkpt>
      <trkpt lat="44.416976692155004" lon="8.670077612623572">
        <ele>386.11000000000001</ele>
        <time>2018-04-15T09:16:02Z</time>
      </trkpt>
      <trkpt lat="44.416985493153334" lon="8.67007995955646">
        <ele>384.18000000000001</ele>
        <time>2018-04-15T09:16:03Z</time>
      </trkpt>
      <trkpt lat="44.416995132341981" lon="8.670084234327078">
        <ele>383.22000000000003</ele>
        <time>2018-04-15T09:16:04Z</time>
      </trkpt>
      <trkpt lat="44.417012482881546" lon="8.670089431107044">
        <ele>382.74000000000001</ele>
        <time>2018-04-15T09:16:06Z</time>
      </trkpt>
      <trkpt lat="44.417102504521608" lon="8.67013712413609">
        <ele>383.69999999999999</ele>
        <time>2018-04-15T09:16:16Z</time>
      </trkpt>
      <trkpt lat="44.417163776233792" lon="8.670157911255956">
        <ele>382.74000000000001</ele>
        <time>2018-04-15T09:16:25Z</time>
      </trkpt>
      <trkpt lat="44.417216163128614" lon="8.67017325013876">
        <ele>386.11000000000001</ele>
        <time>2018-04-15T09:16:31Z</time>
      </trkpt>
      <trkpt lat="44.417232507839799" lon="8.670176770538092">
        <ele>386.58999999999997</ele>
        <time>2018-04-15T09:16:33Z</time>
      </trkpt>
      <trkpt lat="44.417340131476521" lon="8.670219350606203">
        <ele>387.06999999999999</ele>
        <time>2018-04-15T09:16:45Z</time>
      </trkpt>
      <trkpt lat="44.417396709322929" lon="8.670243574306369">
        <ele>389.94999999999999</ele>
        <time>2018-04-15T09:16:51Z</time>
      </trkpt>
      <trkpt lat="44.417446665465832" lon="8.67026025429368">
        <ele>388.99000000000001</ele>
        <time>2018-04-15T09:16:57Z</time>
      </trkpt>
      <trkpt lat="44.417492346838117" lon="8.670269222930074">
        <ele>391.87</ele>
        <time>2018-04-15T09:17:02Z</time>
      </trkpt>
      <trkpt lat="44.417511457577348" lon="8.670275593176484">
        <ele>393.31999999999999</ele>
        <time>2018-04-15T09:17:04Z</time>
      </trkpt>
      <trkpt lat="44.417606089264154" lon="8.670311216264963">
        <ele>393.31999999999999</ele>
        <time>2018-04-15T09:17:15Z</time>
      </trkpt>
      <trkpt lat="44.41762151196599" lon="8.670325884595513">
        <ele>392.83999999999997</ele>
        <time>2018-04-15T09:17:17Z</time>
      </trkpt>
      <trkpt lat="44.417659062892199" lon="8.670353880152106">
        <ele>394.27999999999997</ele>
        <time>2018-04-15T09:17:21Z</time>
      </trkpt>
      <trkpt lat="44.417677754536271" lon="8.67036921903491">
        <ele>394.75999999999999</ele>
        <time>2018-04-15T09:17:23Z</time>
      </trkpt>
      <trkpt lat="44.417695607990026" lon="8.670375505462289">
        <ele>393.80000000000001</ele>
        <time>2018-04-15T09:17:25Z</time>
      </trkpt>
      <trkpt lat="44.417779259383678" lon="8.670413726940751">
        <ele>396.68000000000001</ele>
        <time>2018-04-15T09:17:33Z</time>
      </trkpt>
      <trkpt lat="44.41782427020371" lon="8.670423617586494">
        <ele>395.24000000000001</ele>
        <time>2018-04-15T09:17:37Z</time>
      </trkpt>
      <trkpt lat="44.417889565229416" lon="8.670433340594173">
        <ele>395.72000000000003</ele>
        <time>2018-04-15T09:17:43Z</time>
      </trkpt>
      <trkpt lat="44.417930217459798" lon="8.670447506010532">
        <ele>394.75999999999999</ele>
        <time>2018-04-15T09:17:47Z</time>
      </trkpt>
      <trkpt lat="44.417961230501533" lon="8.670464856550098">
        <ele>397.16000000000003</ele>
        <time>2018-04-15T09:17:50Z</time>
      </trkpt>
      <trkpt lat="44.418060388416052" lon="8.670518836006522">
        <ele>399.56999999999999</ele>
        <time>2018-04-15T09:18:00Z</time>
      </trkpt>
      <trkpt lat="44.418069776147604" lon="8.670524954795837">
        <ele>399.07999999999998</ele>
        <time>2018-04-15T09:18:01Z</time>
      </trkpt>
      <trkpt lat="44.41810674034059" lon="8.670538952574134">
        <ele>398.60000000000002</ele>
        <time>2018-04-15T09:18:04Z</time>
      </trkpt>
      <trkpt lat="44.418177651241422" lon="8.670578766614199">
        <ele>399.56999999999999</ele>
        <time>2018-04-15T09:18:11Z</time>
      </trkpt>
      <trkpt lat="44.418243197724223" lon="8.670660825446248">
        <ele>400.52999999999997</ele>
        <time>2018-04-15T09:18:20Z</time>
      </trkpt>
      <trkpt lat="44.418293489143252" lon="8.670744057744741">
        <ele>401.49000000000001</ele>
        <time>2018-04-15T09:18:29Z</time>
      </trkpt>
      <trkpt lat="44.418316120281816" lon="8.670776160433888">
        <ele>400.05000000000001</ele>
        <time>2018-04-15T09:18:33Z</time>
      </trkpt>
      <trkpt lat="44.41833296790719" lon="8.670794432982802">
        <ele>401.97000000000003</ele>
        <time>2018-04-15T09:18:35Z</time>
      </trkpt>
      <trkpt lat="44.41836129873991" lon="8.670839359983802">
        <ele>401.97000000000003</ele>
        <time>2018-04-15T09:18:41Z</time>
      </trkpt>
      <trkpt lat="44.41841502673924" lon="8.670902978628874">
        <ele>404.37</ele>
        <time>2018-04-15T09:18:47Z</time>
      </trkpt>
      <trkpt lat="44.418435981497169" lon="8.6709189042449">
        <ele>404.37</ele>
        <time>2018-04-15T09:18:49Z</time>
      </trkpt>
      <trkpt lat="44.418517034500837" lon="8.670952683314681">
        <ele>406.76999999999998</ele>
        <time>2018-04-15T09:18:59Z</time>
      </trkpt>
      <trkpt lat="44.418521896004677" lon="8.670951342210174">
        <ele>407.25999999999999</ele>
        <time>2018-04-15T09:19:00Z</time>
      </trkpt>
      <trkpt lat="44.418548298999667" lon="8.670959891751409">
        <ele>404.37</ele>
        <time>2018-04-15T09:19:04Z</time>
      </trkpt>
      <trkpt lat="44.418558022007346" lon="8.670964250341058">
        <ele>405.32999999999998</ele>
        <time>2018-04-15T09:19:05Z</time>
      </trkpt>
      <trkpt lat="44.418575875461102" lon="8.670973805710673">
        <ele>402.93000000000001</ele>
        <time>2018-04-15T09:19:07Z</time>
      </trkpt>
      <trkpt lat="44.418624322861433" lon="8.671022672206163">
        <ele>402.93000000000001</ele>
        <time>2018-04-15T09:19:12Z</time>
      </trkpt>
      <trkpt lat="44.418672686442733" lon="8.671079920604825">
        <ele>402.93000000000001</ele>
        <time>2018-04-15T09:19:18Z</time>
      </trkpt>
      <trkpt lat="44.418710907921195" lon="8.671131720766425">
        <ele>401.00999999999999</ele>
        <time>2018-04-15T09:19:24Z</time>
      </trkpt>
      <trkpt lat="44.418753990903497" lon="8.671153513714671">
        <ele>402.44999999999999</ele>
        <time>2018-04-15T09:19:29Z</time>
      </trkpt>
      <trkpt lat="44.41879958845675" lon="8.671145550906658">
        <ele>404.37</ele>
        <time>2018-04-15T09:19:34Z</time>
      </trkpt>
      <trkpt lat="44.418814592063427" lon="8.671131134033203">
        <ele>403.88999999999999</ele>
        <time>2018-04-15T09:19:36Z</time>
      </trkpt>
      <trkpt lat="44.418899836018682" lon="8.670998448505998">
        <ele>403.88999999999999</ele>
        <time>2018-04-15T09:19:48Z</time>
      </trkpt>
      <trkpt lat="44.418980469927192" lon="8.670856626704335">
        <ele>405.32999999999998</ele>
        <time>2018-04-15T09:19:59Z</time>
      </trkpt>
      <trkpt lat="44.419104270637035" lon="8.670859392732382">
        <ele>405.32999999999998</ele>
        <time>2018-04-15T09:20:10Z</time>
      </trkpt>
      <trkpt lat="44.419156070798635" lon="8.670899122953415">
        <ele>404.37</ele>
        <time>2018-04-15T09:20:14Z</time>
      </trkpt>
      <trkpt lat="44.419208122417331" lon="8.670956706628203">
        <ele>406.29000000000002</ele>
        <time>2018-04-15T09:20:19Z</time>
      </trkpt>
      <trkpt lat="44.419233938679099" lon="8.670977577567101">
        <ele>406.29000000000002</ele>
        <time>2018-04-15T09:20:22Z</time>
      </trkpt>
      <trkpt lat="44.419304765760899" lon="8.670973805710673">
        <ele>405.81</ele>
        <time>2018-04-15T09:20:29Z</time>
      </trkpt>
      <trkpt lat="44.419415406882763" lon="8.670869702473283">
        <ele>405.32999999999998</ele>
        <time>2018-04-15T09:20:41Z</time>
      </trkpt>
      <trkpt lat="44.41947977989912" lon="8.670748164877296">
        <ele>406.29000000000002</ele>
        <time>2018-04-15T09:20:52Z</time>
      </trkpt>
      <trkpt lat="44.419485982507467" lon="8.670721426606178">
        <ele>406.76999999999998</ele>
        <time>2018-04-15T09:20:54Z</time>
      </trkpt>
      <trkpt lat="44.419515654444695" lon="8.670576000586152">
        <ele>407.25999999999999</ele>
        <time>2018-04-15T09:21:04Z</time>
      </trkpt>
      <trkpt lat="44.41952713765204" lon="8.670519338920713">
        <ele>408.69999999999999</ele>
        <time>2018-04-15T09:21:08Z</time>
      </trkpt>
      <trkpt lat="44.419528394937515" lon="8.670492181554437">
        <ele>409.18000000000001</ele>
        <time>2018-04-15T09:21:10Z</time>
      </trkpt>
      <trkpt lat="44.419559072703123" lon="8.670381121337414">
        <ele>410.62</ele>
        <time>2018-04-15T09:21:18Z</time>
      </trkpt>
      <trkpt lat="44.419602993875742" lon="8.670292189344764">
        <ele>410.13999999999999</ele>
        <time>2018-04-15T09:21:27Z</time>
      </trkpt>
      <trkpt lat="44.419614225625992" lon="8.67026905529201">
        <ele>410.13999999999999</ele>
        <time>2018-04-15T09:21:29Z</time>
      </trkpt>
      <trkpt lat="44.419734254479408" lon="8.670201329514384">
        <ele>411.10000000000002</ele>
        <time>2018-04-15T09:21:40Z</time>
      </trkpt>
      <trkpt lat="44.419797118753195" lon="8.670153385028243">
        <ele>413.01999999999998</ele>
        <time>2018-04-15T09:21:52Z</time>
      </trkpt>
      <trkpt lat="44.419815391302109" lon="8.670115498825908">
        <ele>413.98000000000002</ele>
        <time>2018-04-15T09:22:08Z</time>
      </trkpt>
      <trkpt lat="44.419893845915794" lon="8.67009848356247">
        <ele>413.98000000000002</ele>
        <time>2018-04-15T09:22:20Z</time>
      </trkpt>
      <trkpt lat="44.419903066009283" lon="8.670095298439264">
        <ele>414.47000000000003</ele>
        <time>2018-04-15T09:22:21Z</time>
      </trkpt>
      <trkpt lat="44.419973893091083" lon="8.670025896281004">
        <ele>415.91000000000003</ele>
        <time>2018-04-15T09:22:31Z</time>
      </trkpt>
      <trkpt lat="44.420044552534819" lon="8.669913830235601">
        <ele>416.87</ele>
        <time>2018-04-15T09:22:42Z</time>
      </trkpt>
      <trkpt lat="44.420070620253682" lon="8.66987326182425">
        <ele>416.38999999999999</ele>
        <time>2018-04-15T09:22:47Z</time>
      </trkpt>
      <trkpt lat="44.420146895572543" lon="8.669815678149462">
        <ele>417.35000000000002</ele>
        <time>2018-04-15T09:22:57Z</time>
      </trkpt>
      <trkpt lat="44.420217052102089" lon="8.66976035758853">
        <ele>417.82999999999998</ele>
        <time>2018-04-15T09:23:09Z</time>
      </trkpt>
      <trkpt lat="44.420309588313103" lon="8.669714676216245">
        <ele>417.82999999999998</ele>
        <time>2018-04-15T09:23:21Z</time>
      </trkpt>
      <trkpt lat="44.420426180586219" lon="8.669656673446298">
        <ele>421.19</ele>
        <time>2018-04-15T09:23:33Z</time>
      </trkpt>
      <trkpt lat="44.42050589248538" lon="8.669591043144465">
        <ele>422.16000000000003</ele>
        <time>2018-04-15T09:23:44Z</time>
      </trkpt>
      <trkpt lat="44.420589711517096" lon="8.66956103593111">
        <ele>419.75</ele>
        <time>2018-04-15T09:23:56Z</time>
      </trkpt>
      <trkpt lat="44.420691467821598" lon="8.669559946283698">
        <ele>422.16000000000003</ele>
        <time>2018-04-15T09:24:08Z</time>
      </trkpt>
      <trkpt lat="44.420762797817588" lon="8.669574111700058">
        <ele>421.68000000000001</ele>
        <time>2018-04-15T09:24:18Z</time>
      </trkpt>
      <trkpt lat="44.4208347145468" lon="8.669547960162163">
        <ele>423.12</ele>
        <time>2018-04-15T09:24:28Z</time>
      </trkpt>
      <trkpt lat="44.420901434496045" lon="8.669508565217257">
        <ele>423.12</ele>
        <time>2018-04-15T09:24:38Z</time>
      </trkpt>
      <trkpt lat="44.420946864411235" lon="8.669459279626608">
        <ele>425.04000000000002</ele>
        <time>2018-04-15T09:24:47Z</time>
      </trkpt>
      <trkpt lat="44.420960191637278" lon="8.669440671801567">
        <ele>425.51999999999998</ele>
        <time>2018-04-15T09:24:54Z</time>
      </trkpt>
      <trkpt lat="44.420963041484356" lon="8.669389709830284">
        <ele>427.44</ele>
        <time>2018-04-15T09:25:03Z</time>
      </trkpt>
      <trkpt lat="44.420960107818246" lon="8.669382585212588">
        <ele>426.95999999999998</ele>
        <time>2018-04-15T09:25:12Z</time>
      </trkpt>
      <trkpt lat="44.420933118090034" lon="8.669332377612591">
        <ele>428.39999999999998</ele>
        <time>2018-04-15T09:25:24Z</time>
      </trkpt>
      <trkpt lat="44.420926831662655" lon="8.669323660433292">
        <ele>428.88999999999999</ele>
        <time>2018-04-15T09:25:25Z</time>
      </trkpt>
      <trkpt lat="44.420898919925094" lon="8.669236991554499">
        <ele>430.32999999999998</ele>
        <time>2018-04-15T09:25:35Z</time>
      </trkpt>
      <trkpt lat="44.420896489173174" lon="8.669208409264684">
        <ele>432.25</ele>
        <time>2018-04-15T09:25:39Z</time>
      </trkpt>
      <trkpt lat="44.420882826671004" lon="8.669153256341815">
        <ele>433.69</ele>
        <time>2018-04-15T09:25:49Z</time>
      </trkpt>
      <trkpt lat="44.420868661254644" lon="8.66902400739491">
        <ele>435.61000000000001</ele>
        <time>2018-04-15T09:25:59Z</time>
      </trkpt>
      <trkpt lat="44.420850304886699" lon="8.668981427326798">
        <ele>436.57999999999998</ele>
        <time>2018-04-15T09:26:05Z</time>
      </trkpt>
      <trkpt lat="44.420829266309738" lon="8.668951503932476">
        <ele>437.54000000000002</ele>
        <time>2018-04-15T09:26:09Z</time>
      </trkpt>
      <trkpt lat="44.420795068144798" lon="8.668862907215953">
        <ele>438.5</ele>
        <time>2018-04-15T09:26:20Z</time>
      </trkpt>
      <trkpt lat="44.420786015689373" lon="8.668750254437327">
        <ele>439.94</ele>
        <time>2018-04-15T09:26:30Z</time>
      </trkpt>
      <trkpt lat="44.420784590765834" lon="8.668734915554524">
        <ele>440.42000000000002</ele>
        <time>2018-04-15T09:26:31Z</time>
      </trkpt>
      <trkpt lat="44.420758606866002" lon="8.668592004105449">
        <ele>441.86000000000001</ele>
        <time>2018-04-15T09:26:43Z</time>
      </trkpt>
      <trkpt lat="44.420733042061329" lon="8.668535761535168">
        <ele>442.33999999999997</ele>
        <time>2018-04-15T09:26:54Z</time>
      </trkpt>
      <trkpt lat="44.420726420357823" lon="8.668526457622647">
        <ele>442.81999999999999</ele>
        <time>2018-04-15T09:26:55Z</time>
      </trkpt>
      <trkpt lat="44.420717032626271" lon="8.668470047414303">
        <ele>444.26999999999998</ele>
        <time>2018-04-15T09:26:59Z</time>
      </trkpt>
      <trkpt lat="44.420687695965171" lon="8.668386060744524">
        <ele>445.70999999999998</ele>
        <time>2018-04-15T09:27:09Z</time>
      </trkpt>
      <trkpt lat="44.420689456164837" lon="8.668377008289099">
        <ele>445.70999999999998</ele>
        <time>2018-04-15T09:27:10Z</time>
      </trkpt>
      <trkpt lat="44.420650899410248" lon="8.668297883123159">
        <ele>445.70999999999998</ele>
        <time>2018-04-15T09:27:18Z</time>
      </trkpt>
      <trkpt lat="44.420636901631951" lon="8.668211381882429">
        <ele>446.67000000000002</ele>
        <time>2018-04-15T09:27:27Z</time>
      </trkpt>
      <trkpt lat="44.420639583840966" lon="8.668130077421665">
        <ele>449.06999999999999</ele>
        <time>2018-04-15T09:27:36Z</time>
      </trkpt>
      <trkpt lat="44.420610330998898" lon="8.668019184842706">
        <ele>450.51999999999998</ele>
        <time>2018-04-15T09:27:46Z</time>
      </trkpt>
      <trkpt lat="44.420564817264676" lon="8.667858252301812">
        <ele>452.44</ele>
        <time>2018-04-15T09:27:58Z</time>
      </trkpt>
      <trkpt lat="44.42052248865366" lon="8.667729757726193">
        <ele>452.44</ele>
        <time>2018-04-15T09:28:08Z</time>
      </trkpt>
      <trkpt lat="44.420498264953494" lon="8.667618194594979">
        <ele>453.88</ele>
        <time>2018-04-15T09:28:17Z</time>
      </trkpt>
      <trkpt lat="44.420488039031625" lon="8.667570166289806">
        <ele>455.80000000000001</ele>
        <time>2018-04-15T09:28:21Z</time>
      </trkpt>
      <trkpt lat="44.420447973534465" lon="8.667445946484804">
        <ele>454.83999999999997</ele>
        <time>2018-04-15T09:28:31Z</time>
      </trkpt>
      <trkpt lat="44.420403046533465" lon="8.667270597070456">
        <ele>454.83999999999997</ele>
        <time>2018-04-15T09:28:42Z</time>
      </trkpt>
      <trkpt lat="44.420366333797574" lon="8.667100863531232">
        <ele>454.36000000000001</ele>
        <time>2018-04-15T09:28:55Z</time>
      </trkpt>
      <trkpt lat="44.420362394303083" lon="8.667072365060449">
        <ele>457.72000000000003</ele>
        <time>2018-04-15T09:28:57Z</time>
      </trkpt>
      <trkpt lat="44.420363483950496" lon="8.666986534371972">
        <ele>458.69</ele>
        <time>2018-04-15T09:29:07Z</time>
      </trkpt>
      <trkpt lat="44.420359041541815" lon="8.666889555752277">
        <ele>461.08999999999997</ele>
        <time>2018-04-15T09:29:16Z</time>
      </trkpt>
      <trkpt lat="44.420363400131464" lon="8.6668745521456">
        <ele>461.08999999999997</ele>
        <time>2018-04-15T09:29:17Z</time>
      </trkpt>
      <trkpt lat="44.420362981036305" lon="8.666847394779325">
        <ele>463.49000000000001</ele>
        <time>2018-04-15T09:29:21Z</time>
      </trkpt>
      <trkpt lat="44.420353006571531" lon="8.666828032582998">
        <ele>464.93000000000001</ele>
        <time>2018-04-15T09:29:24Z</time>
      </trkpt>
      <trkpt lat="44.420375302433968" lon="8.666748320683837">
        <ele>463.97000000000003</ele>
        <time>2018-04-15T09:29:33Z</time>
      </trkpt>
      <trkpt lat="44.420383684337139" lon="8.666686210781336">
        <ele>465.42000000000002</ele>
        <time>2018-04-15T09:29:41Z</time>
      </trkpt>
      <trkpt lat="44.420390054583549" lon="8.666658801957965">
        <ele>468.77999999999997</ele>
        <time>2018-04-15T09:29:45Z</time>
      </trkpt>
      <trkpt lat="44.420391144230962" lon="8.666653018444777">
        <ele>467.81999999999999</ele>
        <time>2018-04-15T09:29:46Z</time>
      </trkpt>
      <trkpt lat="44.420390808954835" lon="8.666574228554964">
        <ele>469.74000000000001</ele>
        <time>2018-04-15T09:29:56Z</time>
      </trkpt>
      <trkpt lat="44.420389048755169" lon="8.666511364281178">
        <ele>472.63</ele>
        <time>2018-04-15T09:30:04Z</time>
      </trkpt>
      <trkpt lat="44.420390473678708" lon="8.666461575776339">
        <ele>471.66000000000003</ele>
        <time>2018-04-15T09:30:15Z</time>
      </trkpt>
      <trkpt lat="44.420392820611596" lon="8.666383121162653">
        <ele>473.11000000000001</ele>
        <time>2018-04-15T09:30:26Z</time>
      </trkpt>
      <trkpt lat="44.420397263020277" lon="8.66636292077601">
        <ele>474.06999999999999</ele>
        <time>2018-04-15T09:30:28Z</time>
      </trkpt>
      <trkpt lat="44.420389216393232" lon="8.666336350142956">
        <ele>474.55000000000001</ele>
        <time>2018-04-15T09:30:33Z</time>
      </trkpt>
      <trkpt lat="44.42039935849607" lon="8.666291506960988">
        <ele>475.99000000000001</ele>
        <time>2018-04-15T09:30:42Z</time>
      </trkpt>
      <trkpt lat="44.420408075675368" lon="8.666242472827435">
        <ele>477.43000000000001</ele>
        <time>2018-04-15T09:30:53Z</time>
      </trkpt>
      <trkpt lat="44.420415870845318" lon="8.666167873889208">
        <ele>478.87</ele>
        <time>2018-04-15T09:31:04Z</time>
      </trkpt>
      <trkpt lat="44.420456774532795" lon="8.666153540834785">
        <ele>482.72000000000003</ele>
        <time>2018-04-15T09:31:12Z</time>
      </trkpt>
      <trkpt lat="44.420544197782874" lon="8.666160916909576">
        <ele>484.16000000000003</ele>
        <time>2018-04-15T09:31:26Z</time>
      </trkpt>
      <trkpt lat="44.420567164197564" lon="8.666148008778691">
        <ele>485.60000000000002</ele>
        <time>2018-04-15T09:31:29Z</time>
      </trkpt>
      <trkpt lat="44.420611001551151" lon="8.666126970201731">
        <ele>486.07999999999998</ele>
        <time>2018-04-15T09:31:35Z</time>
      </trkpt>
      <trkpt lat="44.420627932995558" lon="8.666124287992716">
        <ele>486.56</ele>
        <time>2018-04-15T09:31:39Z</time>
      </trkpt>
      <trkpt lat="44.420630782842636" lon="8.666133927181363">
        <ele>484.16000000000003</ele>
        <time>2018-04-15T09:31:46Z</time>
      </trkpt>
      <trkpt lat="44.420638578012586" lon="8.666141554713249">
        <ele>486.07999999999998</ele>
        <time>2018-04-15T09:31:56Z</time>
      </trkpt>
      <trkpt lat="44.420690294355154" lon="8.666171561926603">
        <ele>483.68000000000001</ele>
        <time>2018-04-15T09:32:06Z</time>
      </trkpt>
      <trkpt lat="44.420730778947473" lon="8.666214980185032">
        <ele>486.56</ele>
        <time>2018-04-15T09:32:13Z</time>
      </trkpt>
      <trkpt lat="44.420756008476019" lon="8.666215231642127">
        <ele>489.93000000000001</ele>
        <time>2018-04-15T09:32:17Z</time>
      </trkpt>
      <trkpt lat="44.420764893293381" lon="8.666215902194381">
        <ele>489.44999999999999</ele>
        <time>2018-04-15T09:32:18Z</time>
      </trkpt>
      <trkpt lat="44.420800851657987" lon="8.666209112852812">
        <ele>489.44999999999999</ele>
        <time>2018-04-15T09:32:23Z</time>
      </trkpt>
      <trkpt lat="44.420830439776182" lon="8.666190672665834">
        <ele>489.44999999999999</ele>
        <time>2018-04-15T09:32:27Z</time>
      </trkpt>
      <trkpt lat="44.420921299606562" lon="8.666094532236457">
        <ele>491.85000000000002</ele>
        <time>2018-04-15T09:32:39Z</time>
      </trkpt>
      <trkpt lat="44.420974021777511" lon="8.666078858077526">
        <ele>488.49000000000001</ele>
        <time>2018-04-15T09:32:45Z</time>
      </trkpt>
      <trkpt lat="44.420986426994205" lon="8.66607659496367">
        <ele>488.00999999999999</ele>
        <time>2018-04-15T09:32:47Z</time>
      </trkpt>
      <trkpt lat="44.420991623774171" lon="8.666067039594054">
        <ele>492.32999999999998</ele>
        <time>2018-04-15T09:32:49Z</time>
      </trkpt>
      <trkpt lat="44.420989947393537" lon="8.666061339899898">
        <ele>491.37</ele>
        <time>2018-04-15T09:32:50Z</time>
      </trkpt>
      <trkpt lat="44.420997742563486" lon="8.66608053445816">
        <ele>489.44999999999999</ele>
        <time>2018-04-15T09:32:52Z</time>
      </trkpt>
      <trkpt lat="44.421031689271331" lon="8.666112469509244">
        <ele>488.49000000000001</ele>
        <time>2018-04-15T09:32:54Z</time>
      </trkpt>
      <trkpt lat="44.421142330393195" lon="8.666216991841793">
        <ele>485.60000000000002</ele>
        <time>2018-04-15T09:33:04Z</time>
      </trkpt>
      <trkpt lat="44.421153729781508" lon="8.666222020983696">
        <ele>485.60000000000002</ele>
        <time>2018-04-15T09:33:05Z</time>
      </trkpt>
      <trkpt lat="44.421180048957467" lon="8.666242305189371">
        <ele>489.44999999999999</ele>
        <time>2018-04-15T09:33:07Z</time>
      </trkpt>
      <trkpt lat="44.421280128881335" lon="8.666329979896545">
        <ele>484.63999999999999</ele>
        <time>2018-04-15T09:33:18Z</time>
      </trkpt>
      <trkpt lat="44.421288343146443" lon="8.666340792551637">
        <ele>485.60000000000002</ele>
        <time>2018-04-15T09:33:19Z</time>
      </trkpt>
      <trkpt lat="44.421330420300364" lon="8.666396029293537">
        <ele>489.44999999999999</ele>
        <time>2018-04-15T09:33:24Z</time>
      </trkpt>
      <trkpt lat="44.421336455270648" lon="8.666407009586692">
        <ele>488.49000000000001</ele>
        <time>2018-04-15T09:33:25Z</time>
      </trkpt>
      <trkpt lat="44.421351877972484" lon="8.666428634896874">
        <ele>486.56</ele>
        <time>2018-04-15T09:33:27Z</time>
      </trkpt>
      <trkpt lat="44.421389680355787" lon="8.666494181379676">
        <ele>489.93000000000001</ele>
        <time>2018-04-15T09:33:33Z</time>
      </trkpt>
      <trkpt lat="44.421395128592849" lon="8.666504910215735">
        <ele>490.41000000000003</ele>
        <time>2018-04-15T09:33:34Z</time>
      </trkpt>
      <trkpt lat="44.421455226838589" lon="8.666579257696867">
        <ele>486.56</ele>
        <time>2018-04-15T09:33:42Z</time>
      </trkpt>
      <trkpt lat="44.421465955674648" lon="8.666588142514229">
        <ele>490.41000000000003</ele>
        <time>2018-04-15T09:33:43Z</time>
      </trkpt>
      <trkpt lat="44.421475762501359" lon="8.666600631549954">
        <ele>490.41000000000003</ele>
        <time>2018-04-15T09:33:44Z</time>
      </trkpt>
      <trkpt lat="44.421501494944096" lon="8.666649498045445">
        <ele>491.85000000000002</ele>
        <time>2018-04-15T09:33:49Z</time>
      </trkpt>
      <trkpt lat="44.421526892110705" lon="8.666688641533256">
        <ele>492.32999999999998</ele>
        <time>2018-04-15T09:33:53Z</time>
      </trkpt>
      <trkpt lat="44.421550612896681" lon="8.666730048134923">
        <ele>493.29000000000002</ele>
        <time>2018-04-15T09:33:56Z</time>
      </trkpt>
      <trkpt lat="44.421555055305362" lon="8.666754774749279">
        <ele>491.37</ele>
        <time>2018-04-15T09:33:58Z</time>
      </trkpt>
      <trkpt lat="44.421547008678317" lon="8.666799953207374">
        <ele>492.81</ele>
        <time>2018-04-15T09:34:04Z</time>
      </trkpt>
      <trkpt lat="44.421547260135412" lon="8.666793666779995">
        <ele>489.93000000000001</ele>
        <time>2018-04-15T09:34:07Z</time>
      </trkpt>
      <trkpt lat="44.421559581533074" lon="8.666800456121564">
        <ele>489.44999999999999</ele>
        <time>2018-04-15T09:34:08Z</time>
      </trkpt>
      <trkpt lat="44.421637114137411" lon="8.666883520781994">
        <ele>489.44999999999999</ele>
        <time>2018-04-15T09:34:17Z</time>
      </trkpt>
      <trkpt lat="44.421671815216541" lon="8.666933225467801">
        <ele>493.29000000000002</ele>
        <time>2018-04-15T09:34:21Z</time>
      </trkpt>
      <trkpt lat="44.421718921512365" lon="8.66703481413424">
        <ele>492.32999999999998</ele>
        <time>2018-04-15T09:34:30Z</time>
      </trkpt>
      <trkpt lat="44.421731997281313" lon="8.667069431394339">
        <ele>490.88999999999999</ele>
        <time>2018-04-15T09:34:33Z</time>
      </trkpt>
      <trkpt lat="44.421743480488658" lon="8.667090218514204">
        <ele>493.76999999999998</ele>
        <time>2018-04-15T09:34:35Z</time>
      </trkpt>
      <trkpt lat="44.421764351427555" lon="8.667123494669795">
        <ele>495.22000000000003</ele>
        <time>2018-04-15T09:34:38Z</time>
      </trkpt>
      <trkpt lat="44.421765608713031" lon="8.667163979262114">
        <ele>494.74000000000001</ele>
        <time>2018-04-15T09:34:48Z</time>
      </trkpt>
      <trkpt lat="44.421774577349424" lon="8.66718577221036">
        <ele>494.25999999999999</ele>
        <time>2018-04-15T09:34:50Z</time>
      </trkpt>
      <trkpt lat="44.421860240399837" lon="8.667282331734896">
        <ele>495.22000000000003</ele>
        <time>2018-04-15T09:35:01Z</time>
      </trkpt>
      <trkpt lat="44.421894857659936" lon="8.667350728064776">
        <ele>498.57999999999998</ele>
        <time>2018-04-15T09:35:08Z</time>
      </trkpt>
      <trkpt lat="44.421946322545409" lon="8.667466063052416">
        <ele>497.13999999999999</ele>
        <time>2018-04-15T09:35:19Z</time>
      </trkpt>
      <trkpt lat="44.421967109665275" lon="8.667512834072113">
        <ele>499.06</ele>
        <time>2018-04-15T09:35:24Z</time>
      </trkpt>
      <trkpt lat="44.421986639499664" lon="8.667561030015349">
        <ele>500.5</ele>
        <time>2018-04-15T09:35:30Z</time>
      </trkpt>
      <trkpt lat="44.421996613964438" lon="8.667591707780957">
        <ele>500.98000000000002</ele>
        <time>2018-04-15T09:35:33Z</time>
      </trkpt>
      <trkpt lat="44.422017987817526" lon="8.667699666693807">
        <ele>500.01999999999998</ele>
        <time>2018-04-15T09:35:43Z</time>
      </trkpt>
      <trkpt lat="44.422044809907675" lon="8.667796058580279">
        <ele>505.31</ele>
        <time>2018-04-15T09:35:54Z</time>
      </trkpt>
      <trkpt lat="44.422048833221197" lon="8.66780343465507">
        <ele>505.31</ele>
        <time>2018-04-15T09:35:55Z</time>
      </trkpt>
      <trkpt lat="44.42206316627562" lon="8.667838471010327">
        <ele>506.75</ele>
        <time>2018-04-15T09:35:59Z</time>
      </trkpt>
      <trkpt lat="44.422109602019191" lon="8.667937209829688">
        <ele>507.23000000000002</ele>
        <time>2018-04-15T09:36:10Z</time>
      </trkpt>
      <trkpt lat="44.422128377482295" lon="8.667953554540873">
        <ele>507.23000000000002</ele>
        <time>2018-04-15T09:36:13Z</time>
      </trkpt>
      <trkpt lat="44.422158384695649" lon="8.667965289205313">
        <ele>505.79000000000002</ele>
        <time>2018-04-15T09:36:17Z</time>
      </trkpt>
      <trkpt lat="44.422169951722026" lon="8.667967049404979">
        <ele>507.23000000000002</ele>
        <time>2018-04-15T09:36:19Z</time>
      </trkpt>
      <trkpt lat="44.422192079946399" lon="8.66796562448144">
        <ele>506.26999999999998</ele>
        <time>2018-04-15T09:36:22Z</time>
      </trkpt>
      <trkpt lat="44.422250669449568" lon="8.667956152930856">
        <ele>507.70999999999998</ele>
        <time>2018-04-15T09:36:32Z</time>
      </trkpt>
      <trkpt lat="44.422337338328362" lon="8.6679314263165">
        <ele>510.12</ele>
        <time>2018-04-15T09:36:43Z</time>
      </trkpt>
      <trkpt lat="44.422442195937037" lon="8.66797492839396">
        <ele>511.07999999999998</ele>
        <time>2018-04-15T09:36:55Z</time>
      </trkpt>
      <trkpt lat="44.422473795711994" lon="8.668011473491788">
        <ele>511.07999999999998</ele>
        <time>2018-04-15T09:36:59Z</time>
      </trkpt>
      <trkpt lat="44.422487122938037" lon="8.668094705790281">
        <ele>513</ele>
        <time>2018-04-15T09:37:06Z</time>
      </trkpt>
      <trkpt lat="44.422485530376434" lon="8.668113984167576">
        <ele>513.48000000000002</ele>
        <time>2018-04-15T09:37:08Z</time>
      </trkpt>
      <trkpt lat="44.422496929764748" lon="8.668192522600293">
        <ele>512.51999999999998</ele>
        <time>2018-04-15T09:37:14Z</time>
      </trkpt>
      <trkpt lat="44.422492571175098" lon="8.668286819010973">
        <ele>515.39999999999998</ele>
        <time>2018-04-15T09:37:23Z</time>
      </trkpt>
      <trkpt lat="44.422465581446886" lon="8.668305343016982">
        <ele>513.48000000000002</ele>
        <time>2018-04-15T09:37:32Z</time>
      </trkpt>
      <trkpt lat="44.422464575618505" lon="8.668307103216648">
        <ele>513</ele>
        <time>2018-04-15T09:37:33Z</time>
      </trkpt>
      <trkpt lat="44.422464156523347" lon="8.668320765718818">
        <ele>513.48000000000002</ele>
        <time>2018-04-15T09:37:36Z</time>
      </trkpt>
      <trkpt lat="44.422484105452895" lon="8.668363345786929">
        <ele>514.91999999999996</ele>
        <time>2018-04-15T09:37:40Z</time>
      </trkpt>
      <trkpt lat="44.422493409365416" lon="8.668386731296778">
        <ele>512.03999999999996</ele>
        <time>2018-04-15T09:37:42Z</time>
      </trkpt>
      <trkpt lat="44.422505395486951" lon="8.668423360213637">
        <ele>515.39999999999998</ele>
        <time>2018-04-15T09:37:45Z</time>
      </trkpt>
      <trkpt lat="44.422514447942376" lon="8.668462419882417">
        <ele>513.48000000000002</ele>
        <time>2018-04-15T09:37:48Z</time>
      </trkpt>
      <trkpt lat="44.422540180385113" lon="8.66851388476789">
        <ele>516.85000000000002</ele>
        <time>2018-04-15T09:37:52Z</time>
      </trkpt>
      <trkpt lat="44.422605140134692" lon="8.668644391000271">
        <ele>514.91999999999996</ele>
        <time>2018-04-15T09:38:04Z</time>
      </trkpt>
      <trkpt lat="44.422640176489949" lon="8.668718822300434">
        <ele>517.80999999999995</ele>
        <time>2018-04-15T09:38:10Z</time>
      </trkpt>
      <trkpt lat="44.422645708546042" lon="8.668727707117796">
        <ele>518.28999999999996</ele>
        <time>2018-04-15T09:38:11Z</time>
      </trkpt>
      <trkpt lat="44.422684600576758" lon="8.668863410130143">
        <ele>518.76999999999998</ele>
        <time>2018-04-15T09:38:21Z</time>
      </trkpt>
      <trkpt lat="44.422743106260896" lon="8.668950498104096">
        <ele>519.25</ele>
        <time>2018-04-15T09:38:30Z</time>
      </trkpt>
      <trkpt lat="44.422841928899288" lon="8.669054601341486">
        <ele>521.16999999999996</ele>
        <time>2018-04-15T09:38:43Z</time>
      </trkpt>
      <trkpt lat="44.42293438129127" lon="8.669152334332466">
        <ele>520.21000000000004</ele>
        <time>2018-04-15T09:38:55Z</time>
      </trkpt>
      <trkpt lat="44.423032701015472" lon="8.669225843623281">
        <ele>521.64999999999998</ele>
        <time>2018-04-15T09:39:07Z</time>
      </trkpt>
      <trkpt lat="44.423128422349691" lon="8.66930446587503">
        <ele>524.53999999999996</ele>
        <time>2018-04-15T09:39:19Z</time>
      </trkpt>
      <trkpt lat="44.423209559172392" lon="8.669392727315426">
        <ele>527.89999999999998</ele>
        <time>2018-04-15T09:39:30Z</time>
      </trkpt>
      <trkpt lat="44.423223305493593" lon="8.669407060369849">
        <ele>528.38</ele>
        <time>2018-04-15T09:39:32Z</time>
      </trkpt>
      <trkpt lat="44.423259934410453" lon="8.669426254928112">
        <ele>526.46000000000004</ele>
        <time>2018-04-15T09:39:36Z</time>
      </trkpt>
      <trkpt lat="44.42328080534935" lon="8.669438995420933">
        <ele>525.5</ele>
        <time>2018-04-15T09:39:38Z</time>
      </trkpt>
      <trkpt lat="44.423368563875556" lon="8.66948333568871">
        <ele>529.82000000000005</ele>
        <time>2018-04-15T09:39:49Z</time>
      </trkpt>
      <trkpt lat="44.423414329066873" lon="8.669522982090712">
        <ele>528.86000000000001</ele>
        <time>2018-04-15T09:39:55Z</time>
      </trkpt>
      <trkpt lat="44.42347576841712" lon="8.669695649296045">
        <ele>530.78999999999996</ele>
        <time>2018-04-15T09:40:08Z</time>
      </trkpt>
      <trkpt lat="44.423482473939657" lon="8.669723058119416">
        <ele>531.75</ele>
        <time>2018-04-15T09:40:10Z</time>
      </trkpt>
      <trkpt lat="44.423524886369705" lon="8.669870495796204">
        <ele>530.78999999999996</ele>
        <time>2018-04-15T09:40:21Z</time>
      </trkpt>
      <trkpt lat="44.423576099798083" lon="8.670032350346446">
        <ele>528.38</ele>
        <time>2018-04-15T09:40:33Z</time>
      </trkpt>
      <trkpt lat="44.423649189993739" lon="8.670176602900028">
        <ele>531.26999999999998</ele>
        <time>2018-04-15T09:40:45Z</time>
      </trkpt>
      <trkpt lat="44.42372303456068" lon="8.670267714187503">
        <ele>532.23000000000002</ele>
        <time>2018-04-15T09:40:56Z</time>
      </trkpt>
      <trkpt lat="44.423775672912598" lon="8.67031498812139">
        <ele>534.63</ele>
        <time>2018-04-15T09:41:03Z</time>
      </trkpt>
      <trkpt lat="44.423880698159337" lon="8.670382713899016">
        <ele>534.63</ele>
        <time>2018-04-15T09:41:15Z</time>
      </trkpt>
      <trkpt lat="44.423951944336295" lon="8.670473238453269">
        <ele>537.02999999999997</ele>
        <time>2018-04-15T09:41:26Z</time>
      </trkpt>
      <trkpt lat="44.423956722021103" lon="8.670480530709028">
        <ele>537.02999999999997</ele>
        <time>2018-04-15T09:41:27Z</time>
      </trkpt>
      <trkpt lat="44.42402109503746" lon="8.670550603419542">
        <ele>539.91999999999996</ele>
        <time>2018-04-15T09:41:37Z</time>
      </trkpt>
      <trkpt lat="44.424074068665504" lon="8.670558063313365">
        <ele>539.44000000000005</ele>
        <time>2018-04-15T09:41:45Z</time>
      </trkpt>
      <trkpt lat="44.424082785844803" lon="8.67053434252739">
        <ele>540.88</ele>
        <time>2018-04-15T09:41:48Z</time>
      </trkpt>
      <trkpt lat="44.42408412694931" lon="8.670524619519711">
        <ele>540.88</ele>
        <time>2018-04-15T09:41:49Z</time>
      </trkpt>
      <trkpt lat="44.424064764752984" lon="8.670403165742755">
        <ele>543.75999999999999</ele>
        <time>2018-04-15T09:41:59Z</time>
      </trkpt>
      <trkpt lat="44.424057053402066" lon="8.670384474098682">
        <ele>543.75999999999999</ele>
        <time>2018-04-15T09:42:01Z</time>
      </trkpt>
      <trkpt lat="44.424008522182703" lon="8.670227732509375">
        <ele>544.24000000000001</ele>
        <time>2018-04-15T09:42:14Z</time>
      </trkpt>
      <trkpt lat="44.423964768648148" lon="8.670076271519065">
        <ele>544.24000000000001</ele>
        <time>2018-04-15T09:42:25Z</time>
      </trkpt>
      <trkpt lat="44.423940125852823" lon="8.669984489679337">
        <ele>543.27999999999997</ele>
        <time>2018-04-15T09:42:32Z</time>
      </trkpt>
      <trkpt lat="44.423900814726949" lon="8.669843170791864">
        <ele>547.13</ele>
        <time>2018-04-15T09:42:43Z</time>
      </trkpt>
      <trkpt lat="44.423895869404078" lon="8.669829675927758">
        <ele>547.13</ele>
        <time>2018-04-15T09:42:44Z</time>
      </trkpt>
      <trkpt lat="44.423868209123611" lon="8.669709982350469">
        <ele>546.16999999999996</ele>
        <time>2018-04-15T09:42:53Z</time>
      </trkpt>
      <trkpt lat="44.423827640712261" lon="8.669573022052646">
        <ele>546.64999999999998</ele>
        <time>2018-04-15T09:43:05Z</time>
      </trkpt>
      <trkpt lat="44.423792352899909" lon="8.669488029554486">
        <ele>547.61000000000001</ele>
        <time>2018-04-15T09:43:15Z</time>
      </trkpt>
      <trkpt lat="44.42375186830759" lon="8.669369341805577">
        <ele>549.52999999999997</ele>
        <time>2018-04-15T09:43:26Z</time>
      </trkpt>
      <trkpt lat="44.423721609637141" lon="8.669278481975198">
        <ele>549.04999999999995</ele>
        <time>2018-04-15T09:43:37Z</time>
      </trkpt>
      <trkpt lat="44.423699146136642" lon="8.669218719005585">
        <ele>549.52999999999997</ele>
        <time>2018-04-15T09:43:45Z</time>
      </trkpt>
      <trkpt lat="44.423690177500248" lon="8.669200111180544">
        <ele>550.00999999999999</ele>
        <time>2018-04-15T09:43:48Z</time>
      </trkpt>
      <trkpt lat="44.423661846667528" lon="8.6691212374717">
        <ele>550.49000000000001</ele>
        <time>2018-04-15T09:43:59Z</time>
      </trkpt>
      <trkpt lat="44.423643909394741" lon="8.669080249965191">
        <ele>550.49000000000001</ele>
        <time>2018-04-15T09:44:03Z</time>
      </trkpt>
      <trkpt lat="44.42359403707087" lon="8.668969525024295">
        <ele>550.97000000000003</ele>
        <time>2018-04-15T09:44:13Z</time>
      </trkpt>
      <trkpt lat="44.423596803098917" lon="8.668938176706433">
        <ele>550.97000000000003</ele>
        <time>2018-04-15T09:44:15Z</time>
      </trkpt>
      <trkpt lat="44.423697972670197" lon="8.668925687670708">
        <ele>551.92999999999995</ele>
        <time>2018-04-15T09:44:26Z</time>
      </trkpt>
      <trkpt lat="44.423719011247158" lon="8.668952258303762">
        <ele>551.45000000000005</ele>
        <time>2018-04-15T09:44:29Z</time>
      </trkpt>
      <trkpt lat="44.423729237169027" lon="8.668966591358185">
        <ele>553.38</ele>
        <time>2018-04-15T09:44:40Z</time>
      </trkpt>
      <trkpt lat="44.423768632113934" lon="8.669049739837647">
        <ele>554.82000000000005</ele>
        <time>2018-04-15T09:44:50Z</time>
      </trkpt>
      <trkpt lat="44.423818755894899" lon="8.669148646295071">
        <ele>555.29999999999995</ele>
        <time>2018-04-15T09:45:00Z</time>
      </trkpt>
      <trkpt lat="44.423847422003746" lon="8.669186700135469">
        <ele>557.22000000000003</ele>
        <time>2018-04-15T09:45:04Z</time>
      </trkpt>
      <trkpt lat="44.423881201073527" lon="8.669244283810258">
        <ele>557.70000000000005</ele>
        <time>2018-04-15T09:45:10Z</time>
      </trkpt>
      <trkpt lat="44.423893438652158" lon="8.669263813644648">
        <ele>556.74000000000001</ele>
        <time>2018-04-15T09:45:12Z</time>
      </trkpt>
      <trkpt lat="44.423960074782372" lon="8.669348638504744">
        <ele>556.74000000000001</ele>
        <time>2018-04-15T09:45:22Z</time>
      </trkpt>
      <trkpt lat="44.424046743661165" lon="8.669441174715757">
        <ele>558.17999999999995</ele>
        <time>2018-04-15T09:45:34Z</time>
      </trkpt>
      <trkpt lat="44.424083791673183" lon="8.669483503326774">
        <ele>561.54999999999995</ele>
        <time>2018-04-15T09:45:39Z</time>
      </trkpt>
      <trkpt lat="44.424090329557657" lon="8.669493645429611">
        <ele>560.11000000000001</ele>
        <time>2018-04-15T09:45:40Z</time>
      </trkpt>
      <trkpt lat="44.424179010093212" lon="8.669568495824933">
        <ele>562.02999999999997</ele>
        <time>2018-04-15T09:45:51Z</time>
      </trkpt>
      <trkpt lat="44.424269869923592" lon="8.669663798063994">
        <ele>562.50999999999999</ele>
        <time>2018-04-15T09:46:03Z</time>
      </trkpt>
      <trkpt lat="44.424335835501552" lon="8.669760189950466">
        <ele>562.99000000000001</ele>
        <time>2018-04-15T09:46:13Z</time>
      </trkpt>
      <trkpt lat="44.424359640106559" lon="8.669796567410231">
        <ele>564.42999999999995</ele>
        <time>2018-04-15T09:46:17Z</time>
      </trkpt>
      <trkpt lat="44.424375900998712" lon="8.669830346480012">
        <ele>565.38999999999999</ele>
        <time>2018-04-15T09:46:20Z</time>
      </trkpt>
      <trkpt lat="44.42443935200572" lon="8.669941490516067">
        <ele>563.95000000000005</ele>
        <time>2018-04-15T09:46:31Z</time>
      </trkpt>
      <trkpt lat="44.424508502706885" lon="8.670044671744108">
        <ele>564.42999999999995</ele>
        <time>2018-04-15T09:46:42Z</time>
      </trkpt>
      <trkpt lat="44.424580335617065" lon="8.670157492160797">
        <ele>567.32000000000005</ele>
        <time>2018-04-15T09:46:54Z</time>
      </trkpt>
      <trkpt lat="44.424585280939937" lon="8.670165538787842">
        <ele>567.79999999999995</ele>
        <time>2018-04-15T09:46:55Z</time>
      </trkpt>
      <trkpt lat="44.424603804945946" lon="8.670195462182164">
        <ele>569.72000000000003</ele>
        <time>2018-04-15T09:46:58Z</time>
      </trkpt>
      <trkpt lat="44.424688294529915" lon="8.670320603996515">
        <ele>569.72000000000003</ele>
        <time>2018-04-15T09:47:11Z</time>
      </trkpt>
      <trkpt lat="44.424739005044103" lon="8.670414984226227">
        <ele>570.20000000000005</ele>
        <time>2018-04-15T09:47:21Z</time>
      </trkpt>
      <trkpt lat="44.424808574840426" lon="8.670496791601181">
        <ele>568.75999999999999</ele>
        <time>2018-04-15T09:47:32Z</time>
      </trkpt>
      <trkpt lat="44.424814358353615" lon="8.670506179332733">
        <ele>568.75999999999999</ele>
        <time>2018-04-15T09:47:33Z</time>
      </trkpt>
      <trkpt lat="44.424869930371642" lon="8.670579269528389">
        <ele>571.63999999999999</ele>
        <time>2018-04-15T09:47:43Z</time>
      </trkpt>
      <trkpt lat="44.424919215962291" lon="8.670641044154763">
        <ele>573.55999999999995</ele>
        <time>2018-04-15T09:47:52Z</time>
      </trkpt>
      <trkpt lat="44.4249636400491" lon="8.670706674456596">
        <ele>575.97000000000003</ele>
        <time>2018-04-15T09:48:01Z</time>
      </trkpt>
      <trkpt lat="44.425005381926894" lon="8.670762162655592">
        <ele>576.45000000000005</ele>
        <time>2018-04-15T09:48:08Z</time>
      </trkpt>
      <trkpt lat="44.425086518749595" lon="8.670836510136724">
        <ele>577.88999999999999</ele>
        <time>2018-04-15T09:48:20Z</time>
      </trkpt>
      <trkpt lat="44.42513370886445" lon="8.670799126848579">
        <ele>578.37</ele>
        <time>2018-04-15T09:48:32Z</time>
      </trkpt>
      <trkpt lat="44.425136726349592" lon="8.670699633657932">
        <ele>578.85000000000002</ele>
        <time>2018-04-15T09:48:43Z</time>
      </trkpt>
      <trkpt lat="44.425112837925553" lon="8.670674655586481">
        <ele>580.28999999999996</ele>
        <time>2018-04-15T09:48:54Z</time>
      </trkpt>
      <trkpt lat="44.425067659467459" lon="8.670542808249593">
        <ele>582.22000000000003</ele>
        <time>2018-04-15T09:49:05Z</time>
      </trkpt>
      <trkpt lat="44.425036897882819" lon="8.670468125492334">
        <ele>580.76999999999998</ele>
        <time>2018-04-15T09:49:11Z</time>
      </trkpt>
      <trkpt lat="44.425014015287161" lon="8.670425796881318">
        <ele>583.65999999999997</ele>
        <time>2018-04-15T09:49:17Z</time>
      </trkpt>
      <trkpt lat="44.424933381378651" lon="8.670191690325737">
        <ele>583.65999999999997</ele>
        <time>2018-04-15T09:49:32Z</time>
      </trkpt>
      <trkpt lat="44.424887867644429" lon="8.670043833553791">
        <ele>583.17999999999995</ele>
        <time>2018-04-15T09:49:44Z</time>
      </trkpt>
      <trkpt lat="44.424873534590006" lon="8.669998990371823">
        <ele>587.5</ele>
        <time>2018-04-15T09:49:48Z</time>
      </trkpt>
      <trkpt lat="44.424862051382661" lon="8.669969905167818">
        <ele>588.46000000000004</ele>
        <time>2018-04-15T09:49:50Z</time>
      </trkpt>
      <trkpt lat="44.424838582053781" lon="8.669915506616235">
        <ele>586.53999999999996</ele>
        <time>2018-04-15T09:49:54Z</time>
      </trkpt>
      <trkpt lat="44.424795247614384" lon="8.669772343710065">
        <ele>586.53999999999996</ele>
        <time>2018-04-15T09:50:05Z</time>
      </trkpt>
      <trkpt lat="44.424789045006037" lon="8.669734206050634">
        <ele>585.58000000000004</ele>
        <time>2018-04-15T09:50:09Z</time>
      </trkpt>
      <trkpt lat="44.42476817406714" lon="8.669679472222924">
        <ele>589.90999999999997</ele>
        <time>2018-04-15T09:50:14Z</time>
      </trkpt>
      <trkpt lat="44.42476230673492" lon="8.669653320685029">
        <ele>591.83000000000004</ele>
        <time>2018-04-15T09:50:16Z</time>
      </trkpt>
      <trkpt lat="44.424756187945604" lon="8.669629348441958">
        <ele>588.95000000000005</ele>
        <time>2018-04-15T09:50:18Z</time>
      </trkpt>
      <trkpt lat="44.424756271764636" lon="8.669588780030608">
        <ele>587.01999999999998</ele>
        <time>2018-04-15T09:50:21Z</time>
      </trkpt>
      <trkpt lat="44.424766330048442" lon="8.66949699819088">
        <ele>589.90999999999997</ele>
        <time>2018-04-15T09:50:29Z</time>
      </trkpt>
      <trkpt lat="44.424838665872812" lon="8.66947109811008">
        <ele>589.42999999999995</ele>
        <time>2018-04-15T09:50:40Z</time>
      </trkpt>
      <trkpt lat="44.424897506833076" lon="8.669504625722766">
        <ele>592.78999999999996</ele>
        <time>2018-04-15T09:50:48Z</time>
      </trkpt>
      <trkpt lat="44.424992725253105" lon="8.669589534401894">
        <ele>593.26999999999998</ele>
        <time>2018-04-15T09:51:01Z</time>
      </trkpt>
      <trkpt lat="44.425021391361952" lon="8.669609148055315">
        <ele>594.71000000000004</ele>
        <time>2018-04-15T09:51:06Z</time>
      </trkpt>
      <trkpt lat="44.425045363605022" lon="8.669622307643294">
        <ele>596.63999999999999</ele>
        <time>2018-04-15T09:51:11Z</time>
      </trkpt>
      <trkpt lat="44.425065480172634" lon="8.669637562707067">
        <ele>595.19000000000005</ele>
        <time>2018-04-15T09:51:14Z</time>
      </trkpt>
      <trkpt lat="44.425088865682483" lon="8.669653404504061">
        <ele>593.26999999999998</ele>
        <time>2018-04-15T09:51:18Z</time>
      </trkpt>
      <trkpt lat="44.42510386928916" lon="8.669668156653643">
        <ele>596.63999999999999</ele>
        <time>2018-04-15T09:51:21Z</time>
      </trkpt>
      <trkpt lat="44.425124991685152" lon="8.669683495536447">
        <ele>600.96000000000004</ele>
        <time>2018-04-15T09:51:24Z</time>
      </trkpt>
      <trkpt lat="44.425165141001344" lon="8.669706378132105">
        <ele>598.55999999999995</ele>
        <time>2018-04-15T09:51:30Z</time>
      </trkpt>
      <trkpt lat="44.425216186791658" lon="8.669750047847629">
        <ele>598.08000000000004</ele>
        <time>2018-04-15T09:51:39Z</time>
      </trkpt>
      <trkpt lat="44.425275027751923" lon="8.669803775846958">
        <ele>598.55999999999995</ele>
        <time>2018-04-15T09:51:48Z</time>
      </trkpt>
      <trkpt lat="44.425302017480135" lon="8.669825484976172">
        <ele>597.60000000000002</ele>
        <time>2018-04-15T09:51:52Z</time>
      </trkpt>
      <trkpt lat="44.425328420475125" lon="8.669858844950795">
        <ele>599.03999999999996</ele>
        <time>2018-04-15T09:51:56Z</time>
      </trkpt>
      <trkpt lat="44.425369743257761" lon="8.669901676476002">
        <ele>600.96000000000004</ele>
        <time>2018-04-15T09:52:02Z</time>
      </trkpt>
      <trkpt lat="44.425400253385305" lon="8.669942328706384">
        <ele>597.12</ele>
        <time>2018-04-15T09:52:06Z</time>
      </trkpt>
      <trkpt lat="44.425406958907843" lon="8.669952135533094">
        <ele>597.12</ele>
        <time>2018-04-15T09:52:07Z</time>
      </trkpt>
      <trkpt lat="44.4254195317626" lon="8.669975688681006">
        <ele>600.96000000000004</ele>
        <time>2018-04-15T09:52:10Z</time>
      </trkpt>
      <trkpt lat="44.425422549247742" lon="8.669980382546783">
        <ele>600</ele>
        <time>2018-04-15T09:52:11Z</time>
      </trkpt>
      <trkpt lat="44.425436714664102" lon="8.670008042827249">
        <ele>601.44000000000005</ele>
        <time>2018-04-15T09:52:15Z</time>
      </trkpt>
      <trkpt lat="44.425442665815353" lon="8.67001541890204">
        <ele>598.08000000000004</ele>
        <time>2018-04-15T09:52:16Z</time>
      </trkpt>
      <trkpt lat="44.425449371337891" lon="8.670025058090687">
        <ele>596.63999999999999</ele>
        <time>2018-04-15T09:52:17Z</time>
      </trkpt>
      <trkpt lat="44.425458256155252" lon="8.670070823282003">
        <ele>598.55999999999995</ele>
        <time>2018-04-15T09:52:20Z</time>
      </trkpt>
      <trkpt lat="44.425458675250411" lon="8.6700882576406">
        <ele>600</ele>
        <time>2018-04-15T09:52:21Z</time>
      </trkpt>
      <trkpt lat="44.425457250326872" lon="8.670122036710382">
        <ele>595.19000000000005</ele>
        <time>2018-04-15T09:52:23Z</time>
      </trkpt>
      <trkpt lat="44.425457585602999" lon="8.670138884335756">
        <ele>596.14999999999998</ele>
        <time>2018-04-15T09:52:24Z</time>
      </trkpt>
      <trkpt lat="44.425472253933549" lon="8.670230247080326">
        <ele>595.19000000000005</ele>
        <time>2018-04-15T09:52:33Z</time>
      </trkpt>
      <trkpt lat="44.425472673028708" lon="8.670252207666636">
        <ele>596.14999999999998</ele>
        <time>2018-04-15T09:52:35Z</time>
      </trkpt>
      <trkpt lat="44.425467308610678" lon="8.670275425538421">
        <ele>599.03999999999996</ele>
        <time>2018-04-15T09:52:37Z</time>
      </trkpt>
      <trkpt lat="44.425461608916521" lon="8.670302666723728">
        <ele>600</ele>
        <time>2018-04-15T09:52:39Z</time>
      </trkpt>
      <trkpt lat="44.42545666359365" lon="8.670331919565797">
        <ele>598.08000000000004</ele>
        <time>2018-04-15T09:52:42Z</time>
      </trkpt>
      <trkpt lat="44.425447946414351" lon="8.67042688652873">
        <ele>597.60000000000002</ele>
        <time>2018-04-15T09:52:52Z</time>
      </trkpt>
      <trkpt lat="44.425465632230043" lon="8.670553956180811">
        <ele>596.14999999999998</ele>
        <time>2018-04-15T09:53:05Z</time>
      </trkpt>
      <trkpt lat="44.425483904778957" lon="8.670582873746753">
        <ele>594.23000000000002</ele>
        <time>2018-04-15T09:53:08Z</time>
      </trkpt>
      <trkpt lat="44.425501003861427" lon="8.67063500918448">
        <ele>593.26999999999998</ele>
        <time>2018-04-15T09:53:18Z</time>
      </trkpt>
      <trkpt lat="44.425500752404332" lon="8.670633668079972">
        <ele>594.23000000000002</ele>
        <time>2018-04-15T09:53:24Z</time>
      </trkpt>
      <trkpt lat="44.425477115437388" lon="8.670681277289987">
        <ele>594.71000000000004</ele>
        <time>2018-04-15T09:53:39Z</time>
      </trkpt>
      <trkpt lat="44.425476947799325" lon="8.670708015561104">
        <ele>593.26999999999998</ele>
        <time>2018-04-15T09:53:55Z</time>
      </trkpt>
      <trkpt lat="44.425509888678789" lon="8.670694520696998">
        <ele>593.75</ele>
        <time>2018-04-15T09:54:06Z</time>
      </trkpt>
      <trkpt lat="44.425471415743232" lon="8.67069074884057">
        <ele>592.78999999999996</ele>
        <time>2018-04-15T09:54:20Z</time>
      </trkpt>
      <trkpt lat="44.425472253933549" lon="8.670700723305345">
        <ele>593.26999999999998</ele>
        <time>2018-04-15T09:54:33Z</time>
      </trkpt>
      <trkpt lat="44.425477785989642" lon="8.670731233432889">
        <ele>593.26999999999998</ele>
        <time>2018-04-15T09:54:46Z</time>
      </trkpt>
      <trkpt lat="44.425488263368607" lon="8.670721761882305">
        <ele>593.26999999999998</ele>
        <time>2018-04-15T09:54:58Z</time>
      </trkpt>
      <trkpt lat="44.425510978326201" lon="8.670698376372457">
        <ele>593.75</ele>
        <time>2018-04-15T09:55:21Z</time>
      </trkpt>
      <trkpt lat="44.425508212298155" lon="8.67070198059082">
        <ele>593.26999999999998</ele>
        <time>2018-04-15T09:55:40Z</time>
      </trkpt>
      <trkpt lat="44.425512067973614" lon="8.670702818781138">
        <ele>595.19000000000005</ele>
        <time>2018-04-15T09:55:49Z</time>
      </trkpt>
      <trkpt lat="44.42550360225141" lon="8.67071614600718">
        <ele>593.26999999999998</ele>
        <time>2018-04-15T09:56:10Z</time>
      </trkpt>
      <trkpt lat="44.425506452098489" lon="8.670725282281637">
        <ele>593.75</ele>
        <time>2018-04-15T09:56:30Z</time>
      </trkpt>
      <trkpt lat="44.42547325976193" lon="8.670715894550085">
        <ele>593.26999999999998</ele>
        <time>2018-04-15T09:56:51Z</time>
      </trkpt>
      <trkpt lat="44.425477031618357" lon="8.670742549002171">
        <ele>594.23000000000002</ele>
        <time>2018-04-15T09:57:12Z</time>
      </trkpt>
      <trkpt lat="44.425485245883465" lon="8.670763168483973">
        <ele>595.19000000000005</ele>
        <time>2018-04-15T09:57:28Z</time>
      </trkpt>
      <trkpt lat="44.42547325976193" lon="8.670749925076962">
        <ele>593.26999999999998</ele>
        <time>2018-04-15T09:57:39Z</time>
      </trkpt>
      <trkpt lat="44.42545129917562" lon="8.670746739953756">
        <ele>592.30999999999995</ele>
        <time>2018-04-15T09:57:49Z</time>
      </trkpt>
      <trkpt lat="44.425465213134885" lon="8.670772137120366">
        <ele>593.75</ele>
        <time>2018-04-15T09:57:59Z</time>
      </trkpt>
      <trkpt lat="44.425457837060094" lon="8.670710613951087">
        <ele>593.26999999999998</ele>
        <time>2018-04-15T09:58:10Z</time>
      </trkpt>
      <trkpt lat="44.425477450713515" lon="8.670739615336061">
        <ele>593.75</ele>
        <time>2018-04-15T09:58:21Z</time>
      </trkpt>
      <trkpt lat="44.425447778776288" lon="8.670765347778797">
        <ele>596.14999999999998</ele>
        <time>2018-04-15T09:58:34Z</time>
      </trkpt>
      <trkpt lat="44.425446186214685" lon="8.670762749388814">
        <ele>596.14999999999998</ele>
        <time>2018-04-15T09:58:35Z</time>
      </trkpt>
      <trkpt lat="44.425437971949577" lon="8.67075914517045">
        <ele>594.23000000000002</ele>
        <time>2018-04-15T09:58:39Z</time>
      </trkpt>
      <trkpt lat="44.425435289740562" lon="8.670732406899333">
        <ele>592.78999999999996</ele>
        <time>2018-04-15T09:58:51Z</time>
      </trkpt>
      <trkpt lat="44.425433613359928" lon="8.670730059966445">
        <ele>595.19000000000005</ele>
        <time>2018-04-15T09:59:02Z</time>
      </trkpt>
      <trkpt lat="44.425414837896824" lon="8.670720336958766">
        <ele>595.66999999999996</ele>
        <time>2018-04-15T09:59:18Z</time>
      </trkpt>
      <trkpt lat="44.425403689965606" lon="8.670708937570453">
        <ele>596.14999999999998</ele>
        <time>2018-04-15T09:59:32Z</time>
      </trkpt>
      <trkpt lat="44.425409808754921" lon="8.670711703598499">
        <ele>593.75</ele>
        <time>2018-04-15T09:59:45Z</time>
      </trkpt>
      <trkpt lat="44.425409976392984" lon="8.670718660578132">
        <ele>597.12</ele>
        <time>2018-04-15T09:59:58Z</time>
      </trkpt>
      <trkpt lat="44.425419280305505" lon="8.670735005289316">
        <ele>594.23000000000002</ele>
        <time>2018-04-15T10:00:13Z</time>
      </trkpt>
      <trkpt lat="44.425423387438059" lon="8.670747326686978">
        <ele>596.14999999999998</ele>
        <time>2018-04-15T10:00:19Z</time>
      </trkpt>
      <trkpt lat="44.425421291962266" lon="8.670746320858598">
        <ele>594.71000000000004</ele>
        <time>2018-04-15T10:00:35Z</time>
      </trkpt>
      <trkpt lat="44.425434451550245" lon="8.670771550387144">
        <ele>595.19000000000005</ele>
        <time>2018-04-15T10:00:40Z</time>
      </trkpt>
      <trkpt lat="44.425442665815353" lon="8.670849753543735">
        <ele>594.71000000000004</ele>
        <time>2018-04-15T10:00:50Z</time>
      </trkpt>
      <trkpt lat="44.425450460985303" lon="8.6708221770823">
        <ele>595.66999999999996</ele>
        <time>2018-04-15T10:01:00Z</time>
      </trkpt>
      <trkpt lat="44.425451047718525" lon="8.670781189575791">
        <ele>595.19000000000005</ele>
        <time>2018-04-15T10:01:09Z</time>
      </trkpt>
      <trkpt lat="44.425461273640394" lon="8.670775406062603">
        <ele>597.12</ele>
        <time>2018-04-15T10:01:13Z</time>
      </trkpt>
      <trkpt lat="44.425469655543566" lon="8.670775070786476">
        <ele>593.75</ele>
        <time>2018-04-15T10:01:18Z</time>
      </trkpt>
      <trkpt lat="44.425451634451747" lon="8.670789320021868">
        <ele>593.75</ele>
        <time>2018-04-15T10:01:29Z</time>
      </trkpt>
      <trkpt lat="44.425422716885805" lon="8.670802814885974">
        <ele>594.23000000000002</ele>
        <time>2018-04-15T10:01:41Z</time>
      </trkpt>
      <trkpt lat="44.425362786278129" lon="8.670877832919359">
        <ele>590.87</ele>
        <time>2018-04-15T10:01:46Z</time>
      </trkpt>
      <trkpt lat="44.425344681367278" lon="8.670898787677288">
        <ele>589.90999999999997</ele>
        <time>2018-04-15T10:01:48Z</time>
      </trkpt>
      <trkpt lat="44.425326744094491" lon="8.67091060616076">
        <ele>593.75</ele>
        <time>2018-04-15T10:01:56Z</time>
      </trkpt>
      <trkpt lat="44.425323642790318" lon="8.670911695808172">
        <ele>593.75</ele>
        <time>2018-04-15T10:01:57Z</time>
      </trkpt>
      <trkpt lat="44.425316853448749" lon="8.670902643352747">
        <ele>592.30999999999995</ele>
        <time>2018-04-15T10:02:01Z</time>
      </trkpt>
      <trkpt lat="44.425310650840402" lon="8.670886633917689">
        <ele>591.83000000000004</ele>
        <time>2018-04-15T10:02:13Z</time>
      </trkpt>
      <trkpt lat="44.425306711345911" lon="8.670893758535385">
        <ele>591.35000000000002</ele>
        <time>2018-04-15T10:02:18Z</time>
      </trkpt>
      <trkpt lat="44.425304280593991" lon="8.670889399945736">
        <ele>592.78999999999996</ele>
        <time>2018-04-15T10:02:33Z</time>
      </trkpt>
      <trkpt lat="44.425282403826714" lon="8.670904068276286">
        <ele>590.87</ele>
        <time>2018-04-15T10:02:48Z</time>
      </trkpt>
      <trkpt lat="44.425279889255762" lon="8.670916222035885">
        <ele>591.83000000000004</ele>
        <time>2018-04-15T10:03:04Z</time>
      </trkpt>
      <trkpt lat="44.425281062722206" lon="8.670916808769107">
        <ele>589.90999999999997</ele>
        <time>2018-04-15T10:03:10Z</time>
      </trkpt>
      <trkpt lat="44.425283325836062" lon="8.670887975022197">
        <ele>592.78999999999996</ele>
        <time>2018-04-15T10:03:19Z</time>
      </trkpt>
      <trkpt lat="44.425284583121538" lon="8.670883784070611">
        <ele>592.30999999999995</ele>
        <time>2018-04-15T10:03:26Z</time>
      </trkpt>
      <trkpt lat="44.425293384119868" lon="8.670881101861596">
        <ele>592.78999999999996</ele>
        <time>2018-04-15T10:03:31Z</time>
      </trkpt>
      <trkpt lat="44.425317272543907" lon="8.670846987515688">
        <ele>590.87</ele>
        <time>2018-04-15T10:03:35Z</time>
      </trkpt>
      <trkpt lat="44.425343675538898" lon="8.670818908140063">
        <ele>592.30999999999995</ele>
        <time>2018-04-15T10:03:40Z</time>
      </trkpt>
      <trkpt lat="44.42539312876761" lon="8.670759731903672">
        <ele>594.23000000000002</ele>
        <time>2018-04-15T10:03:46Z</time>
      </trkpt>
      <trkpt lat="44.425476528704166" lon="8.670714218169451">
        <ele>596.14999999999998</ele>
        <time>2018-04-15T10:03:57Z</time>
      </trkpt>
      <trkpt lat="44.425481641665101" lon="8.670653533190489">
        <ele>596.14999999999998</ele>
        <time>2018-04-15T10:04:06Z</time>
      </trkpt>
      <trkpt lat="44.425466805696487" lon="8.670616149902344">
        <ele>598.55999999999995</ele>
        <time>2018-04-15T10:04:10Z</time>
      </trkpt>
      <trkpt lat="44.425453646108508" lon="8.670595530420542">
        <ele>597.12</ele>
        <time>2018-04-15T10:04:12Z</time>
      </trkpt>
      <trkpt lat="44.425429925322533" lon="8.670545155182481">
        <ele>600</ele>
        <time>2018-04-15T10:04:17Z</time>
      </trkpt>
      <trkpt lat="44.425428416579962" lon="8.670534174889326">
        <ele>600</ele>
        <time>2018-04-15T10:04:18Z</time>
      </trkpt>
      <trkpt lat="44.425428081303835" lon="8.670522440224886">
        <ele>599.51999999999998</ele>
        <time>2018-04-15T10:04:19Z</time>
      </trkpt>
      <trkpt lat="44.42543319426477" lon="8.67049134336412">
        <ele>600</ele>
        <time>2018-04-15T10:04:21Z</time>
      </trkpt>
      <trkpt lat="44.425424728542566" lon="8.670349605381489">
        <ele>601.44000000000005</ele>
        <time>2018-04-15T10:04:32Z</time>
      </trkpt>
      <trkpt lat="44.425425985828042" lon="8.670307276770473">
        <ele>604.80999999999995</ele>
        <time>2018-04-15T10:04:35Z</time>
      </trkpt>
      <trkpt lat="44.425434367731214" lon="8.67027735337615">
        <ele>606.25</ele>
        <time>2018-04-15T10:04:37Z</time>
      </trkpt>
      <trkpt lat="44.425451969727874" lon="8.670238042250276">
        <ele>602.39999999999998</ele>
        <time>2018-04-15T10:04:40Z</time>
      </trkpt>
      <trkpt lat="44.425459681078792" lon="8.670226559042931">
        <ele>602.88</ele>
        <time>2018-04-15T10:04:41Z</time>
      </trkpt>
      <trkpt lat="44.425464877858758" lon="8.670212393626571">
        <ele>603.85000000000002</ele>
        <time>2018-04-15T10:04:44Z</time>
      </trkpt>
      <trkpt lat="44.425433948636055" lon="8.670123964548111">
        <ele>605.28999999999996</ele>
        <time>2018-04-15T10:04:52Z</time>
      </trkpt>
      <trkpt lat="44.425397738814354" lon="8.669982980936766">
        <ele>603.85000000000002</ele>
        <time>2018-04-15T10:05:02Z</time>
      </trkpt>
      <trkpt lat="44.425386087968946" lon="8.669945597648621">
        <ele>604.33000000000004</ele>
        <time>2018-04-15T10:05:05Z</time>
      </trkpt>
      <trkpt lat="44.425368821248412" lon="8.669932438060641">
        <ele>605.28999999999996</ele>
        <time>2018-04-15T10:05:07Z</time>
      </trkpt>
      <trkpt lat="44.425352560356259" lon="8.669934449717403">
        <ele>607.21000000000004</ele>
        <time>2018-04-15T10:05:09Z</time>
      </trkpt>
      <trkpt lat="44.425325402989984" lon="8.669926067814231">
        <ele>606.73000000000002</ele>
        <time>2018-04-15T10:05:12Z</time>
      </trkpt>
      <trkpt lat="44.425322050228715" lon="8.669881224632263">
        <ele>603.85000000000002</ele>
        <time>2018-04-15T10:05:15Z</time>
      </trkpt>
      <trkpt lat="44.425313416868448" lon="8.669844511896372">
        <ele>603.36000000000001</ele>
        <time>2018-04-15T10:05:18Z</time>
      </trkpt>
      <trkpt lat="44.425301179289818" lon="8.669850630685687">
        <ele>600.96000000000004</ele>
        <time>2018-04-15T10:05:23Z</time>
      </trkpt>
      <trkpt lat="44.425324816256762" lon="8.669883571565151">
        <ele>601.44000000000005</ele>
        <time>2018-04-15T10:05:26Z</time>
      </trkpt>
      <trkpt lat="44.425344010815024" lon="8.669897234067321">
        <ele>602.39999999999998</ele>
        <time>2018-04-15T10:05:28Z</time>
      </trkpt>
      <trkpt lat="44.425363540649414" lon="8.669919781386852">
        <ele>600.96000000000004</ele>
        <time>2018-04-15T10:05:30Z</time>
      </trkpt>
      <trkpt lat="44.425385417416692" lon="8.669932186603546">
        <ele>602.88</ele>
        <time>2018-04-15T10:05:32Z</time>
      </trkpt>
      <trkpt lat="44.425412658601999" lon="8.669961020350456">
        <ele>596.63999999999999</ele>
        <time>2018-04-15T10:05:35Z</time>
      </trkpt>
      <trkpt lat="44.42542246542871" lon="8.66997292265296">
        <ele>597.12</ele>
        <time>2018-04-15T10:05:36Z</time>
      </trkpt>
      <trkpt lat="44.425433110445738" lon="8.669999577105045">
        <ele>603.36000000000001</ele>
        <time>2018-04-15T10:05:38Z</time>
      </trkpt>
      <trkpt lat="44.425435457378626" lon="8.670015251263976">
        <ele>602.88</ele>
        <time>2018-04-15T10:05:39Z</time>
      </trkpt>
      <trkpt lat="44.425441157072783" lon="8.67003352381289">
        <ele>599.03999999999996</ele>
        <time>2018-04-15T10:05:40Z</time>
      </trkpt>
      <trkpt lat="44.425446437671781" lon="8.670051209628582">
        <ele>599.03999999999996</ele>
        <time>2018-04-15T10:05:41Z</time>
      </trkpt>
      <trkpt lat="44.4254713319242" lon="8.670253297314048">
        <ele>600.96000000000004</ele>
        <time>2018-04-15T10:05:52Z</time>
      </trkpt>
      <trkpt lat="44.425462614744902" lon="8.670323453843594">
        <ele>601.91999999999996</ele>
        <time>2018-04-15T10:05:56Z</time>
      </trkpt>
      <trkpt lat="44.425463704392314" lon="8.670395622029901">
        <ele>600.48000000000002</ele>
        <time>2018-04-15T10:06:00Z</time>
      </trkpt>
      <trkpt lat="44.425461860373616" lon="8.670503329485655">
        <ele>598.55999999999995</ele>
        <time>2018-04-15T10:06:09Z</time>
      </trkpt>
      <trkpt lat="44.425475355237722" lon="8.670551357790828">
        <ele>598.08000000000004</ele>
        <time>2018-04-15T10:06:20Z</time>
      </trkpt>
      <trkpt lat="44.425521371886134" lon="8.670661076903343">
        <ele>597.12</ele>
        <time>2018-04-15T10:06:31Z</time>
      </trkpt>
      <trkpt lat="44.425514498725533" lon="8.670730562880635">
        <ele>595.19000000000005</ele>
        <time>2018-04-15T10:06:40Z</time>
      </trkpt>
      <trkpt lat="44.425506871193647" lon="8.670781189575791">
        <ele>595.66999999999996</ele>
        <time>2018-04-15T10:06:50Z</time>
      </trkpt>
      <trkpt lat="44.425497902557254" lon="8.670801306143403">
        <ele>595.66999999999996</ele>
        <time>2018-04-15T10:07:01Z</time>
      </trkpt>
      <trkpt lat="44.425477450713515" lon="8.670837348327041">
        <ele>596.63999999999999</ele>
        <time>2018-04-15T10:07:11Z</time>
      </trkpt>
      <trkpt lat="44.425450293347239" lon="8.670829553157091">
        <ele>596.63999999999999</ele>
        <time>2018-04-15T10:07:19Z</time>
      </trkpt>
      <trkpt lat="44.425446772947907" lon="8.670831061899662">
        <ele>596.63999999999999</ele>
        <time>2018-04-15T10:07:33Z</time>
      </trkpt>
      <trkpt lat="44.425448030233383" lon="8.670824188739061">
        <ele>597.12</ele>
        <time>2018-04-15T10:07:34Z</time>
      </trkpt>
      <trkpt lat="44.425463704392314" lon="8.670818069949746">
        <ele>599.03999999999996</ele>
        <time>2018-04-15T10:07:38Z</time>
      </trkpt>
      <trkpt lat="44.425466470420361" lon="8.670833827927709">
        <ele>595.66999999999996</ele>
        <time>2018-04-15T10:07:43Z</time>
      </trkpt>
      <trkpt lat="44.425467476248741" lon="8.670871211215854">
        <ele>597.12</ele>
        <time>2018-04-15T10:07:47Z</time>
      </trkpt>
      <trkpt lat="44.425455490127206" lon="8.670912198722363">
        <ele>595.19000000000005</ele>
        <time>2018-04-15T10:07:51Z</time>
      </trkpt>
      <trkpt lat="44.425452388823032" lon="8.671057373285294">
        <ele>593.26999999999998</ele>
        <time>2018-04-15T10:08:01Z</time>
      </trkpt>
      <trkpt lat="44.4254454318434" lon="8.671087129041553">
        <ele>592.30999999999995</ele>
        <time>2018-04-15T10:08:03Z</time>
      </trkpt>
      <trkpt lat="44.425442246720195" lon="8.671126943081617">
        <ele>595.66999999999996</ele>
        <time>2018-04-15T10:08:06Z</time>
      </trkpt>
      <trkpt lat="44.425392039120197" lon="8.671326683834195">
        <ele>594.71000000000004</ele>
        <time>2018-04-15T10:08:20Z</time>
      </trkpt>
      <trkpt lat="44.425382986664772" lon="8.671373371034861">
        <ele>594.23000000000002</ele>
        <time>2018-04-15T10:08:23Z</time>
      </trkpt>
      <trkpt lat="44.42531886510551" lon="8.671501195058227">
        <ele>595.66999999999996</ele>
        <time>2018-04-15T10:08:34Z</time>
      </trkpt>
      <trkpt lat="44.425302604213357" lon="8.671535812318325">
        <ele>592.78999999999996</ele>
        <time>2018-04-15T10:08:37Z</time>
      </trkpt>
      <trkpt lat="44.42529983818531" lon="8.671544445678592">
        <ele>593.26999999999998</ele>
        <time>2018-04-15T10:08:38Z</time>
      </trkpt>
      <trkpt lat="44.425243595615029" lon="8.671701354905963">
        <ele>593.26999999999998</ele>
        <time>2018-04-15T10:08:51Z</time>
      </trkpt>
      <trkpt lat="44.42523680627346" lon="8.671731362119317">
        <ele>596.63999999999999</ele>
        <time>2018-04-15T10:08:54Z</time>
      </trkpt>
      <trkpt lat="44.42523630335927" lon="8.671746952459216">
        <ele>596.14999999999998</ele>
        <time>2018-04-15T10:08:55Z</time>
      </trkpt>
      <trkpt lat="44.425231609493494" lon="8.671801099553704">
        <ele>598.08000000000004</ele>
        <time>2018-04-15T10:08:59Z</time>
      </trkpt>
      <trkpt lat="44.425220713019371" lon="8.671864969655871">
        <ele>594.23000000000002</ele>
        <time>2018-04-15T10:09:04Z</time>
      </trkpt>
      <trkpt lat="44.425212750211358" lon="8.671979969367385">
        <ele>595.66999999999996</ele>
        <time>2018-04-15T10:09:14Z</time>
      </trkpt>
      <trkpt lat="44.42520696669817" lon="8.672097148373723">
        <ele>596.63999999999999</ele>
        <time>2018-04-15T10:09:24Z</time>
      </trkpt>
      <trkpt lat="44.425192968919873" lon="8.672162694856525">
        <ele>598.55999999999995</ele>
        <time>2018-04-15T10:09:30Z</time>
      </trkpt>
      <trkpt lat="44.425177713856101" lon="8.672247100621462">
        <ele>600</ele>
        <time>2018-04-15T10:09:41Z</time>
      </trkpt>
      <trkpt lat="44.42517276853323" lon="8.672261266037822">
        <ele>598.55999999999995</ele>
        <time>2018-04-15T10:09:43Z</time>
      </trkpt>
      <trkpt lat="44.425131697207689" lon="8.672299906611443">
        <ele>600.48000000000002</ele>
        <time>2018-04-15T10:09:51Z</time>
      </trkpt>
      <trkpt lat="44.425099678337574" lon="8.672394119203091">
        <ele>601.91999999999996</ele>
        <time>2018-04-15T10:10:01Z</time>
      </trkpt>
      <trkpt lat="44.425097918137908" lon="8.672475842759013">
        <ele>602.39999999999998</ele>
        <time>2018-04-15T10:10:11Z</time>
      </trkpt>
      <trkpt lat="44.425074281170964" lon="8.672560667619109">
        <ele>602.39999999999998</ele>
        <time>2018-04-15T10:10:21Z</time>
      </trkpt>
      <trkpt lat="44.425067072734237" lon="8.672603415325284">
        <ele>603.85000000000002</ele>
        <time>2018-04-15T10:10:26Z</time>
      </trkpt>
      <trkpt lat="44.425039580091834" lon="8.672661418095231">
        <ele>603.36000000000001</ele>
        <time>2018-04-15T10:10:35Z</time>
      </trkpt>
      <trkpt lat="44.425039328634739" lon="8.672666866332293">
        <ele>603.36000000000001</ele>
        <time>2018-04-15T10:10:36Z</time>
      </trkpt>
      <trkpt lat="44.425031701102853" lon="8.672697208821774">
        <ele>606.25</ele>
        <time>2018-04-15T10:10:42Z</time>
      </trkpt>
      <trkpt lat="44.425006471574306" lon="8.672780944034457">
        <ele>606.73000000000002</ele>
        <time>2018-04-15T10:10:52Z</time>
      </trkpt>
      <trkpt lat="44.424978978931904" lon="8.672859231010079">
        <ele>608.16999999999996</ele>
        <time>2018-04-15T10:11:00Z</time>
      </trkpt>
      <trkpt lat="44.424982666969299" lon="8.672887561842799">
        <ele>608.16999999999996</ele>
        <time>2018-04-15T10:11:03Z</time>
      </trkpt>
      <trkpt lat="44.424976212903857" lon="8.672906588762999">
        <ele>608.64999999999998</ele>
        <time>2018-04-15T10:11:05Z</time>
      </trkpt>
      <trkpt lat="44.424953414127231" lon="8.672977667301893">
        <ele>609.61000000000001</ele>
        <time>2018-04-15T10:11:13Z</time>
      </trkpt>
      <trkpt lat="44.424945702776313" lon="8.673063246533275">
        <ele>610.57000000000005</ele>
        <time>2018-04-15T10:11:23Z</time>
      </trkpt>
      <trkpt lat="44.424943691119552" lon="8.673076909035444">
        <ele>611.05999999999995</ele>
        <time>2018-04-15T10:11:24Z</time>
      </trkpt>
      <trkpt lat="44.424934135749936" lon="8.673142036423087">
        <ele>612.98000000000002</ele>
        <time>2018-04-15T10:11:31Z</time>
      </trkpt>
      <trkpt lat="44.424940841272473" lon="8.67325259372592">
        <ele>612.98000000000002</ele>
        <time>2018-04-15T10:11:42Z</time>
      </trkpt>
      <trkpt lat="44.424907648935914" lon="8.673316044732928">
        <ele>615.38</ele>
        <time>2018-04-15T10:11:51Z</time>
      </trkpt>
      <trkpt lat="44.424869678914547" lon="8.673390978947282">
        <ele>616.82000000000005</ele>
        <time>2018-04-15T10:12:00Z</time>
      </trkpt>
      <trkpt lat="44.424840677529573" lon="8.673452837392688">
        <ele>617.77999999999997</ele>
        <time>2018-04-15T10:12:07Z</time>
      </trkpt>
      <trkpt lat="44.424821566790342" lon="8.673485945910215">
        <ele>616.82000000000005</ele>
        <time>2018-04-15T10:12:11Z</time>
      </trkpt>
      <trkpt lat="44.424770018085837" lon="8.673540931195021">
        <ele>618.25999999999999</ele>
        <time>2018-04-15T10:12:18Z</time>
      </trkpt>
      <trkpt lat="44.424686199054122" lon="8.673703456297517">
        <ele>617.77999999999997</ele>
        <time>2018-04-15T10:12:32Z</time>
      </trkpt>
      <trkpt lat="44.42468267865479" lon="8.67371728643775">
        <ele>618.25999999999999</ele>
        <time>2018-04-15T10:12:33Z</time>
      </trkpt>
      <trkpt lat="44.424664489924908" lon="8.673752741888166">
        <ele>617.29999999999995</ele>
        <time>2018-04-15T10:12:36Z</time>
      </trkpt>
      <trkpt lat="44.424654599279165" lon="8.673851899802685">
        <ele>615.86000000000001</ele>
        <time>2018-04-15T10:12:43Z</time>
      </trkpt>
      <trkpt lat="44.424689803272486" lon="8.673953656107187">
        <ele>618.75</ele>
        <time>2018-04-15T10:12:54Z</time>
      </trkpt>
      <trkpt lat="44.424696089699864" lon="8.673955667763948">
        <ele>618.75</ele>
        <time>2018-04-15T10:12:55Z</time>
      </trkpt>
      <trkpt lat="44.424721235409379" lon="8.674032781273127">
        <ele>621.14999999999998</ele>
        <time>2018-04-15T10:13:01Z</time>
      </trkpt>
      <trkpt lat="44.424744453281164" lon="8.67407938465476">
        <ele>620.19000000000005</ele>
        <time>2018-04-15T10:13:07Z</time>
      </trkpt>
      <trkpt lat="44.424730371683836" lon="8.674082234501839">
        <ele>622.59000000000003</ele>
        <time>2018-04-15T10:13:14Z</time>
      </trkpt>
      <trkpt lat="44.424726432189345" lon="8.674059854820371">
        <ele>621.14999999999998</ele>
        <time>2018-04-15T10:13:18Z</time>
      </trkpt>
      <trkpt lat="44.424746967852116" lon="8.67403487674892">
        <ele>622.59000000000003</ele>
        <time>2018-04-15T10:13:21Z</time>
      </trkpt>
      <trkpt lat="44.424805222079158" lon="8.674029847607017">
        <ele>624.02999999999997</ele>
        <time>2018-04-15T10:13:28Z</time>
      </trkpt>
      <trkpt lat="44.424804551526904" lon="8.674018112942576">
        <ele>623.07000000000005</ele>
        <time>2018-04-15T10:13:34Z</time>
      </trkpt>
      <trkpt lat="44.424894405528903" lon="8.674015263095498">
        <ele>623.54999999999995</ele>
        <time>2018-04-15T10:13:43Z</time>
      </trkpt>
      <trkpt lat="44.424911253154278" lon="8.674003947526217">
        <ele>622.59000000000003</ele>
        <time>2018-04-15T10:13:45Z</time>
      </trkpt>
      <trkpt lat="44.424920557066798" lon="8.673997661098838">
        <ele>623.54999999999995</ele>
        <time>2018-04-15T10:13:46Z</time>
      </trkpt>
      <trkpt lat="44.424944361671805" lon="8.67398357950151">
        <ele>624.99000000000001</ele>
        <time>2018-04-15T10:13:49Z</time>
      </trkpt>
      <trkpt lat="44.424956850707531" lon="8.673961367458105">
        <ele>625.47000000000003</ele>
        <time>2018-04-15T10:13:51Z</time>
      </trkpt>
      <trkpt lat="44.424989959225059" lon="8.673931946977973">
        <ele>626.44000000000005</ele>
        <time>2018-04-15T10:13:55Z</time>
      </trkpt>
      <trkpt lat="44.425015775486827" lon="8.67392398416996">
        <ele>626.44000000000005</ele>
        <time>2018-04-15T10:13:58Z</time>
      </trkpt>
      <trkpt lat="44.425030695274472" lon="8.673917446285486">
        <ele>625.96000000000004</ele>
        <time>2018-04-15T10:14:00Z</time>
      </trkpt>
      <trkpt lat="44.425040669739246" lon="8.673894144594669">
        <ele>628.36000000000001</ele>
        <time>2018-04-15T10:14:02Z</time>
      </trkpt>
      <trkpt lat="44.425066821277142" lon="8.673873441293836">
        <ele>628.36000000000001</ele>
        <time>2018-04-15T10:14:06Z</time>
      </trkpt>
      <trkpt lat="44.425121722742915" lon="8.673856845125556">
        <ele>629.32000000000005</ele>
        <time>2018-04-15T10:14:12Z</time>
      </trkpt>
      <trkpt lat="44.42517964169383" lon="8.673839326947928">
        <ele>628.84000000000003</ele>
        <time>2018-04-15T10:14:20Z</time>
      </trkpt>
      <trkpt lat="44.425177881494164" lon="8.67384335026145">
        <ele>630.27999999999997</ele>
        <time>2018-04-15T10:14:23Z</time>
      </trkpt>
      <trkpt lat="44.425202691927552" lon="8.673859862610698">
        <ele>629.79999999999995</ele>
        <time>2018-04-15T10:14:29Z</time>
      </trkpt>
      <trkpt lat="44.42529589869082" lon="8.673871094360948">
        <ele>630.75999999999999</ele>
        <time>2018-04-15T10:14:38Z</time>
      </trkpt>
      <trkpt lat="44.425374437123537" lon="8.673929097130895">
        <ele>630.27999999999997</ele>
        <time>2018-04-15T10:14:47Z</time>
      </trkpt>
      <trkpt lat="44.425403941422701" lon="8.673954661935568">
        <ele>631.72000000000003</ele>
        <time>2018-04-15T10:14:50Z</time>
      </trkpt>
      <trkpt lat="44.425421878695488" lon="8.673964971676469">
        <ele>631.72000000000003</ele>
        <time>2018-04-15T10:14:52Z</time>
      </trkpt>
      <trkpt lat="44.425503183156252" lon="8.674031523987651">
        <ele>635.09000000000003</ele>
        <time>2018-04-15T10:15:02Z</time>
      </trkpt>
      <trkpt lat="44.425576189532876" lon="8.674069996923208">
        <ele>637.00999999999999</ele>
        <time>2018-04-15T10:15:12Z</time>
      </trkpt>
      <trkpt lat="44.425645172595978" lon="8.674118528142571">
        <ele>635.09000000000003</ele>
        <time>2018-04-15T10:15:22Z</time>
      </trkpt>
      <trkpt lat="44.425680628046393" lon="8.674141578376293">
        <ele>638.92999999999995</ele>
        <time>2018-04-15T10:15:27Z</time>
      </trkpt>
      <trkpt lat="44.42568926140666" lon="8.674146858975291">
        <ele>637.97000000000003</ele>
        <time>2018-04-15T10:15:28Z</time>
      </trkpt>
      <trkpt lat="44.425751036033034" lon="8.674227157607675">
        <ele>636.52999999999997</ele>
        <time>2018-04-15T10:15:37Z</time>
      </trkpt>
      <trkpt lat="44.425773331895471" lon="8.67424844764173">
        <ele>633.64999999999998</ele>
        <time>2018-04-15T10:15:41Z</time>
      </trkpt>
      <trkpt lat="44.425779115408659" lon="8.674260517582297">
        <ele>634.61000000000001</ele>
        <time>2018-04-15T10:15:42Z</time>
      </trkpt>
      <trkpt lat="44.425800824537873" lon="8.67429387755692">
        <ele>637.97000000000003</ele>
        <time>2018-04-15T10:15:45Z</time>
      </trkpt>
      <trkpt lat="44.42580702714622" lon="8.674303349107504">
        <ele>638.45000000000005</ele>
        <time>2018-04-15T10:15:46Z</time>
      </trkpt>
      <trkpt lat="44.425831586122513" lon="8.674350790679455">
        <ele>639.88999999999999</ele>
        <time>2018-04-15T10:15:50Z</time>
      </trkpt>
      <trkpt lat="44.425844745710492" lon="8.674388844519854">
        <ele>639.40999999999997</ele>
        <time>2018-04-15T10:15:53Z</time>
      </trkpt>
      <trkpt lat="44.425875088199973" lon="8.674441650509834">
        <ele>641.82000000000005</ele>
        <time>2018-04-15T10:15:58Z</time>
      </trkpt>
      <trkpt lat="44.425882045179605" lon="8.674449026584625">
        <ele>641.34000000000003</ele>
        <time>2018-04-15T10:15:59Z</time>
      </trkpt>
      <trkpt lat="44.425924960523844" lon="8.674534689635038">
        <ele>641.82000000000005</ele>
        <time>2018-04-15T10:16:06Z</time>
      </trkpt>
      <trkpt lat="44.425929402932525" lon="8.674560924991965">
        <ele>640.86000000000001</ele>
        <time>2018-04-15T10:16:19Z</time>
      </trkpt>
      <trkpt lat="44.425938203930855" lon="8.674567127600312">
        <ele>640.86000000000001</ele>
        <time>2018-04-15T10:16:20Z</time>
      </trkpt>
      <trkpt lat="44.425948681309819" lon="8.674570145085454">
        <ele>640.38</ele>
        <time>2018-04-15T10:16:21Z</time>
      </trkpt>
      <trkpt lat="44.426014227792621" lon="8.674608366563916">
        <ele>641.34000000000003</ele>
        <time>2018-04-15T10:16:27Z</time>
      </trkpt>
      <trkpt lat="44.426118582487106" lon="8.674713391810656">
        <ele>642.29999999999995</ele>
        <time>2018-04-15T10:16:39Z</time>
      </trkpt>
      <trkpt lat="44.426193684339523" lon="8.674809113144875">
        <ele>646.13999999999999</ele>
        <time>2018-04-15T10:16:49Z</time>
      </trkpt>
      <trkpt lat="44.426200892776251" lon="8.674820512533188">
        <ele>646.13999999999999</ele>
        <time>2018-04-15T10:16:50Z</time>
      </trkpt>
      <trkpt lat="44.426223607733846" lon="8.6748475022614">
        <ele>645.17999999999995</ele>
        <time>2018-04-15T10:16:53Z</time>
      </trkpt>
      <trkpt lat="44.426300972700119" lon="8.674914557486773">
        <ele>647.10000000000002</ele>
        <time>2018-04-15T10:17:01Z</time>
      </trkpt>
      <trkpt lat="44.426378840580583" lon="8.675037687644362">
        <ele>647.10000000000002</ele>
        <time>2018-04-15T10:17:13Z</time>
      </trkpt>
      <trkpt lat="44.426389317959547" lon="8.675062162801623">
        <ele>649.99000000000001</ele>
        <time>2018-04-15T10:17:15Z</time>
      </trkpt>
      <trkpt lat="44.426413122564554" lon="8.675104659050703">
        <ele>646.62</ele>
        <time>2018-04-15T10:17:19Z</time>
      </trkpt>
      <trkpt lat="44.426429215818644" lon="8.67512016557157">
        <ele>645.65999999999997</ele>
        <time>2018-04-15T10:17:21Z</time>
      </trkpt>
      <trkpt lat="44.426480093970895" lon="8.675184203311801">
        <ele>649.02999999999997</ele>
        <time>2018-04-15T10:17:29Z</time>
      </trkpt>
      <trkpt lat="44.426548155024648" lon="8.67527456022799">
        <ele>651.42999999999995</ele>
        <time>2018-04-15T10:17:39Z</time>
      </trkpt>
      <trkpt lat="44.426568858325481" lon="8.675299203023315">
        <ele>649.50999999999999</ele>
        <time>2018-04-15T10:17:42Z</time>
      </trkpt>
      <trkpt lat="44.426614204421639" lon="8.675428368151188">
        <ele>649.99000000000001</ele>
        <time>2018-04-15T10:17:53Z</time>
      </trkpt>
      <trkpt lat="44.426672710105777" lon="8.675564490258694">
        <ele>651.90999999999997</ele>
        <time>2018-04-15T10:18:05Z</time>
      </trkpt>
      <trkpt lat="44.426691988483071" lon="8.675616374239326">
        <ele>649.50999999999999</ele>
        <time>2018-04-15T10:18:09Z</time>
      </trkpt>
      <trkpt lat="44.426727863028646" lon="8.675744701176882">
        <ele>652.87</ele>
        <time>2018-04-15T10:18:19Z</time>
      </trkpt>
      <trkpt lat="44.426766168326139" lon="8.675829442217946">
        <ele>652.87</ele>
        <time>2018-04-15T10:18:26Z</time>
      </trkpt>
      <trkpt lat="44.426847137510777" lon="8.675897754728794">
        <ele>651.90999999999997</ele>
        <time>2018-04-15T10:18:37Z</time>
      </trkpt>
      <trkpt lat="44.426907654851675" lon="8.675938071683049">
        <ele>654.30999999999995</ele>
        <time>2018-04-15T10:18:45Z</time>
      </trkpt>
      <trkpt lat="44.426963394507766" lon="8.675957601517439">
        <ele>649.99000000000001</ele>
        <time>2018-04-15T10:18:52Z</time>
      </trkpt>
      <trkpt lat="44.42697923630476" lon="8.675967995077372">
        <ele>654.30999999999995</ele>
        <time>2018-04-15T10:18:54Z</time>
      </trkpt>
      <trkpt lat="44.427000023424625" lon="8.675990290939808">
        <ele>657.67999999999995</ele>
        <time>2018-04-15T10:18:57Z</time>
      </trkpt>
      <trkpt lat="44.427032880485058" lon="8.676014933735132">
        <ele>654.30999999999995</ele>
        <time>2018-04-15T10:19:01Z</time>
      </trkpt>
      <trkpt lat="44.427066324278712" lon="8.676021806895733">
        <ele>657.67999999999995</ele>
        <time>2018-04-15T10:19:05Z</time>
      </trkpt>
      <trkpt lat="44.427123907953501" lon="8.67604904808104">
        <ele>660.08000000000004</ele>
        <time>2018-04-15T10:19:13Z</time>
      </trkpt>
      <trkpt lat="44.427164560183883" lon="8.676089784130454">
        <ele>657.67999999999995</ele>
        <time>2018-04-15T10:19:18Z</time>
      </trkpt>
      <trkpt lat="44.427182665094733" lon="8.676100764423609">
        <ele>656.24000000000001</ele>
        <time>2018-04-15T10:19:20Z</time>
      </trkpt>
      <trkpt lat="44.427194148302078" lon="8.676099004223943">
        <ele>651.90999999999997</ele>
        <time>2018-04-15T10:19:22Z</time>
      </trkpt>
      <trkpt lat="44.427206050604582" lon="8.676092382520437">
        <ele>656.72000000000003</ele>
        <time>2018-04-15T10:19:24Z</time>
      </trkpt>
      <trkpt lat="44.427214935421944" lon="8.676084335893393">
        <ele>660.55999999999995</ele>
        <time>2018-04-15T10:19:26Z</time>
      </trkpt>
      <trkpt lat="44.427219294011593" lon="8.676080899313092">
        <ele>661.03999999999996</ele>
        <time>2018-04-15T10:19:27Z</time>
      </trkpt>
      <trkpt lat="44.427235387265682" lon="8.676065476611257">
        <ele>659.60000000000002</ele>
        <time>2018-04-15T10:19:31Z</time>
      </trkpt>
      <trkpt lat="44.427281655371189" lon="8.676068913191557">
        <ele>662.49000000000001</ele>
        <time>2018-04-15T10:19:40Z</time>
      </trkpt>
      <trkpt lat="44.427287606522441" lon="8.676065895706415">
        <ele>662.49000000000001</ele>
        <time>2018-04-15T10:19:41Z</time>
      </trkpt>
      <trkpt lat="44.427333623170853" lon="8.676062375307083">
        <ele>661.51999999999998</ele>
        <time>2018-04-15T10:19:46Z</time>
      </trkpt>
      <trkpt lat="44.427391206845641" lon="8.676012838259339">
        <ele>661.03999999999996</ele>
        <time>2018-04-15T10:19:52Z</time>
      </trkpt>
      <trkpt lat="44.427407383918762" lon="8.675998421385884">
        <ele>665.85000000000002</ele>
        <time>2018-04-15T10:19:54Z</time>
      </trkpt>
      <trkpt lat="44.427422052249312" lon="8.67598744109273">
        <ele>662.97000000000003</ele>
        <time>2018-04-15T10:19:56Z</time>
      </trkpt>
      <trkpt lat="44.427440660074353" lon="8.675987273454666">
        <ele>661.51999999999998</ele>
        <time>2018-04-15T10:19:58Z</time>
      </trkpt>
      <trkpt lat="44.427462201565504" lon="8.675996661186218">
        <ele>662.97000000000003</ele>
        <time>2018-04-15T10:20:00Z</time>
      </trkpt>
      <trkpt lat="44.427487179636955" lon="8.676050053909421">
        <ele>663.92999999999995</ele>
        <time>2018-04-15T10:20:05Z</time>
      </trkpt>
      <trkpt lat="44.427505284547806" lon="8.676121467724443">
        <ele>663.45000000000005</ele>
        <time>2018-04-15T10:20:12Z</time>
      </trkpt>
      <trkpt lat="44.427548032253981" lon="8.676204029470682">
        <ele>664.40999999999997</ele>
        <time>2018-04-15T10:20:22Z</time>
      </trkpt>
      <trkpt lat="44.427575189620256" lon="8.676231605932117">
        <ele>667.76999999999998</ele>
        <time>2018-04-15T10:20:28Z</time>
      </trkpt>
      <trkpt lat="44.427579632028937" lon="8.676238814368844">
        <ele>668.25</ele>
        <time>2018-04-15T10:20:30Z</time>
      </trkpt>
      <trkpt lat="44.427629001438618" lon="8.676307210698724">
        <ele>668.25</ele>
        <time>2018-04-15T10:20:40Z</time>
      </trkpt>
      <trkpt lat="44.427637550979853" lon="8.676315089687705">
        <ele>667.76999999999998</ele>
        <time>2018-04-15T10:20:42Z</time>
      </trkpt>
      <trkpt lat="44.427675185725093" lon="8.676357753574848">
        <ele>668.25</ele>
        <time>2018-04-15T10:20:48Z</time>
      </trkpt>
      <trkpt lat="44.427713071927428" lon="8.67637837305665">
        <ele>670.65999999999997</ele>
        <time>2018-04-15T10:20:54Z</time>
      </trkpt>
      <trkpt lat="44.427787670865655" lon="8.676436124369502">
        <ele>670.17999999999995</ele>
        <time>2018-04-15T10:21:04Z</time>
      </trkpt>
      <trkpt lat="44.427831759676337" lon="8.676490690559149">
        <ele>671.62</ele>
        <time>2018-04-15T10:21:14Z</time>
      </trkpt>
      <trkpt lat="44.427847266197205" lon="8.676504855975509">
        <ele>675.46000000000004</ele>
        <time>2018-04-15T10:21:19Z</time>
      </trkpt>
      <trkpt lat="44.427864281460643" lon="8.676487421616912">
        <ele>675.46000000000004</ele>
        <time>2018-04-15T10:21:24Z</time>
      </trkpt>
      <trkpt lat="44.427885403856635" lon="8.676486080512404">
        <ele>677.87</ele>
        <time>2018-04-15T10:21:28Z</time>
      </trkpt>
      <trkpt lat="44.427896467968822" lon="8.676523379981518">
        <ele>679.78999999999996</ele>
        <time>2018-04-15T10:21:34Z</time>
      </trkpt>
      <trkpt lat="44.427900072187185" lon="8.676520278677344">
        <ele>680.26999999999998</ele>
        <time>2018-04-15T10:21:40Z</time>
      </trkpt>
      <trkpt lat="44.427910298109055" lon="8.67652346380055">
        <ele>676.41999999999996</ele>
        <time>2018-04-15T10:21:42Z</time>
      </trkpt>
      <trkpt lat="44.427917506545782" lon="8.676529750227928">
        <ele>674.5</ele>
        <time>2018-04-15T10:21:43Z</time>
      </trkpt>
      <trkpt lat="44.427993027493358" lon="8.676576605066657">
        <ele>675.94000000000005</ele>
        <time>2018-04-15T10:21:54Z</time>
      </trkpt>
      <trkpt lat="44.428065866231918" lon="8.676587250083685">
        <ele>678.83000000000004</ele>
        <time>2018-04-15T10:22:05Z</time>
      </trkpt>
      <trkpt lat="44.42808355204761" lon="8.676601415500045">
        <ele>680.26999999999998</ele>
        <time>2018-04-15T10:22:08Z</time>
      </trkpt>
      <trkpt lat="44.428144823759794" lon="8.67662706412375">
        <ele>683.63</ele>
        <time>2018-04-15T10:22:16Z</time>
      </trkpt>
      <trkpt lat="44.428151026368141" lon="8.676629159599543">
        <ele>683.63</ele>
        <time>2018-04-15T10:22:17Z</time>
      </trkpt>
      <trkpt lat="44.428186733275652" lon="8.676635697484016">
        <ele>683.14999999999998</ele>
        <time>2018-04-15T10:22:29Z</time>
      </trkpt>
      <trkpt lat="44.428187403827906" lon="8.67663879878819">
        <ele>683.14999999999998</ele>
        <time>2018-04-15T10:22:30Z</time>
      </trkpt>
      <trkpt lat="44.428225960582495" lon="8.676656736060977">
        <ele>685.55999999999995</ele>
        <time>2018-04-15T10:22:38Z</time>
      </trkpt>
      <trkpt lat="44.428237611427903" lon="8.676671739667654">
        <ele>686.03999999999996</ele>
        <time>2018-04-15T10:22:40Z</time>
      </trkpt>
      <trkpt lat="44.428270719945431" lon="8.676725719124079">
        <ele>687.48000000000002</ele>
        <time>2018-04-15T10:22:47Z</time>
      </trkpt>
      <trkpt lat="44.428329141810536" lon="8.676783805713058">
        <ele>689.39999999999998</ele>
        <time>2018-04-15T10:22:59Z</time>
      </trkpt>
      <trkpt lat="44.428378762677312" lon="8.676823200657964">
        <ele>690.36000000000001</ele>
        <time>2018-04-15T10:23:09Z</time>
      </trkpt>
      <trkpt lat="44.428386893123388" lon="8.67683325894177">
        <ele>691.33000000000004</ele>
        <time>2018-04-15T10:23:11Z</time>
      </trkpt>
      <trkpt lat="44.428415643051267" lon="8.676886316388845">
        <ele>687.48000000000002</ele>
        <time>2018-04-15T10:23:19Z</time>
      </trkpt>
      <trkpt lat="44.428418828174472" lon="8.676892770454288">
        <ele>687.48000000000002</ele>
        <time>2018-04-15T10:23:20Z</time>
      </trkpt>
      <trkpt lat="44.428452858701348" lon="8.67691338993609">
        <ele>688.91999999999996</ele>
        <time>2018-04-15T10:23:31Z</time>
      </trkpt>
      <trkpt lat="44.428478423506021" lon="8.676930824294686">
        <ele>692.76999999999998</ele>
        <time>2018-04-15T10:23:35Z</time>
      </trkpt>
      <trkpt lat="44.428493594750762" lon="8.676955970004201">
        <ele>692.28999999999996</ele>
        <time>2018-04-15T10:23:38Z</time>
      </trkpt>
      <trkpt lat="44.428564086556435" lon="8.677014224231243">
        <ele>692.28999999999996</ele>
        <time>2018-04-15T10:23:48Z</time>
      </trkpt>
      <trkpt lat="44.428573055192828" lon="8.677019337192178">
        <ele>692.28999999999996</ele>
        <time>2018-04-15T10:23:49Z</time>
      </trkpt>
      <trkpt lat="44.428600883111358" lon="8.677028976380825">
        <ele>690.36000000000001</ele>
        <time>2018-04-15T10:23:52Z</time>
      </trkpt>
      <trkpt lat="44.428630135953426" lon="8.677049512043595">
        <ele>693.73000000000002</ele>
        <time>2018-04-15T10:23:56Z</time>
      </trkpt>
      <trkpt lat="44.428693922236562" lon="8.677078848704696">
        <ele>694.21000000000004</ele>
        <time>2018-04-15T10:24:04Z</time>
      </trkpt>
      <trkpt lat="44.428778160363436" lon="8.677086140960455">
        <ele>693.25</ele>
        <time>2018-04-15T10:24:16Z</time>
      </trkpt>
      <trkpt lat="44.428791906684637" lon="8.677089996635914">
        <ele>697.09000000000003</ele>
        <time>2018-04-15T10:24:18Z</time>
      </trkpt>
      <trkpt lat="44.428799534216523" lon="8.677095696330071">
        <ele>696.61000000000001</ele>
        <time>2018-04-15T10:24:19Z</time>
      </trkpt>
      <trkpt lat="44.428807245567441" lon="8.677099468186498">
        <ele>700.46000000000004</ele>
        <time>2018-04-15T10:24:20Z</time>
      </trkpt>
      <trkpt lat="44.428826607763767" lon="8.677104664966464">
        <ele>705.25999999999999</ele>
        <time>2018-04-15T10:24:23Z</time>
      </trkpt>
      <trkpt lat="44.428834738209844" lon="8.677117405459285">
        <ele>699.01999999999998</ele>
        <time>2018-04-15T10:24:25Z</time>
      </trkpt>
      <trkpt lat="44.428837336599827" lon="8.677126038819552">
        <ele>693.73000000000002</ele>
        <time>2018-04-15T10:24:26Z</time>
      </trkpt>
      <trkpt lat="44.428840437904" lon="8.677134672179818">
        <ele>695.16999999999996</ele>
        <time>2018-04-15T10:24:27Z</time>
      </trkpt>
      <trkpt lat="44.428847646340728" lon="8.677142634987831">
        <ele>698.04999999999995</ele>
        <time>2018-04-15T10:24:29Z</time>
      </trkpt>
      <trkpt lat="44.428849574178457" lon="8.677153782919049">
        <ele>697.57000000000005</ele>
        <time>2018-04-15T10:24:30Z</time>
      </trkpt>
      <trkpt lat="44.428902296349406" lon="8.677220419049263">
        <ele>700.94000000000005</ele>
        <time>2018-04-15T10:24:40Z</time>
      </trkpt>
      <trkpt lat="44.428916964679956" lon="8.67724078707397">
        <ele>698.04999999999995</ele>
        <time>2018-04-15T10:24:43Z</time>
      </trkpt>
      <trkpt lat="44.428934650495648" lon="8.677253779023886">
        <ele>701.41999999999996</ele>
        <time>2018-04-15T10:24:46Z</time>
      </trkpt>
      <trkpt lat="44.429009333252907" lon="8.677326869219542">
        <ele>701.89999999999998</ele>
        <time>2018-04-15T10:24:57Z</time>
      </trkpt>
      <trkpt lat="44.42910086363554" lon="8.677413035184145">
        <ele>701.89999999999998</ele>
        <time>2018-04-15T10:25:11Z</time>
      </trkpt>
      <trkpt lat="44.429147634655237" lon="8.677440527826548">
        <ele>703.82000000000005</ele>
        <time>2018-04-15T10:25:18Z</time>
      </trkpt>
      <trkpt lat="44.429172361269593" lon="8.677474223077297">
        <ele>707.66999999999996</ele>
        <time>2018-04-15T10:25:23Z</time>
      </trkpt>
      <trkpt lat="44.42918736487627" lon="8.677474139258266">
        <ele>708.63</ele>
        <time>2018-04-15T10:25:25Z</time>
      </trkpt>
      <trkpt lat="44.429255845025182" lon="8.677534488961101">
        <ele>709.59000000000003</ele>
        <time>2018-04-15T10:25:34Z</time>
      </trkpt>
      <trkpt lat="44.429268417879939" lon="8.677555024623871">
        <ele>708.63</ele>
        <time>2018-04-15T10:25:36Z</time>
      </trkpt>
      <trkpt lat="44.429340083152056" lon="8.677605902776122">
        <ele>705.25999999999999</ele>
        <time>2018-04-15T10:25:46Z</time>
      </trkpt>
      <trkpt lat="44.429358104243875" lon="8.677614703774452">
        <ele>704.29999999999995</ele>
        <time>2018-04-15T10:25:48Z</time>
      </trkpt>
      <trkpt lat="44.429382076486945" lon="8.67762585170567">
        <ele>707.19000000000005</ele>
        <time>2018-04-15T10:25:51Z</time>
      </trkpt>
      <trkpt lat="44.429394900798798" lon="8.677638927474618">
        <ele>710.54999999999995</ele>
        <time>2018-04-15T10:25:53Z</time>
      </trkpt>
      <trkpt lat="44.429413340985775" lon="8.677651165053248">
        <ele>711.50999999999999</ele>
        <time>2018-04-15T10:25:55Z</time>
      </trkpt>
      <trkpt lat="44.429438151419163" lon="8.677675304934382">
        <ele>710.07000000000005</ele>
        <time>2018-04-15T10:25:58Z</time>
      </trkpt>
      <trkpt lat="44.429488526657224" lon="8.677724422886968">
        <ele>708.63</ele>
        <time>2018-04-15T10:26:05Z</time>
      </trkpt>
      <trkpt lat="44.429537812247872" lon="8.677805894985795">
        <ele>711.99000000000001</ele>
        <time>2018-04-15T10:26:14Z</time>
      </trkpt>
      <trkpt lat="44.4295484572649" lon="8.677824167534709">
        <ele>715.84000000000003</ele>
        <time>2018-04-15T10:26:16Z</time>
      </trkpt>
      <trkpt lat="44.429563041776419" lon="8.677844116464257">
        <ele>711.50999999999999</ele>
        <time>2018-04-15T10:26:19Z</time>
      </trkpt>
      <trkpt lat="44.429568825289607" lon="8.677844954654574">
        <ele>711.99000000000001</ele>
        <time>2018-04-15T10:26:20Z</time>
      </trkpt>
      <trkpt lat="44.429610148072243" lon="8.677871776744723">
        <ele>710.54999999999995</ele>
        <time>2018-04-15T10:26:29Z</time>
      </trkpt>
      <trkpt lat="44.429638143628836" lon="8.677898682653904">
        <ele>713.91999999999996</ele>
        <time>2018-04-15T10:26:34Z</time>
      </trkpt>
      <trkpt lat="44.429648956283927" lon="8.67791754193604">
        <ele>714.39999999999998</ele>
        <time>2018-04-15T10:26:36Z</time>
      </trkpt>
      <trkpt lat="44.429684160277247" lon="8.677946040406823">
        <ele>717.75999999999999</ele>
        <time>2018-04-15T10:26:42Z</time>
      </trkpt>
      <trkpt lat="44.429704193025827" lon="8.677961966022849">
        <ele>720.64999999999998</ele>
        <time>2018-04-15T10:26:45Z</time>
      </trkpt>
      <trkpt lat="44.429762111976743" lon="8.677991554141045">
        <ele>719.20000000000005</ele>
        <time>2018-04-15T10:26:56Z</time>
      </trkpt>
      <trkpt lat="44.429773008450866" lon="8.677994990721345">
        <ele>715.36000000000001</ele>
        <time>2018-04-15T10:26:58Z</time>
      </trkpt>
      <trkpt lat="44.429778708145022" lon="8.677995325997472">
        <ele>716.79999999999995</ele>
        <time>2018-04-15T10:26:59Z</time>
      </trkpt>
      <trkpt lat="44.429801674559712" lon="8.677988788112998">
        <ele>715.36000000000001</ele>
        <time>2018-04-15T10:27:03Z</time>
      </trkpt>
      <trkpt lat="44.42981768399477" lon="8.677994990721345">
        <ele>717.27999999999997</ele>
        <time>2018-04-15T10:27:06Z</time>
      </trkpt>
      <trkpt lat="44.429864371195436" lon="8.678046958521009">
        <ele>714.39999999999998</ele>
        <time>2018-04-15T10:27:14Z</time>
      </trkpt>
      <trkpt lat="44.429899742826819" lon="8.678039917722344">
        <ele>716.32000000000005</ele>
        <time>2018-04-15T10:27:21Z</time>
      </trkpt>
      <trkpt lat="44.429941400885582" lon="8.678026758134365">
        <ele>717.27999999999997</ele>
        <time>2018-04-15T10:27:29Z</time>
      </trkpt>
      <trkpt lat="44.429986411705613" lon="8.678047377616167">
        <ele>717.75999999999999</ele>
        <time>2018-04-15T10:27:36Z</time>
      </trkpt>
      <trkpt lat="44.430042821913958" lon="8.678034050390124">
        <ele>719.67999999999995</ele>
        <time>2018-04-15T10:27:45Z</time>
      </trkpt>
      <trkpt lat="44.430085234344006" lon="8.678020806983113">
        <ele>722.09000000000003</ele>
        <time>2018-04-15T10:27:52Z</time>
      </trkpt>
      <trkpt lat="44.430115995928645" lon="8.678009659051895">
        <ele>723.52999999999997</ele>
        <time>2018-04-15T10:27:56Z</time>
      </trkpt>
      <trkpt lat="44.430166035890579" lon="8.678007395938039">
        <ele>726.88999999999999</ele>
        <time>2018-04-15T10:28:03Z</time>
      </trkpt>
      <trkpt lat="44.430195707827806" lon="8.677993817254901">
        <ele>726.40999999999997</ele>
        <time>2018-04-15T10:28:08Z</time>
      </trkpt>
      <trkpt lat="44.430229067802429" lon="8.677982417866588">
        <ele>729.29999999999995</ele>
        <time>2018-04-15T10:28:15Z</time>
      </trkpt>
      <trkpt lat="44.430268127471209" lon="8.677952829748392">
        <ele>729.77999999999997</ele>
        <time>2018-04-15T10:28:21Z</time>
      </trkpt>
      <trkpt lat="44.430338786914945" lon="8.677924834191799">
        <ele>726.40999999999997</ele>
        <time>2018-04-15T10:28:30Z</time>
      </trkpt>
      <trkpt lat="44.430417912080884" lon="8.677923073992133">
        <ele>724.97000000000003</ele>
        <time>2018-04-15T10:28:41Z</time>
      </trkpt>
      <trkpt lat="44.430417912080884" lon="8.677925756201148">
        <ele>724.97000000000003</ele>
        <time>2018-04-15T10:28:42Z</time>
      </trkpt>
      <trkpt lat="44.430446159094572" lon="8.677917877212167">
        <ele>728.34000000000003</ele>
        <time>2018-04-15T10:28:47Z</time>
      </trkpt>
      <trkpt lat="44.430454792454839" lon="8.677895413711667">
        <ele>730.25999999999999</ele>
        <time>2018-04-15T10:28:51Z</time>
      </trkpt>
      <trkpt lat="44.430462922900915" lon="8.677880996838212">
        <ele>735.07000000000005</ele>
        <time>2018-04-15T10:28:53Z</time>
      </trkpt>
      <trkpt lat="44.430459989234805" lon="8.677880661562085">
        <ele>734.58000000000004</ele>
        <time>2018-04-15T10:28:54Z</time>
      </trkpt>
      <trkpt lat="44.430465521290898" lon="8.677876638248563">
        <ele>731.70000000000005</ele>
        <time>2018-04-15T10:28:55Z</time>
      </trkpt>
      <trkpt lat="44.430477088317275" lon="8.677874123677611">
        <ele>730.25999999999999</ele>
        <time>2018-04-15T10:28:57Z</time>
      </trkpt>
      <trkpt lat="44.430541712790728" lon="8.677843613550067">
        <ele>731.70000000000005</ele>
        <time>2018-04-15T10:29:06Z</time>
      </trkpt>
      <trkpt lat="44.430535677820444" lon="8.67784327827394">
        <ele>735.07000000000005</ele>
        <time>2018-04-15T10:29:12Z</time>
      </trkpt>
      <trkpt lat="44.430529642850161" lon="8.67784570902586">
        <ele>734.58000000000004</ele>
        <time>2018-04-15T10:29:13Z</time>
      </trkpt>
      <trkpt lat="44.43053349852562" lon="8.677847636863589">
        <ele>730.25999999999999</ele>
        <time>2018-04-15T10:29:20Z</time>
      </trkpt>
      <trkpt lat="44.430542215704918" lon="8.677847050130367">
        <ele>724.97000000000003</ele>
        <time>2018-04-15T10:29:21Z</time>
      </trkpt>
      <trkpt lat="44.430566523224115" lon="8.677848475053906">
        <ele>724.00999999999999</ele>
        <time>2018-04-15T10:29:23Z</time>
      </trkpt>
      <trkpt lat="44.430596446618438" lon="8.677830537781119">
        <ele>729.29999999999995</ele>
        <time>2018-04-15T10:29:26Z</time>
      </trkpt>
      <trkpt lat="44.430604241788387" lon="8.677821904420853">
        <ele>727.37</ele>
        <time>2018-04-15T10:29:27Z</time>
      </trkpt>
      <trkpt lat="44.430610695853829" lon="8.677814276888967">
        <ele>733.13999999999999</ele>
        <time>2018-04-15T10:29:28Z</time>
      </trkpt>
      <trkpt lat="44.430628968402743" lon="8.67780857719481">
        <ele>738.42999999999995</ele>
        <time>2018-04-15T10:29:30Z</time>
      </trkpt>
      <trkpt lat="44.4306381046772" lon="8.677800195291638">
        <ele>736.99000000000001</ele>
        <time>2018-04-15T10:29:31Z</time>
      </trkpt>
      <trkpt lat="44.430661825463176" lon="8.677795417606831">
        <ele>729.77999999999997</ele>
        <time>2018-04-15T10:29:33Z</time>
      </trkpt>
      <trkpt lat="44.430673057213426" lon="8.677797596901655">
        <ele>726.40999999999997</ele>
        <time>2018-04-15T10:29:34Z</time>
      </trkpt>
      <trkpt lat="44.430682696402073" lon="8.677799608558416">
        <ele>726.88999999999999</ele>
        <time>2018-04-15T10:29:35Z</time>
      </trkpt>
      <trkpt lat="44.430710608139634" lon="8.677792316302657">
        <ele>722.57000000000005</ele>
        <time>2018-04-15T10:29:38Z</time>
      </trkpt>
      <trkpt lat="44.430750170722604" lon="8.677764823660255">
        <ele>725.92999999999995</ele>
        <time>2018-04-15T10:29:42Z</time>
      </trkpt>
      <trkpt lat="44.43078713491559" lon="8.677766332402825">
        <ele>722.57000000000005</ele>
        <time>2018-04-15T10:29:46Z</time>
      </trkpt>
      <trkpt lat="44.430817561224103" lon="8.677747556939721">
        <ele>731.22000000000003</ele>
        <time>2018-04-15T10:29:51Z</time>
      </trkpt>
      <trkpt lat="44.430807419121265" lon="8.677743365988135">
        <ele>734.10000000000002</ele>
        <time>2018-04-15T10:29:53Z</time>
      </trkpt>
      <trkpt lat="44.430804988369346" lon="8.677737331017852">
        <ele>733.62</ele>
        <time>2018-04-15T10:29:54Z</time>
      </trkpt>
      <trkpt lat="44.430823512375355" lon="8.67774898186326">
        <ele>732.65999999999997</ele>
        <time>2018-04-15T10:30:02Z</time>
      </trkpt>
      <trkpt lat="44.430853268131614" lon="8.677752669900656">
        <ele>724.49000000000001</ele>
        <time>2018-04-15T10:30:04Z</time>
      </trkpt>
      <trkpt lat="44.430869529023767" lon="8.677747724577785">
        <ele>724.49000000000001</ele>
        <time>2018-04-15T10:30:05Z</time>
      </trkpt>
      <trkpt lat="44.430900793522596" lon="8.677731631323695">
        <ele>723.52999999999997</ele>
        <time>2018-04-15T10:30:08Z</time>
      </trkpt>
      <trkpt lat="44.430935997515917" lon="8.677733223885298">
        <ele>716.79999999999995</ele>
        <time>2018-04-15T10:30:11Z</time>
      </trkpt>
      <trkpt lat="44.430947229266167" lon="8.677735738456249">
        <ele>717.27999999999997</ele>
        <time>2018-04-15T10:30:12Z</time>
      </trkpt>
      <trkpt lat="44.430974554270506" lon="8.677736660465598">
        <ele>721.13</ele>
        <time>2018-04-15T10:30:14Z</time>
      </trkpt>
      <trkpt lat="44.430999280884862" lon="8.677742946892977">
        <ele>723.04999999999995</ele>
        <time>2018-04-15T10:30:16Z</time>
      </trkpt>
      <trkpt lat="44.431031802669168" lon="8.677758034318686">
        <ele>722.57000000000005</ele>
        <time>2018-04-15T10:30:19Z</time>
      </trkpt>
      <trkpt lat="44.431057367473841" lon="8.677795249968767">
        <ele>727.86000000000001</ele>
        <time>2018-04-15T10:30:22Z</time>
      </trkpt>
      <trkpt lat="44.431079663336277" lon="8.677815450355411">
        <ele>724.49000000000001</ele>
        <time>2018-04-15T10:30:24Z</time>
      </trkpt>
      <trkpt lat="44.431100282818079" lon="8.677828945219517">
        <ele>718.24000000000001</ele>
        <time>2018-04-15T10:30:26Z</time>
      </trkpt>
      <trkpt lat="44.431111766025424" lon="8.67783690802753">
        <ele>714.88</ele>
        <time>2018-04-15T10:30:27Z</time>
      </trkpt>
      <trkpt lat="44.431123249232769" lon="8.677843362092972">
        <ele>716.79999999999995</ele>
        <time>2018-04-15T10:30:28Z</time>
      </trkpt>
      <trkpt lat="44.431195165961981" lon="8.677876135334373">
        <ele>720.15999999999997</ele>
        <time>2018-04-15T10:30:34Z</time>
      </trkpt>
      <trkpt lat="44.431244451552629" lon="8.677887702360749">
        <ele>716.32000000000005</ele>
        <time>2018-04-15T10:30:40Z</time>
      </trkpt>
      <trkpt lat="44.431253587827086" lon="8.677891474217176">
        <ele>719.67999999999995</ele>
        <time>2018-04-15T10:30:41Z</time>
      </trkpt>
      <trkpt lat="44.431307567283511" lon="8.677896587178111">
        <ele>717.27999999999997</ele>
        <time>2018-04-15T10:30:46Z</time>
      </trkpt>
      <trkpt lat="44.431318882852793" lon="8.677902538329363">
        <ele>714.39999999999998</ele>
        <time>2018-04-15T10:30:47Z</time>
      </trkpt>
      <trkpt lat="44.431357523426414" lon="8.677910165861249">
        <ele>718.72000000000003</ele>
        <time>2018-04-15T10:30:50Z</time>
      </trkpt>
      <trkpt lat="44.431393314152956" lon="8.677912931889296">
        <ele>714.39999999999998</ele>
        <time>2018-04-15T10:30:53Z</time>
      </trkpt>
      <trkpt lat="44.431404881179333" lon="8.677919302135706">
        <ele>710.54999999999995</ele>
        <time>2018-04-15T10:30:54Z</time>
      </trkpt>
      <trkpt lat="44.431415693834424" lon="8.67792977951467">
        <ele>713.91999999999996</ele>
        <time>2018-04-15T10:30:55Z</time>
      </trkpt>
      <trkpt lat="44.431538321077824" lon="8.678007060661912">
        <ele>710.54999999999995</ele>
        <time>2018-04-15T10:31:06Z</time>
      </trkpt>
      <trkpt lat="44.431551061570644" lon="8.678004713729024">
        <ele>710.54999999999995</ele>
        <time>2018-04-15T10:31:07Z</time>
      </trkpt>
      <trkpt lat="44.431596072390676" lon="8.677999181672931">
        <ele>710.54999999999995</ele>
        <time>2018-04-15T10:31:11Z</time>
      </trkpt>
      <trkpt lat="44.431621888652444" lon="8.678001780062914">
        <ele>704.77999999999997</ele>
        <time>2018-04-15T10:31:13Z</time>
      </trkpt>
      <trkpt lat="44.431650470942259" lon="8.678035559132695">
        <ele>712.95000000000005</ele>
        <time>2018-04-15T10:31:17Z</time>
      </trkpt>
      <trkpt lat="44.431656505912542" lon="8.678044946864247">
        <ele>712.47000000000003</ele>
        <time>2018-04-15T10:31:18Z</time>
      </trkpt>
      <trkpt lat="44.431662792339921" lon="8.678050646558404">
        <ele>710.54999999999995</ele>
        <time>2018-04-15T10:31:19Z</time>
      </trkpt>
      <trkpt lat="44.431686596944928" lon="8.678044443950057">
        <ele>708.63</ele>
        <time>2018-04-15T10:31:21Z</time>
      </trkpt>
      <trkpt lat="44.431751724332571" lon="8.67800404317677">
        <ele>709.59000000000003</ele>
        <time>2018-04-15T10:31:26Z</time>
      </trkpt>
      <trkpt lat="44.431774774566293" lon="8.677987111732364">
        <ele>710.54999999999995</ele>
        <time>2018-04-15T10:31:32Z</time>
      </trkpt>
      <trkpt lat="44.431831603869796" lon="8.677977556362748">
        <ele>710.54999999999995</ele>
        <time>2018-04-15T10:31:40Z</time>
      </trkpt>
      <trkpt lat="44.431879380717874" lon="8.677979903295636">
        <ele>706.23000000000002</ele>
        <time>2018-04-15T10:31:44Z</time>
      </trkpt>
      <trkpt lat="44.431936042383313" lon="8.677970431745052">
        <ele>709.59000000000003</ele>
        <time>2018-04-15T10:31:50Z</time>
      </trkpt>
      <trkpt lat="44.431977784261107" lon="8.677977053448558">
        <ele>706.23000000000002</ele>
        <time>2018-04-15T10:31:57Z</time>
      </trkpt>
      <trkpt lat="44.43198817782104" lon="8.677976382896304">
        <ele>700.94000000000005</ele>
        <time>2018-04-15T10:31:58Z</time>
      </trkpt>
      <trkpt lat="44.431998990476131" lon="8.677980490028858">
        <ele>703.82000000000005</ele>
        <time>2018-04-15T10:31:59Z</time>
      </trkpt>
      <trkpt lat="44.432042492553592" lon="8.677986692637205">
        <ele>707.66999999999996</ele>
        <time>2018-04-15T10:32:03Z</time>
      </trkpt>
      <trkpt lat="44.432050622999668" lon="8.67798401042819">
        <ele>707.66999999999996</ele>
        <time>2018-04-15T10:32:04Z</time>
      </trkpt>
      <trkpt lat="44.432108122855425" lon="8.677968252450228">
        <ele>706.23000000000002</ele>
        <time>2018-04-15T10:32:09Z</time>
      </trkpt>
      <trkpt lat="44.432197473943233" lon="8.677971437573433">
        <ele>703.34000000000003</ele>
        <time>2018-04-15T10:32:17Z</time>
      </trkpt>
      <trkpt lat="44.432218931615353" lon="8.677967917174101">
        <ele>705.25999999999999</ele>
        <time>2018-04-15T10:32:19Z</time>
      </trkpt>
      <trkpt lat="44.432312306016684" lon="8.67791703902185">
        <ele>706.71000000000004</ele>
        <time>2018-04-15T10:32:29Z</time>
      </trkpt>
      <trkpt lat="44.432321442291141" lon="8.677913267165422">
        <ele>706.71000000000004</ele>
        <time>2018-04-15T10:32:30Z</time>
      </trkpt>
      <trkpt lat="44.432386066764593" lon="8.677904382348061">
        <ele>706.23000000000002</ele>
        <time>2018-04-15T10:32:36Z</time>
      </trkpt>
      <trkpt lat="44.432431664317846" lon="8.677912093698978">
        <ele>706.71000000000004</ele>
        <time>2018-04-15T10:32:41Z</time>
      </trkpt>
      <trkpt lat="44.432445745915174" lon="8.677894491702318">
        <ele>706.23000000000002</ele>
        <time>2018-04-15T10:32:43Z</time>
      </trkpt>
      <trkpt lat="44.432506179437041" lon="8.677864903584123">
        <ele>705.75</ele>
        <time>2018-04-15T10:32:48Z</time>
      </trkpt>
      <trkpt lat="44.432528726756573" lon="8.677873704582453">
        <ele>706.71000000000004</ele>
        <time>2018-04-15T10:32:50Z</time>
      </trkpt>
      <trkpt lat="44.432564433664083" lon="8.677859622985125">
        <ele>703.34000000000003</ele>
        <time>2018-04-15T10:32:54Z</time>
      </trkpt>
      <trkpt lat="44.432656383141875" lon="8.677873788401485">
        <ele>703.34000000000003</ele>
        <time>2018-04-15T10:33:05Z</time>
      </trkpt>
      <trkpt lat="44.43269276060164" lon="8.677883008494973">
        <ele>699.5</ele>
        <time>2018-04-15T10:33:11Z</time>
      </trkpt>
      <trkpt lat="44.432699382305145" lon="8.677879488095641">
        <ele>699.98000000000002</ele>
        <time>2018-04-15T10:33:12Z</time>
      </trkpt>
      <trkpt lat="44.432703657075763" lon="8.677872447296977">
        <ele>705.25999999999999</ele>
        <time>2018-04-15T10:33:14Z</time>
      </trkpt>
      <trkpt lat="44.432710530236363" lon="8.677874458953738">
        <ele>704.77999999999997</ele>
        <time>2018-04-15T10:33:15Z</time>
      </trkpt>
      <trkpt lat="44.432719415053725" lon="8.677875967696309">
        <ele>700.94000000000005</ele>
        <time>2018-04-15T10:33:16Z</time>
      </trkpt>
      <trkpt lat="44.432857045903802" lon="8.677900191396475">
        <ele>702.38</ele>
        <time>2018-04-15T10:33:27Z</time>
      </trkpt>
      <trkpt lat="44.432962154969573" lon="8.677864987403154">
        <ele>701.89999999999998</ele>
        <time>2018-04-15T10:33:38Z</time>
      </trkpt>
      <trkpt lat="44.433118812739849" lon="8.677829448133707">
        <ele>702.38</ele>
        <time>2018-04-15T10:33:51Z</time>
      </trkpt>
      <trkpt lat="44.433165164664388" lon="8.677808409556747">
        <ele>703.82000000000005</ele>
        <time>2018-04-15T10:33:55Z</time>
      </trkpt>
      <trkpt lat="44.433194920420647" lon="8.677806816995144">
        <ele>699.5</ele>
        <time>2018-04-15T10:33:58Z</time>
      </trkpt>
      <trkpt lat="44.433202631771564" lon="8.677805224433541">
        <ele>700.46000000000004</ele>
        <time>2018-04-15T10:33:59Z</time>
      </trkpt>
      <trkpt lat="44.433226687833667" lon="8.677797680720687">
        <ele>700.94000000000005</ele>
        <time>2018-04-15T10:34:01Z</time>
      </trkpt>
      <trkpt lat="44.43323758430779" lon="8.677796255797148">
        <ele>699.5</ele>
        <time>2018-04-15T10:34:02Z</time>
      </trkpt>
      <trkpt lat="44.433261388912797" lon="8.677799021825194">
        <ele>699.98000000000002</ele>
        <time>2018-04-15T10:34:04Z</time>
      </trkpt>
      <trkpt lat="44.433298520743847" lon="8.677782090380788">
        <ele>703.34000000000003</ele>
        <time>2018-04-15T10:34:07Z</time>
      </trkpt>
      <trkpt lat="44.433320313692093" lon="8.677772283554077">
        <ele>701.89999999999998</ele>
        <time>2018-04-15T10:34:09Z</time>
      </trkpt>
      <trkpt lat="44.433483174070716" lon="8.677767170593143">
        <ele>700.46000000000004</ele>
        <time>2018-04-15T10:34:23Z</time>
      </trkpt>
      <trkpt lat="44.433603370562196" lon="8.677802542224526">
        <ele>699.5</ele>
        <time>2018-04-15T10:34:34Z</time>
      </trkpt>
      <trkpt lat="44.43363974802196" lon="8.677807655185461">
        <ele>701.41999999999996</ele>
        <time>2018-04-15T10:34:37Z</time>
      </trkpt>
      <trkpt lat="44.433683836832643" lon="8.677790891379118">
        <ele>700.94000000000005</ele>
        <time>2018-04-15T10:34:41Z</time>
      </trkpt>
      <trkpt lat="44.433718034997582" lon="8.67778611369431">
        <ele>701.89999999999998</ele>
        <time>2018-04-15T10:34:44Z</time>
      </trkpt>
      <trkpt lat="44.433778049424291" lon="8.677780162543058">
        <ele>701.41999999999996</ele>
        <time>2018-04-15T10:34:50Z</time>
      </trkpt>
      <trkpt lat="44.433914422988892" lon="8.677753424271941">
        <ele>702.86000000000001</ele>
        <time>2018-04-15T10:35:02Z</time>
      </trkpt>
      <trkpt lat="44.433927414938807" lon="8.677750993520021">
        <ele>702.38</ele>
        <time>2018-04-15T10:35:03Z</time>
      </trkpt>
      <trkpt lat="44.433978963643312" lon="8.677752837538719">
        <ele>702.38</ele>
        <time>2018-04-15T10:35:07Z</time>
      </trkpt>
      <trkpt lat="44.434036044403911" lon="8.677756022661924">
        <ele>701.41999999999996</ele>
        <time>2018-04-15T10:35:12Z</time>
      </trkpt>
      <trkpt lat="44.43412690423429" lon="8.677738672122359">
        <ele>702.86000000000001</ele>
        <time>2018-04-15T10:35:21Z</time>
      </trkpt>
      <trkpt lat="44.434145009145141" lon="8.677729368209839">
        <ele>702.86000000000001</ele>
        <time>2018-04-15T10:35:23Z</time>
      </trkpt>
      <trkpt lat="44.434201084077358" lon="8.67771185003221">
        <ele>704.77999999999997</ele>
        <time>2018-04-15T10:35:29Z</time>
      </trkpt>
      <trkpt lat="44.434277191758156" lon="8.677699444815517">
        <ele>701.41999999999996</ele>
        <time>2018-04-15T10:35:38Z</time>
      </trkpt>
      <trkpt lat="44.434278700500727" lon="8.677701037377119">
        <ele>702.86000000000001</ele>
        <time>2018-04-15T10:35:39Z</time>
      </trkpt>
      <trkpt lat="44.434303930029273" lon="8.67769768461585">
        <ele>701.89999999999998</ele>
        <time>2018-04-15T10:35:44Z</time>
      </trkpt>
      <trkpt lat="44.434376014396548" lon="8.677711598575115">
        <ele>701.41999999999996</ele>
        <time>2018-04-15T10:35:51Z</time>
      </trkpt>
      <trkpt lat="44.434382384642959" lon="8.677707994356751">
        <ele>701.89999999999998</ele>
        <time>2018-04-15T10:35:52Z</time>
      </trkpt>
      <trkpt lat="44.434401076287031" lon="8.677715370431542">
        <ele>703.82000000000005</ele>
        <time>2018-04-15T10:35:54Z</time>
      </trkpt>
      <trkpt lat="44.434436280280352" lon="8.677721070125699">
        <ele>699.98000000000002</ele>
        <time>2018-04-15T10:35:57Z</time>
      </trkpt>
      <trkpt lat="44.434484895318747" lon="8.67771428078413">
        <ele>700.94000000000005</ele>
        <time>2018-04-15T10:36:01Z</time>
      </trkpt>
      <trkpt lat="44.434599811211228" lon="8.677729703485966">
        <ele>698.52999999999997</ele>
        <time>2018-04-15T10:36:10Z</time>
      </trkpt>
      <trkpt lat="44.434695029631257" lon="8.677751328796148">
        <ele>697.09000000000003</ele>
        <time>2018-04-15T10:36:18Z</time>
      </trkpt>
      <trkpt lat="44.434719420969486" lon="8.677764572203159">
        <ele>699.5</ele>
        <time>2018-04-15T10:36:20Z</time>
      </trkpt>
      <trkpt lat="44.434871133416891" lon="8.677781168371439">
        <ele>699.5</ele>
        <time>2018-04-15T10:36:33Z</time>
      </trkpt>
      <trkpt lat="44.434970961883664" lon="8.677777731791139">
        <ele>697.57000000000005</ele>
        <time>2018-04-15T10:36:42Z</time>
      </trkpt>
      <trkpt lat="44.435005830600858" lon="8.677762225270271">
        <ele>699.01999999999998</ele>
        <time>2018-04-15T10:36:45Z</time>
      </trkpt>
      <trkpt lat="44.435127871111035" lon="8.677730122581124">
        <ele>701.89999999999998</ele>
        <time>2018-04-15T10:36:56Z</time>
      </trkpt>
      <trkpt lat="44.435137007385492" lon="8.677728613838553">
        <ele>702.38</ele>
        <time>2018-04-15T10:36:57Z</time>
      </trkpt>
      <trkpt lat="44.435145137831569" lon="8.677724003791809">
        <ele>703.34000000000003</ele>
        <time>2018-04-15T10:36:58Z</time>
      </trkpt>
      <trkpt lat="44.435210349038243" lon="8.677692487835884">
        <ele>700.94000000000005</ele>
        <time>2018-04-15T10:37:04Z</time>
      </trkpt>
      <trkpt lat="44.435288803651929" lon="8.677694415673614">
        <ele>700.46000000000004</ele>
        <time>2018-04-15T10:37:12Z</time>
      </trkpt>
      <trkpt lat="44.435317637398839" lon="8.677690224722028">
        <ele>701.89999999999998</ele>
        <time>2018-04-15T10:37:15Z</time>
      </trkpt>
      <trkpt lat="44.435336580500007" lon="8.677685782313347">
        <ele>703.34000000000003</ele>
        <time>2018-04-15T10:37:17Z</time>
      </trkpt>
      <trkpt lat="44.435358624905348" lon="8.677674299106002">
        <ele>704.77999999999997</ele>
        <time>2018-04-15T10:37:19Z</time>
      </trkpt>
      <trkpt lat="44.435392320156097" lon="8.677661893889308">
        <ele>699.5</ele>
        <time>2018-04-15T10:37:22Z</time>
      </trkpt>
      <trkpt lat="44.43540321663022" lon="8.677662899717689">
        <ele>699.5</ele>
        <time>2018-04-15T10:37:23Z</time>
      </trkpt>
      <trkpt lat="44.43547354079783" lon="8.67766491137445">
        <ele>703.82000000000005</ele>
        <time>2018-04-15T10:37:29Z</time>
      </trkpt>
      <trkpt lat="44.435486784204841" lon="8.677669269964099">
        <ele>699.5</ele>
        <time>2018-04-15T10:37:30Z</time>
      </trkpt>
      <trkpt lat="44.435498267412186" lon="8.677670443430543">
        <ele>699.5</ele>
        <time>2018-04-15T10:37:31Z</time>
      </trkpt>
      <trkpt lat="44.435547217726707" lon="8.677682848647237">
        <ele>702.86000000000001</ele>
        <time>2018-04-15T10:37:36Z</time>
      </trkpt>
      <trkpt lat="44.435569010674953" lon="8.677683267742395">
        <ele>699.5</ele>
        <time>2018-04-15T10:37:38Z</time>
      </trkpt>
      <trkpt lat="44.435578733682632" lon="8.677684189751744">
        <ele>698.52999999999997</ele>
        <time>2018-04-15T10:37:39Z</time>
      </trkpt>
      <trkpt lat="44.435599520802498" lon="8.677691901102662">
        <ele>697.09000000000003</ele>
        <time>2018-04-15T10:37:41Z</time>
      </trkpt>
      <trkpt lat="44.435620559379458" lon="8.677700953558087">
        <ele>700.46000000000004</ele>
        <time>2018-04-15T10:37:43Z</time>
      </trkpt>
      <trkpt lat="44.435630114749074" lon="8.677706653252244">
        <ele>700.46000000000004</ele>
        <time>2018-04-15T10:37:44Z</time>
      </trkpt>
      <trkpt lat="44.435708234086633" lon="8.67774068377912">
        <ele>697.09000000000003</ele>
        <time>2018-04-15T10:37:52Z</time>
      </trkpt>
      <trkpt lat="44.435729272663593" lon="8.677767924964428">
        <ele>700.94000000000005</ele>
        <time>2018-04-15T10:37:55Z</time>
      </trkpt>
      <trkpt lat="44.435732960700989" lon="8.677778569981456">
        <ele>698.04999999999995</ele>
        <time>2018-04-15T10:37:56Z</time>
      </trkpt>
      <trkpt lat="44.435755759477615" lon="8.677815115079284">
        <ele>703.82000000000005</ele>
        <time>2018-04-15T10:38:00Z</time>
      </trkpt>
      <trkpt lat="44.435759866610169" lon="8.67782617919147">
        <ele>703.82000000000005</ele>
        <time>2018-04-15T10:38:01Z</time>
      </trkpt>
      <trkpt lat="44.435769254341722" lon="8.677843445912004">
        <ele>703.82000000000005</ele>
        <time>2018-04-15T10:38:03Z</time>
      </trkpt>
      <trkpt lat="44.435868244618177" lon="8.677888372913003">
        <ele>704.77999999999997</ele>
        <time>2018-04-15T10:38:15Z</time>
      </trkpt>
      <trkpt lat="44.435917362570763" lon="8.677871357649565">
        <ele>706.71000000000004</ele>
        <time>2018-04-15T10:38:20Z</time>
      </trkpt>
      <trkpt lat="44.43601836450398" lon="8.677799189463258">
        <ele>704.29999999999995</ele>
        <time>2018-04-15T10:38:30Z</time>
      </trkpt>
      <trkpt lat="44.436124479398131" lon="8.677710425108671">
        <ele>705.75</ele>
        <time>2018-04-15T10:38:41Z</time>
      </trkpt>
      <trkpt lat="44.43616253323853" lon="8.677677735686302">
        <ele>705.25999999999999</ele>
        <time>2018-04-15T10:38:45Z</time>
      </trkpt>
      <trkpt lat="44.436254734173417" lon="8.677665833383799">
        <ele>704.29999999999995</ele>
        <time>2018-04-15T10:38:53Z</time>
      </trkpt>
      <trkpt lat="44.436325142160058" lon="8.677636915817857">
        <ele>704.77999999999997</ele>
        <time>2018-04-15T10:38:59Z</time>
      </trkpt>
      <trkpt lat="44.436348108574748" lon="8.677642196416855">
        <ele>703.82000000000005</ele>
        <time>2018-04-15T10:39:01Z</time>
      </trkpt>
      <trkpt lat="44.436461599543691" lon="8.677655607461929">
        <ele>705.25999999999999</ele>
        <time>2018-04-15T10:39:10Z</time>
      </trkpt>
      <trkpt lat="44.436623454093933" lon="8.677683267742395">
        <ele>707.19000000000005</ele>
        <time>2018-04-15T10:39:23Z</time>
      </trkpt>
      <trkpt lat="44.43665262311697" lon="8.677682261914015">
        <ele>707.19000000000005</ele>
        <time>2018-04-15T10:39:26Z</time>
      </trkpt>
      <trkpt lat="44.436700064688921" lon="8.677648734301329">
        <ele>703.82000000000005</ele>
        <time>2018-04-15T10:39:31Z</time>
      </trkpt>
      <trkpt lat="44.436707776039839" lon="8.67764588445425">
        <ele>703.34000000000003</ele>
        <time>2018-04-15T10:39:32Z</time>
      </trkpt>
      <trkpt lat="44.436734514310956" lon="8.67761604487896">
        <ele>707.19000000000005</ele>
        <time>2018-04-15T10:39:36Z</time>
      </trkpt>
      <trkpt lat="44.436765611171722" lon="8.677563909441233">
        <ele>707.66999999999996</ele>
        <time>2018-04-15T10:39:41Z</time>
      </trkpt>
      <trkpt lat="44.436777429655194" lon="8.677542200312018">
        <ele>707.19000000000005</ele>
        <time>2018-04-15T10:39:43Z</time>
      </trkpt>
      <trkpt lat="44.436882538720965" lon="8.677444383502007">
        <ele>708.14999999999998</ele>
        <time>2018-04-15T10:39:54Z</time>
      </trkpt>
      <trkpt lat="44.436971805989742" lon="8.677438432350755">
        <ele>703.34000000000003</ele>
        <time>2018-04-15T10:40:03Z</time>
      </trkpt>
      <trkpt lat="44.436981612816453" lon="8.677436420693994">
        <ele>708.63</ele>
        <time>2018-04-15T10:40:04Z</time>
      </trkpt>
      <trkpt lat="44.437004495412111" lon="8.677427116781473">
        <ele>709.11000000000001</ele>
        <time>2018-04-15T10:40:06Z</time>
      </trkpt>
      <trkpt lat="44.437036765739322" lon="8.677423764020205">
        <ele>705.25999999999999</ele>
        <time>2018-04-15T10:40:09Z</time>
      </trkpt>
      <trkpt lat="44.4370655156672" lon="8.677419321611524">
        <ele>706.71000000000004</ele>
        <time>2018-04-15T10:40:12Z</time>
      </trkpt>
      <trkpt lat="44.437117902562022" lon="8.677419321611524">
        <ele>704.77999999999997</ele>
        <time>2018-04-15T10:40:17Z</time>
      </trkpt>
      <trkpt lat="44.437138102948666" lon="8.677414460107684">
        <ele>708.14999999999998</ele>
        <time>2018-04-15T10:40:19Z</time>
      </trkpt>
      <trkpt lat="44.437240110710263" lon="8.677413454279304">
        <ele>707.66999999999996</ele>
        <time>2018-04-15T10:40:29Z</time>
      </trkpt>
      <trkpt lat="44.437284450978041" lon="8.677415885031223">
        <ele>707.19000000000005</ele>
        <time>2018-04-15T10:40:34Z</time>
      </trkpt>
      <trkpt lat="44.437304399907589" lon="8.677420578896999">
        <ele>710.54999999999995</ele>
        <time>2018-04-15T10:40:37Z</time>
      </trkpt>
      <trkpt lat="44.437317978590727" lon="8.677424099296331">
        <ele>710.07000000000005</ele>
        <time>2018-04-15T10:40:39Z</time>
      </trkpt>
      <trkpt lat="44.437382016330957" lon="8.677439270541072">
        <ele>711.02999999999997</ele>
        <time>2018-04-15T10:40:47Z</time>
      </trkpt>
      <trkpt lat="44.437410682439804" lon="8.677457962185144">
        <ele>714.39999999999998</ele>
        <time>2018-04-15T10:40:53Z</time>
      </trkpt>
      <trkpt lat="44.437451753765345" lon="8.677464751526713">
        <ele>711.99000000000001</ele>
        <time>2018-04-15T10:41:00Z</time>
      </trkpt>
      <trkpt lat="44.437470613047481" lon="8.677467349916697">
        <ele>714.39999999999998</ele>
        <time>2018-04-15T10:41:03Z</time>
      </trkpt>
      <trkpt lat="44.437497602775693" lon="8.677482940256596">
        <ele>717.27999999999997</ele>
        <time>2018-04-15T10:41:11Z</time>
      </trkpt>
      <trkpt lat="44.437514869496226" lon="8.677487885579467">
        <ele>716.32000000000005</ele>
        <time>2018-04-15T10:41:15Z</time>
      </trkpt>
      <trkpt lat="44.437525598332286" lon="8.677492998540402">
        <ele>717.27999999999997</ele>
        <time>2018-04-15T10:41:17Z</time>
      </trkpt>
      <trkpt lat="44.437562227249146" lon="8.677506828680635">
        <ele>713.91999999999996</ele>
        <time>2018-04-15T10:41:28Z</time>
      </trkpt>
      <trkpt lat="44.437602292746305" lon="8.677537171170116">
        <ele>717.75999999999999</ele>
        <time>2018-04-15T10:41:37Z</time>
      </trkpt>
      <trkpt lat="44.437667839229107" lon="8.677561646327376">
        <ele>716.32000000000005</ele>
        <time>2018-04-15T10:41:48Z</time>
      </trkpt>
      <trkpt lat="44.437705390155315" lon="8.677563490346074">
        <ele>717.75999999999999</ele>
        <time>2018-04-15T10:41:55Z</time>
      </trkpt>
      <trkpt lat="44.437730368226767" lon="8.677561394870281">
        <ele>719.20000000000005</ele>
        <time>2018-04-15T10:41:58Z</time>
      </trkpt>
      <trkpt lat="44.437778564170003" lon="8.67757061496377">
        <ele>718.72000000000003</ele>
        <time>2018-04-15T10:42:03Z</time>
      </trkpt>
      <trkpt lat="44.437787281349301" lon="8.6775759793818">
        <ele>722.57000000000005</ele>
        <time>2018-04-15T10:42:04Z</time>
      </trkpt>
      <trkpt lat="44.437795747071505" lon="8.677575057372451">
        <ele>720.64999999999998</ele>
        <time>2018-04-15T10:42:05Z</time>
      </trkpt>
      <trkpt lat="44.437823910266161" lon="8.677582181990147">
        <ele>724.49000000000001</ele>
        <time>2018-04-15T10:42:11Z</time>
      </trkpt>
      <trkpt lat="44.437828185036778" lon="8.677581595256925">
        <ele>723.52999999999997</ele>
        <time>2018-04-15T10:42:12Z</time>
      </trkpt>
      <trkpt lat="44.43786489777267" lon="8.677603052929044">
        <ele>723.04999999999995</ele>
        <time>2018-04-15T10:42:19Z</time>
      </trkpt>
      <trkpt lat="44.43790546618402" lon="8.677646471187472">
        <ele>724.00999999999999</ele>
        <time>2018-04-15T10:42:29Z</time>
      </trkpt>
      <trkpt lat="44.437961457297206" lon="8.677636664360762">
        <ele>726.88999999999999</ele>
        <time>2018-04-15T10:42:37Z</time>
      </trkpt>
      <trkpt lat="44.438037564978004" lon="8.677673041820526">
        <ele>725.92999999999995</ele>
        <time>2018-04-15T10:42:48Z</time>
      </trkpt>
      <trkpt lat="44.438080983236432" lon="8.677749400958419">
        <ele>725.45000000000005</ele>
        <time>2018-04-15T10:42:58Z</time>
      </trkpt>
      <trkpt lat="44.438099842518568" lon="8.677758034318686">
        <ele>728.34000000000003</ele>
        <time>2018-04-15T10:43:01Z</time>
      </trkpt>
      <trkpt lat="44.438135549426079" lon="8.677753675729036">
        <ele>729.29999999999995</ele>
        <time>2018-04-15T10:43:11Z</time>
      </trkpt>
      <trkpt lat="44.438189780339599" lon="8.677757112309337">
        <ele>730.25999999999999</ele>
        <time>2018-04-15T10:43:16Z</time>
      </trkpt>
      <trkpt lat="44.438288351520896" lon="8.677795082330704">
        <ele>729.77999999999997</ele>
        <time>2018-04-15T10:43:26Z</time>
      </trkpt>
      <trkpt lat="44.438360100612044" lon="8.677818132564426">
        <ele>731.22000000000003</ele>
        <time>2018-04-15T10:43:34Z</time>
      </trkpt>
      <trkpt lat="44.438434196636081" lon="8.677854342386127">
        <ele>732.17999999999995</ele>
        <time>2018-04-15T10:43:43Z</time>
      </trkpt>
      <trkpt lat="44.438491277396679" lon="8.677870603278279">
        <ele>731.70000000000005</ele>
        <time>2018-04-15T10:43:49Z</time>
      </trkpt>
      <trkpt lat="44.438558919355273" lon="8.677885103970766">
        <ele>733.62</ele>
        <time>2018-04-15T10:43:57Z</time>
      </trkpt>
      <trkpt lat="44.438662771135569" lon="8.677915278822184">
        <ele>735.54999999999995</ele>
        <time>2018-04-15T10:44:08Z</time>
      </trkpt>
      <trkpt lat="44.438710799440742" lon="8.677933719009161">
        <ele>733.13999999999999</ele>
        <time>2018-04-15T10:44:14Z</time>
      </trkpt>
      <trkpt lat="44.438783721998334" lon="8.677955260500312">
        <ele>729.77999999999997</ele>
        <time>2018-04-15T10:44:21Z</time>
      </trkpt>
      <trkpt lat="44.438791181892157" lon="8.677959199994803">
        <ele>730.74000000000001</ele>
        <time>2018-04-15T10:44:22Z</time>
      </trkpt>
      <trkpt lat="44.438800821080804" lon="8.677962636575103">
        <ele>735.54999999999995</ele>
        <time>2018-04-15T10:44:23Z</time>
      </trkpt>
      <trkpt lat="44.438809119164944" lon="8.677966659888625">
        <ele>733.62</ele>
        <time>2018-04-15T10:44:24Z</time>
      </trkpt>
      <trkpt lat="44.438832337036729" lon="8.677978729829192">
        <ele>732.65999999999997</ele>
        <time>2018-04-15T10:44:26Z</time>
      </trkpt>
      <trkpt lat="44.438912216573954" lon="8.678006222471595">
        <ele>735.54999999999995</ele>
        <time>2018-04-15T10:44:34Z</time>
      </trkpt>
      <trkpt lat="44.438967201858759" lon="8.678029859438539">
        <ele>736.50999999999999</ele>
        <time>2018-04-15T10:44:39Z</time>
      </trkpt>
      <trkpt lat="44.439116148278117" lon="8.678086018189788">
        <ele>735.54999999999995</ele>
        <time>2018-04-15T10:44:54Z</time>
      </trkpt>
      <trkpt lat="44.439164930954576" lon="8.678103536367416">
        <ele>738.42999999999995</ele>
        <time>2018-04-15T10:45:01Z</time>
      </trkpt>
      <trkpt lat="44.439239194616675" lon="8.678123652935028">
        <ele>738.42999999999995</ele>
        <time>2018-04-15T10:45:09Z</time>
      </trkpt>
      <trkpt lat="44.439296443015337" lon="8.678127927705646">
        <ele>740.83000000000004</ele>
        <time>2018-04-15T10:45:15Z</time>
      </trkpt>
      <trkpt lat="44.439404318109155" lon="8.67814133875072">
        <ele>740.35000000000002</ele>
        <time>2018-04-15T10:45:26Z</time>
      </trkpt>
      <trkpt lat="44.439457040280104" lon="8.678140919655561">
        <ele>741.30999999999995</ele>
        <time>2018-04-15T10:45:31Z</time>
      </trkpt>
      <trkpt lat="44.439467350021005" lon="8.67813840508461">
        <ele>737.95000000000005</ele>
        <time>2018-04-15T10:45:32Z</time>
      </trkpt>
      <trkpt lat="44.439476486295462" lon="8.678134633228183">
        <ele>739.87</ele>
        <time>2018-04-15T10:45:33Z</time>
      </trkpt>
      <trkpt lat="44.439596515148878" lon="8.678118539974093">
        <ele>742.75999999999999</ele>
        <time>2018-04-15T10:45:46Z</time>
      </trkpt>
      <trkpt lat="44.439753256738186" lon="8.678109236061573">
        <ele>741.78999999999996</ele>
        <time>2018-04-15T10:46:00Z</time>
      </trkpt>
      <trkpt lat="44.43987219594419" lon="8.678142847493291">
        <ele>740.35000000000002</ele>
        <time>2018-04-15T10:46:11Z</time>
      </trkpt>
      <trkpt lat="44.439895329996943" lon="8.678143685683608">
        <ele>743.24000000000001</ele>
        <time>2018-04-15T10:46:13Z</time>
      </trkpt>
      <trkpt lat="44.439908489584923" lon="8.678143350407481">
        <ele>742.27999999999997</ele>
        <time>2018-04-15T10:46:14Z</time>
      </trkpt>
      <trkpt lat="44.440042264759541" lon="8.678159108385444">
        <ele>742.75999999999999</ele>
        <time>2018-04-15T10:46:26Z</time>
      </trkpt>
      <trkpt lat="44.440128346905112" lon="8.678161455318332">
        <ele>744.20000000000005</ele>
        <time>2018-04-15T10:46:34Z</time>
      </trkpt>
      <trkpt lat="44.440235802903771" lon="8.678171429783106">
        <ele>745.63999999999999</ele>
        <time>2018-04-15T10:46:44Z</time>
      </trkpt>
      <trkpt lat="44.440374355763197" lon="8.678220296278596">
        <ele>744.20000000000005</ele>
        <time>2018-04-15T10:46:57Z</time>
      </trkpt>
      <trkpt lat="44.440473429858685" lon="8.678252063691616">
        <ele>745.15999999999997</ele>
        <time>2018-04-15T10:47:07Z</time>
      </trkpt>
      <trkpt lat="44.440598571673036" lon="8.678334960713983">
        <ele>745.63999999999999</ele>
        <time>2018-04-15T10:47:20Z</time>
      </trkpt>
      <trkpt lat="44.440646264702082" lon="8.678370164707303">
        <ele>746.12</ele>
        <time>2018-04-15T10:47:29Z</time>
      </trkpt>
      <trkpt lat="44.440658837556839" lon="8.678385419771075">
        <ele>746.60000000000002</ele>
        <time>2018-04-15T10:47:35Z</time>
      </trkpt>
      <trkpt lat="44.440682474523783" lon="8.678442416712642">
        <ele>746.12</ele>
        <time>2018-04-15T10:47:51Z</time>
      </trkpt>
      <trkpt lat="44.440657161176205" lon="8.678477201610804">
        <ele>748.51999999999998</ele>
        <time>2018-04-15T10:47:54Z</time>
      </trkpt>
      <trkpt lat="44.440619107335806" lon="8.678490864112973">
        <ele>747.55999999999995</ele>
        <time>2018-04-15T10:48:06Z</time>
      </trkpt>
      <trkpt lat="44.440618185326457" lon="8.678502766415477">
        <ele>748.03999999999996</ele>
        <time>2018-04-15T10:48:18Z</time>
      </trkpt>
      <trkpt lat="44.440605696290731" lon="8.678493462502956">
        <ele>749.97000000000003</ele>
        <time>2018-04-15T10:48:30Z</time>
      </trkpt>
      <trkpt lat="44.440606450662017" lon="8.678493211045861">
        <ele>750.92999999999995</ele>
        <time>2018-04-15T10:48:43Z</time>
      </trkpt>
      <trkpt lat="44.44061198271811" lon="8.678484577685595">
        <ele>750.92999999999995</ele>
        <time>2018-04-15T10:48:51Z</time>
      </trkpt>
      <trkpt lat="44.440625393763185" lon="8.678435040637851">
        <ele>749.97000000000003</ele>
        <time>2018-04-15T10:48:55Z</time>
      </trkpt>
      <trkpt lat="44.440653305500746" lon="8.678395645692945">
        <ele>749</ele>
        <time>2018-04-15T10:49:04Z</time>
      </trkpt>
      <trkpt lat="44.440645091235638" lon="8.678424563258886">
        <ele>748.51999999999998</ele>
        <time>2018-04-15T10:49:15Z</time>
      </trkpt>
      <trkpt lat="44.440627489238977" lon="8.678427077829838">
        <ele>748.03999999999996</ele>
        <time>2018-04-15T10:49:27Z</time>
      </trkpt>
      <trkpt lat="44.440627824515104" lon="8.678428754210472">
        <ele>748.03999999999996</ele>
        <time>2018-04-15T10:49:41Z</time>
      </trkpt>
      <trkpt lat="44.440629249438643" lon="8.678417354822159">
        <ele>748.03999999999996</ele>
        <time>2018-04-15T10:49:49Z</time>
      </trkpt>
      <trkpt lat="44.440633775666356" lon="8.678388018161058">
        <ele>747.08000000000004</ele>
        <time>2018-04-15T10:49:58Z</time>
      </trkpt>
      <trkpt lat="44.440633440390229" lon="8.678397908806801">
        <ele>746.12</ele>
        <time>2018-04-15T10:50:06Z</time>
      </trkpt>
      <trkpt lat="44.440639391541481" lon="8.67839983664453">
        <ele>749.49000000000001</ele>
        <time>2018-04-15T10:50:15Z</time>
      </trkpt>
      <trkpt lat="44.440636625513434" lon="8.678397657349706">
        <ele>749.49000000000001</ele>
        <time>2018-04-15T10:50:16Z</time>
      </trkpt>
      <trkpt lat="44.4406349491328" lon="8.678393717855215">
        <ele>746.12</ele>
        <time>2018-04-15T10:50:23Z</time>
      </trkpt>
      <trkpt lat="44.440644755959511" lon="8.678402015939355">
        <ele>746.60000000000002</ele>
        <time>2018-04-15T10:50:29Z</time>
      </trkpt>
      <trkpt lat="44.440654143691063" lon="8.678409727290273">
        <ele>747.08000000000004</ele>
        <time>2018-04-15T10:50:41Z</time>
      </trkpt>
      <trkpt lat="44.440657664090395" lon="8.678380809724331">
        <ele>747.08000000000004</ele>
        <time>2018-04-15T10:50:59Z</time>
      </trkpt>
      <trkpt lat="44.440639559179544" lon="8.678355747833848">
        <ele>748.51999999999998</ele>
        <time>2018-04-15T10:51:07Z</time>
      </trkpt>
      <trkpt lat="44.440631680190563" lon="8.678389023989439">
        <ele>746.12</ele>
        <time>2018-04-15T10:51:11Z</time>
      </trkpt>
      <trkpt lat="44.440592033788562" lon="8.678478458896279">
        <ele>747.55999999999995</ele>
        <time>2018-04-15T10:51:21Z</time>
      </trkpt>
      <trkpt lat="44.440502012148499" lon="8.678563954308629">
        <ele>749.49000000000001</ele>
        <time>2018-04-15T10:51:32Z</time>
      </trkpt>
      <trkpt lat="44.44048005156219" lon="8.678590776398778">
        <ele>749</ele>
        <time>2018-04-15T10:51:35Z</time>
      </trkpt>
      <trkpt lat="44.44041701965034" lon="8.678692281246185">
        <ele>749.49000000000001</ele>
        <time>2018-04-15T10:51:46Z</time>
      </trkpt>
      <trkpt lat="44.440411571413279" lon="8.678701501339674">
        <ele>749.49000000000001</ele>
        <time>2018-04-15T10:51:47Z</time>
      </trkpt>
      <trkpt lat="44.440362537279725" lon="8.678772915154696">
        <ele>750.45000000000005</ele>
        <time>2018-04-15T10:51:56Z</time>
      </trkpt>
      <trkpt lat="44.440350383520126" lon="8.678788505494595">
        <ele>749.97000000000003</ele>
        <time>2018-04-15T10:51:58Z</time>
      </trkpt>
      <trkpt lat="44.440299840644002" lon="8.678898476064205">
        <ele>750.45000000000005</ele>
        <time>2018-04-15T10:52:09Z</time>
      </trkpt>
      <trkpt lat="44.440266648307443" lon="8.678959077224135">
        <ele>753.80999999999995</ele>
        <time>2018-04-15T10:52:17Z</time>
      </trkpt>
      <trkpt lat="44.440225996077061" lon="8.679064102470875">
        <ele>753.80999999999995</ele>
        <time>2018-04-15T10:52:28Z</time>
      </trkpt>
      <trkpt lat="44.440212333574891" lon="8.679083297029138">
        <ele>754.76999999999998</ele>
        <time>2018-04-15T10:52:32Z</time>
      </trkpt>
      <trkpt lat="44.440189953893423" lon="8.679146664217114">
        <ele>757.65999999999997</ele>
        <time>2018-04-15T10:52:40Z</time>
      </trkpt>
      <trkpt lat="44.440186517313123" lon="8.679154962301254">
        <ele>757.65999999999997</ele>
        <time>2018-04-15T10:52:41Z</time>
      </trkpt>
      <trkpt lat="44.440177464857697" lon="8.679179521277547">
        <ele>756.21000000000004</ele>
        <time>2018-04-15T10:52:44Z</time>
      </trkpt>
      <trkpt lat="44.440143350511789" lon="8.679284881800413">
        <ele>759.10000000000002</ele>
        <time>2018-04-15T10:52:56Z</time>
      </trkpt>
      <trkpt lat="44.440111499279737" lon="8.679379094392061">
        <ele>759.10000000000002</ele>
        <time>2018-04-15T10:53:07Z</time>
      </trkpt>
      <trkpt lat="44.440102195367217" lon="8.679460566490889">
        <ele>759.10000000000002</ele>
        <time>2018-04-15T10:53:15Z</time>
      </trkpt>
      <trkpt lat="44.440096663311124" lon="8.679471965879202">
        <ele>759.10000000000002</ele>
        <time>2018-04-15T10:53:16Z</time>
      </trkpt>
      <trkpt lat="44.440073613077402" lon="8.679572632536292">
        <ele>761.5</ele>
        <time>2018-04-15T10:53:23Z</time>
      </trkpt>
      <trkpt lat="44.440020387992263" lon="8.679669527336955">
        <ele>762.46000000000004</ele>
        <time>2018-04-15T10:53:33Z</time>
      </trkpt>
      <trkpt lat="44.439985686913133" lon="8.679728787392378">
        <ele>762.94000000000005</ele>
        <time>2018-04-15T10:53:41Z</time>
      </trkpt>
      <trkpt lat="44.439941179007292" lon="8.679827358573675">
        <ele>765.35000000000002</ele>
        <time>2018-04-15T10:53:51Z</time>
      </trkpt>
      <trkpt lat="44.439943777397275" lon="8.679853929206729">
        <ele>766.30999999999995</ele>
        <time>2018-04-15T10:53:59Z</time>
      </trkpt>
      <trkpt lat="44.439941346645355" lon="8.679857198148966">
        <ele>767.75</ele>
        <time>2018-04-15T10:54:18Z</time>
      </trkpt>
      <trkpt lat="44.43993765860796" lon="8.679873459041119">
        <ele>767.26999999999998</ele>
        <time>2018-04-15T10:54:33Z</time>
      </trkpt>
      <trkpt lat="44.439927600324154" lon="8.67989064194262">
        <ele>765.83000000000004</ele>
        <time>2018-04-15T10:54:49Z</time>
      </trkpt>
      <trkpt lat="44.439927600324154" lon="8.679903047159314">
        <ele>763.41999999999996</ele>
        <time>2018-04-15T10:54:56Z</time>
      </trkpt>
      <trkpt lat="44.439929611980915" lon="8.679901454597712">
        <ele>765.35000000000002</ele>
        <time>2018-04-15T10:54:59Z</time>
      </trkpt>
      <trkpt lat="44.439904382452369" lon="8.679955014958978">
        <ele>764.87</ele>
        <time>2018-04-15T10:55:09Z</time>
      </trkpt>
      <trkpt lat="44.439903208985925" lon="8.67995610460639">
        <ele>765.35000000000002</ele>
        <time>2018-04-15T10:55:10Z</time>
      </trkpt>
      <trkpt lat="44.439873872324824" lon="8.679987536743283">
        <ele>766.30999999999995</ele>
        <time>2018-04-15T10:55:17Z</time>
      </trkpt>
      <trkpt lat="44.439866999164224" lon="8.680001115426421">
        <ele>764.38999999999999</ele>
        <time>2018-04-15T10:55:19Z</time>
      </trkpt>
      <trkpt lat="44.439859036356211" lon="8.68001569993794">
        <ele>767.75</ele>
        <time>2018-04-15T10:55:24Z</time>
      </trkpt>
      <trkpt lat="44.439863311126828" lon="8.680008575320244">
        <ele>768.23000000000002</ele>
        <time>2018-04-15T10:55:43Z</time>
      </trkpt>
      <trkpt lat="44.439857359975576" lon="8.680009245872498">
        <ele>768.71000000000004</ele>
        <time>2018-04-15T10:55:59Z</time>
      </trkpt>
      <trkpt lat="44.439870016649365" lon="8.680019220337272">
        <ele>770.63</ele>
        <time>2018-04-15T10:56:19Z</time>
      </trkpt>
      <trkpt lat="44.439824083819985" lon="8.680083258077502">
        <ele>767.26999999999998</ele>
        <time>2018-04-15T10:56:34Z</time>
      </trkpt>
      <trkpt lat="44.439812935888767" lon="8.680100021883845">
        <ele>768.23000000000002</ele>
        <time>2018-04-15T10:56:36Z</time>
      </trkpt>
      <trkpt lat="44.439758034422994" lon="8.680188115686178">
        <ele>769.19000000000005</ele>
        <time>2018-04-15T10:56:47Z</time>
      </trkpt>
      <trkpt lat="44.439718974754214" lon="8.680308731272817">
        <ele>771.11000000000001</ele>
        <time>2018-04-15T10:56:58Z</time>
      </trkpt>
      <trkpt lat="44.439688883721828" lon="8.68042272515595">
        <ele>771.11000000000001</ele>
        <time>2018-04-15T10:57:08Z</time>
      </trkpt>
      <trkpt lat="44.439681591466069" lon="8.680449463427067">
        <ele>771.11000000000001</ele>
        <time>2018-04-15T10:57:10Z</time>
      </trkpt>
      <trkpt lat="44.439658373594284" lon="8.680502604693174">
        <ele>771.60000000000002</ele>
        <time>2018-04-15T10:57:14Z</time>
      </trkpt>
      <trkpt lat="44.439644627273083" lon="8.6806670576334">
        <ele>773.03999999999996</ele>
        <time>2018-04-15T10:57:25Z</time>
      </trkpt>
      <trkpt lat="44.439618643373251" lon="8.680751966312528">
        <ele>774.96000000000004</ele>
        <time>2018-04-15T10:57:32Z</time>
      </trkpt>
      <trkpt lat="44.439602717757225" lon="8.680865792557597">
        <ele>776.88</ele>
        <time>2018-04-15T10:57:41Z</time>
      </trkpt>
      <trkpt lat="44.439591066911817" lon="8.680973164737225">
        <ele>777.36000000000001</ele>
        <time>2018-04-15T10:57:49Z</time>
      </trkpt>
      <trkpt lat="44.439596263691783" lon="8.680995209142566">
        <ele>775.91999999999996</ele>
        <time>2018-04-15T10:57:51Z</time>
      </trkpt>
      <trkpt lat="44.439590899273753" lon="8.681056229397655">
        <ele>778.32000000000005</ele>
        <time>2018-04-15T10:57:55Z</time>
      </trkpt>
      <trkpt lat="44.439590228721499" lon="8.681070143356919">
        <ele>778.32000000000005</ele>
        <time>2018-04-15T10:57:56Z</time>
      </trkpt>
      <trkpt lat="44.439579751342535" lon="8.681083051487804">
        <ele>780.73000000000002</ele>
        <time>2018-04-15T10:58:00Z</time>
      </trkpt>
      <trkpt lat="44.439566507935524" lon="8.68111364543438">
        <ele>778.80999999999995</ele>
        <time>2018-04-15T10:58:19Z</time>
      </trkpt>
      <trkpt lat="44.439554857090116" lon="8.681220598518848">
        <ele>780.25</ele>
        <time>2018-04-15T10:58:28Z</time>
      </trkpt>
      <trkpt lat="44.439546978101134" lon="8.68131154216826">
        <ele>781.21000000000004</ele>
        <time>2018-04-15T10:58:35Z</time>
      </trkpt>
      <trkpt lat="44.439541613683105" lon="8.681374406442046">
        <ele>782.64999999999998</ele>
        <time>2018-04-15T10:58:40Z</time>
      </trkpt>
      <trkpt lat="44.43953457288444" lon="8.681482952088118">
        <ele>783.61000000000001</ele>
        <time>2018-04-15T10:58:49Z</time>
      </trkpt>
      <trkpt lat="44.439540859311819" lon="8.681560484692454">
        <ele>783.13</ele>
        <time>2018-04-15T10:58:55Z</time>
      </trkpt>
      <trkpt lat="44.439532142132521" lon="8.681615386158228">
        <ele>786.5</ele>
        <time>2018-04-15T10:59:00Z</time>
      </trkpt>
      <trkpt lat="44.439508421346545" lon="8.68173030205071">
        <ele>786.5</ele>
        <time>2018-04-15T10:59:10Z</time>
      </trkpt>
      <trkpt lat="44.439489813521504" lon="8.681829292327166">
        <ele>790.34000000000003</ele>
        <time>2018-04-15T10:59:21Z</time>
      </trkpt>
      <trkpt lat="44.43948713131249" lon="8.681836416944861">
        <ele>790.34000000000003</ele>
        <time>2018-04-15T10:59:22Z</time>
      </trkpt>
      <trkpt lat="44.439489645883441" lon="8.681894754990935">
        <ele>790.82000000000005</ele>
        <time>2018-04-15T10:59:27Z</time>
      </trkpt>
      <trkpt lat="44.439473301172256" lon="8.681922247633338">
        <ele>790.82000000000005</ele>
        <time>2018-04-15T10:59:38Z</time>
      </trkpt>
      <trkpt lat="44.439471121877432" lon="8.681925516575575">
        <ele>790.34000000000003</ele>
        <time>2018-04-15T10:59:39Z</time>
      </trkpt>
      <trkpt lat="44.439415466040373" lon="8.681990224868059">
        <ele>789.38</ele>
        <time>2018-04-15T10:59:45Z</time>
      </trkpt>
      <trkpt lat="44.439302980899811" lon="8.682138416916132">
        <ele>790.82000000000005</ele>
        <time>2018-04-15T10:59:58Z</time>
      </trkpt>
      <trkpt lat="44.439301639795303" lon="8.682152079418302">
        <ele>790.34000000000003</ele>
        <time>2018-04-15T10:59:59Z</time>
      </trkpt>
      <trkpt lat="44.439298119395971" lon="8.682181416079402">
        <ele>788.89999999999998</ele>
        <time>2018-04-15T11:00:01Z</time>
      </trkpt>
      <trkpt lat="44.439294263720512" lon="8.68221553042531">
        <ele>790.34000000000003</ele>
        <time>2018-04-15T11:00:03Z</time>
      </trkpt>
      <trkpt lat="44.439234836027026" lon="8.682409822940826">
        <ele>790.34000000000003</ele>
        <time>2018-04-15T11:00:16Z</time>
      </trkpt>
      <trkpt lat="44.439214803278446" lon="8.68247109465301">
        <ele>794.66999999999996</ele>
        <time>2018-04-15T11:00:21Z</time>
      </trkpt>
      <trkpt lat="44.439211199060082" lon="8.682484673336148">
        <ele>793.22000000000003</ele>
        <time>2018-04-15T11:00:22Z</time>
      </trkpt>
      <trkpt lat="44.439185131341219" lon="8.682536389678717">
        <ele>795.14999999999998</ele>
        <time>2018-04-15T11:00:26Z</time>
      </trkpt>
      <trkpt lat="44.439166355878115" lon="8.682575365528464">
        <ele>793.22000000000003</ele>
        <time>2018-04-15T11:00:29Z</time>
      </trkpt>
      <trkpt lat="44.439077423885465" lon="8.682658094912767">
        <ele>793.71000000000004</ele>
        <time>2018-04-15T11:00:39Z</time>
      </trkpt>
      <trkpt lat="44.439007518813014" lon="8.682733364403248">
        <ele>794.19000000000005</ele>
        <time>2018-04-15T11:00:48Z</time>
      </trkpt>
      <trkpt lat="44.438947923481464" lon="8.682805029675365">
        <ele>795.63</ele>
        <time>2018-04-15T11:00:57Z</time>
      </trkpt>
      <trkpt lat="44.438921352848411" lon="8.682840904220939">
        <ele>797.54999999999995</ele>
        <time>2018-04-15T11:01:01Z</time>
      </trkpt>
      <trkpt lat="44.438870893791318" lon="8.682945258915424">
        <ele>798.02999999999997</ele>
        <time>2018-04-15T11:01:11Z</time>
      </trkpt>
      <trkpt lat="44.438855722546577" lon="8.682976774871349">
        <ele>799.95000000000005</ele>
        <time>2018-04-15T11:01:15Z</time>
      </trkpt>
      <trkpt lat="44.438841892406344" lon="8.683022288605571">
        <ele>800.91999999999996</ele>
        <time>2018-04-15T11:01:19Z</time>
      </trkpt>
      <trkpt lat="44.438836108893156" lon="8.68305548094213">
        <ele>799.47000000000003</ele>
        <time>2018-04-15T11:01:23Z</time>
      </trkpt>
      <trkpt lat="44.438822362571955" lon="8.683122452348471">
        <ele>801.39999999999998</ele>
        <time>2018-04-15T11:01:28Z</time>
      </trkpt>
      <trkpt lat="44.438806772232056" lon="8.683165116235614">
        <ele>800.91999999999996</ele>
        <time>2018-04-15T11:01:31Z</time>
      </trkpt>
      <trkpt lat="44.43879771977663" lon="8.68328221142292">
        <ele>802.36000000000001</ele>
        <time>2018-04-15T11:01:40Z</time>
      </trkpt>
      <trkpt lat="44.43876888602972" lon="8.683401653543115">
        <ele>805.24000000000001</ele>
        <time>2018-04-15T11:01:49Z</time>
      </trkpt>
      <trkpt lat="44.438745249062777" lon="8.683508271351457">
        <ele>804.27999999999997</ele>
        <time>2018-04-15T11:01:57Z</time>
      </trkpt>
      <trkpt lat="44.43874005228281" lon="8.683560993522406">
        <ele>805.72000000000003</ele>
        <time>2018-04-15T11:02:00Z</time>
      </trkpt>
      <trkpt lat="44.438740303739905" lon="8.683623522520065">
        <ele>805.24000000000001</ele>
        <time>2018-04-15T11:02:04Z</time>
      </trkpt>
      <trkpt lat="44.438696885481477" lon="8.683719327673316">
        <ele>805.72000000000003</ele>
        <time>2018-04-15T11:02:12Z</time>
      </trkpt>
      <trkpt lat="44.438647516071796" lon="8.683818737044931">
        <ele>808.13</ele>
        <time>2018-04-15T11:02:23Z</time>
      </trkpt>
      <trkpt lat="44.438645420596004" lon="8.683833153918386">
        <ele>809.09000000000003</ele>
        <time>2018-04-15T11:02:25Z</time>
      </trkpt>
      <trkpt lat="44.438640475273132" lon="8.683860395103693">
        <ele>809.09000000000003</ele>
        <time>2018-04-15T11:02:27Z</time>
      </trkpt>
      <trkpt lat="44.438641145825386" lon="8.683937340974808">
        <ele>809.09000000000003</ele>
        <time>2018-04-15T11:02:34Z</time>
      </trkpt>
      <trkpt lat="44.438636032864451" lon="8.684014873579145">
        <ele>811.00999999999999</ele>
        <time>2018-04-15T11:02:40Z</time>
      </trkpt>
      <trkpt lat="44.438635781407356" lon="8.684032978489995">
        <ele>811.97000000000003</ele>
        <time>2018-04-15T11:02:42Z</time>
      </trkpt>
      <trkpt lat="44.438635194674134" lon="8.684053681790829">
        <ele>811.49000000000001</ele>
        <time>2018-04-15T11:02:44Z</time>
      </trkpt>
      <trkpt lat="44.438630919903517" lon="8.684077905490995">
        <ele>812.45000000000005</ele>
        <time>2018-04-15T11:02:46Z</time>
      </trkpt>
      <trkpt lat="44.438624382019043" lon="8.684112690389156">
        <ele>811.97000000000003</ele>
        <time>2018-04-15T11:02:49Z</time>
      </trkpt>
      <trkpt lat="44.438614491373301" lon="8.684157114475966">
        <ele>810.52999999999997</ele>
        <time>2018-04-15T11:02:53Z</time>
      </trkpt>
      <trkpt lat="44.438605103641748" lon="8.684247890487313">
        <ele>812.45000000000005</ele>
        <time>2018-04-15T11:03:03Z</time>
      </trkpt>
      <trkpt lat="44.438585825264454" lon="8.684388035908341">
        <ele>815.82000000000005</ele>
        <time>2018-04-15T11:03:14Z</time>
      </trkpt>
      <trkpt lat="44.438580377027392" lon="8.684455426409841">
        <ele>813.88999999999999</ele>
        <time>2018-04-15T11:03:21Z</time>
      </trkpt>
      <trkpt lat="44.438574928790331" lon="8.684504879638553">
        <ele>814.85000000000002</ele>
        <time>2018-04-15T11:03:25Z</time>
      </trkpt>
      <trkpt lat="44.438560344278812" lon="8.684579227119684">
        <ele>815.34000000000003</ele>
        <time>2018-04-15T11:03:32Z</time>
      </trkpt>
      <trkpt lat="44.438543831929564" lon="8.684630524367094">
        <ele>817.74000000000001</ele>
        <time>2018-04-15T11:03:37Z</time>
      </trkpt>
      <trkpt lat="44.438547268509865" lon="8.68468651548028">
        <ele>818.22000000000003</ele>
        <time>2018-04-15T11:03:43Z</time>
      </trkpt>
      <trkpt lat="44.438560009002686" lon="8.684712667018175">
        <ele>816.29999999999995</ele>
        <time>2018-04-15T11:03:45Z</time>
      </trkpt>
      <trkpt lat="44.438567301258445" lon="8.684757091104984">
        <ele>817.74000000000001</ele>
        <time>2018-04-15T11:03:48Z</time>
      </trkpt>
      <trkpt lat="44.438560847193003" lon="8.684782236814499">
        <ele>818.70000000000005</ele>
        <time>2018-04-15T11:03:50Z</time>
      </trkpt>
      <trkpt lat="44.438589680939913" lon="8.684881227090955">
        <ele>821.10000000000002</ele>
        <time>2018-04-15T11:04:00Z</time>
      </trkpt>
      <trkpt lat="44.438601583242416" lon="8.684913497418165">
        <ele>819.17999999999995</ele>
        <time>2018-04-15T11:04:04Z</time>
      </trkpt>
      <trkpt lat="44.438600828871131" lon="8.684955155476928">
        <ele>822.54999999999995</ele>
        <time>2018-04-15T11:04:08Z</time>
      </trkpt>
      <trkpt lat="44.438601080328226" lon="8.684964291751385">
        <ele>819.17999999999995</ele>
        <time>2018-04-15T11:04:09Z</time>
      </trkpt>
      <trkpt lat="44.438617173582315" lon="8.684985497966409">
        <ele>822.54999999999995</ele>
        <time>2018-04-15T11:04:12Z</time>
      </trkpt>
      <trkpt lat="44.438640894368291" lon="8.685011900961399">
        <ele>826.38999999999999</ele>
        <time>2018-04-15T11:04:17Z</time>
      </trkpt>
      <trkpt lat="44.438639469444752" lon="8.685034113004804">
        <ele>829.75999999999999</ele>
        <time>2018-04-15T11:04:23Z</time>
      </trkpt>
      <trkpt lat="44.438660424202681" lon="8.68510577827692">
        <ele>833.60000000000002</ele>
        <time>2018-04-15T11:04:31Z</time>
      </trkpt>
      <trkpt lat="44.438662938773632" lon="8.685113824903965">
        <ele>827.83000000000004</ele>
        <time>2018-04-15T11:04:32Z</time>
      </trkpt>
      <trkpt lat="44.43866771645844" lon="8.685123883187771">
        <ele>828.30999999999995</ele>
        <time>2018-04-15T11:04:33Z</time>
      </trkpt>
      <trkpt lat="44.43866872228682" lon="8.685135282576084">
        <ele>833.12</ele>
        <time>2018-04-15T11:04:35Z</time>
      </trkpt>
      <trkpt lat="44.438673751428723" lon="8.685144418850541">
        <ele>832.15999999999997</ele>
        <time>2018-04-15T11:04:36Z</time>
      </trkpt>
      <trkpt lat="44.438681714236736" lon="8.685181215405464">
        <ele>833.12</ele>
        <time>2018-04-15T11:04:40Z</time>
      </trkpt>
      <trkpt lat="44.438677188009024" lon="8.685229411348701">
        <ele>836.48000000000002</ele>
        <time>2018-04-15T11:04:44Z</time>
      </trkpt>
      <trkpt lat="44.438675092533231" lon="8.685242738574743">
        <ele>836.48000000000002</ele>
        <time>2018-04-15T11:04:45Z</time>
      </trkpt>
      <trkpt lat="44.438691940158606" lon="8.685308452695608">
        <ele>836</ele>
        <time>2018-04-15T11:04:53Z</time>
      </trkpt>
      <trkpt lat="44.438698478043079" lon="8.685315661132336">
        <ele>836.48000000000002</ele>
        <time>2018-04-15T11:04:54Z</time>
      </trkpt>
      <trkpt lat="44.438742231577635" lon="8.685361593961716">
        <ele>832.63999999999999</ele>
        <time>2018-04-15T11:05:01Z</time>
      </trkpt>
      <trkpt lat="44.43874591961503" lon="8.685375172644854">
        <ele>836.48000000000002</ele>
        <time>2018-04-15T11:05:02Z</time>
      </trkpt>
      <trkpt lat="44.43875078111887" lon="8.685388583689928">
        <ele>834.08000000000004</ele>
        <time>2018-04-15T11:05:03Z</time>
      </trkpt>
      <trkpt lat="44.438759246841073" lon="8.685412723571062">
        <ele>836.96000000000004</ele>
        <time>2018-04-15T11:05:06Z</time>
      </trkpt>
      <trkpt lat="44.438810544088483" lon="8.685513893142343">
        <ele>837.45000000000005</ele>
        <time>2018-04-15T11:05:18Z</time>
      </trkpt>
      <trkpt lat="44.438824290409684" lon="8.68552696891129">
        <ele>840.33000000000004</ele>
        <time>2018-04-15T11:05:20Z</time>
      </trkpt>
      <trkpt lat="44.438846921548247" lon="8.685605423524976">
        <ele>836.96000000000004</ele>
        <time>2018-04-15T11:05:29Z</time>
      </trkpt>
      <trkpt lat="44.438850441947579" lon="8.685611123219132">
        <ele>843.69000000000005</ele>
        <time>2018-04-15T11:05:30Z</time>
      </trkpt>
      <trkpt lat="44.438858320936561" lon="8.685614559799433">
        <ele>842.25</ele>
        <time>2018-04-15T11:05:31Z</time>
      </trkpt>
      <trkpt lat="44.438868965953588" lon="8.685623025521636">
        <ele>838.88999999999999</ele>
        <time>2018-04-15T11:05:33Z</time>
      </trkpt>
      <trkpt lat="44.438886232674122" lon="8.685685973614454">
        <ele>843.21000000000004</ele>
        <time>2018-04-15T11:05:39Z</time>
      </trkpt>
      <trkpt lat="44.43890668451786" lon="8.685742048546672">
        <ele>837.45000000000005</ele>
        <time>2018-04-15T11:05:47Z</time>
      </trkpt>
      <trkpt lat="44.438919676467776" lon="8.685756549239159">
        <ele>842.73000000000002</ele>
        <time>2018-04-15T11:05:49Z</time>
      </trkpt>
      <trkpt lat="44.438924957066774" lon="8.685761159285903">
        <ele>842.73000000000002</ele>
        <time>2018-04-15T11:05:50Z</time>
      </trkpt>
      <trkpt lat="44.438955215737224" lon="8.685811618342996">
        <ele>847.05999999999995</ele>
        <time>2018-04-15T11:05:56Z</time>
      </trkpt>
      <trkpt lat="44.438960999250412" lon="8.685831651091576">
        <ele>844.17999999999995</ele>
        <time>2018-04-15T11:05:59Z</time>
      </trkpt>
      <trkpt lat="44.438964519649744" lon="8.685840452089906">
        <ele>845.13999999999999</ele>
        <time>2018-04-15T11:06:00Z</time>
      </trkpt>
      <trkpt lat="44.438989665359259" lon="8.685907172039151">
        <ele>847.05999999999995</ele>
        <time>2018-04-15T11:06:10Z</time>
      </trkpt>
      <trkpt lat="44.43899997510016" lon="8.685929300263524">
        <ele>842.73000000000002</ele>
        <time>2018-04-15T11:06:14Z</time>
      </trkpt>
      <trkpt lat="44.439003579318523" lon="8.685937598347664">
        <ele>848.01999999999998</ele>
        <time>2018-04-15T11:06:15Z</time>
      </trkpt>
      <trkpt lat="44.439006764441729" lon="8.685941873118281">
        <ele>848.01999999999998</ele>
        <time>2018-04-15T11:06:16Z</time>
      </trkpt>
      <trkpt lat="44.439013721421361" lon="8.68595939129591">
        <ele>849.46000000000004</ele>
        <time>2018-04-15T11:06:18Z</time>
      </trkpt>
      <trkpt lat="44.439044985920191" lon="8.686022842302918">
        <ele>853.30999999999995</ele>
        <time>2018-04-15T11:06:25Z</time>
      </trkpt>
      <trkpt lat="44.439048171043396" lon="8.686026614159346">
        <ele>852.83000000000004</ele>
        <time>2018-04-15T11:06:26Z</time>
      </trkpt>
      <trkpt lat="44.439073232933879" lon="8.68604782037437">
        <ele>848.01999999999998</ele>
        <time>2018-04-15T11:06:30Z</time>
      </trkpt>
      <trkpt lat="44.439096702262759" lon="8.686060309410095">
        <ele>854.26999999999998</ele>
        <time>2018-04-15T11:06:34Z</time>
      </trkpt>
      <trkpt lat="44.43910357542336" lon="8.686064332723618">
        <ele>852.35000000000002</ele>
        <time>2018-04-15T11:06:35Z</time>
      </trkpt>
      <trkpt lat="44.439121345058084" lon="8.686072798445821">
        <ele>845.13999999999999</ele>
        <time>2018-04-15T11:06:37Z</time>
      </trkpt>
      <trkpt lat="44.439127212390304" lon="8.686075899749994">
        <ele>849.46000000000004</ele>
        <time>2018-04-15T11:06:38Z</time>
      </trkpt>
      <trkpt lat="44.439123524352908" lon="8.6860790848732">
        <ele>857.63</ele>
        <time>2018-04-15T11:06:39Z</time>
      </trkpt>
      <trkpt lat="44.439138947054744" lon="8.686085790395737">
        <ele>845.13999999999999</ele>
        <time>2018-04-15T11:06:41Z</time>
      </trkpt>
      <trkpt lat="44.439149172976613" lon="8.686100039631128">
        <ele>846.58000000000004</ele>
        <time>2018-04-15T11:06:42Z</time>
      </trkpt>
      <trkpt lat="44.439165098592639" lon="8.686122503131628">
        <ele>850.41999999999996</ele>
        <time>2018-04-15T11:06:44Z</time>
      </trkpt>
      <trkpt lat="44.439177503809333" lon="8.686175644397736">
        <ele>854.26999999999998</ele>
        <time>2018-04-15T11:06:48Z</time>
      </trkpt>
      <trkpt lat="44.439181946218014" lon="8.686184277758002">
        <ele>851.38</ele>
        <time>2018-04-15T11:06:49Z</time>
      </trkpt>
      <trkpt lat="44.439205080270767" lon="8.686254266649485">
        <ele>854.26999999999998</ele>
        <time>2018-04-15T11:06:56Z</time>
      </trkpt>
      <trkpt lat="44.439208768308163" lon="8.686261894181371">
        <ele>853.78999999999996</ele>
        <time>2018-04-15T11:06:57Z</time>
      </trkpt>
      <trkpt lat="44.43923257291317" lon="8.686279496178031">
        <ele>852.83000000000004</ele>
        <time>2018-04-15T11:07:00Z</time>
      </trkpt>
      <trkpt lat="44.43929853849113" lon="8.686350658535957">
        <ele>848.01999999999998</ele>
        <time>2018-04-15T11:07:08Z</time>
      </trkpt>
      <trkpt lat="44.439304154366255" lon="8.686359794810414">
        <ele>848.98000000000002</ele>
        <time>2018-04-15T11:07:09Z</time>
      </trkpt>
      <trkpt lat="44.439313961192966" lon="8.686371697112918">
        <ele>851.87</ele>
        <time>2018-04-15T11:07:11Z</time>
      </trkpt>
      <trkpt lat="44.43931806832552" lon="8.68638058193028">
        <ele>851.38</ele>
        <time>2018-04-15T11:07:12Z</time>
      </trkpt>
      <trkpt lat="44.439326534047723" lon="8.686398100107908">
        <ele>851.87</ele>
        <time>2018-04-15T11:07:14Z</time>
      </trkpt>
      <trkpt lat="44.439332233741879" lon="8.686435734853149">
        <ele>855.71000000000004</ele>
        <time>2018-04-15T11:07:17Z</time>
      </trkpt>
      <trkpt lat="44.439330892637372" lon="8.686444284394383">
        <ele>854.75</ele>
        <time>2018-04-15T11:07:18Z</time>
      </trkpt>
      <trkpt lat="44.439323851838708" lon="8.686473369598389">
        <ele>858.11000000000001</ele>
        <time>2018-04-15T11:07:20Z</time>
      </trkpt>
      <trkpt lat="44.439318738877773" lon="8.686514273285866">
        <ele>854.75</ele>
        <time>2018-04-15T11:07:24Z</time>
      </trkpt>
      <trkpt lat="44.439315889030695" lon="8.686557859182358">
        <ele>852.35000000000002</ele>
        <time>2018-04-15T11:07:28Z</time>
      </trkpt>
      <trkpt lat="44.439309686422348" lon="8.686577221378684">
        <ele>857.63</ele>
        <time>2018-04-15T11:07:30Z</time>
      </trkpt>
      <trkpt lat="44.439311111345887" lon="8.686585770919919">
        <ele>856.66999999999996</ele>
        <time>2018-04-15T11:07:31Z</time>
      </trkpt>
      <trkpt lat="44.439299879595637" lon="8.68669280782342">
        <ele>858.11000000000001</ele>
        <time>2018-04-15T11:07:41Z</time>
      </trkpt>
      <trkpt lat="44.439282361418009" lon="8.686741590499878">
        <ele>854.75</ele>
        <time>2018-04-15T11:07:45Z</time>
      </trkpt>
      <trkpt lat="44.43927850574255" lon="8.686751564964652">
        <ele>854.75</ele>
        <time>2018-04-15T11:07:46Z</time>
      </trkpt>
      <trkpt lat="44.439272806048393" lon="8.686783919110894">
        <ele>859.55999999999995</ele>
        <time>2018-04-15T11:07:49Z</time>
      </trkpt>
      <trkpt lat="44.439268698915839" lon="8.686793306842446">
        <ele>857.14999999999998</ele>
        <time>2018-04-15T11:07:50Z</time>
      </trkpt>
      <trkpt lat="44.439265346154571" lon="8.686814680695534">
        <ele>860.51999999999998</ele>
        <time>2018-04-15T11:07:52Z</time>
      </trkpt>
      <trkpt lat="44.439249504357576" lon="8.686909060925245">
        <ele>861.96000000000004</ele>
        <time>2018-04-15T11:08:02Z</time>
      </trkpt>
      <trkpt lat="44.43923651240766" lon="8.686945103108883">
        <ele>865.79999999999995</ele>
        <time>2018-04-15T11:08:06Z</time>
      </trkpt>
      <trkpt lat="44.439182532951236" lon="8.687023725360632">
        <ele>865.32000000000005</ele>
        <time>2018-04-15T11:08:16Z</time>
      </trkpt>
      <trkpt lat="44.439173229038715" lon="8.687038561329246">
        <ele>865.79999999999995</ele>
        <time>2018-04-15T11:08:20Z</time>
      </trkpt>
      <trkpt lat="44.439154118299484" lon="8.687081811949611">
        <ele>866.28999999999996</ele>
        <time>2018-04-15T11:08:24Z</time>
      </trkpt>
      <trkpt lat="44.439135175198317" lon="8.687113160267472">
        <ele>868.21000000000004</ele>
        <time>2018-04-15T11:08:27Z</time>
      </trkpt>
      <trkpt lat="44.439129140228033" lon="8.687123134732246">
        <ele>864.84000000000003</ele>
        <time>2018-04-15T11:08:28Z</time>
      </trkpt>
      <trkpt lat="44.439121009781957" lon="8.68713260628283">
        <ele>864.84000000000003</ele>
        <time>2018-04-15T11:08:29Z</time>
      </trkpt>
      <trkpt lat="44.439105251803994" lon="8.687142413109541">
        <ele>868.69000000000005</ele>
        <time>2018-04-15T11:08:31Z</time>
      </trkpt>
      <trkpt lat="44.439098462462425" lon="8.687149789184332">
        <ele>868.21000000000004</ele>
        <time>2018-04-15T11:08:32Z</time>
      </trkpt>
      <trkpt lat="44.439071388915181" lon="8.687181221321225">
        <ele>871.09000000000003</ele>
        <time>2018-04-15T11:08:35Z</time>
      </trkpt>
      <trkpt lat="44.439049093052745" lon="8.687204103916884">
        <ele>867.73000000000002</ele>
        <time>2018-04-15T11:08:38Z</time>
      </trkpt>
      <trkpt lat="44.439042136073112" lon="8.687212318181992">
        <ele>868.21000000000004</ele>
        <time>2018-04-15T11:08:39Z</time>
      </trkpt>
      <trkpt lat="44.439015565440059" lon="8.68724056519568">
        <ele>872.04999999999995</ele>
        <time>2018-04-15T11:08:43Z</time>
      </trkpt>
      <trkpt lat="44.439009195193648" lon="8.68724693544209">
        <ele>871.57000000000005</ele>
        <time>2018-04-15T11:08:44Z</time>
      </trkpt>
      <trkpt lat="44.438989078626037" lon="8.687263699248433">
        <ele>864.84000000000003</ele>
        <time>2018-04-15T11:08:47Z</time>
      </trkpt>
      <trkpt lat="44.438985055312514" lon="8.687269650399685">
        <ele>869.64999999999998</ele>
        <time>2018-04-15T11:08:48Z</time>
      </trkpt>
      <trkpt lat="44.438968794420362" lon="8.687282055616379">
        <ele>874.94000000000005</ele>
        <time>2018-04-15T11:08:50Z</time>
      </trkpt>
      <trkpt lat="44.438961418345571" lon="8.687287336215377">
        <ele>872.04999999999995</ele>
        <time>2018-04-15T11:08:51Z</time>
      </trkpt>
      <trkpt lat="44.438942307606339" lon="8.687298400327563">
        <ele>875.89999999999998</ele>
        <time>2018-04-15T11:08:53Z</time>
      </trkpt>
      <trkpt lat="44.438932249322534" lon="8.687305860221386">
        <ele>872.04999999999995</ele>
        <time>2018-04-15T11:08:54Z</time>
      </trkpt>
      <trkpt lat="44.43892084993422" lon="8.687312984839082">
        <ele>871.09000000000003</ele>
        <time>2018-04-15T11:08:55Z</time>
      </trkpt>
      <trkpt lat="44.438899978995323" lon="8.687345758080483">
        <ele>870.13</ele>
        <time>2018-04-15T11:08:58Z</time>
      </trkpt>
      <trkpt lat="44.438882293179631" lon="8.687373837456107">
        <ele>875.89999999999998</ele>
        <time>2018-04-15T11:09:01Z</time>
      </trkpt>
      <trkpt lat="44.438877012580633" lon="8.687385739758611">
        <ele>874.94000000000005</ele>
        <time>2018-04-15T11:09:02Z</time>
      </trkpt>
      <trkpt lat="44.438865445554256" lon="8.687398480251432">
        <ele>881.19000000000005</ele>
        <time>2018-04-15T11:09:04Z</time>
      </trkpt>
      <trkpt lat="44.438862428069115" lon="8.687399653717876">
        <ele>880.71000000000004</ele>
        <time>2018-04-15T11:09:05Z</time>
      </trkpt>
      <trkpt lat="44.438839126378298" lon="8.687428738921881">
        <ele>882.14999999999998</ele>
        <time>2018-04-15T11:09:11Z</time>
      </trkpt>
      <trkpt lat="44.43881724961102" lon="8.687441144138575">
        <ele>880.71000000000004</ele>
        <time>2018-04-15T11:09:13Z</time>
      </trkpt>
      <trkpt lat="44.43877324461937" lon="8.687450364232063">
        <ele>880.71000000000004</ele>
        <time>2018-04-15T11:09:17Z</time>
      </trkpt>
      <trkpt lat="44.438721360638738" lon="8.687500739470124">
        <ele>885.50999999999999</ele>
        <time>2018-04-15T11:09:24Z</time>
      </trkpt>
      <trkpt lat="44.438677774742246" lon="8.687540385872126">
        <ele>887.42999999999995</ele>
        <time>2018-04-15T11:09:30Z</time>
      </trkpt>
      <trkpt lat="44.438649863004684" lon="8.687556395307183">
        <ele>883.59000000000003</ele>
        <time>2018-04-15T11:09:34Z</time>
      </trkpt>
      <trkpt lat="44.438564367592335" lon="8.687626635655761">
        <ele>882.63</ele>
        <time>2018-04-15T11:09:44Z</time>
      </trkpt>
      <trkpt lat="44.438527151942253" lon="8.687651278451085">
        <ele>878.77999999999997</ele>
        <time>2018-04-15T11:09:48Z</time>
      </trkpt>
      <trkpt lat="44.438506448641419" lon="8.687682375311852">
        <ele>882.14999999999998</ele>
        <time>2018-04-15T11:09:52Z</time>
      </trkpt>
      <trkpt lat="44.438504101708531" lon="8.687681453302503">
        <ele>888.88</ele>
        <time>2018-04-15T11:09:55Z</time>
      </trkpt>
      <trkpt lat="44.43849865347147" lon="8.687685141339898">
        <ele>883.11000000000001</ele>
        <time>2018-04-15T11:09:56Z</time>
      </trkpt>
      <trkpt lat="44.438488008454442" lon="8.687679693102837">
        <ele>882.63</ele>
        <time>2018-04-15T11:10:01Z</time>
      </trkpt>
      <trkpt lat="44.438488008454442" lon="8.687671646475792">
        <ele>873.00999999999999</ele>
        <time>2018-04-15T11:10:05Z</time>
      </trkpt>
      <trkpt lat="44.438484404236078" lon="8.687673658132553">
        <ele>878.29999999999995</ele>
        <time>2018-04-15T11:10:08Z</time>
      </trkpt>
      <trkpt lat="44.438481386750937" lon="8.687679776921868">
        <ele>880.71000000000004</ele>
        <time>2018-04-15T11:10:14Z</time>
      </trkpt>
      <trkpt lat="44.438481889665127" lon="8.687690002843738">
        <ele>881.66999999999996</ele>
        <time>2018-04-15T11:10:15Z</time>
      </trkpt>
      <trkpt lat="44.438469316810369" lon="8.687730906531215">
        <ele>878.29999999999995</ele>
        <time>2018-04-15T11:10:18Z</time>
      </trkpt>
      <trkpt lat="44.438464706763625" lon="8.687745071947575">
        <ele>873.5</ele>
        <time>2018-04-15T11:10:19Z</time>
      </trkpt>
      <trkpt lat="44.43844391964376" lon="8.687797458842397">
        <ele>873.98000000000002</ele>
        <time>2018-04-15T11:10:23Z</time>
      </trkpt>
      <trkpt lat="44.438405865803361" lon="8.687858311459422">
        <ele>870.13</ele>
        <time>2018-04-15T11:10:29Z</time>
      </trkpt>
      <trkpt lat="44.438385833054781" lon="8.687893850728869">
        <ele>871.09000000000003</ele>
        <time>2018-04-15T11:10:39Z</time>
      </trkpt>
      <trkpt lat="44.438411900773644" lon="8.687847750261426">
        <ele>871.09000000000003</ele>
        <time>2018-04-15T11:10:49Z</time>
      </trkpt>
      <trkpt lat="44.438452888280153" lon="8.68781765922904">
        <ele>873.98000000000002</ele>
        <time>2018-04-15T11:10:54Z</time>
      </trkpt>
      <trkpt lat="44.438485493883491" lon="8.687802907079458">
        <ele>874.94000000000005</ele>
        <time>2018-04-15T11:10:59Z</time>
      </trkpt>
      <trkpt lat="44.438553806394339" lon="8.687739120796323">
        <ele>875.41999999999996</ele>
        <time>2018-04-15T11:11:09Z</time>
      </trkpt>
      <trkpt lat="44.43859294988215" lon="8.687687991186976">
        <ele>875.41999999999996</ele>
        <time>2018-04-15T11:11:19Z</time>
      </trkpt>
      <trkpt lat="44.438617927953601" lon="8.687676256522536">
        <ele>877.82000000000005</ele>
        <time>2018-04-15T11:11:22Z</time>
      </trkpt>
      <trkpt lat="44.438653467223048" lon="8.687657732516527">
        <ele>880.22000000000003</ele>
        <time>2018-04-15T11:11:26Z</time>
      </trkpt>
      <trkpt lat="44.438698897138238" lon="8.687628814950585">
        <ele>879.74000000000001</ele>
        <time>2018-04-15T11:11:32Z</time>
      </trkpt>
      <trkpt lat="44.438721612095833" lon="8.687617499381304">
        <ele>883.11000000000001</ele>
        <time>2018-04-15T11:11:35Z</time>
      </trkpt>
      <trkpt lat="44.438731838017702" lon="8.687606267631054">
        <ele>887.90999999999997</ele>
        <time>2018-04-15T11:11:37Z</time>
      </trkpt>
      <trkpt lat="44.438735526055098" lon="8.687600400298834">
        <ele>885.50999999999999</ele>
        <time>2018-04-15T11:11:38Z</time>
      </trkpt>
      <trkpt lat="44.438727060332894" lon="8.687601406127214">
        <ele>889.84000000000003</ele>
        <time>2018-04-15T11:11:42Z</time>
      </trkpt>
      <trkpt lat="44.43871608003974" lon="8.687618421390653">
        <ele>886.47000000000003</ele>
        <time>2018-04-15T11:11:46Z</time>
      </trkpt>
      <trkpt lat="44.438699567690492" lon="8.687629066407681">
        <ele>885.99000000000001</ele>
        <time>2018-04-15T11:11:48Z</time>
      </trkpt>
      <trkpt lat="44.438687162473798" lon="8.687636945396662">
        <ele>886.95000000000005</ele>
        <time>2018-04-15T11:11:50Z</time>
      </trkpt>
      <trkpt lat="44.438669979572296" lon="8.687630826607347">
        <ele>887.42999999999995</ele>
        <time>2018-04-15T11:11:53Z</time>
      </trkpt>
      <trkpt lat="44.438667045906186" lon="8.687587156891823">
        <ele>884.07000000000005</ele>
        <time>2018-04-15T11:11:56Z</time>
      </trkpt>
      <trkpt lat="44.438664447516203" lon="8.687579110264778">
        <ele>885.99000000000001</ele>
        <time>2018-04-15T11:11:57Z</time>
      </trkpt>
      <trkpt lat="44.438703171908855" lon="8.687520185485482">
        <ele>883.59000000000003</ele>
        <time>2018-04-15T11:12:06Z</time>
      </trkpt>
      <trkpt lat="44.438711386173964" lon="8.687515407800674">
        <ele>876.38</ele>
        <time>2018-04-15T11:12:07Z</time>
      </trkpt>
      <trkpt lat="44.438718846067786" lon="8.68751322850585">
        <ele>877.82000000000005</ele>
        <time>2018-04-15T11:12:08Z</time>
      </trkpt>
      <trkpt lat="44.438722198829055" lon="8.687514988705516">
        <ele>886.47000000000003</ele>
        <time>2018-04-15T11:12:09Z</time>
      </trkpt>
      <trkpt lat="44.438721444457769" lon="8.687521945685148">
        <ele>886.47000000000003</ele>
        <time>2018-04-15T11:12:10Z</time>
      </trkpt>
      <trkpt lat="44.438719265162945" lon="8.687522448599339">
        <ele>889.84000000000003</ele>
        <time>2018-04-15T11:12:11Z</time>
      </trkpt>
      <trkpt lat="44.438711386173964" lon="8.687538374215365">
        <ele>886.47000000000003</ele>
        <time>2018-04-15T11:12:13Z</time>
      </trkpt>
      <trkpt lat="44.438704932108521" lon="8.687543822452426">
        <ele>886.47000000000003</ele>
        <time>2018-04-15T11:12:14Z</time>
      </trkpt>
      <trkpt lat="44.438692694529891" lon="8.68753619492054">
        <ele>889.84000000000003</ele>
        <time>2018-04-15T11:12:19Z</time>
      </trkpt>
      <trkpt lat="44.438691521063447" lon="8.687549354508519">
        <ele>885.99000000000001</ele>
        <time>2018-04-15T11:12:22Z</time>
      </trkpt>
      <trkpt lat="44.438687916845083" lon="8.687553377822042">
        <ele>890.79999999999995</ele>
        <time>2018-04-15T11:12:23Z</time>
      </trkpt>
      <trkpt lat="44.438683558255434" lon="8.68755429983139">
        <ele>890.32000000000005</ele>
        <time>2018-04-15T11:12:24Z</time>
      </trkpt>
      <trkpt lat="44.438684144988656" lon="8.68755279108882">
        <ele>886.47000000000003</ele>
        <time>2018-04-15T11:12:25Z</time>
      </trkpt>
      <trkpt lat="44.438683642074466" lon="8.687548683956265">
        <ele>883.59000000000003</ele>
        <time>2018-04-15T11:12:26Z</time>
      </trkpt>
      <trkpt lat="44.438685737550259" lon="8.687529992312193">
        <ele>886.95000000000005</ele>
        <time>2018-04-15T11:12:38Z</time>
      </trkpt>
      <trkpt lat="44.438688419759274" lon="8.687525885179639">
        <ele>886.47000000000003</ele>
        <time>2018-04-15T11:12:39Z</time>
      </trkpt>
      <trkpt lat="44.438691101968288" lon="8.687530914321542">
        <ele>883.11000000000001</ele>
        <time>2018-04-15T11:12:41Z</time>
      </trkpt>
      <trkpt lat="44.438687665387988" lon="8.687533931806684">
        <ele>880.71000000000004</ele>
        <time>2018-04-15T11:12:44Z</time>
      </trkpt>
      <trkpt lat="44.438689928501844" lon="8.687534518539906">
        <ele>883.11000000000001</ele>
        <time>2018-04-15T11:12:47Z</time>
      </trkpt>
      <trkpt lat="44.43869017995894" lon="8.687545834109187">
        <ele>885.50999999999999</ele>
        <time>2018-04-15T11:13:02Z</time>
      </trkpt>
      <trkpt lat="44.438668889924884" lon="8.687556060031056">
        <ele>884.54999999999995</ele>
        <time>2018-04-15T11:13:06Z</time>
      </trkpt>
      <trkpt lat="44.438639637082815" lon="8.687573578208685">
        <ele>884.07000000000005</ele>
        <time>2018-04-15T11:13:14Z</time>
      </trkpt>
      <trkpt lat="44.438626561313868" lon="8.687577517703176">
        <ele>882.63</ele>
        <time>2018-04-15T11:13:17Z</time>
      </trkpt>
      <trkpt lat="44.438626309856772" lon="8.687568884342909">
        <ele>879.25999999999999</ele>
        <time>2018-04-15T11:13:19Z</time>
      </trkpt>
      <trkpt lat="44.438628405332565" lon="8.687568800523877">
        <ele>880.22000000000003</ele>
        <time>2018-04-15T11:13:20Z</time>
      </trkpt>
      <trkpt lat="44.438631758093834" lon="8.687569219619036">
        <ele>878.29999999999995</ele>
        <time>2018-04-15T11:13:23Z</time>
      </trkpt>
      <trkpt lat="44.438632009550929" lon="8.687564609572291">
        <ele>880.71000000000004</ele>
        <time>2018-04-15T11:13:27Z</time>
      </trkpt>
      <trkpt lat="44.438670231029391" lon="8.687528818845749">
        <ele>876.38</ele>
        <time>2018-04-15T11:13:33Z</time>
      </trkpt>
      <trkpt lat="44.438670231029391" lon="8.68753326125443">
        <ele>881.66999999999996</ele>
        <time>2018-04-15T11:13:35Z</time>
      </trkpt>
      <trkpt lat="44.438671320676804" lon="8.687535356730223">
        <ele>882.14999999999998</ele>
        <time>2018-04-15T11:13:36Z</time>
      </trkpt>
      <trkpt lat="44.438661010935903" lon="8.687548600137234">
        <ele>879.25999999999999</ele>
        <time>2018-04-15T11:13:47Z</time>
      </trkpt>
      <trkpt lat="44.43865992128849" lon="8.687551449984312">
        <ele>881.66999999999996</ele>
        <time>2018-04-15T11:13:53Z</time>
      </trkpt>
      <trkpt lat="44.438660340383649" lon="8.687555808573961">
        <ele>879.25999999999999</ele>
        <time>2018-04-15T11:13:55Z</time>
      </trkpt>
      <trkpt lat="44.438657071441412" lon="8.687557736411691">
        <ele>880.71000000000004</ele>
        <time>2018-04-15T11:13:57Z</time>
      </trkpt>
      <trkpt lat="44.438656903803349" lon="8.687554383650422">
        <ele>880.71000000000004</ele>
        <time>2018-04-15T11:14:06Z</time>
      </trkpt>
      <trkpt lat="44.438656149432063" lon="8.687554132193327">
        <ele>879.25999999999999</ele>
        <time>2018-04-15T11:14:08Z</time>
      </trkpt>
      <trkpt lat="44.43866184912622" lon="8.687550527974963">
        <ele>883.59000000000003</ele>
        <time>2018-04-15T11:14:19Z</time>
      </trkpt>
      <trkpt lat="44.438661178573966" lon="8.687550192698836">
        <ele>879.74000000000001</ele>
        <time>2018-04-15T11:14:21Z</time>
      </trkpt>
      <trkpt lat="44.438653970137239" lon="8.687564358115196">
        <ele>883.11000000000001</ele>
        <time>2018-04-15T11:14:30Z</time>
      </trkpt>
      <trkpt lat="44.438655562698841" lon="8.687558490782976">
        <ele>880.71000000000004</ele>
        <time>2018-04-15T11:14:34Z</time>
      </trkpt>
      <trkpt lat="44.43865648470819" lon="8.687559245154262">
        <ele>881.66999999999996</ele>
        <time>2018-04-15T11:14:38Z</time>
      </trkpt>
      <trkpt lat="44.438654640689492" lon="8.687561340630055">
        <ele>885.02999999999997</ele>
        <time>2018-04-15T11:14:42Z</time>
      </trkpt>
      <trkpt lat="44.438660424202681" lon="8.687555640935898">
        <ele>881.19000000000005</ele>
        <time>2018-04-15T11:14:48Z</time>
      </trkpt>
      <trkpt lat="44.438660340383649" lon="8.687555976212025">
        <ele>885.02999999999997</ele>
        <time>2018-04-15T11:14:54Z</time>
      </trkpt>
      <trkpt lat="44.43865891546011" lon="8.687549522146583">
        <ele>882.14999999999998</ele>
        <time>2018-04-15T11:15:06Z</time>
      </trkpt>
      <trkpt lat="44.438661346212029" lon="8.687552874907851">
        <ele>885.02999999999997</ele>
        <time>2018-04-15T11:15:10Z</time>
      </trkpt>
      <trkpt lat="44.438660675659776" lon="8.687553042545915">
        <ele>885.02999999999997</ele>
        <time>2018-04-15T11:15:11Z</time>
      </trkpt>
      <trkpt lat="44.438658496364951" lon="8.687544241547585">
        <ele>882.63</ele>
        <time>2018-04-15T11:15:26Z</time>
      </trkpt>
      <trkpt lat="44.438665034249425" lon="8.687535859644413">
        <ele>881.66999999999996</ele>
        <time>2018-04-15T11:15:27Z</time>
      </trkpt>
      <trkpt lat="44.438684144988656" lon="8.687526471912861">
        <ele>877.34000000000003</ele>
        <time>2018-04-15T11:15:29Z</time>
      </trkpt>
      <trkpt lat="44.43869311362505" lon="8.687520017847419">
        <ele>878.29999999999995</ele>
        <time>2018-04-15T11:15:30Z</time>
      </trkpt>
      <trkpt lat="44.438708117231727" lon="8.687514569610357">
        <ele>883.11000000000001</ele>
        <time>2018-04-15T11:15:32Z</time>
      </trkpt>
      <trkpt lat="44.438714822754264" lon="8.687512390315533">
        <ele>882.63</ele>
        <time>2018-04-15T11:15:33Z</time>
      </trkpt>
      <trkpt lat="44.438721109181643" lon="8.687505852431059">
        <ele>889.36000000000001</ele>
        <time>2018-04-15T11:15:34Z</time>
      </trkpt>
      <trkpt lat="44.438729574903846" lon="8.687499733641744">
        <ele>887.42999999999995</ele>
        <time>2018-04-15T11:15:35Z</time>
      </trkpt>
      <trkpt lat="44.43874248303473" lon="8.687488501891494">
        <ele>887.42999999999995</ele>
        <time>2018-04-15T11:15:37Z</time>
      </trkpt>
      <trkpt lat="44.438757905736566" lon="8.687485568225384">
        <ele>889.36000000000001</ele>
        <time>2018-04-15T11:15:40Z</time>
      </trkpt>
      <trkpt lat="44.438750194385648" lon="8.687490848824382">
        <ele>886.47000000000003</ele>
        <time>2018-04-15T11:15:41Z</time>
      </trkpt>
      <trkpt lat="44.438745165243745" lon="8.687491100281477">
        <ele>880.71000000000004</ele>
        <time>2018-04-15T11:15:43Z</time>
      </trkpt>
      <trkpt lat="44.438745081424713" lon="8.687488501891494">
        <ele>884.07000000000005</ele>
        <time>2018-04-15T11:15:44Z</time>
      </trkpt>
      <trkpt lat="44.438739717006683" lon="8.687491351738572">
        <ele>885.02999999999997</ele>
        <time>2018-04-15T11:15:46Z</time>
      </trkpt>
      <trkpt lat="44.438720270991325" lon="8.687511971220374">
        <ele>882.14999999999998</ele>
        <time>2018-04-15T11:15:49Z</time>
      </trkpt>
      <trkpt lat="44.438710967078805" lon="8.687516413629055">
        <ele>882.14999999999998</ele>
        <time>2018-04-15T11:15:50Z</time>
      </trkpt>
      <trkpt lat="44.438661094754934" lon="8.687547091394663">
        <ele>885.50999999999999</ele>
        <time>2018-04-15T11:15:55Z</time>
      </trkpt>
      <trkpt lat="44.438632428646088" lon="8.68755429983139">
        <ele>879.74000000000001</ele>
        <time>2018-04-15T11:15:58Z</time>
      </trkpt>
      <trkpt lat="44.438613569363952" lon="8.68755086325109">
        <ele>878.29999999999995</ele>
        <time>2018-04-15T11:16:00Z</time>
      </trkpt>
      <trkpt lat="44.438595715910196" lon="8.687531249597669">
        <ele>875.89999999999998</ele>
        <time>2018-04-15T11:16:03Z</time>
      </trkpt>
      <trkpt lat="44.438609881326556" lon="8.687537284567952">
        <ele>875.89999999999998</ele>
        <time>2018-04-15T11:16:17Z</time>
      </trkpt>
      <trkpt lat="44.438609210774302" lon="8.687538877129555">
        <ele>874.46000000000004</ele>
        <time>2018-04-15T11:16:27Z</time>
      </trkpt>
      <trkpt lat="44.438595129176974" lon="8.687533847987652">
        <ele>876.86000000000001</ele>
        <time>2018-04-15T11:16:49Z</time>
      </trkpt>
      <trkpt lat="44.438586328178644" lon="8.687529657036066">
        <ele>878.29999999999995</ele>
        <time>2018-04-15T11:17:07Z</time>
      </trkpt>
      <trkpt lat="44.438585489988327" lon="8.687534602358937">
        <ele>880.71000000000004</ele>
        <time>2018-04-15T11:17:15Z</time>
      </trkpt>
      <trkpt lat="44.438589261844754" lon="8.687530243769288">
        <ele>882.14999999999998</ele>
        <time>2018-04-15T11:17:21Z</time>
      </trkpt>
      <trkpt lat="44.43859001621604" lon="8.687545247375965">
        <ele>878.77999999999997</ele>
        <time>2018-04-15T11:17:25Z</time>
      </trkpt>
      <trkpt lat="44.438591189682484" lon="8.687545582652092">
        <ele>878.77999999999997</ele>
        <time>2018-04-15T11:17:26Z</time>
      </trkpt>
      <trkpt lat="44.438596805557609" lon="8.687549605965614">
        <ele>879.25999999999999</ele>
        <time>2018-04-15T11:17:39Z</time>
      </trkpt>
      <trkpt lat="44.438596302643418" lon="8.687546420842409">
        <ele>878.29999999999995</ele>
        <time>2018-04-15T11:17:56Z</time>
      </trkpt>
      <trkpt lat="44.438595296815038" lon="8.687545917928219">
        <ele>871.57000000000005</ele>
        <time>2018-04-15T11:18:03Z</time>
      </trkpt>
      <trkpt lat="44.438618347048759" lon="8.687537703663111">
        <ele>870.61000000000001</ele>
        <time>2018-04-15T11:18:05Z</time>
      </trkpt>
      <trkpt lat="44.438660172745585" lon="8.687534602358937">
        <ele>878.29999999999995</ele>
        <time>2018-04-15T11:18:10Z</time>
      </trkpt>
      <trkpt lat="44.438686743378639" lon="8.687511719763279">
        <ele>884.07000000000005</ele>
        <time>2018-04-15T11:18:13Z</time>
      </trkpt>
      <trkpt lat="44.438695292919874" lon="8.687504092231393">
        <ele>874.94000000000005</ele>
        <time>2018-04-15T11:18:14Z</time>
      </trkpt>
      <trkpt lat="44.438745835795999" lon="8.687455477192998">
        <ele>866.76999999999998</ele>
        <time>2018-04-15T11:18:20Z</time>
      </trkpt>
      <trkpt lat="44.438767377287149" lon="8.687432426959276">
        <ele>863.39999999999998</ele>
        <time>2018-04-15T11:18:23Z</time>
      </trkpt>
      <trkpt lat="44.43884264677763" lon="8.687419770285487">
        <ele>869.16999999999996</ele>
        <time>2018-04-15T11:18:34Z</time>
      </trkpt>
      <trkpt lat="44.438840551301837" lon="8.687434438616037">
        <ele>870.13</ele>
        <time>2018-04-15T11:18:36Z</time>
      </trkpt>
      <trkpt lat="44.438818842172623" lon="8.68743846192956">
        <ele>873.5</ele>
        <time>2018-04-15T11:18:46Z</time>
      </trkpt>
      <trkpt lat="44.438791517168283" lon="8.687446843832731">
        <ele>877.34000000000003</ele>
        <time>2018-04-15T11:18:49Z</time>
      </trkpt>
      <trkpt lat="44.438745751976967" lon="8.687473749741912">
        <ele>876.86000000000001</ele>
        <time>2018-04-15T11:18:55Z</time>
      </trkpt>
      <trkpt lat="44.438726976513863" lon="8.687500571832061">
        <ele>878.77999999999997</ele>
        <time>2018-04-15T11:18:58Z</time>
      </trkpt>
      <trkpt lat="44.438709458336234" lon="8.687519514933229">
        <ele>881.19000000000005</ele>
        <time>2018-04-15T11:19:01Z</time>
      </trkpt>
      <trkpt lat="44.438703004270792" lon="8.687521191313863">
        <ele>881.66999999999996</ele>
        <time>2018-04-15T11:19:02Z</time>
      </trkpt>
      <trkpt lat="44.438668135553598" lon="8.68754499591887">
        <ele>883.59000000000003</ele>
        <time>2018-04-15T11:19:06Z</time>
      </trkpt>
      <trkpt lat="44.438629746437073" lon="8.687559496611357">
        <ele>879.25999999999999</ele>
        <time>2018-04-15T11:19:12Z</time>
      </trkpt>
      <trkpt lat="44.4385851547122" lon="8.687563184648752">
        <ele>875.41999999999996</ele>
        <time>2018-04-15T11:19:16Z</time>
      </trkpt>
      <trkpt lat="44.438546346500516" lon="8.687577685341239">
        <ele>872.52999999999997</ele>
        <time>2018-04-15T11:19:20Z</time>
      </trkpt>
      <trkpt lat="44.438540479168296" lon="8.687583385035396">
        <ele>872.52999999999997</ele>
        <time>2018-04-15T11:19:21Z</time>
      </trkpt>
      <trkpt lat="44.438479710370302" lon="8.687629401683807">
        <ele>871.57000000000005</ele>
        <time>2018-04-15T11:19:31Z</time>
      </trkpt>
      <trkpt lat="44.438455486670136" lon="8.687625294551253">
        <ele>869.64999999999998</ele>
        <time>2018-04-15T11:19:41Z</time>
      </trkpt>
      <trkpt lat="44.438490690663457" lon="8.687600735574961">
        <ele>870.13</ele>
        <time>2018-04-15T11:19:47Z</time>
      </trkpt>
      <trkpt lat="44.438520278781652" lon="8.687578272074461">
        <ele>873.5</ele>
        <time>2018-04-15T11:19:51Z</time>
      </trkpt>
      <trkpt lat="44.438528409227729" lon="8.687553629279137">
        <ele>876.38</ele>
        <time>2018-04-15T11:19:55Z</time>
      </trkpt>
      <trkpt lat="44.438529331237078" lon="8.687547342851758">
        <ele>869.16999999999996</ele>
        <time>2018-04-15T11:19:58Z</time>
      </trkpt>
      <trkpt lat="44.438530001789331" lon="8.687543654814363">
        <ele>871.57000000000005</ele>
        <time>2018-04-15T11:19:59Z</time>
      </trkpt>
      <trkpt lat="44.438538383692503" lon="8.687542984262109">
        <ele>875.89999999999998</ele>
        <time>2018-04-15T11:20:01Z</time>
      </trkpt>
      <trkpt lat="44.438542574644089" lon="8.687541894614697">
        <ele>872.52999999999997</ele>
        <time>2018-04-15T11:20:03Z</time>
      </trkpt>
      <trkpt lat="44.43853922188282" lon="8.687545079737902">
        <ele>869.16999999999996</ele>
        <time>2018-04-15T11:20:05Z</time>
      </trkpt>
      <trkpt lat="44.438540479168296" lon="8.687548348680139">
        <ele>877.82000000000005</ele>
        <time>2018-04-15T11:20:06Z</time>
      </trkpt>
      <trkpt lat="44.438541065901518" lon="8.68754985742271">
        <ele>876.38</ele>
        <time>2018-04-15T11:20:07Z</time>
      </trkpt>
      <trkpt lat="44.438542071729898" lon="8.687545917928219">
        <ele>873.00999999999999</ele>
        <time>2018-04-15T11:20:09Z</time>
      </trkpt>
      <trkpt lat="44.438540060073137" lon="8.687548264861107">
        <ele>876.86000000000001</ele>
        <time>2018-04-15T11:20:11Z</time>
      </trkpt>
      <trkpt lat="44.438543664291501" lon="8.687552707269788">
        <ele>877.82000000000005</ele>
        <time>2018-04-15T11:20:13Z</time>
      </trkpt>
      <trkpt lat="44.438546849414706" lon="8.687551114708185">
        <ele>874.46000000000004</ele>
        <time>2018-04-15T11:20:16Z</time>
      </trkpt>
      <trkpt lat="44.438546681776643" lon="8.687552958726883">
        <ele>872.04999999999995</ele>
        <time>2018-04-15T11:20:18Z</time>
      </trkpt>
      <trkpt lat="44.438546011224389" lon="8.687549186870456">
        <ele>869.16999999999996</ele>
        <time>2018-04-15T11:20:20Z</time>
      </trkpt>
      <trkpt lat="44.438545759767294" lon="8.687549689784646">
        <ele>873.00999999999999</ele>
        <time>2018-04-15T11:20:21Z</time>
      </trkpt>
      <trkpt lat="44.438546346500516" lon="8.68755086325109">
        <ele>877.82000000000005</ele>
        <time>2018-04-15T11:20:22Z</time>
      </trkpt>
      <trkpt lat="44.438546765595675" lon="8.687551869079471">
        <ele>872.52999999999997</ele>
        <time>2018-04-15T11:20:23Z</time>
      </trkpt>
      <trkpt lat="44.438546095043421" lon="8.687553629279137">
        <ele>877.82000000000005</ele>
        <time>2018-04-15T11:20:26Z</time>
      </trkpt>
      <trkpt lat="44.43854802288115" lon="8.687551282346249">
        <ele>872.52999999999997</ele>
        <time>2018-04-15T11:20:27Z</time>
      </trkpt>
      <trkpt lat="44.438547352328897" lon="8.68754843249917">
        <ele>868.69000000000005</ele>
        <time>2018-04-15T11:20:28Z</time>
      </trkpt>
      <trkpt lat="44.438552381470799" lon="8.68754155933857">
        <ele>863.39999999999998</ele>
        <time>2018-04-15T11:20:29Z</time>
      </trkpt>
      <trkpt lat="44.438571492210031" lon="8.68753569200635">
        <ele>872.52999999999997</ele>
        <time>2018-04-15T11:20:31Z</time>
      </trkpt>
      <trkpt lat="44.438578616827726" lon="8.687534183263779">
        <ele>870.13</ele>
        <time>2018-04-15T11:20:32Z</time>
      </trkpt>
      <trkpt lat="44.4385817181319" lon="8.687527729198337">
        <ele>873.5</ele>
        <time>2018-04-15T11:20:40Z</time>
      </trkpt>
      <trkpt lat="44.438583226874471" lon="8.687524208799005">
        <ele>873.5</ele>
        <time>2018-04-15T11:20:41Z</time>
      </trkpt>
      <trkpt lat="44.438585825264454" lon="8.687527645379305">
        <ele>870.13</ele>
        <time>2018-04-15T11:20:43Z</time>
      </trkpt>
      <trkpt lat="44.438587166368961" lon="8.687527058646083">
        <ele>875.41999999999996</ele>
        <time>2018-04-15T11:20:44Z</time>
      </trkpt>
      <trkpt lat="44.438586831092834" lon="8.687529573217034">
        <ele>873.5</ele>
        <time>2018-04-15T11:20:45Z</time>
      </trkpt>
      <trkpt lat="44.438586747273803" lon="8.68753032758832">
        <ele>869.16999999999996</ele>
        <time>2018-04-15T11:20:46Z</time>
      </trkpt>
      <trkpt lat="44.438595129176974" lon="8.687525214627385">
        <ele>872.52999999999997</ele>
        <time>2018-04-15T11:20:53Z</time>
      </trkpt>
      <trkpt lat="44.43860124796629" lon="8.687534686177969">
        <ele>871.09000000000003</ele>
        <time>2018-04-15T11:20:59Z</time>
      </trkpt>
      <trkpt lat="44.438604852184653" lon="8.687524376437068">
        <ele>872.04999999999995</ele>
        <time>2018-04-15T11:21:05Z</time>
      </trkpt>
      <trkpt lat="44.438608456403017" lon="8.687525214627385">
        <ele>870.61000000000001</ele>
        <time>2018-04-15T11:21:07Z</time>
      </trkpt>
      <trkpt lat="44.438612060621381" lon="8.687523622065783">
        <ele>869.16999999999996</ele>
        <time>2018-04-15T11:21:13Z</time>
      </trkpt>
      <trkpt lat="44.438614575192332" lon="8.687518760561943">
        <ele>865.32000000000005</ele>
        <time>2018-04-15T11:21:20Z</time>
      </trkpt>
      <trkpt lat="44.438614491373301" lon="8.687516916543245">
        <ele>865.32000000000005</ele>
        <time>2018-04-15T11:21:21Z</time>
      </trkpt>
      <trkpt lat="44.438615497201681" lon="8.687515910714865">
        <ele>869.16999999999996</ele>
        <time>2018-04-15T11:21:22Z</time>
      </trkpt>
      <trkpt lat="44.438615832477808" lon="8.68751616217196">
        <ele>868.69000000000005</ele>
        <time>2018-04-15T11:21:23Z</time>
      </trkpt>
      <trkpt lat="44.4386300817132" lon="8.687511133030057">
        <ele>873.5</ele>
        <time>2018-04-15T11:21:29Z</time>
      </trkpt>
      <trkpt lat="44.438649863004684" lon="8.687516581267119">
        <ele>866.28999999999996</ele>
        <time>2018-04-15T11:21:33Z</time>
      </trkpt>
      <trkpt lat="44.438652629032731" lon="8.687518090009689">
        <ele>869.64999999999998</ele>
        <time>2018-04-15T11:21:35Z</time>
      </trkpt>
      <trkpt lat="44.438651455566287" lon="8.687520185485482">
        <ele>876.86000000000001</ele>
        <time>2018-04-15T11:21:36Z</time>
      </trkpt>
      <trkpt lat="44.438649360090494" lon="8.687521275132895">
        <ele>875.89999999999998</ele>
        <time>2018-04-15T11:21:37Z</time>
      </trkpt>
      <trkpt lat="44.438648605719209" lon="8.687528735026717">
        <ele>875.89999999999998</ele>
        <time>2018-04-15T11:21:42Z</time>
      </trkpt>
      <trkpt lat="44.438639804720879" lon="8.687534434720874">
        <ele>872.52999999999997</ele>
        <time>2018-04-15T11:21:49Z</time>
      </trkpt>
      <trkpt lat="44.438639637082815" lon="8.687532674521208">
        <ele>873.00999999999999</ele>
        <time>2018-04-15T11:22:01Z</time>
      </trkpt>
      <trkpt lat="44.438634691759944" lon="8.68753912858665">
        <ele>874.46000000000004</ele>
        <time>2018-04-15T11:22:04Z</time>
      </trkpt>
      <trkpt lat="44.438639050349593" lon="8.687548264861107">
        <ele>875.89999999999998</ele>
        <time>2018-04-15T11:22:21Z</time>
      </trkpt>
      <trkpt lat="44.438638044521213" lon="8.687546337023377">
        <ele>876.38</ele>
        <time>2018-04-15T11:22:33Z</time>
      </trkpt>
      <trkpt lat="44.438636871054769" lon="8.687547678127885">
        <ele>877.34000000000003</ele>
        <time>2018-04-15T11:22:37Z</time>
      </trkpt>
      <trkpt lat="44.438632596284151" lon="8.687537619844079">
        <ele>875.41999999999996</ele>
        <time>2018-04-15T11:22:44Z</time>
      </trkpt>
      <trkpt lat="44.438632261008024" lon="8.687534183263779">
        <ele>875.89999999999998</ele>
        <time>2018-04-15T11:22:48Z</time>
      </trkpt>
      <trkpt lat="44.438632931560278" lon="8.687532506883144">
        <ele>877.34000000000003</ele>
        <time>2018-04-15T11:22:51Z</time>
      </trkpt>
      <trkpt lat="44.438580125570297" lon="8.687560418620706">
        <ele>873.5</ele>
        <time>2018-04-15T11:23:01Z</time>
      </trkpt>
      <trkpt lat="44.438501754775643" lon="8.687619008123875">
        <ele>871.57000000000005</ele>
        <time>2018-04-15T11:23:13Z</time>
      </trkpt>
      <trkpt lat="44.438437717035413" lon="8.687650607898831">
        <ele>868.21000000000004</ele>
        <time>2018-04-15T11:23:21Z</time>
      </trkpt>
      <trkpt lat="44.438419863581657" lon="8.68766519241035">
        <ele>865.32000000000005</ele>
        <time>2018-04-15T11:23:24Z</time>
      </trkpt>
      <trkpt lat="44.438385581597686" lon="8.6877023242414">
        <ele>862.91999999999996</ele>
        <time>2018-04-15T11:23:29Z</time>
      </trkpt>
      <trkpt lat="44.438368650153279" lon="8.687732331454754">
        <ele>862.44000000000005</ele>
        <time>2018-04-15T11:23:33Z</time>
      </trkpt>
      <trkpt lat="44.438354820013046" lon="8.687738031148911">
        <ele>863.39999999999998</ele>
        <time>2018-04-15T11:23:35Z</time>
      </trkpt>
      <trkpt lat="44.43834719248116" lon="8.687742976471782">
        <ele>862.91999999999996</ele>
        <time>2018-04-15T11:23:36Z</time>
      </trkpt>
      <trkpt lat="44.438301427289844" lon="8.687776923179627">
        <ele>863.88</ele>
        <time>2018-04-15T11:23:42Z</time>
      </trkpt>
      <trkpt lat="44.438231019303203" lon="8.687854455783963">
        <ele>863.39999999999998</ele>
        <time>2018-04-15T11:23:54Z</time>
      </trkpt>
      <trkpt lat="44.438221212476492" lon="8.687884714454413">
        <ele>860.03999999999996</ele>
        <time>2018-04-15T11:23:57Z</time>
      </trkpt>
      <trkpt lat="44.438213501125574" lon="8.687926959246397">
        <ele>861.96000000000004</ele>
        <time>2018-04-15T11:24:01Z</time>
      </trkpt>
      <trkpt lat="44.438206711784005" lon="8.687947830185294">
        <ele>859.55999999999995</ele>
        <time>2018-04-15T11:24:04Z</time>
      </trkpt>
      <trkpt lat="44.438184751197696" lon="8.688026620075107">
        <ele>861.48000000000002</ele>
        <time>2018-04-15T11:24:15Z</time>
      </trkpt>
      <trkpt lat="44.438183074817061" lon="8.688017316162586">
        <ele>857.63</ele>
        <time>2018-04-15T11:24:18Z</time>
      </trkpt>
      <trkpt lat="44.438184667378664" lon="8.688014298677445">
        <ele>858.59000000000003</ele>
        <time>2018-04-15T11:24:28Z</time>
      </trkpt>
      <trkpt lat="44.438185757026076" lon="8.688015304505825">
        <ele>855.71000000000004</ele>
        <time>2018-04-15T11:24:30Z</time>
      </trkpt>
      <trkpt lat="44.438185254111886" lon="8.688019327819347">
        <ele>859.55999999999995</ele>
        <time>2018-04-15T11:24:32Z</time>
      </trkpt>
      <trkpt lat="44.438184248283505" lon="8.688027122989297">
        <ele>858.59000000000003</ele>
        <time>2018-04-15T11:24:33Z</time>
      </trkpt>
      <trkpt lat="44.438168490305543" lon="8.688053609803319">
        <ele>855.71000000000004</ele>
        <time>2018-04-15T11:24:36Z</time>
      </trkpt>
      <trkpt lat="44.438152648508549" lon="8.688081856817007">
        <ele>852.35000000000002</ele>
        <time>2018-04-15T11:24:39Z</time>
      </trkpt>
      <trkpt lat="44.438145523890853" lon="8.688112702220678">
        <ele>855.23000000000002</ele>
        <time>2018-04-15T11:24:48Z</time>
      </trkpt>
      <trkpt lat="44.438152983784676" lon="8.688109600916505">
        <ele>851.38</ele>
        <time>2018-04-15T11:24:59Z</time>
      </trkpt>
      <trkpt lat="44.438142506405711" lon="8.688122676685453">
        <ele>858.59000000000003</ele>
        <time>2018-04-15T11:25:02Z</time>
      </trkpt>
      <trkpt lat="44.438139656558633" lon="8.688131393864751">
        <ele>857.14999999999998</ele>
        <time>2018-04-15T11:25:03Z</time>
      </trkpt>
      <trkpt lat="44.43813999183476" lon="8.68815234862268">
        <ele>853.78999999999996</ele>
        <time>2018-04-15T11:25:05Z</time>
      </trkpt>
      <trkpt lat="44.438136639073491" lon="8.688163831830025">
        <ele>857.63</ele>
        <time>2018-04-15T11:25:06Z</time>
      </trkpt>
      <trkpt lat="44.438133034855127" lon="8.688187720254064">
        <ele>853.78999999999996</ele>
        <time>2018-04-15T11:25:10Z</time>
      </trkpt>
      <trkpt lat="44.438136387616396" lon="8.688202388584614">
        <ele>851.38</ele>
        <time>2018-04-15T11:25:16Z</time>
      </trkpt>
      <trkpt lat="44.43813999183476" lon="8.688228623941541">
        <ele>853.78999999999996</ele>
        <time>2018-04-15T11:25:18Z</time>
      </trkpt>
      <trkpt lat="44.438140243291855" lon="8.688240945339203">
        <ele>855.71000000000004</ele>
        <time>2018-04-15T11:25:19Z</time>
      </trkpt>
      <trkpt lat="44.438124988228083" lon="8.688263073563576">
        <ele>850.41999999999996</ele>
        <time>2018-04-15T11:25:21Z</time>
      </trkpt>
      <trkpt lat="44.438116187229753" lon="8.688290398567915">
        <ele>853.78999999999996</ele>
        <time>2018-04-15T11:25:23Z</time>
      </trkpt>
      <trkpt lat="44.438113421201706" lon="8.688303474336863">
        <ele>852.83000000000004</ele>
        <time>2018-04-15T11:25:24Z</time>
      </trkpt>
      <trkpt lat="44.438101770356297" lon="8.688325015828013">
        <ele>852.83000000000004</ele>
        <time>2018-04-15T11:25:30Z</time>
      </trkpt>
      <trkpt lat="44.438098669052124" lon="8.688330966979265">
        <ele>852.35000000000002</ele>
        <time>2018-04-15T11:25:33Z</time>
      </trkpt>
      <trkpt lat="44.438094310462475" lon="8.688364075496793">
        <ele>846.58000000000004</ele>
        <time>2018-04-15T11:25:36Z</time>
      </trkpt>
      <trkpt lat="44.438093807548285" lon="8.688409002497792">
        <ele>853.78999999999996</ele>
        <time>2018-04-15T11:25:40Z</time>
      </trkpt>
      <trkpt lat="44.438091460615396" lon="8.68844797834754">
        <ele>842.73000000000002</ele>
        <time>2018-04-15T11:25:44Z</time>
      </trkpt>
      <trkpt lat="44.438088778406382" lon="8.6884587071836">
        <ele>848.01999999999998</ele>
        <time>2018-04-15T11:25:45Z</time>
      </trkpt>
      <trkpt lat="44.438086012378335" lon="8.68846507743001">
        <ele>851.38</ele>
        <time>2018-04-15T11:25:46Z</time>
      </trkpt>
      <trkpt lat="44.438082659617066" lon="8.688434232026339">
        <ele>852.35000000000002</ele>
        <time>2018-04-15T11:25:55Z</time>
      </trkpt>
      <trkpt lat="44.438104620203376" lon="8.688372960314155">
        <ele>854.26999999999998</ele>
        <time>2018-04-15T11:26:02Z</time>
      </trkpt>
      <trkpt lat="44.438112750649452" lon="8.688293918967247">
        <ele>853.78999999999996</ele>
        <time>2018-04-15T11:26:10Z</time>
      </trkpt>
      <trkpt lat="44.438114846125245" lon="8.68827254511416">
        <ele>850.41999999999996</ele>
        <time>2018-04-15T11:26:12Z</time>
      </trkpt>
      <trkpt lat="44.438117863610387" lon="8.688257876783609">
        <ele>851.38</ele>
        <time>2018-04-15T11:26:13Z</time>
      </trkpt>
      <trkpt lat="44.438118198886514" lon="8.688236251473427">
        <ele>856.66999999999996</ele>
        <time>2018-04-15T11:26:15Z</time>
      </trkpt>
      <trkpt lat="44.438117276877165" lon="8.688225438818336">
        <ele>858.11000000000001</ele>
        <time>2018-04-15T11:26:16Z</time>
      </trkpt>
      <trkpt lat="44.438118282705545" lon="8.688192749395967">
        <ele>852.83000000000004</ele>
        <time>2018-04-15T11:26:19Z</time>
      </trkpt>
      <trkpt lat="44.438175028190017" lon="8.688133992254734">
        <ele>854.26999999999998</ele>
        <time>2018-04-15T11:26:29Z</time>
      </trkpt>
      <trkpt lat="44.438182152807713" lon="8.688136842101812">
        <ele>855.71000000000004</ele>
        <time>2018-04-15T11:26:34Z</time>
      </trkpt>
      <trkpt lat="44.438178967684507" lon="8.688136506825686">
        <ele>852.35000000000002</ele>
        <time>2018-04-15T11:26:37Z</time>
      </trkpt>
      <trkpt lat="44.438177291303873" lon="8.6881357524544">
        <ele>852.35000000000002</ele>
        <time>2018-04-15T11:26:38Z</time>
      </trkpt>
      <trkpt lat="44.438177878037095" lon="8.688139105215669">
        <ele>855.71000000000004</ele>
        <time>2018-04-15T11:26:43Z</time>
      </trkpt>
      <trkpt lat="44.438180224969983" lon="8.688136506825686">
        <ele>858.11000000000001</ele>
        <time>2018-04-15T11:26:46Z</time>
      </trkpt>
      <trkpt lat="44.43817812949419" lon="8.688135165721178">
        <ele>854.75</ele>
        <time>2018-04-15T11:26:48Z</time>
      </trkpt>
      <trkpt lat="44.438178380951285" lon="8.688135584816337">
        <ele>853.78999999999996</ele>
        <time>2018-04-15T11:26:51Z</time>
      </trkpt>
      <trkpt lat="44.438181314617395" lon="8.688126364722848">
        <ele>852.35000000000002</ele>
        <time>2018-04-15T11:26:57Z</time>
      </trkpt>
      <trkpt lat="44.438175866380334" lon="8.688129214569926">
        <ele>855.71000000000004</ele>
        <time>2018-04-15T11:27:03Z</time>
      </trkpt>
      <trkpt lat="44.43817469291389" lon="8.688130639493465">
        <ele>853.78999999999996</ele>
        <time>2018-04-15T11:27:08Z</time>
      </trkpt>
      <trkpt lat="44.4381741899997" lon="8.688129214569926">
        <ele>850.41999999999996</ele>
        <time>2018-04-15T11:27:14Z</time>
      </trkpt>
      <trkpt lat="44.438172597438097" lon="8.688125861808658">
        <ele>850.41999999999996</ele>
        <time>2018-04-15T11:27:15Z</time>
      </trkpt>
      <trkpt lat="44.438171423971653" lon="8.688123598694801">
        <ele>854.75</ele>
        <time>2018-04-15T11:27:17Z</time>
      </trkpt>
      <trkpt lat="44.438159940764308" lon="8.688104739412665">
        <ele>852.83000000000004</ele>
        <time>2018-04-15T11:27:23Z</time>
      </trkpt>
      <trkpt lat="44.438158012926579" lon="8.688051179051399">
        <ele>854.75</ele>
        <time>2018-04-15T11:27:28Z</time>
      </trkpt>
      <trkpt lat="44.438169915229082" lon="8.688007174059749">
        <ele>855.23000000000002</ele>
        <time>2018-04-15T11:27:32Z</time>
      </trkpt>
      <trkpt lat="44.438201263546944" lon="8.687925869598985">
        <ele>857.14999999999998</ele>
        <time>2018-04-15T11:27:42Z</time>
      </trkpt>
      <trkpt lat="44.438215596601367" lon="8.687926540151238">
        <ele>856.66999999999996</ele>
        <time>2018-04-15T11:28:03Z</time>
      </trkpt>
      <trkpt lat="44.438218781724572" lon="8.687921343371272">
        <ele>857.63</ele>
        <time>2018-04-15T11:28:09Z</time>
      </trkpt>
      <trkpt lat="44.438217608258128" lon="8.687909776344895">
        <ele>858.11000000000001</ele>
        <time>2018-04-15T11:28:20Z</time>
      </trkpt>
      <trkpt lat="44.438214004039764" lon="8.687908351421356">
        <ele>856.19000000000005</ele>
        <time>2018-04-15T11:28:24Z</time>
      </trkpt>
      <trkpt lat="44.438219033181667" lon="8.687880607321858">
        <ele>859.55999999999995</ele>
        <time>2018-04-15T11:28:31Z</time>
      </trkpt>
      <trkpt lat="44.438228169456124" lon="8.687870046123862">
        <ele>856.19000000000005</ele>
        <time>2018-04-15T11:28:33Z</time>
      </trkpt>
      <trkpt lat="44.438219200819731" lon="8.687954703345895">
        <ele>857.63</ele>
        <time>2018-04-15T11:28:41Z</time>
      </trkpt>
      <trkpt lat="44.438214423134923" lon="8.687974568456411">
        <ele>856.66999999999996</ele>
        <time>2018-04-15T11:28:45Z</time>
      </trkpt>
      <trkpt lat="44.438205622136593" lon="8.688001725822687">
        <ele>856.19000000000005</ele>
        <time>2018-04-15T11:28:55Z</time>
      </trkpt>
      <trkpt lat="44.438202269375324" lon="8.688009604811668">
        <ele>856.19000000000005</ele>
        <time>2018-04-15T11:29:02Z</time>
      </trkpt>
      <trkpt lat="44.43818693049252" lon="8.688036594539881">
        <ele>854.75</ele>
        <time>2018-04-15T11:29:05Z</time>
      </trkpt>
      <trkpt lat="44.438171172514558" lon="8.688074899837375">
        <ele>851.38</ele>
        <time>2018-04-15T11:29:10Z</time>
      </trkpt>
      <trkpt lat="44.438163880258799" lon="8.688079928979278">
        <ele>853.30999999999995</ele>
        <time>2018-04-15T11:29:11Z</time>
      </trkpt>
      <trkpt lat="44.438152899965644" lon="8.688096860423684">
        <ele>848.5</ele>
        <time>2018-04-15T11:29:13Z</time>
      </trkpt>
      <trkpt lat="44.438151894137263" lon="8.688104907050729">
        <ele>851.38</ele>
        <time>2018-04-15T11:29:14Z</time>
      </trkpt>
      <trkpt lat="44.438150553032756" lon="8.688127370551229">
        <ele>855.23000000000002</ele>
        <time>2018-04-15T11:29:16Z</time>
      </trkpt>
      <trkpt lat="44.438146110624075" lon="8.688191156834364">
        <ele>856.66999999999996</ele>
        <time>2018-04-15T11:29:22Z</time>
      </trkpt>
      <trkpt lat="44.438152480870485" lon="8.688233904540539">
        <ele>851.38</ele>
        <time>2018-04-15T11:29:26Z</time>
      </trkpt>
      <trkpt lat="44.438155498355627" lon="8.688232479617">
        <ele>849.94000000000005</ele>
        <time>2018-04-15T11:29:28Z</time>
      </trkpt>
      <trkpt lat="44.438158012926579" lon="8.688232479617">
        <ele>856.19000000000005</ele>
        <time>2018-04-15T11:29:29Z</time>
      </trkpt>
      <trkpt lat="44.438162790611386" lon="8.688237173482776">
        <ele>857.14999999999998</ele>
        <time>2018-04-15T11:29:31Z</time>
      </trkpt>
      <trkpt lat="44.43816052749753" lon="8.68823834694922">
        <ele>854.26999999999998</ele>
        <time>2018-04-15T11:29:32Z</time>
      </trkpt>
      <trkpt lat="44.43815809674561" lon="8.688240610063076">
        <ele>850.89999999999998</ele>
        <time>2018-04-15T11:29:34Z</time>
      </trkpt>
      <trkpt lat="44.438156839460135" lon="8.688243627548218">
        <ele>856.66999999999996</ele>
        <time>2018-04-15T11:29:37Z</time>
      </trkpt>
      <trkpt lat="44.438158851116896" lon="8.688236502930522">
        <ele>852.35000000000002</ele>
        <time>2018-04-15T11:29:40Z</time>
      </trkpt>
      <trkpt lat="44.438160611316562" lon="8.688235497102141">
        <ele>852.35000000000002</ele>
        <time>2018-04-15T11:29:41Z</time>
      </trkpt>
      <trkpt lat="44.438172010704875" lon="8.688253434374929">
        <ele>855.71000000000004</ele>
        <time>2018-04-15T11:29:46Z</time>
      </trkpt>
      <trkpt lat="44.438169412314892" lon="8.688296936452389">
        <ele>856.19000000000005</ele>
        <time>2018-04-15T11:29:55Z</time>
      </trkpt>
      <trkpt lat="44.438169747591019" lon="8.688296265900135">
        <ele>851.87</ele>
        <time>2018-04-15T11:29:57Z</time>
      </trkpt>
      <trkpt lat="44.43817125633359" lon="8.688298696652055">
        <ele>853.30999999999995</ele>
        <time>2018-04-15T11:29:58Z</time>
      </trkpt>
      <trkpt lat="44.438175447285175" lon="8.68829894810915">
        <ele>856.19000000000005</ele>
        <time>2018-04-15T11:29:59Z</time>
      </trkpt>
      <trkpt lat="44.438175112009048" lon="8.68829257786274">
        <ele>853.78999999999996</ele>
        <time>2018-04-15T11:30:03Z</time>
      </trkpt>
      <trkpt lat="44.438172848895192" lon="8.688299199566245">
        <ele>853.78999999999996</ele>
        <time>2018-04-15T11:30:13Z</time>
      </trkpt>
      <trkpt lat="44.438168490305543" lon="8.688294170424342">
        <ele>852.35000000000002</ele>
        <time>2018-04-15T11:30:16Z</time>
      </trkpt>
      <trkpt lat="44.438184332102537" lon="8.688335325568914">
        <ele>843.69000000000005</ele>
        <time>2018-04-15T11:32:37Z</time>
      </trkpt>
      <trkpt lat="44.438181901350617" lon="8.688323507085443">
        <ele>859.55999999999995</ele>
        <time>2018-04-15T11:32:40Z</time>
      </trkpt>
      <trkpt lat="44.438173351809382" lon="8.688336163759232">
        <ele>857.63</ele>
        <time>2018-04-15T11:32:50Z</time>
      </trkpt>
      <trkpt lat="44.438175279647112" lon="8.688337923958898">
        <ele>854.75</ele>
        <time>2018-04-15T11:32:56Z</time>
      </trkpt>
      <trkpt lat="44.438183410093188" lon="8.688331050798297">
        <ele>852.83000000000004</ele>
        <time>2018-04-15T11:32:59Z</time>
      </trkpt>
      <trkpt lat="44.438179219141603" lon="8.688323674723506">
        <ele>850.41999999999996</ele>
        <time>2018-04-15T11:33:07Z</time>
      </trkpt>
      <trkpt lat="44.438176285475492" lon="8.688321327790618">
        <ele>850.89999999999998</ele>
        <time>2018-04-15T11:33:17Z</time>
      </trkpt>
      <trkpt lat="44.43817812949419" lon="8.688320321962237">
        <ele>847.53999999999996</ele>
        <time>2018-04-15T11:33:22Z</time>
      </trkpt>
      <trkpt lat="44.438177794218063" lon="8.688320154324174">
        <ele>848.5</ele>
        <time>2018-04-15T11:33:23Z</time>
      </trkpt>
      <trkpt lat="44.43817762658" lon="8.688322333618999">
        <ele>848.5</ele>
        <time>2018-04-15T11:33:40Z</time>
      </trkpt>
      <trkpt lat="44.438176453113556" lon="8.688324512913823">
        <ele>845.62</ele>
        <time>2018-04-15T11:33:53Z</time>
      </trkpt>
      <trkpt lat="44.438174441456795" lon="8.68832434527576">
        <ele>847.53999999999996</ele>
        <time>2018-04-15T11:33:55Z</time>
      </trkpt>
      <trkpt lat="44.43817226216197" lon="8.688323423266411">
        <ele>848.5</ele>
        <time>2018-04-15T11:34:00Z</time>
      </trkpt>
      <trkpt lat="44.438172010704875" lon="8.688325518742204">
        <ele>847.05999999999995</ele>
        <time>2018-04-15T11:34:04Z</time>
      </trkpt>
      <trkpt lat="44.438169160857797" lon="8.688324932008982">
        <ele>848.01999999999998</ele>
        <time>2018-04-15T11:34:19Z</time>
      </trkpt>
      <trkpt lat="44.438169747591019" lon="8.688326608389616">
        <ele>844.65999999999997</ele>
        <time>2018-04-15T11:34:31Z</time>
      </trkpt>
      <trkpt lat="44.438169412314892" lon="8.688327195122838">
        <ele>848.01999999999998</ele>
        <time>2018-04-15T11:34:32Z</time>
      </trkpt>
      <trkpt lat="44.438169496133924" lon="8.688332559540868">
        <ele>844.65999999999997</ele>
        <time>2018-04-15T11:34:45Z</time>
      </trkpt>
      <trkpt lat="44.438162790611386" lon="8.688340773805976">
        <ele>848.01999999999998</ele>
        <time>2018-04-15T11:35:03Z</time>
      </trkpt>
      <trkpt lat="44.43816052749753" lon="8.688343791291118">
        <ele>844.65999999999997</ele>
        <time>2018-04-15T11:35:08Z</time>
      </trkpt>
      <trkpt lat="44.438157426193357" lon="8.688346641138196">
        <ele>846.58000000000004</ele>
        <time>2018-04-15T11:35:28Z</time>
      </trkpt>
      <trkpt lat="44.438155414536595" lon="8.688347982242703">
        <ele>847.53999999999996</ele>
        <time>2018-04-15T11:35:32Z</time>
      </trkpt>
      <trkpt lat="44.43815709091723" lon="8.688343539834023">
        <ele>848.98000000000002</ele>
        <time>2018-04-15T11:35:44Z</time>
      </trkpt>
      <trkpt lat="44.438156001269817" lon="8.688345635309815">
        <ele>849.94000000000005</ele>
        <time>2018-04-15T11:35:48Z</time>
      </trkpt>
      <trkpt lat="44.438156755641103" lon="8.688344042748213">
        <ele>847.53999999999996</ele>
        <time>2018-04-15T11:35:51Z</time>
      </trkpt>
      <trkpt lat="44.438156168907881" lon="8.688353011384606">
        <ele>846.10000000000002</ele>
        <time>2018-04-15T11:36:03Z</time>
      </trkpt>
      <trkpt lat="44.438159018754959" lon="8.688350580632687">
        <ele>845.13999999999999</ele>
        <time>2018-04-15T11:36:23Z</time>
      </trkpt>
      <trkpt lat="44.438160946592689" lon="8.688348485156894">
        <ele>844.17999999999995</ele>
        <time>2018-04-15T11:36:26Z</time>
      </trkpt>
      <trkpt lat="44.438159773126245" lon="8.68835317902267">
        <ele>844.17999999999995</ele>
        <time>2018-04-15T11:36:37Z</time>
      </trkpt>
      <trkpt lat="44.438159270212054" lon="8.688355023041368">
        <ele>847.53999999999996</ele>
        <time>2018-04-15T11:36:41Z</time>
      </trkpt>
      <trkpt lat="44.438158515840769" lon="8.688357621431351">
        <ele>847.53999999999996</ele>
        <time>2018-04-15T11:36:42Z</time>
      </trkpt>
      <trkpt lat="44.438157677650452" lon="8.688358794897795">
        <ele>847.53999999999996</ele>
        <time>2018-04-15T11:36:52Z</time>
      </trkpt>
      <trkpt lat="44.438157174736261" lon="8.688360136002302">
        <ele>847.05999999999995</ele>
        <time>2018-04-15T11:36:54Z</time>
      </trkpt>
      <trkpt lat="44.438159018754959" lon="8.688352005556226">
        <ele>847.53999999999996</ele>
        <time>2018-04-15T11:37:04Z</time>
      </trkpt>
      <trkpt lat="44.43816052749753" lon="8.688353346660733">
        <ele>848.5</ele>
        <time>2018-04-15T11:37:07Z</time>
      </trkpt>
      <trkpt lat="44.438160108402371" lon="8.688350412994623">
        <ele>849.46000000000004</ele>
        <time>2018-04-15T11:37:14Z</time>
      </trkpt>
      <trkpt lat="44.438161114230752" lon="8.688356699422002">
        <ele>851.38</ele>
        <time>2018-04-15T11:37:18Z</time>
      </trkpt>
      <trkpt lat="44.438159773126245" lon="8.688352508470416">
        <ele>848.5</ele>
        <time>2018-04-15T11:37:29Z</time>
      </trkpt>
      <trkpt lat="44.438160192221403" lon="8.688351586461067">
        <ele>849.46000000000004</ele>
        <time>2018-04-15T11:37:33Z</time>
      </trkpt>
      <trkpt lat="44.43816103041172" lon="8.68834974244237">
        <ele>852.35000000000002</ele>
        <time>2018-04-15T11:37:41Z</time>
      </trkpt>
      <trkpt lat="44.438161449506879" lon="8.688349826261401">
        <ele>848.98000000000002</ele>
        <time>2018-04-15T11:37:44Z</time>
      </trkpt>
      <trkpt lat="44.43816103041172" lon="8.68834781460464">
        <ele>848.5</ele>
        <time>2018-04-15T11:37:45Z</time>
      </trkpt>
      <trkpt lat="44.438161281868815" lon="8.688345048576593">
        <ele>850.41999999999996</ele>
        <time>2018-04-15T11:37:47Z</time>
      </trkpt>
      <trkpt lat="44.43816346116364" lon="8.68834437802434">
        <ele>848.98000000000002</ele>
        <time>2018-04-15T11:37:49Z</time>
      </trkpt>
      <trkpt lat="44.438162874430418" lon="8.688342617824674">
        <ele>848.98000000000002</ele>
        <time>2018-04-15T11:37:54Z</time>
      </trkpt>
      <trkpt lat="44.43816346116364" lon="8.688342114910483">
        <ele>847.53999999999996</ele>
        <time>2018-04-15T11:37:57Z</time>
      </trkpt>
      <trkpt lat="44.438163544982672" lon="8.688342869281769">
        <ele>843.69000000000005</ele>
        <time>2018-04-15T11:38:03Z</time>
      </trkpt>
      <trkpt lat="44.438161868602037" lon="8.688344797119498">
        <ele>847.53999999999996</ele>
        <time>2018-04-15T11:38:06Z</time>
      </trkpt>
      <trkpt lat="44.438159940764308" lon="8.68834488093853">
        <ele>848.98000000000002</ele>
        <time>2018-04-15T11:38:08Z</time>
      </trkpt>
      <trkpt lat="44.43816103041172" lon="8.68834538385272">
        <ele>845.13999999999999</ele>
        <time>2018-04-15T11:38:09Z</time>
      </trkpt>
      <trkpt lat="44.438162203878164" lon="8.68834488093853">
        <ele>844.17999999999995</ele>
        <time>2018-04-15T11:38:11Z</time>
      </trkpt>
      <trkpt lat="44.438160108402371" lon="8.688346892595291">
        <ele>847.53999999999996</ele>
        <time>2018-04-15T11:38:15Z</time>
      </trkpt>
      <trkpt lat="44.438160192221403" lon="8.688345467671752">
        <ele>847.53999999999996</ele>
        <time>2018-04-15T11:38:16Z</time>
      </trkpt>
      <trkpt lat="44.43816052749753" lon="8.68834831751883">
        <ele>846.10000000000002</ele>
        <time>2018-04-15T11:38:19Z</time>
      </trkpt>
      <trkpt lat="44.438160443678498" lon="8.688345635309815">
        <ele>843.69000000000005</ele>
        <time>2018-04-15T11:38:31Z</time>
      </trkpt>
      <trkpt lat="44.43815809674561" lon="8.688341360539198">
        <ele>847.05999999999995</ele>
        <time>2018-04-15T11:38:40Z</time>
      </trkpt>
      <trkpt lat="44.438163209706545" lon="8.688341779634357">
        <ele>849.94000000000005</ele>
        <time>2018-04-15T11:38:43Z</time>
      </trkpt>
      <trkpt lat="44.438164047896862" lon="8.688341109082103">
        <ele>849.46000000000004</ele>
        <time>2018-04-15T11:38:44Z</time>
      </trkpt>
      <trkpt lat="44.438164466992021" lon="8.688338929787278">
        <ele>845.62</ele>
        <time>2018-04-15T11:38:47Z</time>
      </trkpt>
      <trkpt lat="44.438167735934258" lon="8.688339684158564">
        <ele>849.46000000000004</ele>
        <time>2018-04-15T11:38:52Z</time>
      </trkpt>
      <trkpt lat="44.438166813924909" lon="8.68833851069212">
        <ele>848.98000000000002</ele>
        <time>2018-04-15T11:38:53Z</time>
      </trkpt>
      <trkpt lat="44.438161281868815" lon="8.688341109082103">
        <ele>846.10000000000002</ele>
        <time>2018-04-15T11:39:03Z</time>
      </trkpt>
      <trkpt lat="44.438163042068481" lon="8.688343707472086">
        <ele>844.65999999999997</ele>
        <time>2018-04-15T11:39:05Z</time>
      </trkpt>
      <trkpt lat="44.438163042068481" lon="8.688341360539198">
        <ele>847.53999999999996</ele>
        <time>2018-04-15T11:39:13Z</time>
      </trkpt>
      <trkpt lat="44.438161784783006" lon="8.688333481550217">
        <ele>848.5</ele>
        <time>2018-04-15T11:39:25Z</time>
      </trkpt>
      <trkpt lat="44.438160611316562" lon="8.688343036919832">
        <ele>849.94000000000005</ele>
        <time>2018-04-15T11:39:36Z</time>
      </trkpt>
      <trkpt lat="44.438156839460135" lon="8.688351586461067">
        <ele>846.58000000000004</ele>
        <time>2018-04-15T11:39:52Z</time>
      </trkpt>
      <trkpt lat="44.438156755641103" lon="8.68834731169045">
        <ele>848.98000000000002</ele>
        <time>2018-04-15T11:39:55Z</time>
      </trkpt>
      <trkpt lat="44.438158683478832" lon="8.688346724957228">
        <ele>847.53999999999996</ele>
        <time>2018-04-15T11:39:57Z</time>
      </trkpt>
      <trkpt lat="44.438160862773657" lon="8.688346138224006">
        <ele>847.53999999999996</ele>
        <time>2018-04-15T11:40:05Z</time>
      </trkpt>
      <trkpt lat="44.438165556639433" lon="8.68834488093853">
        <ele>844.17999999999995</ele>
        <time>2018-04-15T11:40:18Z</time>
      </trkpt>
      <trkpt lat="44.438164718449116" lon="8.688345551490784">
        <ele>840.33000000000004</ele>
        <time>2018-04-15T11:40:20Z</time>
      </trkpt>
      <trkpt lat="44.43816346116364" lon="8.68835024535656">
        <ele>844.17999999999995</ele>
        <time>2018-04-15T11:40:22Z</time>
      </trkpt>
      <trkpt lat="44.438163293525577" lon="8.688346222043037">
        <ele>847.53999999999996</ele>
        <time>2018-04-15T11:40:28Z</time>
      </trkpt>
      <trkpt lat="44.438162120059133" lon="8.688346222043037">
        <ele>847.53999999999996</ele>
        <time>2018-04-15T11:40:34Z</time>
      </trkpt>
      <trkpt lat="44.438160862773657" lon="8.688350496813655">
        <ele>848.98000000000002</ele>
        <time>2018-04-15T11:41:04Z</time>
      </trkpt>
      <trkpt lat="44.438161617144942" lon="8.688352089375258">
        <ele>847.05999999999995</ele>
        <time>2018-04-15T11:41:07Z</time>
      </trkpt>
      <trkpt lat="44.438162622973323" lon="8.688356867060065">
        <ele>848.5</ele>
        <time>2018-04-15T11:41:10Z</time>
      </trkpt>
      <trkpt lat="44.438161114230752" lon="8.688355274498463">
        <ele>845.13999999999999</ele>
        <time>2018-04-15T11:41:19Z</time>
      </trkpt>
      <trkpt lat="44.438160862773657" lon="8.688353765755892">
        <ele>845.13999999999999</ele>
        <time>2018-04-15T11:41:20Z</time>
      </trkpt>
      <trkpt lat="44.438158934935927" lon="8.688354771584272">
        <ele>849.46000000000004</ele>
        <time>2018-04-15T11:41:25Z</time>
      </trkpt>
      <trkpt lat="44.43815759383142" lon="8.688354268670082">
        <ele>849.46000000000004</ele>
        <time>2018-04-15T11:41:26Z</time>
      </trkpt>
      <trkpt lat="44.438160778954625" lon="8.688354268670082">
        <ele>846.10000000000002</ele>
        <time>2018-04-15T11:41:42Z</time>
      </trkpt>
      <trkpt lat="44.438162036240101" lon="8.68835368193686">
        <ele>846.58000000000004</ele>
        <time>2018-04-15T11:41:43Z</time>
      </trkpt>
      <trkpt lat="44.438161952421069" lon="8.688351418823004">
        <ele>849.94000000000005</ele>
        <time>2018-04-15T11:41:48Z</time>
      </trkpt>
      <trkpt lat="44.438160611316562" lon="8.688355945050716">
        <ele>845.62</ele>
        <time>2018-04-15T11:42:04Z</time>
      </trkpt>
      <trkpt lat="44.438157845288515" lon="8.688353849574924">
        <ele>848.98000000000002</ele>
        <time>2018-04-15T11:42:08Z</time>
      </trkpt>
      <trkpt lat="44.438158432021737" lon="8.688354520127177">
        <ele>848.98000000000002</ele>
        <time>2018-04-15T11:42:12Z</time>
      </trkpt>
      <trkpt lat="44.438153821974993" lon="8.688362650573254">
        <ele>845.62</ele>
        <time>2018-04-15T11:42:23Z</time>
      </trkpt>
      <trkpt lat="44.438152983784676" lon="8.688363488763571">
        <ele>845.62</ele>
        <time>2018-04-15T11:42:24Z</time>
      </trkpt>
      <trkpt lat="44.438153067603707" lon="8.688364662230015">
        <ele>848.98000000000002</ele>
        <time>2018-04-15T11:42:27Z</time>
      </trkpt>
      <trkpt lat="44.438153319060802" lon="8.688362818211317">
        <ele>844.17999999999995</ele>
        <time>2018-04-15T11:42:29Z</time>
      </trkpt>
      <trkpt lat="44.438153654336929" lon="8.688361309468746">
        <ele>846.10000000000002</ele>
        <time>2018-04-15T11:42:30Z</time>
      </trkpt>
      <trkpt lat="44.438155833631754" lon="8.688356028869748">
        <ele>841.76999999999998</ele>
        <time>2018-04-15T11:42:36Z</time>
      </trkpt>
      <trkpt lat="44.438155582174659" lon="8.688354352489114">
        <ele>846.10000000000002</ele>
        <time>2018-04-15T11:42:42Z</time>
      </trkpt>
      <trkpt lat="44.438158180564642" lon="8.688349658623338">
        <ele>846.58000000000004</ele>
        <time>2018-04-15T11:42:51Z</time>
      </trkpt>
      <trkpt lat="44.438158767297864" lon="8.688349993899465">
        <ele>845.62</ele>
        <time>2018-04-15T11:42:53Z</time>
      </trkpt>
      <trkpt lat="44.438161114230752" lon="8.688347479328513">
        <ele>847.53999999999996</ele>
        <time>2018-04-15T11:42:56Z</time>
      </trkpt>
      <trkpt lat="44.438162455335259" lon="8.688342114910483">
        <ele>846.58000000000004</ele>
        <time>2018-04-15T11:43:21Z</time>
      </trkpt>
      <trkpt lat="44.438162455335259" lon="8.688341611996293">
        <ele>846.58000000000004</ele>
        <time>2018-04-15T11:43:22Z</time>
      </trkpt>
      <trkpt lat="44.438162790611386" lon="8.68833901360631">
        <ele>844.17999999999995</ele>
        <time>2018-04-15T11:43:36Z</time>
      </trkpt>
      <trkpt lat="44.438163377344608" lon="8.68833658285439">
        <ele>848.01999999999998</ele>
        <time>2018-04-15T11:43:40Z</time>
      </trkpt>
      <trkpt lat="44.438166646286845" lon="8.68833851069212">
        <ele>848.01999999999998</ele>
        <time>2018-04-15T11:43:48Z</time>
      </trkpt>
      <trkpt lat="44.438164969906211" lon="8.688338762149215">
        <ele>845.13999999999999</ele>
        <time>2018-04-15T11:43:58Z</time>
      </trkpt>
      <trkpt lat="44.438166478648782" lon="8.688333900645375">
        <ele>847.05999999999995</ele>
        <time>2018-04-15T11:44:25Z</time>
      </trkpt>
      <trkpt lat="44.438165556639433" lon="8.688333062455058">
        <ele>845.62</ele>
        <time>2018-04-15T11:44:29Z</time>
      </trkpt>
      <trkpt lat="44.438166143372655" lon="8.688354771584272">
        <ele>845.62</ele>
        <time>2018-04-15T11:44:41Z</time>
      </trkpt>
      <trkpt lat="44.438165724277496" lon="8.68835125118494">
        <ele>847.53999999999996</ele>
        <time>2018-04-15T11:44:43Z</time>
      </trkpt>
      <trkpt lat="44.43816396407783" lon="8.688344964757562">
        <ele>846.10000000000002</ele>
        <time>2018-04-15T11:44:58Z</time>
      </trkpt>
      <trkpt lat="44.438173854723573" lon="8.688338091596961">
        <ele>847.53999999999996</ele>
        <time>2018-04-15T11:45:12Z</time>
      </trkpt>
      <trkpt lat="44.43816983141005" lon="8.688335660845041">
        <ele>846.58000000000004</ele>
        <time>2018-04-15T11:45:14Z</time>
      </trkpt>
      <trkpt lat="44.438173519447446" lon="8.688342114910483">
        <ele>848.98000000000002</ele>
        <time>2018-04-15T11:45:18Z</time>
      </trkpt>
      <trkpt lat="44.438162874430418" lon="8.68834731169045">
        <ele>846.10000000000002</ele>
        <time>2018-04-15T11:45:29Z</time>
      </trkpt>
      <trkpt lat="44.438150888308883" lon="8.688332056626678">
        <ele>849.94000000000005</ele>
        <time>2018-04-15T11:45:33Z</time>
      </trkpt>
      <trkpt lat="44.438147032633424" lon="8.688322585076094">
        <ele>849.46000000000004</ele>
        <time>2018-04-15T11:45:34Z</time>
      </trkpt>
      <trkpt lat="44.438131861388683" lon="8.688322585076094">
        <ele>846.10000000000002</ele>
        <time>2018-04-15T11:45:40Z</time>
      </trkpt>
      <trkpt lat="44.438134543597698" lon="8.688314203172922">
        <ele>848.01999999999998</ele>
        <time>2018-04-15T11:45:47Z</time>
      </trkpt>
      <trkpt lat="44.438137980177999" lon="8.688329961150885">
        <ele>846.10000000000002</ele>
        <time>2018-04-15T11:46:00Z</time>
      </trkpt>
      <trkpt lat="44.438133034855127" lon="8.688325518742204">
        <ele>849.94000000000005</ele>
        <time>2018-04-15T11:46:04Z</time>
      </trkpt>
      <trkpt lat="44.438135968521237" lon="8.688321746885777">
        <ele>849.46000000000004</ele>
        <time>2018-04-15T11:46:05Z</time>
      </trkpt>
      <trkpt lat="44.438133202493191" lon="8.688312694430351">
        <ele>848.5</ele>
        <time>2018-04-15T11:46:07Z</time>
      </trkpt>
      <trkpt lat="44.438134543597698" lon="8.688310934230685">
        <ele>847.53999999999996</ele>
        <time>2018-04-15T11:46:12Z</time>
      </trkpt>
      <trkpt lat="44.438140243291855" lon="8.688311940059066">
        <ele>851.38</ele>
        <time>2018-04-15T11:46:16Z</time>
      </trkpt>
      <trkpt lat="44.438144182786345" lon="8.688323758542538">
        <ele>848.01999999999998</ele>
        <time>2018-04-15T11:46:22Z</time>
      </trkpt>
      <trkpt lat="44.438135968521237" lon="8.688334319740534">
        <ele>848.01999999999998</ele>
        <time>2018-04-15T11:46:30Z</time>
      </trkpt>
      <trkpt lat="44.438139069825411" lon="8.688336247578263">
        <ele>848.5</ele>
        <time>2018-04-15T11:46:37Z</time>
      </trkpt>
      <trkpt lat="44.438130604103208" lon="8.688338762149215">
        <ele>847.05999999999995</ele>
        <time>2018-04-15T11:46:40Z</time>
      </trkpt>
      <trkpt lat="44.438136806711555" lon="8.68833658285439">
        <ele>848.01999999999998</ele>
        <time>2018-04-15T11:46:42Z</time>
      </trkpt>
      <trkpt lat="44.438133621588349" lon="8.688323842361569">
        <ele>851.38</ele>
        <time>2018-04-15T11:46:52Z</time>
      </trkpt>
      <trkpt lat="44.438136722892523" lon="8.68831655010581">
        <ele>851.87</ele>
        <time>2018-04-15T11:47:08Z</time>
      </trkpt>
      <trkpt lat="44.438150720670819" lon="8.688298696652055">
        <ele>847.05999999999995</ele>
        <time>2018-04-15T11:47:19Z</time>
      </trkpt>
      <trkpt lat="44.438149044290185" lon="8.688302971422672">
        <ele>847.05999999999995</ele>
        <time>2018-04-15T11:47:20Z</time>
      </trkpt>
      <trkpt lat="44.43814585916698" lon="8.68831311352551">
        <ele>845.13999999999999</ele>
        <time>2018-04-15T11:47:29Z</time>
      </trkpt>
      <trkpt lat="44.438142087310553" lon="8.688363488763571">
        <ele>848.98000000000002</ele>
        <time>2018-04-15T11:47:36Z</time>
      </trkpt>
      <trkpt lat="44.438137477263808" lon="8.688375223428011">
        <ele>848.5</ele>
        <time>2018-04-15T11:47:37Z</time>
      </trkpt>
      <trkpt lat="44.43813219666481" lon="8.6883913166821">
        <ele>845.13999999999999</ele>
        <time>2018-04-15T11:47:39Z</time>
      </trkpt>
      <trkpt lat="44.438130520284176" lon="8.688394082710147">
        <ele>845.13999999999999</ele>
        <time>2018-04-15T11:47:40Z</time>
      </trkpt>
      <trkpt lat="44.438118953257799" lon="8.688438171520829">
        <ele>845.13999999999999</ele>
        <time>2018-04-15T11:47:45Z</time>
      </trkpt>
      <trkpt lat="44.438122389838099" lon="8.68847044184804">
        <ele>840.80999999999995</ele>
        <time>2018-04-15T11:47:48Z</time>
      </trkpt>
      <trkpt lat="44.43812339566648" lon="8.688478656113148">
        <ele>843.21000000000004</ele>
        <time>2018-04-15T11:47:49Z</time>
      </trkpt>
      <trkpt lat="44.438122473657131" lon="8.688490642234683">
        <ele>846.58000000000004</ele>
        <time>2018-04-15T11:47:50Z</time>
      </trkpt>
      <trkpt lat="44.438121803104877" lon="8.688500449061394">
        <ele>845.13999999999999</ele>
        <time>2018-04-15T11:47:51Z</time>
      </trkpt>
      <trkpt lat="44.438114846125245" lon="8.688531797379255">
        <ele>841.28999999999996</ele>
        <time>2018-04-15T11:47:54Z</time>
      </trkpt>
      <trkpt lat="44.438112583011389" lon="8.688540849834681">
        <ele>844.65999999999997</ele>
        <time>2018-04-15T11:47:55Z</time>
      </trkpt>
      <trkpt lat="44.438104201108217" lon="8.688554260879755">
        <ele>836</ele>
        <time>2018-04-15T11:47:57Z</time>
      </trkpt>
      <trkpt lat="44.438102524727583" lon="8.688557865098119">
        <ele>836.96000000000004</ele>
        <time>2018-04-15T11:47:58Z</time>
      </trkpt>
      <trkpt lat="44.438093639910221" lon="8.688580580055714">
        <ele>836</ele>
        <time>2018-04-15T11:48:02Z</time>
      </trkpt>
      <trkpt lat="44.438092969357967" lon="8.68859114125371">
        <ele>840.80999999999995</ele>
        <time>2018-04-15T11:48:03Z</time>
      </trkpt>
      <trkpt lat="44.438089784234762" lon="8.688601702451706">
        <ele>840.80999999999995</ele>
        <time>2018-04-15T11:48:04Z</time>
      </trkpt>
      <trkpt lat="44.438083246350288" lon="8.688655681908131">
        <ele>842.25</ele>
        <time>2018-04-15T11:48:10Z</time>
      </trkpt>
      <trkpt lat="44.43807695992291" lon="8.688716953620315">
        <ele>836.96000000000004</ele>
        <time>2018-04-15T11:48:16Z</time>
      </trkpt>
      <trkpt lat="44.438077798113227" lon="8.688726844266057">
        <ele>839.85000000000002</ele>
        <time>2018-04-15T11:48:17Z</time>
      </trkpt>
      <trkpt lat="44.438058687373996" lon="8.688793061301112">
        <ele>836</ele>
        <time>2018-04-15T11:48:24Z</time>
      </trkpt>
      <trkpt lat="44.438062207773328" lon="8.688800940290093">
        <ele>836</ele>
        <time>2018-04-15T11:48:25Z</time>
      </trkpt>
      <trkpt lat="44.43806380033493" lon="8.688809238374233">
        <ele>839.85000000000002</ele>
        <time>2018-04-15T11:48:26Z</time>
      </trkpt>
      <trkpt lat="44.438065644353628" lon="8.68880320340395">
        <ele>843.21000000000004</ele>
        <time>2018-04-15T11:48:28Z</time>
      </trkpt>
      <trkpt lat="44.438065309077501" lon="8.68880714289844">
        <ele>837.45000000000005</ele>
        <time>2018-04-15T11:48:29Z</time>
      </trkpt>
      <trkpt lat="44.43806279450655" lon="8.688816530629993">
        <ele>837.92999999999995</ele>
        <time>2018-04-15T11:48:30Z</time>
      </trkpt>
      <trkpt lat="44.438054831698537" lon="8.688829941675067">
        <ele>841.76999999999998</ele>
        <time>2018-04-15T11:48:32Z</time>
      </trkpt>
      <trkpt lat="44.438051395118237" lon="8.68883790448308">
        <ele>841.76999999999998</ele>
        <time>2018-04-15T11:48:33Z</time>
      </trkpt>
      <trkpt lat="44.438041420653462" lon="8.688854416832328">
        <ele>838.88999999999999</ele>
        <time>2018-04-15T11:48:35Z</time>
      </trkpt>
      <trkpt lat="44.438032954931259" lon="8.688874617218971">
        <ele>834.55999999999995</ele>
        <time>2018-04-15T11:48:37Z</time>
      </trkpt>
      <trkpt lat="44.43803396075964" lon="8.688884591683745">
        <ele>834.55999999999995</ele>
        <time>2018-04-15T11:48:38Z</time>
      </trkpt>
      <trkpt lat="44.438025746494532" lon="8.68895567022264">
        <ele>833.60000000000002</ele>
        <time>2018-04-15T11:48:44Z</time>
      </trkpt>
      <trkpt lat="44.438017448410392" lon="8.689031107351184">
        <ele>838.40999999999997</ele>
        <time>2018-04-15T11:48:50Z</time>
      </trkpt>
      <trkpt lat="44.438001103699207" lon="8.6890665628016">
        <ele>837.45000000000005</ele>
        <time>2018-04-15T11:48:53Z</time>
      </trkpt>
      <trkpt lat="44.437997750937939" lon="8.68909539654851">
        <ele>835.51999999999998</ele>
        <time>2018-04-15T11:48:56Z</time>
      </trkpt>
      <trkpt lat="44.437981741502881" lon="8.689194889739156">
        <ele>836.48000000000002</ele>
        <time>2018-04-15T11:49:06Z</time>
      </trkpt>
      <trkpt lat="44.437993643805385" lon="8.689236715435982">
        <ele>834.55999999999995</ele>
        <time>2018-04-15T11:49:10Z</time>
      </trkpt>
      <trkpt lat="44.437968581914902" lon="8.689291868358851">
        <ele>836.48000000000002</ele>
        <time>2018-04-15T11:49:19Z</time>
      </trkpt>
      <trkpt lat="44.437939329072833" lon="8.689360599964857">
        <ele>841.76999999999998</ele>
        <time>2018-04-15T11:49:27Z</time>
      </trkpt>
      <trkpt lat="44.437933210283518" lon="8.689387086778879">
        <ele>845.62</ele>
        <time>2018-04-15T11:49:30Z</time>
      </trkpt>
      <trkpt lat="44.43793036043644" lon="8.689406616613269">
        <ele>847.05999999999995</ele>
        <time>2018-04-15T11:49:32Z</time>
      </trkpt>
      <trkpt lat="44.437927259132266" lon="8.689425894990563">
        <ele>843.21000000000004</ele>
        <time>2018-04-15T11:49:36Z</time>
      </trkpt>
      <trkpt lat="44.437927762046456" lon="8.689481299370527">
        <ele>838.40999999999997</ele>
        <time>2018-04-15T11:49:43Z</time>
      </trkpt>
      <trkpt lat="44.437921056523919" lon="8.689514491707087">
        <ele>835.03999999999996</ele>
        <time>2018-04-15T11:49:46Z</time>
      </trkpt>
      <trkpt lat="44.437901023775339" lon="8.689573332667351">
        <ele>833.60000000000002</ele>
        <time>2018-04-15T11:49:52Z</time>
      </trkpt>
      <trkpt lat="44.43790839985013" lon="8.689577020704746">
        <ele>832.63999999999999</ele>
        <time>2018-04-15T11:50:05Z</time>
      </trkpt>
      <trkpt lat="44.437919044867158" lon="8.689576685428619">
        <ele>832.15999999999997</ele>
        <time>2018-04-15T11:50:16Z</time>
      </trkpt>
      <trkpt lat="44.437905885279179" lon="8.689650865271688">
        <ele>833.12</ele>
        <time>2018-04-15T11:50:24Z</time>
      </trkpt>
      <trkpt lat="44.437902197241783" lon="8.68982101790607">
        <ele>830.72000000000003</ele>
        <time>2018-04-15T11:50:38Z</time>
      </trkpt>
      <trkpt lat="44.437900688499212" lon="8.68998471647501">
        <ele>828.30999999999995</ele>
        <time>2018-04-15T11:50:49Z</time>
      </trkpt>
      <trkpt lat="44.437903622165322" lon="8.690067613497376">
        <ele>826.87</ele>
        <time>2018-04-15T11:50:59Z</time>
      </trkpt>
      <trkpt lat="44.437906388193369" lon="8.690105834975839">
        <ele>825.90999999999997</ele>
        <time>2018-04-15T11:51:02Z</time>
      </trkpt>
      <trkpt lat="44.43791032768786" lon="8.690168363973498">
        <ele>825.90999999999997</ele>
        <time>2018-04-15T11:51:07Z</time>
      </trkpt>
      <trkpt lat="44.437913596630096" lon="8.690288728103042">
        <ele>825.42999999999995</ele>
        <time>2018-04-15T11:51:19Z</time>
      </trkpt>
      <trkpt lat="44.437926169484854" lon="8.690367853268981">
        <ele>822.54999999999995</ele>
        <time>2018-04-15T11:51:28Z</time>
      </trkpt>
      <trkpt lat="44.437923403456807" lon="8.690380258485675">
        <ele>821.10000000000002</ele>
        <time>2018-04-15T11:51:31Z</time>
      </trkpt>
      <trkpt lat="44.437927594408393" lon="8.690438009798527">
        <ele>822.54999999999995</ele>
        <time>2018-04-15T11:51:42Z</time>
      </trkpt>
      <trkpt lat="44.437934719026089" lon="8.690430466085672">
        <ele>821.10000000000002</ele>
        <time>2018-04-15T11:51:49Z</time>
      </trkpt>
      <trkpt lat="44.437989452853799" lon="8.690461898222566">
        <ele>816.29999999999995</ele>
        <time>2018-04-15T11:51:56Z</time>
      </trkpt>
      <trkpt lat="44.438058352097869" lon="8.690518140792847">
        <ele>818.70000000000005</ele>
        <time>2018-04-15T11:52:06Z</time>
      </trkpt>
      <trkpt lat="44.438063967972994" lon="8.690520990639925">
        <ele>819.17999999999995</ele>
        <time>2018-04-15T11:52:07Z</time>
      </trkpt>
      <trkpt lat="44.438110822811723" lon="8.690600534901023">
        <ele>818.22000000000003</ele>
        <time>2018-04-15T11:52:17Z</time>
      </trkpt>
      <trkpt lat="44.438125742599368" lon="8.69064194150269">
        <ele>815.34000000000003</ele>
        <time>2018-04-15T11:52:21Z</time>
      </trkpt>
      <trkpt lat="44.438147284090519" lon="8.690694831311703">
        <ele>813.88999999999999</ele>
        <time>2018-04-15T11:52:25Z</time>
      </trkpt>
      <trkpt lat="44.438165975734591" lon="8.690859535709024">
        <ele>815.34000000000003</ele>
        <time>2018-04-15T11:52:38Z</time>
      </trkpt>
      <trkpt lat="44.438186092302203" lon="8.69089406915009">
        <ele>814.85000000000002</ele>
        <time>2018-04-15T11:52:46Z</time>
      </trkpt>
      <trkpt lat="44.438227750360966" lon="8.690964812412858">
        <ele>814.85000000000002</ele>
        <time>2018-04-15T11:52:51Z</time>
      </trkpt>
      <trkpt lat="44.438237389549613" lon="8.691128510981798">
        <ele>816.29999999999995</ele>
        <time>2018-04-15T11:53:05Z</time>
      </trkpt>
      <trkpt lat="44.438250465318561" lon="8.691142592579126">
        <ele>814.85000000000002</ele>
        <time>2018-04-15T11:53:08Z</time>
      </trkpt>
      <trkpt lat="44.438287261873484" lon="8.691185005009174">
        <ele>813.88999999999999</ele>
        <time>2018-04-15T11:53:12Z</time>
      </trkpt>
      <trkpt lat="44.438311653211713" lon="8.691243091598153">
        <ele>812.45000000000005</ele>
        <time>2018-04-15T11:53:18Z</time>
      </trkpt>
      <trkpt lat="44.438367644324899" lon="8.691345266997814">
        <ele>812.45000000000005</ele>
        <time>2018-04-15T11:53:29Z</time>
      </trkpt>
      <trkpt lat="44.438390359282494" lon="8.691402850672603">
        <ele>812.45000000000005</ele>
        <time>2018-04-15T11:53:39Z</time>
      </trkpt>
      <trkpt lat="44.438392287120223" lon="8.691409388557077">
        <ele>810.52999999999997</ele>
        <time>2018-04-15T11:53:43Z</time>
      </trkpt>
      <trkpt lat="44.438393795862794" lon="8.691413663327694">
        <ele>812.45000000000005</ele>
        <time>2018-04-15T11:53:48Z</time>
      </trkpt>
      <trkpt lat="44.438388850539923" lon="8.691412908956409">
        <ele>812.45000000000005</ele>
        <time>2018-04-15T11:53:58Z</time>
      </trkpt>
      <trkpt lat="44.438418606296182" lon="8.69141299277544">
        <ele>810.52999999999997</ele>
        <time>2018-04-15T11:54:05Z</time>
      </trkpt>
      <trkpt lat="44.43846688605845" lon="8.691535536199808">
        <ele>807.15999999999997</ele>
        <time>2018-04-15T11:54:17Z</time>
      </trkpt>
      <trkpt lat="44.438478788360953" lon="8.691563531756401">
        <ele>806.20000000000005</ele>
        <time>2018-04-15T11:54:21Z</time>
      </trkpt>
      <trkpt lat="44.438569145277143" lon="8.691635951399803">
        <ele>805.72000000000003</ele>
        <time>2018-04-15T11:54:31Z</time>
      </trkpt>
      <trkpt lat="44.43862278945744" lon="8.691722955554724">
        <ele>804.27999999999997</ele>
        <time>2018-04-15T11:54:39Z</time>
      </trkpt>
      <trkpt lat="44.43866528570652" lon="8.691784981638193">
        <ele>800.91999999999996</ele>
        <time>2018-04-15T11:54:47Z</time>
      </trkpt>
      <trkpt lat="44.438666710630059" lon="8.69185765273869">
        <ele>801.88</ele>
        <time>2018-04-15T11:54:56Z</time>
      </trkpt>
      <trkpt lat="44.438668470829725" lon="8.691870644688606">
        <ele>801.88</ele>
        <time>2018-04-15T11:54:58Z</time>
      </trkpt>
      <trkpt lat="44.43869462236762" lon="8.691895203664899">
        <ele>797.54999999999995</ele>
        <time>2018-04-15T11:55:03Z</time>
      </trkpt>
      <trkpt lat="44.438695125281811" lon="8.691899981349707">
        <ele>797.07000000000005</ele>
        <time>2018-04-15T11:55:04Z</time>
      </trkpt>
      <trkpt lat="44.438720354810357" lon="8.691965360194445">
        <ele>796.11000000000001</ele>
        <time>2018-04-15T11:55:14Z</time>
      </trkpt>
      <trkpt lat="44.438713984563947" lon="8.691977011039853">
        <ele>799.47000000000003</ele>
        <time>2018-04-15T11:55:17Z</time>
      </trkpt>
      <trkpt lat="44.438713984563947" lon="8.691971898078919">
        <ele>796.11000000000001</ele>
        <time>2018-04-15T11:55:26Z</time>
      </trkpt>
      <trkpt lat="44.438721779733896" lon="8.691976508125663">
        <ele>794.19000000000005</ele>
        <time>2018-04-15T11:55:29Z</time>
      </trkpt>
      <trkpt lat="44.438746925443411" lon="8.692016825079918">
        <ele>794.66999999999996</ele>
        <time>2018-04-15T11:55:33Z</time>
      </trkpt>
      <trkpt lat="44.438796378672123" lon="8.692118329927325">
        <ele>793.22000000000003</ele>
        <time>2018-04-15T11:55:43Z</time>
      </trkpt>
      <trkpt lat="44.438858069479465" lon="8.692196784541011">
        <ele>793.71000000000004</ele>
        <time>2018-04-15T11:55:53Z</time>
      </trkpt>
      <trkpt lat="44.438858069479465" lon="8.692233581095934">
        <ele>789.38</ele>
        <time>2018-04-15T11:55:58Z</time>
      </trkpt>
      <trkpt lat="44.438858237117529" lon="8.692242549732328">
        <ele>789.38</ele>
        <time>2018-04-15T11:55:59Z</time>
      </trkpt>
      <trkpt lat="44.438839545473456" lon="8.692305665463209">
        <ele>787.94000000000005</ele>
        <time>2018-04-15T11:56:09Z</time>
      </trkpt>
      <trkpt lat="44.438854716718197" lon="8.692391663789749">
        <ele>791.29999999999995</ele>
        <time>2018-04-15T11:56:20Z</time>
      </trkpt>
      <trkpt lat="44.43886511027813" lon="8.6924356687814">
        <ele>787.46000000000004</ele>
        <time>2018-04-15T11:56:24Z</time>
      </trkpt>
      <trkpt lat="44.438859159126878" lon="8.692467520013452">
        <ele>783.61000000000001</ele>
        <time>2018-04-15T11:56:27Z</time>
      </trkpt>
      <trkpt lat="44.438853543251753" lon="8.692475147545338">
        <ele>784.09000000000003</ele>
        <time>2018-04-15T11:56:28Z</time>
      </trkpt>
      <trkpt lat="44.438843401148915" lon="8.692557541653514">
        <ele>780.73000000000002</ele>
        <time>2018-04-15T11:56:37Z</time>
      </trkpt>
      <trkpt lat="44.438847256824374" lon="8.692582016810775">
        <ele>777.84000000000003</ele>
        <time>2018-04-15T11:56:39Z</time>
      </trkpt>
      <trkpt lat="44.438845328986645" lon="8.692624429240823">
        <ele>781.21000000000004</ele>
        <time>2018-04-15T11:56:43Z</time>
      </trkpt>
      <trkpt lat="44.438843401148915" lon="8.692649239674211">
        <ele>782.64999999999998</ele>
        <time>2018-04-15T11:56:45Z</time>
      </trkpt>
      <trkpt lat="44.438819345086813" lon="8.692772705107927">
        <ele>778.80999999999995</ele>
        <time>2018-04-15T11:56:55Z</time>
      </trkpt>
      <trkpt lat="44.438794450834394" lon="8.692896170541644">
        <ele>775.44000000000005</ele>
        <time>2018-04-15T11:57:05Z</time>
      </trkpt>
      <trkpt lat="44.438781458884478" lon="8.692978983744979">
        <ele>774.96000000000004</ele>
        <time>2018-04-15T11:57:11Z</time>
      </trkpt>
      <trkpt lat="44.438770227134228" lon="8.693032125011087">
        <ele>775.91999999999996</ele>
        <time>2018-04-15T11:57:15Z</time>
      </trkpt>
      <trkpt lat="44.438774418085814" lon="8.69309046305716">
        <ele>774</ele>
        <time>2018-04-15T11:57:19Z</time>
      </trkpt>
      <trkpt lat="44.438750613480806" lon="8.693177131935954">
        <ele>773.51999999999998</ele>
        <time>2018-04-15T11:57:26Z</time>
      </trkpt>
      <trkpt lat="44.438732760027051" lon="8.693341165781021">
        <ele>769.66999999999996</ele>
        <time>2018-04-15T11:57:38Z</time>
      </trkpt>
      <trkpt lat="44.438704596832395" lon="8.693454908207059">
        <ele>771.11000000000001</ele>
        <time>2018-04-15T11:57:48Z</time>
      </trkpt>
      <trkpt lat="44.438686072826385" lon="8.693504109978676">
        <ele>767.75</ele>
        <time>2018-04-15T11:57:52Z</time>
      </trkpt>
      <trkpt lat="44.438681798055768" lon="8.69351651519537">
        <ele>767.26999999999998</ele>
        <time>2018-04-15T11:57:53Z</time>
      </trkpt>
      <trkpt lat="44.438661932945251" lon="8.693591533228755">
        <ele>764.87</ele>
        <time>2018-04-15T11:57:59Z</time>
      </trkpt>
      <trkpt lat="44.438664698973298" lon="8.693646183237433">
        <ele>762.46000000000004</ele>
        <time>2018-04-15T11:58:03Z</time>
      </trkpt>
      <trkpt lat="44.438625052571297" lon="8.693700665608048">
        <ele>763.89999999999998</ele>
        <time>2018-04-15T11:58:09Z</time>
      </trkpt>
      <trkpt lat="44.438550285995007" lon="8.693832261487842">
        <ele>764.87</ele>
        <time>2018-04-15T11:58:20Z</time>
      </trkpt>
      <trkpt lat="44.438532181084156" lon="8.693911470472813">
        <ele>762.94000000000005</ele>
        <time>2018-04-15T11:58:25Z</time>
      </trkpt>
      <trkpt lat="44.438483733683825" lon="8.694065194576979">
        <ele>761.98000000000002</ele>
        <time>2018-04-15T11:58:35Z</time>
      </trkpt>
      <trkpt lat="44.438431933522224" lon="8.694179272279143">
        <ele>761.5</ele>
        <time>2018-04-15T11:58:43Z</time>
      </trkpt>
      <trkpt lat="44.438379211351275" lon="8.694279687479138">
        <ele>759.10000000000002</ele>
        <time>2018-04-15T11:58:51Z</time>
      </trkpt>
      <trkpt lat="44.438353898003697" lon="8.694323860108852">
        <ele>758.13999999999999</ele>
        <time>2018-04-15T11:58:55Z</time>
      </trkpt>
      <trkpt lat="44.438336379826069" lon="8.694331906735897">
        <ele>759.58000000000004</ele>
        <time>2018-04-15T11:58:57Z</time>
      </trkpt>
      <trkpt lat="44.438280975446105" lon="8.694374822080135">
        <ele>758.13999999999999</ele>
        <time>2018-04-15T11:59:03Z</time>
      </trkpt>
      <trkpt lat="44.438254237174988" lon="8.694437267258763">
        <ele>761.5</ele>
        <time>2018-04-15T11:59:08Z</time>
      </trkpt>
      <trkpt lat="44.438215009868145" lon="8.694563917815685">
        <ele>759.58000000000004</ele>
        <time>2018-04-15T11:59:18Z</time>
      </trkpt>
      <trkpt lat="44.438206544145942" lon="8.69458369910717">
        <ele>756.69000000000005</ele>
        <time>2018-04-15T11:59:20Z</time>
      </trkpt>
      <trkpt lat="44.438194641843438" lon="8.694613622501493">
        <ele>758.62</ele>
        <time>2018-04-15T11:59:23Z</time>
      </trkpt>
      <trkpt lat="44.438164634630084" lon="8.694653939455748">
        <ele>755.25</ele>
        <time>2018-04-15T11:59:29Z</time>
      </trkpt>
      <trkpt lat="44.438139740377665" lon="8.694695848971605">
        <ele>756.21000000000004</ele>
        <time>2018-04-15T11:59:33Z</time>
      </trkpt>
      <trkpt lat="44.43807796575129" lon="8.694850746542215">
        <ele>757.17999999999995</ele>
        <time>2018-04-15T11:59:45Z</time>
      </trkpt>
      <trkpt lat="44.438021974638104" lon="8.694964069873095">
        <ele>756.69000000000005</ele>
        <time>2018-04-15T11:59:55Z</time>
      </trkpt>
      <trkpt lat="44.43800613284111" lon="8.69498485699296">
        <ele>755.73000000000002</ele>
        <time>2018-04-15T11:59:57Z</time>
      </trkpt>
      <trkpt lat="44.4379807356745" lon="8.695049146190286">
        <ele>752.85000000000002</ele>
        <time>2018-04-15T12:00:02Z</time>
      </trkpt>
      <trkpt lat="44.437915273010731" lon="8.695127014070749">
        <ele>752.85000000000002</ele>
        <time>2018-04-15T12:00:14Z</time>
      </trkpt>
      <trkpt lat="44.43791426718235" lon="8.6951260920614">
        <ele>755.25</ele>
        <time>2018-04-15T12:00:19Z</time>
      </trkpt>
      <trkpt lat="44.437888115644455" lon="8.695169845595956">
        <ele>751.88999999999999</ele>
        <time>2018-04-15T12:00:26Z</time>
      </trkpt>
      <trkpt lat="44.437881745398045" lon="8.695181161165237">
        <ele>752.85000000000002</ele>
        <time>2018-04-15T12:00:29Z</time>
      </trkpt>
      <trkpt lat="44.43785366602242" lon="8.695241678506136">
        <ele>749.49000000000001</ele>
        <time>2018-04-15T12:00:34Z</time>
      </trkpt>
      <trkpt lat="44.437733385711908" lon="8.695416441187263">
        <ele>747.08000000000004</ele>
        <time>2018-04-15T12:00:49Z</time>
      </trkpt>
      <trkpt lat="44.437727350741625" lon="8.695450806990266">
        <ele>748.51999999999998</ele>
        <time>2018-04-15T12:00:51Z</time>
      </trkpt>
      <trkpt lat="44.437708156183362" lon="8.695483412593603">
        <ele>749.97000000000003</ele>
        <time>2018-04-15T12:00:53Z</time>
      </trkpt>
      <trkpt lat="44.437693571671844" lon="8.69551551528275">
        <ele>749.97000000000003</ele>
        <time>2018-04-15T12:00:55Z</time>
      </trkpt>
      <trkpt lat="44.437686447054148" lon="8.695549797266722">
        <ele>748.51999999999998</ele>
        <time>2018-04-15T12:00:57Z</time>
      </trkpt>
      <trkpt lat="44.437681837007403" lon="8.695568488910794">
        <ele>749.49000000000001</ele>
        <time>2018-04-15T12:00:58Z</time>
      </trkpt>
      <trkpt lat="44.437641184777021" lon="8.695679884403944">
        <ele>746.60000000000002</ele>
        <time>2018-04-15T12:01:05Z</time>
      </trkpt>
      <trkpt lat="44.437637999653816" lon="8.695698911324143">
        <ele>746.60000000000002</ele>
        <time>2018-04-15T12:01:06Z</time>
      </trkpt>
      <trkpt lat="44.437629617750645" lon="8.695767810568214">
        <ele>749.49000000000001</ele>
        <time>2018-04-15T12:01:10Z</time>
      </trkpt>
      <trkpt lat="44.43761914037168" lon="8.695776276290417">
        <ele>753.33000000000004</ele>
        <time>2018-04-15T12:01:18Z</time>
      </trkpt>
      <trkpt lat="44.437617044895887" lon="8.695780970156193">
        <ele>750.45000000000005</ele>
        <time>2018-04-15T12:01:22Z</time>
      </trkpt>
      <trkpt lat="44.43761327303946" lon="8.695814497768879">
        <ele>749</ele>
        <time>2018-04-15T12:01:24Z</time>
      </trkpt>
      <trkpt lat="44.437613021582365" lon="8.695851126685739">
        <ele>753.33000000000004</ele>
        <time>2018-04-15T12:01:26Z</time>
      </trkpt>
      <trkpt lat="44.437611680477858" lon="8.695867890492082">
        <ele>750.92999999999995</ele>
        <time>2018-04-15T12:01:27Z</time>
      </trkpt>
      <trkpt lat="44.4375991076231" lon="8.695935448631644">
        <ele>745.63999999999999</ele>
        <time>2018-04-15T12:01:31Z</time>
      </trkpt>
      <trkpt lat="44.43760103546083" lon="8.696084730327129">
        <ele>745.15999999999997</ele>
        <time>2018-04-15T12:01:39Z</time>
      </trkpt>
      <trkpt lat="44.437603382393718" lon="8.696150612086058">
        <ele>748.03999999999996</ele>
        <time>2018-04-15T12:01:43Z</time>
      </trkpt>
      <trkpt lat="44.437603633850813" lon="8.696169974282384">
        <ele>744.20000000000005</ele>
        <time>2018-04-15T12:01:44Z</time>
      </trkpt>
      <trkpt lat="44.437604388222098" lon="8.696189587935805">
        <ele>755.25</ele>
        <time>2018-04-15T12:01:45Z</time>
      </trkpt>
      <trkpt lat="44.43760396912694" lon="8.696208111941814">
        <ele>747.08000000000004</ele>
        <time>2018-04-15T12:01:46Z</time>
      </trkpt>
      <trkpt lat="44.437600867822766" lon="8.696243399754167">
        <ele>743.72000000000003</ele>
        <time>2018-04-15T12:01:48Z</time>
      </trkpt>
      <trkpt lat="44.437599526718259" lon="8.696275250986219">
        <ele>749.97000000000003</ele>
        <time>2018-04-15T12:01:50Z</time>
      </trkpt>
      <trkpt lat="44.437607573345304" lon="8.69632612913847">
        <ele>742.27999999999997</ele>
        <time>2018-04-15T12:01:53Z</time>
      </trkpt>
      <trkpt lat="44.437608411535621" lon="8.696341635659337">
        <ele>743.72000000000003</ele>
        <time>2018-04-15T12:01:54Z</time>
      </trkpt>
      <trkpt lat="44.437608411535621" lon="8.696355298161507">
        <ele>736.02999999999997</ele>
        <time>2018-04-15T12:01:55Z</time>
      </trkpt>
      <trkpt lat="44.437608662992716" lon="8.696371223777533">
        <ele>741.30999999999995</ele>
        <time>2018-04-15T12:01:56Z</time>
      </trkpt>
      <trkpt lat="44.43761033937335" lon="8.696389077231288">
        <ele>746.12</ele>
        <time>2018-04-15T12:01:57Z</time>
      </trkpt>
      <trkpt lat="44.437611261382699" lon="8.696408607065678">
        <ele>743.72000000000003</ele>
        <time>2018-04-15T12:01:58Z</time>
      </trkpt>
      <trkpt lat="44.437611009925604" lon="8.696427382528782">
        <ele>747.55999999999995</ele>
        <time>2018-04-15T12:01:59Z</time>
      </trkpt>
      <trkpt lat="44.437608411535621" lon="8.696461329236627">
        <ele>738.90999999999997</ele>
        <time>2018-04-15T12:02:01Z</time>
      </trkpt>
      <trkpt lat="44.437609920278192" lon="8.696476332843304">
        <ele>742.75999999999999</ele>
        <time>2018-04-15T12:02:02Z</time>
      </trkpt>
      <trkpt lat="44.437612434849143" lon="8.696505334228277">
        <ele>739.38999999999999</ele>
        <time>2018-04-15T12:02:04Z</time>
      </trkpt>
      <trkpt lat="44.437628947198391" lon="8.696559984236956">
        <ele>745.63999999999999</ele>
        <time>2018-04-15T12:02:07Z</time>
      </trkpt>
      <trkpt lat="44.437631713226438" lon="8.696579849347472">
        <ele>735.54999999999995</ele>
        <time>2018-04-15T12:02:08Z</time>
      </trkpt>
      <trkpt lat="44.437631629407406" lon="8.696599798277021">
        <ele>736.02999999999997</ele>
        <time>2018-04-15T12:02:09Z</time>
      </trkpt>
      <trkpt lat="44.437627019360662" lon="8.696631984785199">
        <ele>745.63999999999999</ele>
        <time>2018-04-15T12:02:11Z</time>
      </trkpt>
      <trkpt lat="44.437618469819427" lon="8.69668479077518">
        <ele>741.78999999999996</ele>
        <time>2018-04-15T12:02:14Z</time>
      </trkpt>
      <trkpt lat="44.437613859772682" lon="8.696702141314745">
        <ele>746.60000000000002</ele>
        <time>2018-04-15T12:02:15Z</time>
      </trkpt>
      <trkpt lat="44.437602376565337" lon="8.696734998375177">
        <ele>744.67999999999995</ele>
        <time>2018-04-15T12:02:17Z</time>
      </trkpt>
      <trkpt lat="44.437600364908576" lon="8.696769364178181">
        <ele>746.12</ele>
        <time>2018-04-15T12:02:19Z</time>
      </trkpt>
      <trkpt lat="44.437595587223768" lon="8.696801466867328">
        <ele>741.78999999999996</ele>
        <time>2018-04-15T12:02:21Z</time>
      </trkpt>
      <trkpt lat="44.437594078481197" lon="8.696819320321083">
        <ele>742.27999999999997</ele>
        <time>2018-04-15T12:02:22Z</time>
      </trkpt>
      <trkpt lat="44.437597012147307" lon="8.696832731366158">
        <ele>745.63999999999999</ele>
        <time>2018-04-15T12:02:23Z</time>
      </trkpt>
      <trkpt lat="44.437601957470179" lon="8.696844382211566">
        <ele>742.27999999999997</ele>
        <time>2018-04-15T12:02:26Z</time>
      </trkpt>
      <trkpt lat="44.437603885307908" lon="8.696849914267659">
        <ele>746.60000000000002</ele>
        <time>2018-04-15T12:02:27Z</time>
      </trkpt>
      <trkpt lat="44.437602628022432" lon="8.696848154067993">
        <ele>750.45000000000005</ele>
        <time>2018-04-15T12:02:28Z</time>
      </trkpt>
      <trkpt lat="44.437602795660496" lon="8.69685435667634">
        <ele>750.45000000000005</ele>
        <time>2018-04-15T12:02:29Z</time>
      </trkpt>
      <trkpt lat="44.437605980783701" lon="8.696866175159812">
        <ele>749</ele>
        <time>2018-04-15T12:02:31Z</time>
      </trkpt>
      <trkpt lat="44.437612518668175" lon="8.696875311434269">
        <ele>749.97000000000003</ele>
        <time>2018-04-15T12:02:33Z</time>
      </trkpt>
      <trkpt lat="44.43762743845582" lon="8.69687975384295">
        <ele>746.60000000000002</ele>
        <time>2018-04-15T12:02:36Z</time>
      </trkpt>
      <trkpt lat="44.437634060159326" lon="8.696884615346789">
        <ele>747.08000000000004</ele>
        <time>2018-04-15T12:02:37Z</time>
      </trkpt>
      <trkpt lat="44.437639676034451" lon="8.69689492508769">
        <ele>743.24000000000001</ele>
        <time>2018-04-15T12:02:38Z</time>
      </trkpt>
      <trkpt lat="44.437650237232447" lon="8.696921160444617">
        <ele>746.60000000000002</ele>
        <time>2018-04-15T12:02:41Z</time>
      </trkpt>
      <trkpt lat="44.437652500346303" lon="8.696924597024918">
        <ele>742.75999999999999</ele>
        <time>2018-04-15T12:02:42Z</time>
      </trkpt>
      <trkpt lat="44.437649566680193" lon="8.69692862033844">
        <ele>741.78999999999996</ele>
        <time>2018-04-15T12:02:44Z</time>
      </trkpt>
      <trkpt lat="44.437656356021762" lon="8.696948401629925">
        <ele>744.67999999999995</ele>
        <time>2018-04-15T12:02:46Z</time>
      </trkpt>
      <trkpt lat="44.437660211697221" lon="8.696955693885684">
        <ele>744.67999999999995</ele>
        <time>2018-04-15T12:02:47Z</time>
      </trkpt>
      <trkpt lat="44.437674880027771" lon="8.696970781311393">
        <ele>748.51999999999998</ele>
        <time>2018-04-15T12:02:52Z</time>
      </trkpt>
      <trkpt lat="44.437678400427103" lon="8.696979498490691">
        <ele>743.72000000000003</ele>
        <time>2018-04-15T12:02:53Z</time>
      </trkpt>
      <trkpt lat="44.437685944139957" lon="8.696986623108387">
        <ele>741.30999999999995</ele>
        <time>2018-04-15T12:02:54Z</time>
      </trkpt>
      <trkpt lat="44.437704300507903" lon="8.697013948112726">
        <ele>738.42999999999995</ele>
        <time>2018-04-15T12:03:00Z</time>
      </trkpt>
      <trkpt lat="44.437705054879189" lon="8.697015289217234">
        <ele>738.90999999999997</ele>
        <time>2018-04-15T12:03:01Z</time>
      </trkpt>
      <trkpt lat="44.437709162011743" lon="8.697019312530756">
        <ele>739.38999999999999</ele>
        <time>2018-04-15T12:03:02Z</time>
      </trkpt>
      <trkpt lat="44.437712430953979" lon="8.697047475725412">
        <ele>735.54999999999995</ele>
        <time>2018-04-15T12:03:04Z</time>
      </trkpt>
      <trkpt lat="44.437705390155315" lon="8.697078572586179">
        <ele>739.38999999999999</ele>
        <time>2018-04-15T12:03:06Z</time>
      </trkpt>
      <trkpt lat="44.437702121213078" lon="8.697093324735761">
        <ele>738.90999999999997</ele>
        <time>2018-04-15T12:03:07Z</time>
      </trkpt>
      <trkpt lat="44.437700277194381" lon="8.697133725509048">
        <ele>735.54999999999995</ele>
        <time>2018-04-15T12:03:12Z</time>
      </trkpt>
      <trkpt lat="44.437728272750974" lon="8.697177646681666">
        <ele>738.42999999999995</ele>
        <time>2018-04-15T12:03:17Z</time>
      </trkpt>
      <trkpt lat="44.437745455652475" lon="8.697202792391181">
        <ele>741.78999999999996</ele>
        <time>2018-04-15T12:03:20Z</time>
      </trkpt>
      <trkpt lat="44.437750987708569" lon="8.697234475985169">
        <ele>734.10000000000002</ele>
        <time>2018-04-15T12:03:22Z</time>
      </trkpt>
      <trkpt lat="44.437751239165664" lon="8.697252161800861">
        <ele>735.54999999999995</ele>
        <time>2018-04-15T12:03:23Z</time>
      </trkpt>
      <trkpt lat="44.437757777050138" lon="8.697277307510376">
        <ele>731.70000000000005</ele>
        <time>2018-04-15T12:03:25Z</time>
      </trkpt>
      <trkpt lat="44.43775886669755" lon="8.697277391329408">
        <ele>731.70000000000005</ele>
        <time>2018-04-15T12:03:26Z</time>
      </trkpt>
      <trkpt lat="44.437758950516582" lon="8.697275631129742">
        <ele>726.40999999999997</ele>
        <time>2018-04-15T12:03:27Z</time>
      </trkpt>
      <trkpt lat="44.437759285792708" lon="8.697275379672647">
        <ele>727.37</ele>
        <time>2018-04-15T12:03:28Z</time>
      </trkpt>
      <trkpt lat="44.437749562785029" lon="8.697281079366803">
        <ele>730.25999999999999</ele>
        <time>2018-04-15T12:03:30Z</time>
      </trkpt>
      <trkpt lat="44.437732296064496" lon="8.697300441563129">
        <ele>730.74000000000001</ele>
        <time>2018-04-15T12:03:32Z</time>
      </trkpt>
      <trkpt lat="44.437726344913244" lon="8.69733220897615">
        <ele>720.64999999999998</ele>
        <time>2018-04-15T12:03:35Z</time>
      </trkpt>
      <trkpt lat="44.437734223902225" lon="8.697356935590506">
        <ele>726.88999999999999</ele>
        <time>2018-04-15T12:03:37Z</time>
      </trkpt>
      <trkpt lat="44.437737911939621" lon="8.697364060208201">
        <ele>732.17999999999995</ele>
        <time>2018-04-15T12:03:39Z</time>
      </trkpt>
      <trkpt lat="44.43773296661675" lon="8.697472438216209">
        <ele>728.34000000000003</ele>
        <time>2018-04-15T12:03:48Z</time>
      </trkpt>
      <trkpt lat="44.437730368226767" lon="8.697478976100683">
        <ele>724.97000000000003</ele>
        <time>2018-04-15T12:03:49Z</time>
      </trkpt>
      <trkpt lat="44.437732128426433" lon="8.697484089061618">
        <ele>727.37</ele>
        <time>2018-04-15T12:03:50Z</time>
      </trkpt>
      <trkpt lat="44.437728775665164" lon="8.697522059082985">
        <ele>723.52999999999997</ele>
        <time>2018-04-15T12:03:59Z</time>
      </trkpt>
      <trkpt lat="44.437728775665164" lon="8.697525830939412">
        <ele>726.88999999999999</ele>
        <time>2018-04-15T12:04:00Z</time>
      </trkpt>
      <trkpt lat="44.437726177275181" lon="8.697579307481647">
        <ele>728.82000000000005</ele>
        <time>2018-04-15T12:04:06Z</time>
      </trkpt>
      <trkpt lat="44.437712598592043" lon="8.697600346058607">
        <ele>724.00999999999999</ele>
        <time>2018-04-15T12:04:08Z</time>
      </trkpt>
      <trkpt lat="44.437686530873179" lon="8.69762591086328">
        <ele>720.64999999999998</ele>
        <time>2018-04-15T12:04:12Z</time>
      </trkpt>
      <trkpt lat="44.437683848664165" lon="8.697637058794498">
        <ele>720.64999999999998</ele>
        <time>2018-04-15T12:04:13Z</time>
      </trkpt>
      <trkpt lat="44.437680747359991" lon="8.697650888934732">
        <ele>724.00999999999999</ele>
        <time>2018-04-15T12:04:14Z</time>
      </trkpt>
      <trkpt lat="44.437683764845133" lon="8.697660276666284">
        <ele>726.40999999999997</ele>
        <time>2018-04-15T12:04:15Z</time>
      </trkpt>
      <trkpt lat="44.437706647440791" lon="8.697705874219537">
        <ele>723.52999999999997</ele>
        <time>2018-04-15T12:04:20Z</time>
      </trkpt>
      <trkpt lat="44.437733134254813" lon="8.697777958586812">
        <ele>720.15999999999997</ele>
        <time>2018-04-15T12:04:26Z</time>
      </trkpt>
      <trkpt lat="44.437736989930272" lon="8.697856161743403">
        <ele>716.32000000000005</ele>
        <time>2018-04-15T12:04:32Z</time>
      </trkpt>
      <trkpt lat="44.437742019072175" lon="8.697862280532718">
        <ele>717.27999999999997</ele>
        <time>2018-04-15T12:04:33Z</time>
      </trkpt>
      <trkpt lat="44.437749562785029" lon="8.69787409901619">
        <ele>723.04999999999995</ele>
        <time>2018-04-15T12:04:35Z</time>
      </trkpt>
      <trkpt lat="44.437754256650805" lon="8.697879463434219">
        <ele>721.61000000000001</ele>
        <time>2018-04-15T12:04:36Z</time>
      </trkpt>
      <trkpt lat="44.437757693231106" lon="8.697889940813184">
        <ele>719.67999999999995</ele>
        <time>2018-04-15T12:04:40Z</time>
      </trkpt>
      <trkpt lat="44.437754508107901" lon="8.697905782610178">
        <ele>715.84000000000003</ele>
        <time>2018-04-15T12:04:44Z</time>
      </trkpt>
      <trkpt lat="44.43775400519371" lon="8.697905112057924">
        <ele>719.20000000000005</ele>
        <time>2018-04-15T12:04:45Z</time>
      </trkpt>
      <trkpt lat="44.437754172831774" lon="8.697901591658592">
        <ele>721.61000000000001</ele>
        <time>2018-04-15T12:04:47Z</time>
      </trkpt>
      <trkpt lat="44.43775936961174" lon="8.697901759296656">
        <ele>718.24000000000001</ele>
        <time>2018-04-15T12:04:49Z</time>
      </trkpt>
      <trkpt lat="44.437762051820755" lon="8.69790829718113">
        <ele>714.88</ele>
        <time>2018-04-15T12:04:50Z</time>
      </trkpt>
      <trkpt lat="44.437761968001723" lon="8.697921289131045">
        <ele>715.36000000000001</ele>
        <time>2018-04-15T12:04:51Z</time>
      </trkpt>
      <trkpt lat="44.437760207802057" lon="8.697933107614517">
        <ele>718.72000000000003</ele>
        <time>2018-04-15T12:04:52Z</time>
      </trkpt>
      <trkpt lat="44.437756603583694" lon="8.69795179925859">
        <ele>722.57000000000005</ele>
        <time>2018-04-15T12:04:54Z</time>
      </trkpt>
      <trkpt lat="44.437761045992374" lon="8.697974681854248">
        <ele>717.75999999999999</ele>
        <time>2018-04-15T12:04:56Z</time>
      </trkpt>
      <trkpt lat="44.437756771221757" lon="8.698087837547064">
        <ele>713.91999999999996</ele>
        <time>2018-04-15T12:05:07Z</time>
      </trkpt>
      <trkpt lat="44.437741516157985" lon="8.698220439255238">
        <ele>711.50999999999999</ele>
        <time>2018-04-15T12:05:18Z</time>
      </trkpt>
      <trkpt lat="44.437719639390707" lon="8.698380701243877">
        <ele>711.50999999999999</ele>
        <time>2018-04-15T12:05:30Z</time>
      </trkpt>
      <trkpt lat="44.437698516994715" lon="8.698495030403137">
        <ele>711.50999999999999</ele>
        <time>2018-04-15T12:05:41Z</time>
      </trkpt>
      <trkpt lat="44.437677646055818" lon="8.69860659353435">
        <ele>709.59000000000003</ele>
        <time>2018-04-15T12:05:51Z</time>
      </trkpt>
      <trkpt lat="44.437661049887538" lon="8.698671637102962">
        <ele>709.11000000000001</ele>
        <time>2018-04-15T12:05:57Z</time>
      </trkpt>
      <trkpt lat="44.437652667984366" lon="8.698695274069905">
        <ele>711.02999999999997</ele>
        <time>2018-04-15T12:05:59Z</time>
      </trkpt>
      <trkpt lat="44.437644369900227" lon="8.698728550225496">
        <ele>711.50999999999999</ele>
        <time>2018-04-15T12:06:07Z</time>
      </trkpt>
      <trkpt lat="44.437644788995385" lon="8.698790408670902">
        <ele>711.02999999999997</ele>
        <time>2018-04-15T12:06:17Z</time>
      </trkpt>
      <trkpt lat="44.437638754025102" lon="8.698830893263221">
        <ele>707.66999999999996</ele>
        <time>2018-04-15T12:06:21Z</time>
      </trkpt>
      <trkpt lat="44.437638418748975" lon="8.698848327621818">
        <ele>710.54999999999995</ele>
        <time>2018-04-15T12:06:27Z</time>
      </trkpt>
      <trkpt lat="44.437671443447471" lon="8.698880178853869">
        <ele>707.19000000000005</ele>
        <time>2018-04-15T12:06:34Z</time>
      </trkpt>
      <trkpt lat="44.437682256102562" lon="8.698889566585422">
        <ele>705.25999999999999</ele>
        <time>2018-04-15T12:06:36Z</time>
      </trkpt>
      <trkpt lat="44.437673958018422" lon="8.698940277099609">
        <ele>708.63</ele>
        <time>2018-04-15T12:06:42Z</time>
      </trkpt>
      <trkpt lat="44.437685441225767" lon="8.698965338990092">
        <ele>705.75</ele>
        <time>2018-04-15T12:06:45Z</time>
      </trkpt>
      <trkpt lat="44.437688710168004" lon="8.69897598400712">
        <ele>702.38</ele>
        <time>2018-04-15T12:06:51Z</time>
      </trkpt>
      <trkpt lat="44.437690386548638" lon="8.698979672044516">
        <ele>706.71000000000004</ele>
        <time>2018-04-15T12:06:53Z</time>
      </trkpt>
      <trkpt lat="44.437709497287869" lon="8.698988556861877">
        <ele>704.77999999999997</ele>
        <time>2018-04-15T12:07:00Z</time>
      </trkpt>
      <trkpt lat="44.437720058485866" lon="8.699009260162711">
        <ele>700.94000000000005</ele>
        <time>2018-04-15T12:07:04Z</time>
      </trkpt>
      <trkpt lat="44.437738163396716" lon="8.699036417528987">
        <ele>699.5</ele>
        <time>2018-04-15T12:07:07Z</time>
      </trkpt>
      <trkpt lat="44.437773115932941" lon="8.699107579886913">
        <ele>698.52999999999997</ele>
        <time>2018-04-15T12:07:15Z</time>
      </trkpt>
      <trkpt lat="44.437783341854811" lon="8.699192656204104">
        <ele>699.5</ele>
        <time>2018-04-15T12:07:25Z</time>
      </trkpt>
      <trkpt lat="44.437793483957648" lon="8.699220484122634">
        <ele>695.64999999999998</ele>
        <time>2018-04-15T12:07:28Z</time>
      </trkpt>
      <trkpt lat="44.43779700435698" lon="8.699253676459193">
        <ele>693.73000000000002</ele>
        <time>2018-04-15T12:07:31Z</time>
      </trkpt>
      <trkpt lat="44.437806392088532" lon="8.699352247640491">
        <ele>693.25</ele>
        <time>2018-04-15T12:07:41Z</time>
      </trkpt>
      <trkpt lat="44.437806308269501" lon="8.69936247356236">
        <ele>690.84000000000003</ele>
        <time>2018-04-15T12:07:42Z</time>
      </trkpt>
      <trkpt lat="44.437800440937281" lon="8.699399270117283">
        <ele>692.76999999999998</ele>
        <time>2018-04-15T12:07:45Z</time>
      </trkpt>
      <trkpt lat="44.437788622453809" lon="8.699523825198412">
        <ele>691.80999999999995</ele>
        <time>2018-04-15T12:07:56Z</time>
      </trkpt>
      <trkpt lat="44.437751658260822" lon="8.699607225134969">
        <ele>689.88</ele>
        <time>2018-04-15T12:08:06Z</time>
      </trkpt>
      <trkpt lat="44.43771637044847" lon="8.699663048610091">
        <ele>690.36000000000001</ele>
        <time>2018-04-15T12:08:16Z</time>
      </trkpt>
      <trkpt lat="44.437671946361661" lon="8.69972700253129">
        <ele>690.36000000000001</ele>
        <time>2018-04-15T12:08:25Z</time>
      </trkpt>
      <trkpt lat="44.437644705176353" lon="8.699801433831453">
        <ele>687.48000000000002</ele>
        <time>2018-04-15T12:08:32Z</time>
      </trkpt>
      <trkpt lat="44.437643112614751" lon="8.699847115203738">
        <ele>687</ele>
        <time>2018-04-15T12:08:35Z</time>
      </trkpt>
      <trkpt lat="44.437633138149977" lon="8.699908554553986">
        <ele>686.51999999999998</ele>
        <time>2018-04-15T12:08:39Z</time>
      </trkpt>
      <trkpt lat="44.437631210312247" lon="8.699959851801395">
        <ele>686.51999999999998</ele>
        <time>2018-04-15T12:08:43Z</time>
      </trkpt>
      <trkpt lat="44.437613440677524" lon="8.700025146827102">
        <ele>686.03999999999996</ele>
        <time>2018-04-15T12:08:49Z</time>
      </trkpt>
      <trkpt lat="44.437599945813417" lon="8.700082898139954">
        <ele>682.66999999999996</ele>
        <time>2018-04-15T12:08:55Z</time>
      </trkpt>
      <trkpt lat="44.437583182007074" lon="8.700150288641453">
        <ele>679.78999999999996</ele>
        <time>2018-04-15T12:09:02Z</time>
      </trkpt>
      <trkpt lat="44.437563233077526" lon="8.700222373008728">
        <ele>679.30999999999995</ele>
        <time>2018-04-15T12:09:08Z</time>
      </trkpt>
      <trkpt lat="44.437554599717259" lon="8.700264701619744">
        <ele>678.35000000000002</ele>
        <time>2018-04-15T12:09:11Z</time>
      </trkpt>
      <trkpt lat="44.437602292746305" lon="8.700371151790023">
        <ele>676.90999999999997</ele>
        <time>2018-04-15T12:09:23Z</time>
      </trkpt>
      <trkpt lat="44.437611512839794" lon="8.700403170660138">
        <ele>673.05999999999995</ele>
        <time>2018-04-15T12:09:26Z</time>
      </trkpt>
      <trkpt lat="44.437622912228107" lon="8.700430495664477">
        <ele>670.17999999999995</ele>
        <time>2018-04-15T12:09:31Z</time>
      </trkpt>
      <trkpt lat="44.437640514224768" lon="8.700501406565309">
        <ele>673.53999999999996</ele>
        <time>2018-04-15T12:09:40Z</time>
      </trkpt>
      <trkpt lat="44.437637999653816" lon="8.700520014390349">
        <ele>675.46000000000004</ele>
        <time>2018-04-15T12:09:42Z</time>
      </trkpt>
      <trkpt lat="44.437634143978357" lon="8.700597546994686">
        <ele>678.83000000000004</ele>
        <time>2018-04-15T12:09:49Z</time>
      </trkpt>
      <trkpt lat="44.43763380870223" lon="8.700641971081495">
        <ele>675.46000000000004</ele>
        <time>2018-04-15T12:09:56Z</time>
      </trkpt>
      <trkpt lat="44.437636490911245" lon="8.700644234195352">
        <ele>672.10000000000002</ele>
        <time>2018-04-15T12:09:59Z</time>
      </trkpt>
      <trkpt lat="44.437634646892548" lon="8.700645072385669">
        <ele>673.05999999999995</ele>
        <time>2018-04-15T12:10:00Z</time>
      </trkpt>
      <trkpt lat="44.437638083472848" lon="8.700656052678824">
        <ele>674.5</ele>
        <time>2018-04-15T12:10:02Z</time>
      </trkpt>
      <trkpt lat="44.43764110095799" lon="8.700687400996685">
        <ele>676.41999999999996</ele>
        <time>2018-04-15T12:10:14Z</time>
      </trkpt>
      <trkpt lat="44.437642777338624" lon="8.70074481703341">
        <ele>673.05999999999995</ele>
        <time>2018-04-15T12:10:24Z</time>
      </trkpt>
      <trkpt lat="44.437655098736286" lon="8.700830060988665">
        <ele>673.05999999999995</ele>
        <time>2018-04-15T12:10:32Z</time>
      </trkpt>
      <trkpt lat="44.437675634399056" lon="8.700877167284489">
        <ele>672.58000000000004</ele>
        <time>2018-04-15T12:10:37Z</time>
      </trkpt>
      <trkpt lat="44.43769097328186" lon="8.70091094635427">
        <ele>671.13999999999999</ele>
        <time>2018-04-15T12:10:40Z</time>
      </trkpt>
      <trkpt lat="44.437698684632778" lon="8.700954113155603">
        <ele>669.22000000000003</ele>
        <time>2018-04-15T12:10:44Z</time>
      </trkpt>
      <trkpt lat="44.437703881412745" lon="8.700958136469126">
        <ele>669.22000000000003</ele>
        <time>2018-04-15T12:10:45Z</time>
      </trkpt>
      <trkpt lat="44.437727266922593" lon="8.70099451392889">
        <ele>667.28999999999996</ele>
        <time>2018-04-15T12:10:49Z</time>
      </trkpt>
      <trkpt lat="44.437731290236115" lon="8.701004404574633">
        <ele>666.80999999999995</ele>
        <time>2018-04-15T12:10:50Z</time>
      </trkpt>
      <trkpt lat="44.437754591926932" lon="8.701053941622376">
        <ele>662.00999999999999</ele>
        <time>2018-04-15T12:10:57Z</time>
      </trkpt>
      <trkpt lat="44.437762219458818" lon="8.701055115088821">
        <ele>662.49000000000001</ele>
        <time>2018-04-15T12:10:58Z</time>
      </trkpt>
      <trkpt lat="44.437766661867499" lon="8.701061150059104">
        <ele>663.45000000000005</ele>
        <time>2018-04-15T12:11:02Z</time>
      </trkpt>
      <trkpt lat="44.437747383490205" lon="8.701092414557934">
        <ele>662.00999999999999</ele>
        <time>2018-04-15T12:11:05Z</time>
      </trkpt>
      <trkpt lat="44.437749898061156" lon="8.701099287718535">
        <ele>662.00999999999999</ele>
        <time>2018-04-15T12:11:06Z</time>
      </trkpt>
      <trkpt lat="44.437760878354311" lon="8.701119320467114">
        <ele>660.08000000000004</ele>
        <time>2018-04-15T12:11:08Z</time>
      </trkpt>
      <trkpt lat="44.437762973830104" lon="8.70121244341135">
        <ele>661.51999999999998</ele>
        <time>2018-04-15T12:11:14Z</time>
      </trkpt>
      <trkpt lat="44.437764147296548" lon="8.701259214431047">
        <ele>662.97000000000003</ele>
        <time>2018-04-15T12:11:17Z</time>
      </trkpt>
      <trkpt lat="44.437763392925262" lon="8.701276816427708">
        <ele>661.51999999999998</ele>
        <time>2018-04-15T12:11:18Z</time>
      </trkpt>
      <trkpt lat="44.437751993536949" lon="8.701390726491809">
        <ele>662.00999999999999</ele>
        <time>2018-04-15T12:11:27Z</time>
      </trkpt>
      <trkpt lat="44.437757274135947" lon="8.701384942978621">
        <ele>663.45000000000005</ele>
        <time>2018-04-15T12:11:37Z</time>
      </trkpt>
      <trkpt lat="44.437753083184361" lon="8.701489884406328">
        <ele>659.60000000000002</ele>
        <time>2018-04-15T12:11:44Z</time>
      </trkpt>
      <trkpt lat="44.437752328813076" lon="8.70150807313621">
        <ele>659.12</ele>
        <time>2018-04-15T12:11:45Z</time>
      </trkpt>
      <trkpt lat="44.437737241387367" lon="8.701553167775273">
        <ele>662.49000000000001</ele>
        <time>2018-04-15T12:11:48Z</time>
      </trkpt>
      <trkpt lat="44.437704300507903" lon="8.701693899929524">
        <ele>657.67999999999995</ele>
        <time>2018-04-15T12:11:57Z</time>
      </trkpt>
      <trkpt lat="44.437680914998055" lon="8.701795656234026">
        <ele>659.12</ele>
        <time>2018-04-15T12:12:03Z</time>
      </trkpt>
      <trkpt lat="44.437683681026101" lon="8.701953487470746">
        <ele>653.35000000000002</ele>
        <time>2018-04-15T12:12:14Z</time>
      </trkpt>
      <trkpt lat="44.437680328264832" lon="8.701953152194619">
        <ele>654.30999999999995</ele>
        <time>2018-04-15T12:12:15Z</time>
      </trkpt>
      <trkpt lat="44.437678903341293" lon="8.702019369229674">
        <ele>655.75999999999999</ele>
        <time>2018-04-15T12:12:20Z</time>
      </trkpt>
      <trkpt lat="44.437650656327605" lon="8.702130345627666">
        <ele>655.75999999999999</ele>
        <time>2018-04-15T12:12:31Z</time>
      </trkpt>
      <trkpt lat="44.437653589993715" lon="8.702146606519818">
        <ele>660.08000000000004</ele>
        <time>2018-04-15T12:12:34Z</time>
      </trkpt>
      <trkpt lat="44.437654595822096" lon="8.702151803299785">
        <ele>660.08000000000004</ele>
        <time>2018-04-15T12:12:35Z</time>
      </trkpt>
      <trkpt lat="44.437656942754984" lon="8.702265378087759">
        <ele>662.00999999999999</ele>
        <time>2018-04-15T12:12:47Z</time>
      </trkpt>
      <trkpt lat="44.437657445669174" lon="8.702292200177908">
        <ele>664.40999999999997</ele>
        <time>2018-04-15T12:12:53Z</time>
      </trkpt>
      <trkpt lat="44.437657110393047" lon="8.702356908470392">
        <ele>662.97000000000003</ele>
        <time>2018-04-15T12:13:03Z</time>
      </trkpt>
      <trkpt lat="44.43765627220273" lon="8.702396051958203">
        <ele>667.28999999999996</ele>
        <time>2018-04-15T12:13:09Z</time>
      </trkpt>
      <trkpt lat="44.437654344365001" lon="8.702406445518136">
        <ele>665.37</ele>
        <time>2018-04-15T12:13:10Z</time>
      </trkpt>
      <trkpt lat="44.437654847279191" lon="8.702441733330488">
        <ele>661.03999999999996</ele>
        <time>2018-04-15T12:13:13Z</time>
      </trkpt>
      <trkpt lat="44.437661385163665" lon="8.702474841848016">
        <ele>658.63999999999999</ele>
        <time>2018-04-15T12:13:17Z</time>
      </trkpt>
      <trkpt lat="44.437666414305568" lon="8.702484229579568">
        <ele>659.60000000000002</ele>
        <time>2018-04-15T12:13:27Z</time>
      </trkpt>
      <trkpt lat="44.437666162848473" lon="8.702484900131822">
        <ele>653.35000000000002</ele>
        <time>2018-04-15T12:13:31Z</time>
      </trkpt>
      <trkpt lat="44.437669431790709" lon="8.702508704736829">
        <ele>656.72000000000003</ele>
        <time>2018-04-15T12:13:34Z</time>
      </trkpt>
      <trkpt lat="44.437671024352312" lon="8.702523121610284">
        <ele>657.67999999999995</ele>
        <time>2018-04-15T12:13:35Z</time>
      </trkpt>
      <trkpt lat="44.437671778723598" lon="8.702571652829647">
        <ele>656.24000000000001</ele>
        <time>2018-04-15T12:13:38Z</time>
      </trkpt>
      <trkpt lat="44.437654847279191" lon="8.702619597315788">
        <ele>655.27999999999997</ele>
        <time>2018-04-15T12:13:41Z</time>
      </trkpt>
      <trkpt lat="44.43758687004447" lon="8.702745158225298">
        <ele>650.95000000000005</ele>
        <time>2018-04-15T12:13:51Z</time>
      </trkpt>
      <trkpt lat="44.437515791505575" lon="8.702853703871369">
        <ele>650.47000000000003</ele>
        <time>2018-04-15T12:14:00Z</time>
      </trkpt>
      <trkpt lat="44.437507409602404" lon="8.702878849580884">
        <ele>649.02999999999997</ele>
        <time>2018-04-15T12:14:03Z</time>
      </trkpt>
      <trkpt lat="44.437496429309249" lon="8.702900391072035">
        <ele>646.62</ele>
        <time>2018-04-15T12:14:06Z</time>
      </trkpt>
      <trkpt lat="44.437472624704242" lon="8.702980019152165">
        <ele>647.59000000000003</ele>
        <time>2018-04-15T12:14:14Z</time>
      </trkpt>
      <trkpt lat="44.437427530065179" lon="8.703057216480374">
        <ele>649.02999999999997</ele>
        <time>2018-04-15T12:14:24Z</time>
      </trkpt>
      <trkpt lat="44.437405401840806" lon="8.703113375231624">
        <ele>648.07000000000005</ele>
        <time>2018-04-15T12:14:33Z</time>
      </trkpt>
      <trkpt lat="44.437401629984379" lon="8.703122260048986">
        <ele>647.10000000000002</ele>
        <time>2018-04-15T12:14:34Z</time>
      </trkpt>
      <trkpt lat="44.437398444861174" lon="8.703142628073692">
        <ele>646.13999999999999</ele>
        <time>2018-04-15T12:14:36Z</time>
      </trkpt>
      <trkpt lat="44.437390482053161" lon="8.703161990270019">
        <ele>648.54999999999995</ele>
        <time>2018-04-15T12:14:38Z</time>
      </trkpt>
      <trkpt lat="44.43737581372261" lon="8.703189482912421">
        <ele>646.13999999999999</ele>
        <time>2018-04-15T12:14:41Z</time>
      </trkpt>
      <trkpt lat="44.437373215332627" lon="8.703198283910751">
        <ele>646.62</ele>
        <time>2018-04-15T12:14:42Z</time>
      </trkpt>
      <trkpt lat="44.437350500375032" lon="8.70329543016851">
        <ele>644.22000000000003</ele>
        <time>2018-04-15T12:14:51Z</time>
      </trkpt>
      <trkpt lat="44.437305741012096" lon="8.703400958329439">
        <ele>642.77999999999997</ele>
        <time>2018-04-15T12:15:01Z</time>
      </trkpt>
      <trkpt lat="44.437295095995069" lon="8.703453848138452">
        <ele>645.65999999999997</ele>
        <time>2018-04-15T12:15:07Z</time>
      </trkpt>
      <trkpt lat="44.437293922528625" lon="8.703462649136782">
        <ele>645.65999999999997</ele>
        <time>2018-04-15T12:15:08Z</time>
      </trkpt>
      <trkpt lat="44.437280595302582" lon="8.703534146770835">
        <ele>645.17999999999995</ele>
        <time>2018-04-15T12:15:17Z</time>
      </trkpt>
      <trkpt lat="44.437267268076539" lon="8.703592987731099">
        <ele>641.34000000000003</ele>
        <time>2018-04-15T12:15:24Z</time>
      </trkpt>
      <trkpt lat="44.437266513705254" lon="8.703605979681015">
        <ele>641.82000000000005</ele>
        <time>2018-04-15T12:15:25Z</time>
      </trkpt>
      <trkpt lat="44.4372624065727" lon="8.703667670488358">
        <ele>640.86000000000001</ele>
        <time>2018-04-15T12:15:30Z</time>
      </trkpt>
      <trkpt lat="44.437257880344987" lon="8.703674292191863">
        <ele>640.38</ele>
        <time>2018-04-15T12:15:31Z</time>
      </trkpt>
      <trkpt lat="44.437249749898911" lon="8.70371762663126">
        <ele>641.34000000000003</ele>
        <time>2018-04-15T12:15:35Z</time>
      </trkpt>
      <trkpt lat="44.437199709936976" lon="8.703834721818566">
        <ele>645.17999999999995</ele>
        <time>2018-04-15T12:15:47Z</time>
      </trkpt>
      <trkpt lat="44.437199709936976" lon="8.703841511160135">
        <ele>643.25999999999999</ele>
        <time>2018-04-15T12:15:48Z</time>
      </trkpt>
      <trkpt lat="44.437195099890232" lon="8.703863052651286">
        <ele>641.82000000000005</ele>
        <time>2018-04-15T12:15:50Z</time>
      </trkpt>
      <trkpt lat="44.437189903110266" lon="8.703928515315056">
        <ele>639.88999999999999</ele>
        <time>2018-04-15T12:15:56Z</time>
      </trkpt>
      <trkpt lat="44.437180263921618" lon="8.7039555888623">
        <ele>637.97000000000003</ele>
        <time>2018-04-15T12:15:59Z</time>
      </trkpt>
      <trkpt lat="44.437180515378714" lon="8.703983835875988">
        <ele>641.34000000000003</ele>
        <time>2018-04-15T12:16:02Z</time>
      </trkpt>
      <trkpt lat="44.437174145132303" lon="8.704007640480995">
        <ele>642.77999999999997</ele>
        <time>2018-04-15T12:16:04Z</time>
      </trkpt>
      <trkpt lat="44.437171882018447" lon="8.70403035543859">
        <ele>638.92999999999995</ele>
        <time>2018-04-15T12:16:06Z</time>
      </trkpt>
      <trkpt lat="44.43717104382813" lon="8.704037144780159">
        <ele>638.92999999999995</ele>
        <time>2018-04-15T12:16:07Z</time>
      </trkpt>
      <trkpt lat="44.437165427953005" lon="8.704088693484664">
        <ele>638.92999999999995</ele>
        <time>2018-04-15T12:16:15Z</time>
      </trkpt>
      <trkpt lat="44.437168529257178" lon="8.704127250239253">
        <ele>642.29999999999995</ele>
        <time>2018-04-15T12:16:22Z</time>
      </trkpt>
      <trkpt lat="44.43717154674232" lon="8.704137727618218">
        <ele>641.82000000000005</ele>
        <time>2018-04-15T12:16:23Z</time>
      </trkpt>
      <trkpt lat="44.437167691066861" lon="8.704159772023559">
        <ele>639.88999999999999</ele>
        <time>2018-04-15T12:16:25Z</time>
      </trkpt>
      <trkpt lat="44.437166936695576" lon="8.704223139211536">
        <ele>639.40999999999997</ele>
        <time>2018-04-15T12:16:34Z</time>
      </trkpt>
      <trkpt lat="44.437167523428798" lon="8.704238729551435">
        <ele>634.61000000000001</ele>
        <time>2018-04-15T12:16:37Z</time>
      </trkpt>
      <trkpt lat="44.437166769057512" lon="8.704242585226893">
        <ele>637.00999999999999</ele>
        <time>2018-04-15T12:16:38Z</time>
      </trkpt>
      <trkpt lat="44.437171295285225" lon="8.704286003485322">
        <ele>641.34000000000003</ele>
        <time>2018-04-15T12:16:45Z</time>
      </trkpt>
      <trkpt lat="44.437165763229132" lon="8.704373678192496">
        <ele>640.86000000000001</ele>
        <time>2018-04-15T12:16:54Z</time>
      </trkpt>
      <trkpt lat="44.437148747965693" lon="8.704439559951425">
        <ele>640.38</ele>
        <time>2018-04-15T12:17:03Z</time>
      </trkpt>
      <trkpt lat="44.437150759622455" lon="8.704450456425548">
        <ele>640.38</ele>
        <time>2018-04-15T12:17:04Z</time>
      </trkpt>
      <trkpt lat="44.437137013301253" lon="8.704597223550081">
        <ele>633.64999999999998</ele>
        <time>2018-04-15T12:17:17Z</time>
      </trkpt>
      <trkpt lat="44.437138773500919" lon="8.704606108367443">
        <ele>633.16999999999996</ele>
        <time>2018-04-15T12:17:18Z</time>
      </trkpt>
      <trkpt lat="44.437138605862856" lon="8.704619770869613">
        <ele>636.52999999999997</ele>
        <time>2018-04-15T12:17:20Z</time>
      </trkpt>
      <trkpt lat="44.437138186767697" lon="8.704638294875622">
        <ele>638.45000000000005</ele>
        <time>2018-04-15T12:17:23Z</time>
      </trkpt>
      <trkpt lat="44.437133492901921" lon="8.704669727012515">
        <ele>634.61000000000001</ele>
        <time>2018-04-15T12:17:27Z</time>
      </trkpt>
      <trkpt lat="44.437128296121955" lon="8.704675007611513">
        <ele>635.09000000000003</ele>
        <time>2018-04-15T12:17:28Z</time>
      </trkpt>
      <trkpt lat="44.437112454324961" lon="8.704681796953082">
        <ele>636.04999999999995</ele>
        <time>2018-04-15T12:17:30Z</time>
      </trkpt>
      <trkpt lat="44.437105664983392" lon="8.704693447798491">
        <ele>635.09000000000003</ele>
        <time>2018-04-15T12:17:32Z</time>
      </trkpt>
      <trkpt lat="44.437080351635814" lon="8.704739464446902">
        <ele>633.16999999999996</ele>
        <time>2018-04-15T12:17:39Z</time>
      </trkpt>
      <trkpt lat="44.437061659991741" lon="8.70474616996944">
        <ele>632.67999999999995</ele>
        <time>2018-04-15T12:17:42Z</time>
      </trkpt>
      <trkpt lat="44.437011033296585" lon="8.704808531329036">
        <ele>634.61000000000001</ele>
        <time>2018-04-15T12:17:51Z</time>
      </trkpt>
      <trkpt lat="44.436977338045835" lon="8.704847926273942">
        <ele>631.24000000000001</ele>
        <time>2018-04-15T12:17:56Z</time>
      </trkpt>
      <trkpt lat="44.436959568411112" lon="8.70485664345324">
        <ele>630.27999999999997</ele>
        <time>2018-04-15T12:17:58Z</time>
      </trkpt>
      <trkpt lat="44.436903325840831" lon="8.704908443614841">
        <ele>629.79999999999995</ele>
        <time>2018-04-15T12:18:07Z</time>
      </trkpt>
      <trkpt lat="44.43689251318574" lon="8.704949179664254">
        <ele>628.36000000000001</ele>
        <time>2018-04-15T12:18:16Z</time>
      </trkpt>
      <trkpt lat="44.436883796006441" lon="8.704963764175773">
        <ele>624.99000000000001</ele>
        <time>2018-04-15T12:18:18Z</time>
      </trkpt>
      <trkpt lat="44.43687004968524" lon="8.704978600144386">
        <ele>620.66999999999996</ele>
        <time>2018-04-15T12:18:21Z</time>
      </trkpt>
      <trkpt lat="44.436864601448178" lon="8.704983210191131">
        <ele>620.66999999999996</ele>
        <time>2018-04-15T12:18:22Z</time>
      </trkpt>
      <trkpt lat="44.436846664175391" lon="8.705003159120679">
        <ele>621.63</ele>
        <time>2018-04-15T12:18:26Z</time>
      </trkpt>
      <trkpt lat="44.436830068007112" lon="8.705048924311996">
        <ele>617.29999999999995</ele>
        <time>2018-04-15T12:18:30Z</time>
      </trkpt>
      <trkpt lat="44.436823697760701" lon="8.705061664804816">
        <ele>616.34000000000003</ele>
        <time>2018-04-15T12:18:32Z</time>
      </trkpt>
      <trkpt lat="44.436813723295927" lon="8.705091252923012">
        <ele>611.05999999999995</ele>
        <time>2018-04-15T12:18:36Z</time>
      </trkpt>
      <trkpt lat="44.436805257573724" lon="8.705122182145715">
        <ele>616.34000000000003</ele>
        <time>2018-04-15T12:18:39Z</time>
      </trkpt>
      <trkpt lat="44.436779022216797" lon="8.705136179924011">
        <ele>615.86000000000001</ele>
        <time>2018-04-15T12:18:43Z</time>
      </trkpt>
      <trkpt lat="44.436713811010122" lon="8.705206923186779">
        <ele>613.94000000000005</ele>
        <time>2018-04-15T12:18:56Z</time>
      </trkpt>
      <trkpt lat="44.436695957556367" lon="8.705243552103639">
        <ele>612.5</ele>
        <time>2018-04-15T12:19:00Z</time>
      </trkpt>
      <trkpt lat="44.436680367216468" lon="8.705290490761399">
        <ele>612.5</ele>
        <time>2018-04-15T12:19:05Z</time>
      </trkpt>
      <trkpt lat="44.436647174879909" lon="8.705379758030176">
        <ele>610.57000000000005</ele>
        <time>2018-04-15T12:19:15Z</time>
      </trkpt>
      <trkpt lat="44.436633596196771" lon="8.705416386947036">
        <ele>612.5</ele>
        <time>2018-04-15T12:19:20Z</time>
      </trkpt>
      <trkpt lat="44.436636697500944" lon="8.705428875982761">
        <ele>609.13</ele>
        <time>2018-04-15T12:19:21Z</time>
      </trkpt>
      <trkpt lat="44.43663845770061" lon="8.705435581505299">
        <ele>606.25</ele>
        <time>2018-04-15T12:19:22Z</time>
      </trkpt>
      <trkpt lat="44.43663845770061" lon="8.705440610647202">
        <ele>609.61000000000001</ele>
        <time>2018-04-15T12:19:23Z</time>
      </trkpt>
      <trkpt lat="44.436601577326655" lon="8.705529291182756">
        <ele>608.16999999999996</ele>
        <time>2018-04-15T12:19:34Z</time>
      </trkpt>
      <trkpt lat="44.436530498787761" lon="8.705598190426827">
        <ele>604.80999999999995</ele>
        <time>2018-04-15T12:19:44Z</time>
      </trkpt>
      <trkpt lat="44.436523457989097" lon="8.705607326701284">
        <ele>604.33000000000004</ele>
        <time>2018-04-15T12:19:45Z</time>
      </trkpt>
      <trkpt lat="44.436477776616812" lon="8.70564772747457">
        <ele>601.44000000000005</ele>
        <time>2018-04-15T12:19:54Z</time>
      </trkpt>
      <trkpt lat="44.436436202377081" lon="8.705722745507956">
        <ele>600</ele>
        <time>2018-04-15T12:20:03Z</time>
      </trkpt>
      <trkpt lat="44.436391778290272" lon="8.70576398447156">
        <ele>596.63999999999999</ele>
        <time>2018-04-15T12:20:10Z</time>
      </trkpt>
      <trkpt lat="44.436374260112643" lon="8.705766415223479">
        <ele>595.66999999999996</ele>
        <time>2018-04-15T12:20:12Z</time>
      </trkpt>
      <trkpt lat="44.436364453285933" lon="8.705770270898938">
        <ele>598.08000000000004</ele>
        <time>2018-04-15T12:20:13Z</time>
      </trkpt>
      <trkpt lat="44.43634232506156" lon="8.705763816833496">
        <ele>596.14999999999998</ele>
        <time>2018-04-15T12:20:16Z</time>
      </trkpt>
      <trkpt lat="44.436334194615483" lon="8.705784101039171">
        <ele>595.66999999999996</ele>
        <time>2018-04-15T12:20:20Z</time>
      </trkpt>
      <trkpt lat="44.436325058341026" lon="8.705841768532991">
        <ele>594.23000000000002</ele>
        <time>2018-04-15T12:20:26Z</time>
      </trkpt>
      <trkpt lat="44.436312736943364" lon="8.705887533724308">
        <ele>595.19000000000005</ele>
        <time>2018-04-15T12:20:31Z</time>
      </trkpt>
      <trkpt lat="44.436307121068239" lon="8.705931706354022">
        <ele>593.75</ele>
        <time>2018-04-15T12:20:35Z</time>
      </trkpt>
      <trkpt lat="44.43628516048193" lon="8.705958444625139">
        <ele>591.83000000000004</ele>
        <time>2018-04-15T12:20:39Z</time>
      </trkpt>
      <trkpt lat="44.436227409169078" lon="8.70601762086153">
        <ele>589.90999999999997</ele>
        <time>2018-04-15T12:20:48Z</time>
      </trkpt>
      <trkpt lat="44.43618256598711" lon="8.706059865653515">
        <ele>590.38999999999999</ele>
        <time>2018-04-15T12:20:55Z</time>
      </trkpt>
      <trkpt lat="44.436137471348047" lon="8.706095488741994">
        <ele>587.01999999999998</ele>
        <time>2018-04-15T12:21:00Z</time>
      </trkpt>
      <trkpt lat="44.43611660040915" lon="8.706119880080223">
        <ele>588.46000000000004</ele>
        <time>2018-04-15T12:21:03Z</time>
      </trkpt>
      <trkpt lat="44.436084749177098" lon="8.706146534532309">
        <ele>585.58000000000004</ele>
        <time>2018-04-15T12:21:07Z</time>
      </trkpt>
      <trkpt lat="44.436068488284945" lon="8.706155670806766">
        <ele>585.10000000000002</ele>
        <time>2018-04-15T12:21:09Z</time>
      </trkpt>
      <trkpt lat="44.436020040884614" lon="8.70619255118072">
        <ele>581.73000000000002</ele>
        <time>2018-04-15T12:21:16Z</time>
      </trkpt>
      <trkpt lat="44.435968575999141" lon="8.706233287230134">
        <ele>578.37</ele>
        <time>2018-04-15T12:21:23Z</time>
      </trkpt>
      <trkpt lat="44.435958182439208" lon="8.706241501495242">
        <ele>578.37</ele>
        <time>2018-04-15T12:21:24Z</time>
      </trkpt>
      <trkpt lat="44.435896323993802" lon="8.706270670518279">
        <ele>579.33000000000004</ele>
        <time>2018-04-15T12:21:34Z</time>
      </trkpt>
      <trkpt lat="44.435871513560414" lon="8.706272430717945">
        <ele>577.88999999999999</ele>
        <time>2018-04-15T12:21:37Z</time>
      </trkpt>
      <trkpt lat="44.435889031738043" lon="8.706261701881886">
        <ele>576.92999999999995</ele>
        <time>2018-04-15T12:21:45Z</time>
      </trkpt>
      <trkpt lat="44.435866484418511" lon="8.706259438768029">
        <ele>575.97000000000003</ele>
        <time>2018-04-15T12:21:49Z</time>
      </trkpt>
      <trkpt lat="44.435755172744393" lon="8.706283327192068">
        <ele>575.00999999999999</ele>
        <time>2018-04-15T12:22:00Z</time>
      </trkpt>
      <trkpt lat="44.435723656788468" lon="8.706313166767359">
        <ele>573.08000000000004</ele>
        <time>2018-04-15T12:22:04Z</time>
      </trkpt>
      <trkpt lat="44.435703624039888" lon="8.706330098211765">
        <ele>572.60000000000002</ele>
        <time>2018-04-15T12:22:06Z</time>
      </trkpt>
      <trkpt lat="44.435667498037219" lon="8.706375444307923">
        <ele>570.20000000000005</ele>
        <time>2018-04-15T12:22:11Z</time>
      </trkpt>
      <trkpt lat="44.435561802238226" lon="8.706443924456835">
        <ele>569.24000000000001</ele>
        <time>2018-04-15T12:22:22Z</time>
      </trkpt>
      <trkpt lat="44.435549397021532" lon="8.706465130671859">
        <ele>568.27999999999997</ele>
        <time>2018-04-15T12:22:24Z</time>
      </trkpt>
      <trkpt lat="44.435509331524372" lon="8.706529587507248">
        <ele>567.79999999999995</ele>
        <time>2018-04-15T12:22:30Z</time>
      </trkpt>
      <trkpt lat="44.435457279905677" lon="8.706579795107245">
        <ele>565.87</ele>
        <time>2018-04-15T12:22:37Z</time>
      </trkpt>
      <trkpt lat="44.435389805585146" lon="8.706687837839127">
        <ele>563.47000000000003</ele>
        <time>2018-04-15T12:22:47Z</time>
      </trkpt>
      <trkpt lat="44.435366336256266" lon="8.706760257482529">
        <ele>560.59000000000003</ele>
        <time>2018-04-15T12:22:53Z</time>
      </trkpt>
      <trkpt lat="44.435344627127051" lon="8.706822283565998">
        <ele>557.70000000000005</ele>
        <time>2018-04-15T12:23:01Z</time>
      </trkpt>
      <trkpt lat="44.435356445610523" lon="8.706815997138619">
        <ele>556.74000000000001</ele>
        <time>2018-04-15T12:23:06Z</time>
      </trkpt>
      <trkpt lat="44.435341274365783" lon="8.706850446760654">
        <ele>556.25999999999999</ele>
        <time>2018-04-15T12:23:17Z</time>
      </trkpt>
      <trkpt lat="44.435265837237239" lon="8.706922614946961">
        <ele>553.86000000000001</ele>
        <time>2018-04-15T12:23:26Z</time>
      </trkpt>
      <trkpt lat="44.435222167521715" lon="8.706998638808727">
        <ele>551.45000000000005</ele>
        <time>2018-04-15T12:23:36Z</time>
      </trkpt>
      <trkpt lat="44.435177408158779" lon="8.707070304080844">
        <ele>549.04999999999995</ele>
        <time>2018-04-15T12:23:44Z</time>
      </trkpt>
      <trkpt lat="44.435173133388162" lon="8.707076339051127">
        <ele>549.04999999999995</ele>
        <time>2018-04-15T12:23:45Z</time>
      </trkpt>
      <trkpt lat="44.435156201943755" lon="8.707095868885517">
        <ele>550.00999999999999</ele>
        <time>2018-04-15T12:23:48Z</time>
      </trkpt>
      <trkpt lat="44.435105659067631" lon="8.707124786451459">
        <ele>549.04999999999995</ele>
        <time>2018-04-15T12:23:55Z</time>
      </trkpt>
      <trkpt lat="44.435090068727732" lon="8.707127971574664">
        <ele>549.52999999999997</ele>
        <time>2018-04-15T12:23:57Z</time>
      </trkpt>
      <trkpt lat="44.435057044029236" lon="8.707136185839772">
        <ele>549.04999999999995</ele>
        <time>2018-04-15T12:24:00Z</time>
      </trkpt>
      <trkpt lat="44.435023600235581" lon="8.707164851948619">
        <ele>547.13</ele>
        <time>2018-04-15T12:24:04Z</time>
      </trkpt>
      <trkpt lat="44.435014463961124" lon="8.707182705402374">
        <ele>547.13</ele>
        <time>2018-04-15T12:24:06Z</time>
      </trkpt>
      <trkpt lat="44.434986971318722" lon="8.707225201651454">
        <ele>544.72000000000003</ele>
        <time>2018-04-15T12:24:12Z</time>
      </trkpt>
      <trkpt lat="44.434975069016218" lon="8.707269374281168">
        <ele>545.69000000000005</ele>
        <time>2018-04-15T12:24:17Z</time>
      </trkpt>
      <trkpt lat="44.434934835880995" lon="8.707327041774988">
        <ele>541.84000000000003</ele>
        <time>2018-04-15T12:24:24Z</time>
      </trkpt>
      <trkpt lat="44.434934500604868" lon="8.707366017624736">
        <ele>542.79999999999995</ele>
        <time>2018-04-15T12:24:28Z</time>
      </trkpt>
      <trkpt lat="44.434916730970144" lon="8.707440281286836">
        <ele>546.16999999999996</ele>
        <time>2018-04-15T12:24:34Z</time>
      </trkpt>
      <trkpt lat="44.434915808960795" lon="8.707459894940257">
        <ele>544.72000000000003</ele>
        <time>2018-04-15T12:24:38Z</time>
      </trkpt>
      <trkpt lat="44.434890579432249" lon="8.707536002621055">
        <ele>543.75999999999999</ele>
        <time>2018-04-15T12:24:48Z</time>
      </trkpt>
      <trkpt lat="44.434866104274988" lon="8.70758805423975">
        <ele>540.39999999999998</ele>
        <time>2018-04-15T12:24:54Z</time>
      </trkpt>
      <trkpt lat="44.434860991314054" lon="8.707594927400351">
        <ele>540.39999999999998</ele>
        <time>2018-04-15T12:24:55Z</time>
      </trkpt>
      <trkpt lat="44.434842132031918" lon="8.707656785845757">
        <ele>537.02999999999997</ele>
        <time>2018-04-15T12:25:02Z</time>
      </trkpt>
      <trkpt lat="44.434825116768479" lon="8.707697102800012">
        <ele>534.63</ele>
        <time>2018-04-15T12:25:07Z</time>
      </trkpt>
      <trkpt lat="44.434808604419231" lon="8.707779916003346">
        <ele>533.66999999999996</ele>
        <time>2018-04-15T12:25:15Z</time>
      </trkpt>
      <trkpt lat="44.434814220294356" lon="8.707811431959271">
        <ele>534.14999999999998</ele>
        <time>2018-04-15T12:25:18Z</time>
      </trkpt>
      <trkpt lat="44.434814304113388" lon="8.707839930430055">
        <ele>533.66999999999996</ele>
        <time>2018-04-15T12:25:20Z</time>
      </trkpt>
      <trkpt lat="44.434770969673991" lon="8.707887791097164">
        <ele>535.11000000000001</ele>
        <time>2018-04-15T12:25:27Z</time>
      </trkpt>
      <trkpt lat="44.434752864763141" lon="8.707929532974958">
        <ele>532.71000000000004</ele>
        <time>2018-04-15T12:25:32Z</time>
      </trkpt>
      <trkpt lat="44.434750014916062" lon="8.70793741196394">
        <ele>532.23000000000002</ele>
        <time>2018-04-15T12:25:33Z</time>
      </trkpt>
      <trkpt lat="44.43473475985229" lon="8.708054004237056">
        <ele>528.38</ele>
        <time>2018-04-15T12:25:44Z</time>
      </trkpt>
      <trkpt lat="44.434737274423242" lon="8.708066241815686">
        <ele>528.38</ele>
        <time>2018-04-15T12:25:45Z</time>
      </trkpt>
      <trkpt lat="44.434742890298367" lon="8.708152323961258">
        <ele>526.46000000000004</ele>
        <time>2018-04-15T12:25:54Z</time>
      </trkpt>
      <trkpt lat="44.434756385162473" lon="8.708199178799987">
        <ele>525.01999999999998</ele>
        <time>2018-04-15T12:25:59Z</time>
      </trkpt>
      <trkpt lat="44.434770215302706" lon="8.708326080814004">
        <ele>522.13</ele>
        <time>2018-04-15T12:26:10Z</time>
      </trkpt>
      <trkpt lat="44.434770131483674" lon="8.708337647840381">
        <ele>520.69000000000005</ele>
        <time>2018-04-15T12:26:11Z</time>
      </trkpt>
      <trkpt lat="44.434788152575493" lon="8.708358267322183">
        <ele>519.73000000000002</ele>
        <time>2018-04-15T12:26:22Z</time>
      </trkpt>
      <trkpt lat="44.434813717380166" lon="8.708348209038377">
        <ele>521.16999999999996</ele>
        <time>2018-04-15T12:26:31Z</time>
      </trkpt>
      <trkpt lat="44.434813214465976" lon="8.708391040563583">
        <ele>520.21000000000004</ele>
        <time>2018-04-15T12:26:38Z</time>
      </trkpt>
      <trkpt lat="44.434801395982504" lon="8.70846320874989">
        <ele>518.28999999999996</ele>
        <time>2018-04-15T12:26:47Z</time>
      </trkpt>
      <trkpt lat="44.43479728884995" lon="8.708532610908151">
        <ele>517.33000000000004</ele>
        <time>2018-04-15T12:26:53Z</time>
      </trkpt>
      <trkpt lat="44.434764431789517" lon="8.70867476798594">
        <ele>516.85000000000002</ele>
        <time>2018-04-15T12:27:04Z</time>
      </trkpt>
      <trkpt lat="44.434768538922071" lon="8.708720533177257">
        <ele>515.39999999999998</ele>
        <time>2018-04-15T12:27:07Z</time>
      </trkpt>
      <trkpt lat="44.43476602435112" lon="8.708734530955553">
        <ele>515.39999999999998</ele>
        <time>2018-04-15T12:27:08Z</time>
      </trkpt>
      <trkpt lat="44.434744650498033" lon="8.70886922813952">
        <ele>512.51999999999998</ele>
        <time>2018-04-15T12:27:21Z</time>
      </trkpt>
      <trkpt lat="44.434744985774159" lon="8.708937037736177">
        <ele>509.16000000000003</ele>
        <time>2018-04-15T12:27:28Z</time>
      </trkpt>
      <trkpt lat="44.434732496738434" lon="8.708951873704791">
        <ele>509.16000000000003</ele>
        <time>2018-04-15T12:27:31Z</time>
      </trkpt>
      <trkpt lat="44.434682792052627" lon="8.709010211750865">
        <ele>508.67000000000002</ele>
        <time>2018-04-15T12:27:38Z</time>
      </trkpt>
      <trkpt lat="44.434619257226586" lon="8.709080955013633">
        <ele>506.26999999999998</ele>
        <time>2018-04-15T12:27:49Z</time>
      </trkpt>
      <trkpt lat="44.434612803161144" lon="8.709087409079075">
        <ele>506.26999999999998</ele>
        <time>2018-04-15T12:27:50Z</time>
      </trkpt>
      <trkpt lat="44.434598302468657" lon="8.709099646657705">
        <ele>506.26999999999998</ele>
        <time>2018-04-15T12:27:52Z</time>
      </trkpt>
      <trkpt lat="44.434582712128758" lon="8.709109034389257">
        <ele>505.79000000000002</ele>
        <time>2018-04-15T12:27:54Z</time>
      </trkpt>
      <trkpt lat="44.434501910582185" lon="8.709246246144176">
        <ele>503.87</ele>
        <time>2018-04-15T12:28:08Z</time>
      </trkpt>
      <trkpt lat="44.434480285272002" lon="8.709300477057695">
        <ele>503.87</ele>
        <time>2018-04-15T12:28:13Z</time>
      </trkpt>
      <trkpt lat="44.434464611113071" lon="8.709315564483404">
        <ele>505.31</ele>
        <time>2018-04-15T12:28:15Z</time>
      </trkpt>
      <trkpt lat="44.434418929740787" lon="8.709351690486074">
        <ele>501.94999999999999</ele>
        <time>2018-04-15T12:28:21Z</time>
      </trkpt>
      <trkpt lat="44.434401914477348" lon="8.709367280825973">
        <ele>502.43000000000001</ele>
        <time>2018-04-15T12:28:23Z</time>
      </trkpt>
      <trkpt lat="44.434371069073677" lon="8.709396198391914">
        <ele>501.45999999999998</ele>
        <time>2018-04-15T12:28:28Z</time>
      </trkpt>
      <trkpt lat="44.434333769604564" lon="8.709490494802594">
        <ele>497.62</ele>
        <time>2018-04-15T12:28:37Z</time>
      </trkpt>
      <trkpt lat="44.434317843988538" lon="8.709526872262359">
        <ele>499.54000000000002</ele>
        <time>2018-04-15T12:28:40Z</time>
      </trkpt>
      <trkpt lat="44.434233019128442" lon="8.709560483694077">
        <ele>498.57999999999998</ele>
        <time>2018-04-15T12:28:50Z</time>
      </trkpt>
      <trkpt lat="44.434196138754487" lon="8.709607506170869">
        <ele>496.66000000000003</ele>
        <time>2018-04-15T12:29:00Z</time>
      </trkpt>
      <trkpt lat="44.434211645275354" lon="8.709647571668029">
        <ele>493.29000000000002</ele>
        <time>2018-04-15T12:29:08Z</time>
      </trkpt>
      <trkpt lat="44.434211393818259" lon="8.709654780104756">
        <ele>493.76999999999998</ele>
        <time>2018-04-15T12:29:09Z</time>
      </trkpt>
      <trkpt lat="44.434218686074018" lon="8.709775060415268">
        <ele>491.37</ele>
        <time>2018-04-15T12:29:20Z</time>
      </trkpt>
      <trkpt lat="44.434229331091046" lon="8.709810683503747">
        <ele>490.88999999999999</ele>
        <time>2018-04-15T12:29:23Z</time>
      </trkpt>
      <trkpt lat="44.434227403253317" lon="8.709860220551491">
        <ele>489.93000000000001</ele>
        <time>2018-04-15T12:29:28Z</time>
      </trkpt>
      <trkpt lat="44.434231258928776" lon="8.709884444251657">
        <ele>488.00999999999999</ele>
        <time>2018-04-15T12:29:30Z</time>
      </trkpt>
      <trkpt lat="44.434232600033283" lon="8.709944458678365">
        <ele>488.49000000000001</ele>
        <time>2018-04-15T12:29:36Z</time>
      </trkpt>
      <trkpt lat="44.434203011915088" lon="8.709981255233288">
        <ele>488.49000000000001</ele>
        <time>2018-04-15T12:29:42Z</time>
      </trkpt>
      <trkpt lat="44.434190858155489" lon="8.70999701321125">
        <ele>488.00999999999999</ele>
        <time>2018-04-15T12:29:44Z</time>
      </trkpt>
      <trkpt lat="44.43409027531743" lon="8.710043281316757">
        <ele>486.07999999999998</ele>
        <time>2018-04-15T12:29:57Z</time>
      </trkpt>
      <trkpt lat="44.434021040797234" lon="8.710097009316087">
        <ele>484.63999999999999</ele>
        <time>2018-04-15T12:30:06Z</time>
      </trkpt>
      <trkpt lat="44.433998577296734" lon="8.710211925208569">
        <ele>483.19999999999999</ele>
        <time>2018-04-15T12:30:16Z</time>
      </trkpt>
      <trkpt lat="44.433976951986551" lon="8.710288871079683">
        <ele>483.19999999999999</ele>
        <time>2018-04-15T12:30:23Z</time>
      </trkpt>
      <trkpt lat="44.43393680267036" lon="8.710379144176841">
        <ele>482.24000000000001</ele>
        <time>2018-04-15T12:30:31Z</time>
      </trkpt>
      <trkpt lat="44.433927414938807" lon="8.710434213280678">
        <ele>481.27999999999997</ele>
        <time>2018-04-15T12:30:36Z</time>
      </trkpt>
      <trkpt lat="44.433916015550494" lon="8.710588943213224">
        <ele>481.27999999999997</ele>
        <time>2018-04-15T12:30:47Z</time>
      </trkpt>
      <trkpt lat="44.433968067169189" lon="8.710723221302033">
        <ele>478.87</ele>
        <time>2018-04-15T12:31:00Z</time>
      </trkpt>
      <trkpt lat="44.433973683044314" lon="8.710788851603866">
        <ele>479.83999999999997</ele>
        <time>2018-04-15T12:31:05Z</time>
      </trkpt>
      <trkpt lat="44.433995811268687" lon="8.710885662585497">
        <ele>475.99000000000001</ele>
        <time>2018-04-15T12:31:13Z</time>
      </trkpt>
      <trkpt lat="44.4340003374964" lon="8.710895720869303">
        <ele>476.47000000000003</ele>
        <time>2018-04-15T12:31:14Z</time>
      </trkpt>
      <trkpt lat="44.434028165414929" lon="8.710944587364793">
        <ele>473.58999999999997</ele>
        <time>2018-04-15T12:31:19Z</time>
      </trkpt>
      <trkpt lat="44.434029590338469" lon="8.710955232381821">
        <ele>473.58999999999997</ele>
        <time>2018-04-15T12:31:20Z</time>
      </trkpt>
      <trkpt lat="44.434030009433627" lon="8.710966464132071">
        <ele>473.58999999999997</ele>
        <time>2018-04-15T12:31:21Z</time>
      </trkpt>
      <trkpt lat="44.434034451842308" lon="8.71111105196178">
        <ele>473.58999999999997</ele>
        <time>2018-04-15T12:31:32Z</time>
      </trkpt>
      <trkpt lat="44.434085413813591" lon="8.711169306188822">
        <ele>473.58999999999997</ele>
        <time>2018-04-15T12:31:39Z</time>
      </trkpt>
      <trkpt lat="44.434106117114425" lon="8.711205096915364">
        <ele>471.66000000000003</ele>
        <time>2018-04-15T12:31:44Z</time>
      </trkpt>
      <trkpt lat="44.434115923941135" lon="8.71126645244658">
        <ele>471.66000000000003</ele>
        <time>2018-04-15T12:31:49Z</time>
      </trkpt>
      <trkpt lat="44.434132017195225" lon="8.711399305611849">
        <ele>470.69999999999999</ele>
        <time>2018-04-15T12:32:02Z</time>
      </trkpt>
      <trkpt lat="44.434103099629283" lon="8.711414644494653">
        <ele>472.13999999999999</ele>
        <time>2018-04-15T12:32:08Z</time>
      </trkpt>
      <trkpt lat="44.434070577844977" lon="8.71143015101552">
        <ele>467.33999999999997</ele>
        <time>2018-04-15T12:32:11Z</time>
      </trkpt>
      <trkpt lat="44.434044510126114" lon="8.711437527090311">
        <ele>471.66000000000003</ele>
        <time>2018-04-15T12:32:14Z</time>
      </trkpt>
      <trkpt lat="44.434034703299403" lon="8.71143601834774">
        <ele>470.69999999999999</ele>
        <time>2018-04-15T12:32:15Z</time>
      </trkpt>
      <trkpt lat="44.434018526226282" lon="8.711429396644235">
        <ele>469.25999999999999</ele>
        <time>2018-04-15T12:32:17Z</time>
      </trkpt>
      <trkpt lat="44.433981059119105" lon="8.711463762447238">
        <ele>465.42000000000002</ele>
        <time>2018-04-15T12:32:22Z</time>
      </trkpt>
      <trkpt lat="44.433970833197236" lon="8.711469545960426">
        <ele>464.93000000000001</ele>
        <time>2018-04-15T12:32:23Z</time>
      </trkpt>
      <trkpt lat="44.433954153209925" lon="8.711479101330042">
        <ele>466.38</ele>
        <time>2018-04-15T12:32:25Z</time>
      </trkpt>
      <trkpt lat="44.433940490707755" lon="8.711488237604499">
        <ele>465.42000000000002</ele>
        <time>2018-04-15T12:32:27Z</time>
      </trkpt>
      <trkpt lat="44.433912914246321" lon="8.711497541517019">
        <ele>462.05000000000001</ele>
        <time>2018-04-15T12:32:31Z</time>
      </trkpt>
      <trkpt lat="44.433900928124785" lon="8.711501816287637">
        <ele>461.08999999999997</ele>
        <time>2018-04-15T12:32:33Z</time>
      </trkpt>
      <trkpt lat="44.433833118528128" lon="8.711541211232543">
        <ele>461.08999999999997</ele>
        <time>2018-04-15T12:32:44Z</time>
      </trkpt>
      <trkpt lat="44.433820713311434" lon="8.711557388305664">
        <ele>457.72000000000003</ele>
        <time>2018-04-15T12:32:50Z</time>
      </trkpt>
      <trkpt lat="44.433817276731133" lon="8.711572308093309">
        <ele>458.20999999999998</ele>
        <time>2018-04-15T12:32:51Z</time>
      </trkpt>
      <trkpt lat="44.433816689997911" lon="8.711591586470604">
        <ele>458.20999999999998</ele>
        <time>2018-04-15T12:32:57Z</time>
      </trkpt>
      <trkpt lat="44.433811493217945" lon="8.711614385247231">
        <ele>457.24000000000001</ele>
        <time>2018-04-15T12:33:13Z</time>
      </trkpt>
      <trkpt lat="44.433819791302085" lon="8.711566524580121">
        <ele>456.75999999999999</ele>
        <time>2018-04-15T12:33:27Z</time>
      </trkpt>
      <trkpt lat="44.433813756331801" lon="8.711548922583461">
        <ele>457.24000000000001</ele>
        <time>2018-04-15T12:33:55Z</time>
      </trkpt>
      <trkpt lat="44.433813169598579" lon="8.711549760773778">
        <ele>459.64999999999998</ele>
        <time>2018-04-15T12:33:59Z</time>
      </trkpt>
      <trkpt lat="44.433813588693738" lon="8.71154448017478">
        <ele>457.72000000000003</ele>
        <time>2018-04-15T12:34:05Z</time>
      </trkpt>
      <trkpt lat="44.433806212618947" lon="8.711565434932709">
        <ele>457.72000000000003</ele>
        <time>2018-04-15T12:34:28Z</time>
      </trkpt>
      <trkpt lat="44.433804536238313" lon="8.711570464074612">
        <ele>457.72000000000003</ele>
        <time>2018-04-15T12:34:45Z</time>
      </trkpt>
      <trkpt lat="44.433773271739483" lon="8.711556466296315">
        <ele>458.69</ele>
        <time>2018-04-15T12:34:58Z</time>
      </trkpt>
      <trkpt lat="44.433763967826962" lon="8.711505169048905">
        <ele>458.69</ele>
        <time>2018-04-15T12:35:11Z</time>
      </trkpt>
      <trkpt lat="44.433751981705427" lon="8.711527800187469">
        <ele>458.20999999999998</ele>
        <time>2018-04-15T12:35:28Z</time>
      </trkpt>
      <trkpt lat="44.433762039989233" lon="8.711540037766099">
        <ele>457.24000000000001</ele>
        <time>2018-04-15T12:35:50Z</time>
      </trkpt>
      <trkpt lat="44.433748628944159" lon="8.711512126028538">
        <ele>456.75999999999999</ele>
        <time>2018-04-15T12:36:08Z</time>
      </trkpt>
      <trkpt lat="44.433766566216946" lon="8.711504247039557">
        <ele>459.64999999999998</ele>
        <time>2018-04-15T12:36:12Z</time>
      </trkpt>
      <trkpt lat="44.433768074959517" lon="8.711505923420191">
        <ele>460.61000000000001</ele>
        <time>2018-04-15T12:36:14Z</time>
      </trkpt>
      <trkpt lat="44.433752903714776" lon="8.711508354172111">
        <ele>459.17000000000002</ele>
        <time>2018-04-15T12:36:31Z</time>
      </trkpt>
      <trkpt lat="44.433750472962856" lon="8.711508605629206">
        <ele>458.20999999999998</ele>
        <time>2018-04-15T12:36:33Z</time>
      </trkpt>
      <trkpt lat="44.433750472962856" lon="8.711500475183129">
        <ele>459.17000000000002</ele>
        <time>2018-04-15T12:36:54Z</time>
      </trkpt>
      <trkpt lat="44.433741001412272" lon="8.711499134078622">
        <ele>458.69</ele>
        <time>2018-04-15T12:37:11Z</time>
      </trkpt>
      <trkpt lat="44.433708814904094" lon="8.711535846814513">
        <ele>457.24000000000001</ele>
        <time>2018-04-15T12:37:31Z</time>
      </trkpt>
      <trkpt lat="44.433618541806936" lon="8.711569374427199">
        <ele>457.24000000000001</ele>
        <time>2018-04-15T12:37:44Z</time>
      </trkpt>
      <trkpt lat="44.433543356135488" lon="8.711555125191808">
        <ele>455.80000000000001</ele>
        <time>2018-04-15T12:37:53Z</time>
      </trkpt>
      <trkpt lat="44.433403462171555" lon="8.711528722196817">
        <ele>453.88</ele>
        <time>2018-04-15T12:38:06Z</time>
      </trkpt>
      <trkpt lat="44.433370940387249" lon="8.711522100493312">
        <ele>452.44</ele>
        <time>2018-04-15T12:38:11Z</time>
      </trkpt>
      <trkpt lat="44.433275302872062" lon="8.711521849036217">
        <ele>451.48000000000002</ele>
        <time>2018-04-15T12:38:22Z</time>
      </trkpt>
      <trkpt lat="44.433262897655368" lon="8.711528722196817">
        <ele>450.51999999999998</ele>
        <time>2018-04-15T12:38:24Z</time>
      </trkpt>
      <trkpt lat="44.43317404948175" lon="8.711630059406161">
        <ele>447.14999999999998</ele>
        <time>2018-04-15T12:38:36Z</time>
      </trkpt>
      <trkpt lat="44.433171534910798" lon="8.711639950051904">
        <ele>447.14999999999998</ele>
        <time>2018-04-15T12:38:37Z</time>
      </trkpt>
      <trkpt lat="44.433131385594606" lon="8.711733408272266">
        <ele>447.14999999999998</ele>
        <time>2018-04-15T12:38:46Z</time>
      </trkpt>
      <trkpt lat="44.433072041720152" lon="8.711810689419508">
        <ele>446.67000000000002</ele>
        <time>2018-04-15T12:38:57Z</time>
      </trkpt>
      <trkpt lat="44.43300649523735" lon="8.711898280307651">
        <ele>445.23000000000002</ele>
        <time>2018-04-15T12:39:07Z</time>
      </trkpt>
      <trkpt lat="44.432972464710474" lon="8.711918480694294">
        <ele>444.75</ele>
        <time>2018-04-15T12:39:10Z</time>
      </trkpt>
      <trkpt lat="44.432866349816322" lon="8.711970280855894">
        <ele>442.33999999999997</ele>
        <time>2018-04-15T12:39:22Z</time>
      </trkpt>
      <trkpt lat="44.432846987619996" lon="8.711980255320668">
        <ele>441.86000000000001</ele>
        <time>2018-04-15T12:39:25Z</time>
      </trkpt>
      <trkpt lat="44.432739531621337" lon="8.712059715762734">
        <ele>441.38</ele>
        <time>2018-04-15T12:39:39Z</time>
      </trkpt>
      <trkpt lat="44.432732155546546" lon="8.712028786540031">
        <ele>441.38</ele>
        <time>2018-04-15T12:39:49Z</time>
      </trkpt>
      <trkpt lat="44.432731401175261" lon="8.712027780711651">
        <ele>441.86000000000001</ele>
        <time>2018-04-15T12:39:50Z</time>
      </trkpt>
      <trkpt lat="44.432737939059734" lon="8.712027864530683">
        <ele>443.31</ele>
        <time>2018-04-15T12:40:05Z</time>
      </trkpt>
      <trkpt lat="44.432739112526178" lon="8.712032893672586">
        <ele>441.86000000000001</ele>
        <time>2018-04-15T12:40:19Z</time>
      </trkpt>
      <trkpt lat="44.432741794735193" lon="8.712020320817828">
        <ele>443.79000000000002</ele>
        <time>2018-04-15T12:40:23Z</time>
      </trkpt>
      <trkpt lat="44.432750260457397" lon="8.712015626952052">
        <ele>442.33999999999997</ele>
        <time>2018-04-15T12:40:34Z</time>
      </trkpt>
      <trkpt lat="44.432751517742872" lon="8.712016046047211">
        <ele>442.33999999999997</ele>
        <time>2018-04-15T12:40:40Z</time>
      </trkpt>
      <trkpt lat="44.432748919352889" lon="8.712026942521334">
        <ele>442.33999999999997</ele>
        <time>2018-04-15T12:40:56Z</time>
      </trkpt>
      <trkpt lat="44.432730730623007" lon="8.712073294445872">
        <ele>441.86000000000001</ele>
        <time>2018-04-15T12:41:12Z</time>
      </trkpt>
      <trkpt lat="44.43272209726274" lon="8.712077653035522">
        <ele>439.94</ele>
        <time>2018-04-15T12:41:15Z</time>
      </trkpt>
      <trkpt lat="44.432721426710486" lon="8.712082011625171">
        <ele>442.81999999999999</ele>
        <time>2018-04-15T12:41:19Z</time>
      </trkpt>
      <trkpt lat="44.432731736451387" lon="8.71207463555038">
        <ele>444.26999999999998</ele>
        <time>2018-04-15T12:41:32Z</time>
      </trkpt>
      <trkpt lat="44.432730730623007" lon="8.7120770663023">
        <ele>443.31</ele>
        <time>2018-04-15T12:41:45Z</time>
      </trkpt>
      <trkpt lat="44.432732071727514" lon="8.712077653035522">
        <ele>443.79000000000002</ele>
        <time>2018-04-15T12:41:46Z</time>
      </trkpt>
      <trkpt lat="44.432741208001971" lon="8.712062146514654">
        <ele>442.81999999999999</ele>
        <time>2018-04-15T12:41:55Z</time>
      </trkpt>
      <trkpt lat="44.432734670117497" lon="8.712021326646209">
        <ele>441.86000000000001</ele>
        <time>2018-04-15T12:42:06Z</time>
      </trkpt>
      <trkpt lat="44.432749170809984" lon="8.711949829012156">
        <ele>441.38</ele>
        <time>2018-04-15T12:42:15Z</time>
      </trkpt>
      <trkpt lat="44.432715643197298" lon="8.711951170116663">
        <ele>438.98000000000002</ele>
        <time>2018-04-15T12:42:26Z</time>
      </trkpt>
      <trkpt lat="44.432708267122507" lon="8.711958881467581">
        <ele>438.98000000000002</ele>
        <time>2018-04-15T12:42:27Z</time>
      </trkpt>
      <trkpt lat="44.432623023167253" lon="8.711979584768415">
        <ele>436.10000000000002</ele>
        <time>2018-04-15T12:42:37Z</time>
      </trkpt>
      <trkpt lat="44.432566445320845" lon="8.712003389373422">
        <ele>437.54000000000002</ele>
        <time>2018-04-15T12:42:50Z</time>
      </trkpt>
      <trkpt lat="44.432518417015672" lon="8.71203700080514">
        <ele>435.13</ele>
        <time>2018-04-15T12:43:04Z</time>
      </trkpt>
      <trkpt lat="44.432494444772601" lon="8.712067008018494">
        <ele>433.20999999999998</ele>
        <time>2018-04-15T12:43:20Z</time>
      </trkpt>
      <trkpt lat="44.432478854432702" lon="8.712058793753386">
        <ele>433.20999999999998</ele>
        <time>2018-04-15T12:43:31Z</time>
      </trkpt>
      <trkpt lat="44.432450355961919" lon="8.712028954178095">
        <ele>432.25</ele>
        <time>2018-04-15T12:43:40Z</time>
      </trkpt>
      <trkpt lat="44.432398974895477" lon="8.712038341909647">
        <ele>431.29000000000002</ele>
        <time>2018-04-15T12:43:52Z</time>
      </trkpt>
      <trkpt lat="44.432367375120521" lon="8.712052339687944">
        <ele>428.39999999999998</ele>
        <time>2018-04-15T12:44:06Z</time>
      </trkpt>
      <trkpt lat="44.432331500574946" lon="8.712029289454222">
        <ele>429.37</ele>
        <time>2018-04-15T12:44:20Z</time>
      </trkpt>
      <trkpt lat="44.43233703263104" lon="8.712030630558729">
        <ele>429.37</ele>
        <time>2018-04-15T12:44:22Z</time>
      </trkpt>
      <trkpt lat="44.43228280171752" lon="8.712037587538362">
        <ele>428.39999999999998</ele>
        <time>2018-04-15T12:44:34Z</time>
      </trkpt>
      <trkpt lat="44.432232342660427" lon="8.712069690227509">
        <ele>428.39999999999998</ele>
        <time>2018-04-15T12:44:45Z</time>
      </trkpt>
      <trkpt lat="44.432187080383301" lon="8.712101625278592">
        <ele>426</ele>
        <time>2018-04-15T12:44:58Z</time>
      </trkpt>
      <trkpt lat="44.432175094261765" lon="8.71211813762784">
        <ele>426.48000000000002</ele>
        <time>2018-04-15T12:45:09Z</time>
      </trkpt>
      <trkpt lat="44.432161347940564" lon="8.712113192304969">
        <ele>425.51999999999998</ele>
        <time>2018-04-15T12:45:19Z</time>
      </trkpt>
      <trkpt lat="44.432103764265776" lon="8.712105061858892">
        <ele>424.07999999999998</ele>
        <time>2018-04-15T12:45:32Z</time>
      </trkpt>
      <trkpt lat="44.432078450918198" lon="8.712116377428174">
        <ele>426</ele>
        <time>2018-04-15T12:45:36Z</time>
      </trkpt>
      <trkpt lat="44.432024974375963" lon="8.712160969153047">
        <ele>424.07999999999998</ele>
        <time>2018-04-15T12:45:47Z</time>
      </trkpt>
      <trkpt lat="44.431947022676468" lon="8.712185947224498">
        <ele>422.16000000000003</ele>
        <time>2018-04-15T12:45:57Z</time>
      </trkpt>
      <trkpt lat="44.431921960785985" lon="8.712199525907636">
        <ele>420.70999999999998</ele>
        <time>2018-04-15T12:46:07Z</time>
      </trkpt>
      <trkpt lat="44.431875105947256" lon="8.712209416553378">
        <ele>419.75</ele>
        <time>2018-04-15T12:46:12Z</time>
      </trkpt>
      <trkpt lat="44.431774858385324" lon="8.712212014943361">
        <ele>419.75</ele>
        <time>2018-04-15T12:46:22Z</time>
      </trkpt>
      <trkpt lat="44.431693470105529" lon="8.712224839255214">
        <ele>418.79000000000002</ele>
        <time>2018-04-15T12:46:34Z</time>
      </trkpt>
      <trkpt lat="44.431603448465466" lon="8.712275046855211">
        <ele>417.35000000000002</ele>
        <time>2018-04-15T12:46:46Z</time>
      </trkpt>
      <trkpt lat="44.43155131302774" lon="8.712298348546028">
        <ele>414.47000000000003</ele>
        <time>2018-04-15T12:46:56Z</time>
      </trkpt>
      <trkpt lat="44.431450311094522" lon="8.712321734055877">
        <ele>413.01999999999998</ele>
        <time>2018-04-15T12:47:07Z</time>
      </trkpt>
      <trkpt lat="44.431378729641438" lon="8.712352998554707">
        <ele>409.66000000000003</ele>
        <time>2018-04-15T12:47:15Z</time>
      </trkpt>
      <trkpt lat="44.431298347190022" lon="8.712448049336672">
        <ele>411.57999999999998</ele>
        <time>2018-04-15T12:47:27Z</time>
      </trkpt>
      <trkpt lat="44.431245792657137" lon="8.712523570284247">
        <ele>409.18000000000001</ele>
        <time>2018-04-15T12:47:34Z</time>
      </trkpt>
      <trkpt lat="44.431154346093535" lon="8.712636390700936">
        <ele>409.18000000000001</ele>
        <time>2018-04-15T12:47:45Z</time>
      </trkpt>
      <trkpt lat="44.431052505970001" lon="8.712756084278226">
        <ele>407.74000000000001</ele>
        <time>2018-04-15T12:47:56Z</time>
      </trkpt>
      <trkpt lat="44.430980421602726" lon="8.712846525013447">
        <ele>405.81</ele>
        <time>2018-04-15T12:48:05Z</time>
      </trkpt>
      <trkpt lat="44.430908588692546" lon="8.712978875264525">
        <ele>403.88999999999999</ele>
        <time>2018-04-15T12:48:16Z</time>
      </trkpt>
      <trkpt lat="44.430892998352647" lon="8.713119775056839">
        <ele>403.41000000000003</ele>
        <time>2018-04-15T12:48:27Z</time>
      </trkpt>
      <trkpt lat="44.430886628106236" lon="8.713174676522613">
        <ele>402.44999999999999</ele>
        <time>2018-04-15T12:48:31Z</time>
      </trkpt>
      <trkpt lat="44.430814795196056" lon="8.713284060359001">
        <ele>400.52999999999997</ele>
        <time>2018-04-15T12:48:43Z</time>
      </trkpt>
      <trkpt lat="44.430779591202736" lon="8.71329084970057">
        <ele>400.52999999999997</ele>
        <time>2018-04-15T12:48:47Z</time>
      </trkpt>
      <trkpt lat="44.430675487965345" lon="8.713328568264842">
        <ele>396.68000000000001</ele>
        <time>2018-04-15T12:48:58Z</time>
      </trkpt>
      <trkpt lat="44.430600218474865" lon="8.713366203010082">
        <ele>395.24000000000001</ele>
        <time>2018-04-15T12:49:07Z</time>
      </trkpt>
      <trkpt lat="44.430577168241143" lon="8.713387325406075">
        <ele>394.75999999999999</ele>
        <time>2018-04-15T12:49:10Z</time>
      </trkpt>
      <trkpt lat="44.430487733334303" lon="8.713476592674851">
        <ele>393.31999999999999</ele>
        <time>2018-04-15T12:49:23Z</time>
      </trkpt>
      <trkpt lat="44.43046510219574" lon="8.713490758091211">
        <ele>392.36000000000001</ele>
        <time>2018-04-15T12:49:26Z</time>
      </trkpt>
      <trkpt lat="44.430387485772371" lon="8.713585222139955">
        <ele>389.47000000000003</ele>
        <time>2018-04-15T12:49:39Z</time>
      </trkpt>
      <trkpt lat="44.430391173809767" lon="8.71359963901341">
        <ele>389.47000000000003</ele>
        <time>2018-04-15T12:49:40Z</time>
      </trkpt>
      <trkpt lat="44.430370219051838" lon="8.713692845776677">
        <ele>388.02999999999997</ele>
        <time>2018-04-15T12:49:51Z</time>
      </trkpt>
      <trkpt lat="44.430355047807097" lon="8.713707262650132">
        <ele>388.02999999999997</ele>
        <time>2018-04-15T12:49:53Z</time>
      </trkpt>
      <trkpt lat="44.430245328694582" lon="8.713750177994371">
        <ele>387.06999999999999</ele>
        <time>2018-04-15T12:50:06Z</time>
      </trkpt>
      <trkpt lat="44.430117588490248" lon="8.713845899328589">
        <ele>387.06999999999999</ele>
        <time>2018-04-15T12:50:20Z</time>
      </trkpt>
      <trkpt lat="44.430042738094926" lon="8.713994510471821">
        <ele>385.14999999999998</ele>
        <time>2018-04-15T12:50:35Z</time>
      </trkpt>
      <trkpt lat="44.43001507781446" lon="8.714011609554291">
        <ele>385.14999999999998</ele>
        <time>2018-04-15T12:50:38Z</time>
      </trkpt>
      <trkpt lat="44.42991005256772" lon="8.714143708348274">
        <ele>382.74000000000001</ele>
        <time>2018-04-15T12:50:51Z</time>
      </trkpt>
      <trkpt lat="44.429905693978071" lon="8.714155610650778">
        <ele>382.25999999999999</ele>
        <time>2018-04-15T12:50:52Z</time>
      </trkpt>
      <trkpt lat="44.429844422265887" lon="8.714284021407366">
        <ele>381.77999999999997</ele>
        <time>2018-04-15T12:51:03Z</time>
      </trkpt>
      <trkpt lat="44.429800836369395" lon="8.714326517656446">
        <ele>378.42000000000002</ele>
        <time>2018-04-15T12:51:08Z</time>
      </trkpt>
      <trkpt lat="44.429726405069232" lon="8.714404050260782">
        <ele>379.86000000000001</ele>
        <time>2018-04-15T12:51:17Z</time>
      </trkpt>
      <trkpt lat="44.429712910205126" lon="8.714462304487824">
        <ele>380.33999999999997</ele>
        <time>2018-04-15T12:51:21Z</time>
      </trkpt>
      <trkpt lat="44.429677370935678" lon="8.714552158489823">
        <ele>378.89999999999998</ele>
        <time>2018-04-15T12:51:28Z</time>
      </trkpt>
      <trkpt lat="44.4296779576689" lon="8.7147347163409">
        <ele>376.49000000000001</ele>
        <time>2018-04-15T12:51:40Z</time>
      </trkpt>
      <trkpt lat="44.429680807515979" lon="8.714746199548245">
        <ele>376.97000000000003</ele>
        <time>2018-04-15T12:51:41Z</time>
      </trkpt>
      <trkpt lat="44.429693715646863" lon="8.71488961391151">
        <ele>377.44999999999999</ele>
        <time>2018-04-15T12:51:52Z</time>
      </trkpt>
      <trkpt lat="44.429691284894943" lon="8.71505431830883">
        <ele>376.00999999999999</ele>
        <time>2018-04-15T12:52:04Z</time>
      </trkpt>
      <trkpt lat="44.429670330137014" lon="8.71520284563303">
        <ele>374.56999999999999</ele>
        <time>2018-04-15T12:52:15Z</time>
      </trkpt>
      <trkpt lat="44.429659768939018" lon="8.715246599167585">
        <ele>374.56999999999999</ele>
        <time>2018-04-15T12:52:18Z</time>
      </trkpt>
      <trkpt lat="44.429609728977084" lon="8.715435024350882">
        <ele>370.73000000000002</ele>
        <time>2018-04-15T12:52:31Z</time>
      </trkpt>
      <trkpt lat="44.429607382044196" lon="8.715449944138527">
        <ele>370.73000000000002</ele>
        <time>2018-04-15T12:52:32Z</time>
      </trkpt>
      <trkpt lat="44.42954015918076" lon="8.715562596917152">
        <ele>367.36000000000001</ele>
        <time>2018-04-15T12:52:41Z</time>
      </trkpt>
      <trkpt lat="44.429396828636527" lon="8.715762253850699">
        <ele>367.83999999999997</ele>
        <time>2018-04-15T12:52:57Z</time>
      </trkpt>
      <trkpt lat="44.429360115900636" lon="8.71590843424201">
        <ele>364</ele>
        <time>2018-04-15T12:53:06Z</time>
      </trkpt>
      <trkpt lat="44.429360367357731" lon="8.715921174734831">
        <ele>364.48000000000002</ele>
        <time>2018-04-15T12:53:07Z</time>
      </trkpt>
      <trkpt lat="44.42935349419713" lon="8.71595336124301">
        <ele>366.88</ele>
        <time>2018-04-15T12:53:09Z</time>
      </trkpt>
      <trkpt lat="44.429312003776431" lon="8.716154275462031">
        <ele>365.92000000000002</ele>
        <time>2018-04-15T12:53:22Z</time>
      </trkpt>
      <trkpt lat="44.42927629686892" lon="8.71625829488039">
        <ele>364.95999999999998</ele>
        <time>2018-04-15T12:53:31Z</time>
      </trkpt>
      <trkpt lat="44.42924645729363" lon="8.716386035084724">
        <ele>364.48000000000002</ele>
        <time>2018-04-15T12:53:40Z</time>
      </trkpt>
      <trkpt lat="44.429186526685953" lon="8.716498855501413">
        <ele>363.04000000000002</ele>
        <time>2018-04-15T12:53:49Z</time>
      </trkpt>
      <trkpt lat="44.429115364328027" lon="8.71665945276618">
        <ele>359.19</ele>
        <time>2018-04-15T12:54:02Z</time>
      </trkpt>
      <trkpt lat="44.429086865857244" lon="8.716817367821932">
        <ele>356.31</ele>
        <time>2018-04-15T12:54:13Z</time>
      </trkpt>
      <trkpt lat="44.429037915542722" lon="8.716906635090709">
        <ele>352.94</ele>
        <time>2018-04-15T12:54:22Z</time>
      </trkpt>
      <trkpt lat="44.428984606638551" lon="8.716988526284695">
        <ele>351.01999999999998</ele>
        <time>2018-04-15T12:54:32Z</time>
      </trkpt>
      <trkpt lat="44.428931968286633" lon="8.717176700010896">
        <ele>350.06</ele>
        <time>2018-04-15T12:54:45Z</time>
      </trkpt>
      <trkpt lat="44.428856279700994" lon="8.71732397004962">
        <ele>347.17000000000002</ele>
        <time>2018-04-15T12:54:57Z</time>
      </trkpt>
      <trkpt lat="44.428819147869945" lon="8.717361437156797">
        <ele>345.73000000000002</ele>
        <time>2018-04-15T12:55:01Z</time>
      </trkpt>
      <trkpt lat="44.42871873266995" lon="8.717459673061967">
        <ele>344.76999999999998</ele>
        <time>2018-04-15T12:55:13Z</time>
      </trkpt>
      <trkpt lat="44.428705992177129" lon="8.71746864169836">
        <ele>345.25</ele>
        <time>2018-04-15T12:55:15Z</time>
      </trkpt>
      <trkpt lat="44.428625525906682" lon="8.717516837641597">
        <ele>342.37</ele>
        <time>2018-04-15T12:55:24Z</time>
      </trkpt>
      <trkpt lat="44.428610354661942" lon="8.717581294476986">
        <ele>341.41000000000003</ele>
        <time>2018-04-15T12:55:28Z</time>
      </trkpt>
      <trkpt lat="44.428493846207857" lon="8.717681877315044">
        <ele>339</ele>
        <time>2018-04-15T12:55:41Z</time>
      </trkpt>
      <trkpt lat="44.428388988599181" lon="8.717707274481654">
        <ele>336.12</ele>
        <time>2018-04-15T12:55:52Z</time>
      </trkpt>
      <trkpt lat="44.428266193717718" lon="8.717714650556445">
        <ele>333.23000000000002</ele>
        <time>2018-04-15T12:56:03Z</time>
      </trkpt>
      <trkpt lat="44.428145326673985" lon="8.717682715505362">
        <ele>332.26999999999998</ele>
        <time>2018-04-15T12:56:16Z</time>
      </trkpt>
      <trkpt lat="44.428044576197863" lon="8.717726804316044">
        <ele>330.82999999999998</ele>
        <time>2018-04-15T12:56:27Z</time>
      </trkpt>
      <trkpt lat="44.427989087998867" lon="8.717748429626226">
        <ele>329.87</ele>
        <time>2018-04-15T12:56:32Z</time>
      </trkpt>
      <trkpt lat="44.427973497658968" lon="8.717768294736743">
        <ele>329.38999999999999</ele>
        <time>2018-04-15T12:56:34Z</time>
      </trkpt>
      <trkpt lat="44.427905855700374" lon="8.717985302209854">
        <ele>326.99000000000001</ele>
        <time>2018-04-15T12:56:50Z</time>
      </trkpt>
      <trkpt lat="44.427870567888021" lon="8.718178337439895">
        <ele>325.06</ele>
        <time>2018-04-15T12:57:02Z</time>
      </trkpt>
      <trkpt lat="44.427824886515737" lon="8.718384532257915">
        <ele>325.54000000000002</ele>
        <time>2018-04-15T12:57:15Z</time>
      </trkpt>
      <trkpt lat="44.427803177386522" lon="8.718460723757744">
        <ele>325.54000000000002</ele>
        <time>2018-04-15T12:57:20Z</time>
      </trkpt>
      <trkpt lat="44.427793119102716" lon="8.718523839488626">
        <ele>325.06</ele>
        <time>2018-04-15T12:57:24Z</time>
      </trkpt>
      <trkpt lat="44.427726063877344" lon="8.718606485053897">
        <ele>325.06</ele>
        <time>2018-04-15T12:57:32Z</time>
      </trkpt>
      <trkpt lat="44.427584996446967" lon="8.718658536672592">
        <ele>325.54000000000002</ele>
        <time>2018-04-15T12:57:45Z</time>
      </trkpt>
      <trkpt lat="44.427443258464336" lon="8.718703547492623">
        <ele>326.99000000000001</ele>
        <time>2018-04-15T12:57:59Z</time>
      </trkpt>
      <trkpt lat="44.427327839657664" lon="8.718764819204807">
        <ele>323.62</ele>
        <time>2018-04-15T12:58:11Z</time>
      </trkpt>
      <trkpt lat="44.42722256295383" lon="8.718758700415492">
        <ele>321.69999999999999</ele>
        <time>2018-04-15T12:58:24Z</time>
      </trkpt>
      <trkpt lat="44.427185012027621" lon="8.718757024034858">
        <ele>321.22000000000003</ele>
        <time>2018-04-15T12:58:36Z</time>
      </trkpt>
      <trkpt lat="44.427176881581545" lon="8.718750569969416">
        <ele>322.18000000000001</ele>
        <time>2018-04-15T12:58:50Z</time>
      </trkpt>
      <trkpt lat="44.427162716165185" lon="8.718728357926011">
        <ele>322.18000000000001</ele>
        <time>2018-04-15T12:59:11Z</time>
      </trkpt>
      <trkpt lat="44.427164392545819" lon="8.718728441745043">
        <ele>321.69999999999999</ele>
        <time>2018-04-15T12:59:24Z</time>
      </trkpt>
      <trkpt lat="44.427160872146487" lon="8.718722322955728">
        <ele>321.22000000000003</ele>
        <time>2018-04-15T12:59:41Z</time>
      </trkpt>
      <trkpt lat="44.427165649831295" lon="8.718715449795127">
        <ele>322.66000000000003</ele>
        <time>2018-04-15T12:59:53Z</time>
      </trkpt>
      <trkpt lat="44.427159950137138" lon="8.718714276328683">
        <ele>322.18000000000001</ele>
        <time>2018-04-15T13:00:08Z</time>
      </trkpt>
      <trkpt lat="44.427159363403916" lon="8.718719305470586">
        <ele>322.18000000000001</ele>
        <time>2018-04-15T13:00:22Z</time>
      </trkpt>
      <trkpt lat="44.42713413387537" lon="8.718732632696629">
        <ele>322.18000000000001</ele>
        <time>2018-04-15T13:00:30Z</time>
      </trkpt>
      <trkpt lat="44.427025085315108" lon="8.718885937705636">
        <ele>319.30000000000001</ele>
        <time>2018-04-15T13:00:42Z</time>
      </trkpt>
      <trkpt lat="44.426942020654678" lon="8.718972438946366">
        <ele>319.77999999999997</ele>
        <time>2018-04-15T13:00:51Z</time>
      </trkpt>
      <trkpt lat="44.426934393122792" lon="8.718980820849538">
        <ele>320.25999999999999</ele>
        <time>2018-04-15T13:00:52Z</time>
      </trkpt>
      <trkpt lat="44.426840012893081" lon="8.71911627240479">
        <ele>316.88999999999999</ele>
        <time>2018-04-15T13:01:03Z</time>
      </trkpt>
      <trkpt lat="44.42676960490644" lon="8.719281731173396">
        <ele>316.41000000000003</ele>
        <time>2018-04-15T13:01:14Z</time>
      </trkpt>
      <trkpt lat="44.426728030666709" lon="8.719438472762704">
        <ele>313.05000000000001</ele>
        <time>2018-04-15T13:01:23Z</time>
      </trkpt>
      <trkpt lat="44.426689390093088" lon="8.719529919326305">
        <ele>314.00999999999999</ele>
        <time>2018-04-15T13:01:29Z</time>
      </trkpt>
      <trkpt lat="44.426621496677399" lon="8.719614157453179">
        <ele>311.60000000000002</ele>
        <time>2018-04-15T13:01:37Z</time>
      </trkpt>
      <trkpt lat="44.426619233563542" lon="8.719620360061526">
        <ele>313.52999999999997</ele>
        <time>2018-04-15T13:01:41Z</time>
      </trkpt>
      <trkpt lat="44.426626777276397" lon="8.719624551013112">
        <ele>311.12</ele>
        <time>2018-04-15T13:01:52Z</time>
      </trkpt>
      <trkpt lat="44.426639517769217" lon="8.719630250707269">
        <ele>310.16000000000003</ele>
        <time>2018-04-15T13:02:07Z</time>
      </trkpt>
      <trkpt lat="44.426639266312122" lon="8.719630418345332">
        <ele>310.16000000000003</ele>
        <time>2018-04-15T13:02:08Z</time>
      </trkpt>
      <trkpt lat="44.426657874137163" lon="8.719640979543328">
        <ele>309.68000000000001</ele>
        <time>2018-04-15T13:02:34Z</time>
      </trkpt>
      <trkpt lat="44.426675727590919" lon="8.719654642045498">
        <ele>310.16000000000003</ele>
        <time>2018-04-15T13:02:50Z</time>
      </trkpt>
      <trkpt lat="44.426671369001269" lon="8.719659335911274">
        <ele>311.60000000000002</ele>
        <time>2018-04-15T13:02:54Z</time>
      </trkpt>
      <trkpt lat="44.42662593908608" lon="8.719674507156014">
        <ele>313.52999999999997</ele>
        <time>2018-04-15T13:03:06Z</time>
      </trkpt>
      <trkpt lat="44.426616216078401" lon="8.719678949564695">
        <ele>312.08999999999997</ele>
        <time>2018-04-15T13:03:09Z</time>
      </trkpt>
      <trkpt lat="44.426613785326481" lon="8.719676854088903">
        <ele>310.63999999999999</ele>
        <time>2018-04-15T13:03:12Z</time>
      </trkpt>
      <trkpt lat="44.426613785326481" lon="8.719671489670873">
        <ele>311.12</ele>
        <time>2018-04-15T13:03:29Z</time>
      </trkpt>
      <trkpt lat="44.426603307947516" lon="8.719666628167033">
        <ele>310.63999999999999</ele>
        <time>2018-04-15T13:03:45Z</time>
      </trkpt>
      <trkpt lat="44.426603307947516" lon="8.719667717814446">
        <ele>311.60000000000002</ele>
        <time>2018-04-15T13:03:47Z</time>
      </trkpt>
      <trkpt lat="44.426615796983242" lon="8.719648439437151">
        <ele>311.60000000000002</ele>
        <time>2018-04-15T13:04:05Z</time>
      </trkpt>
      <trkpt lat="44.426619987934828" lon="8.719651121646166">
        <ele>312.08999999999997</ele>
        <time>2018-04-15T13:04:21Z</time>
      </trkpt>
      <trkpt lat="44.426596518605947" lon="8.719703927636147">
        <ele>311.12</ele>
        <time>2018-04-15T13:04:31Z</time>
      </trkpt>
      <trkpt lat="44.426580844447017" lon="8.719732174649835">
        <ele>307.75999999999999</ele>
        <time>2018-04-15T13:04:37Z</time>
      </trkpt>
      <trkpt lat="44.426577659323812" lon="8.719739131629467">
        <ele>311.12</ele>
        <time>2018-04-15T13:04:44Z</time>
      </trkpt>
      <trkpt lat="44.426580592989922" lon="8.719740556553006">
        <ele>311.60000000000002</ele>
        <time>2018-04-15T13:04:45Z</time>
      </trkpt>
      <trkpt lat="44.426596770063043" lon="8.719681045040488">
        <ele>310.63999999999999</ele>
        <time>2018-04-15T13:04:59Z</time>
      </trkpt>
      <trkpt lat="44.42661521025002" lon="8.71967475861311">
        <ele>309.19999999999999</ele>
        <time>2018-04-15T13:05:13Z</time>
      </trkpt>
      <trkpt lat="44.42661470733583" lon="8.719665454700589">
        <ele>312.56999999999999</ele>
        <time>2018-04-15T13:05:18Z</time>
      </trkpt>
      <trkpt lat="44.426617976278067" lon="8.719667969271541">
        <ele>311.12</ele>
        <time>2018-04-15T13:05:26Z</time>
      </trkpt>
      <trkpt lat="44.426629627123475" lon="8.7196459248662">
        <ele>310.16000000000003</ele>
        <time>2018-04-15T13:05:43Z</time>
      </trkpt>
      <trkpt lat="44.426625436171889" lon="8.719646595418453">
        <ele>313.05000000000001</ele>
        <time>2018-04-15T13:05:58Z</time>
      </trkpt>
      <trkpt lat="44.426625771448016" lon="8.71963812969625">
        <ele>314.49000000000001</ele>
        <time>2018-04-15T13:06:01Z</time>
      </trkpt>
      <trkpt lat="44.426622251048684" lon="8.719660257920623">
        <ele>312.08999999999997</ele>
        <time>2018-04-15T13:06:18Z</time>
      </trkpt>
      <trkpt lat="44.426639769226313" lon="8.719657156616449">
        <ele>313.52999999999997</ele>
        <time>2018-04-15T13:06:34Z</time>
      </trkpt>
      <trkpt lat="44.426628118380904" lon="8.7196459248662">
        <ele>311.12</ele>
        <time>2018-04-15T13:06:52Z</time>
      </trkpt>
      <trkpt lat="44.426631554961205" lon="8.719641650095582">
        <ele>314.97000000000003</ele>
        <time>2018-04-15T13:07:03Z</time>
      </trkpt>
      <trkpt lat="44.426621999591589" lon="8.719648942351341">
        <ele>311.60000000000002</ele>
        <time>2018-04-15T13:07:15Z</time>
      </trkpt>
      <trkpt lat="44.426608085632324" lon="8.719624383375049">
        <ele>309.19999999999999</ele>
        <time>2018-04-15T13:07:31Z</time>
      </trkpt>
      <trkpt lat="44.4266093429178" lon="8.719617761671543">
        <ele>312.56999999999999</ele>
        <time>2018-04-15T13:07:48Z</time>
      </trkpt>
      <trkpt lat="44.426610851660371" lon="8.7196234613657">
        <ele>312.56999999999999</ele>
        <time>2018-04-15T13:07:49Z</time>
      </trkpt>
      <trkpt lat="44.426614958792925" lon="8.719652965664864">
        <ele>312.08999999999997</ele>
        <time>2018-04-15T13:08:05Z</time>
      </trkpt>
      <trkpt lat="44.426629291847348" lon="8.719663191586733">
        <ele>310.16000000000003</ele>
        <time>2018-04-15T13:08:28Z</time>
      </trkpt>
      <trkpt lat="44.426626274362206" lon="8.719681464135647">
        <ele>311.12</ele>
        <time>2018-04-15T13:08:40Z</time>
      </trkpt>
      <trkpt lat="44.426594171673059" lon="8.719704849645495">
        <ele>310.16000000000003</ele>
        <time>2018-04-15T13:08:58Z</time>
      </trkpt>
      <trkpt lat="44.426589226350188" lon="8.719684481620789">
        <ele>312.56999999999999</ele>
        <time>2018-04-15T13:09:11Z</time>
      </trkpt>
      <trkpt lat="44.42660297267139" lon="8.719670064747334">
        <ele>309.19999999999999</ele>
        <time>2018-04-15T13:09:24Z</time>
      </trkpt>
      <trkpt lat="44.426604062318802" lon="8.719660928472877">
        <ele>309.19999999999999</ele>
        <time>2018-04-15T13:09:25Z</time>
      </trkpt>
      <trkpt lat="44.426640272140503" lon="8.719625556841493">
        <ele>311.12</ele>
        <time>2018-04-15T13:09:34Z</time>
      </trkpt>
      <trkpt lat="44.426644630730152" lon="8.719628658145666">
        <ele>312.56999999999999</ele>
        <time>2018-04-15T13:09:45Z</time>
      </trkpt>
      <trkpt lat="44.42664454691112" lon="8.719603847712278">
        <ele>311.60000000000002</ele>
        <time>2018-04-15T13:10:00Z</time>
      </trkpt>
      <trkpt lat="44.426640355959535" lon="8.719603512436152">
        <ele>310.63999999999999</ele>
        <time>2018-04-15T13:10:17Z</time>
      </trkpt>
      <trkpt lat="44.426639350131154" lon="8.719584988430142">
        <ele>310.63999999999999</ele>
        <time>2018-04-15T13:10:34Z</time>
      </trkpt>
      <trkpt lat="44.426653096452355" lon="8.719584234058857">
        <ele>314.97000000000003</ele>
        <time>2018-04-15T13:10:41Z</time>
      </trkpt>
      <trkpt lat="44.426650162786245" lon="8.719586245715618">
        <ele>314.49000000000001</ele>
        <time>2018-04-15T13:10:42Z</time>
      </trkpt>
      <trkpt lat="44.426652593538165" lon="8.719593537971377">
        <ele>312.08999999999997</ele>
        <time>2018-04-15T13:10:46Z</time>
      </trkpt>
      <trkpt lat="44.426651420071721" lon="8.719577360898256">
        <ele>311.12</ele>
        <time>2018-04-15T13:11:03Z</time>
      </trkpt>
      <trkpt lat="44.42665577866137" lon="8.719576522707939">
        <ele>312.08999999999997</ele>
        <time>2018-04-15T13:11:13Z</time>
      </trkpt>
      <trkpt lat="44.426695089787245" lon="8.719516005367041">
        <ele>312.08999999999997</ele>
        <time>2018-04-15T13:11:21Z</time>
      </trkpt>
      <trkpt lat="44.42674906924367" lon="8.719384158030152">
        <ele>313.05000000000001</ele>
        <time>2018-04-15T13:11:32Z</time>
      </trkpt>
      <trkpt lat="44.426771029829979" lon="8.719328586012125">
        <ele>315.93000000000001</ele>
        <time>2018-04-15T13:11:37Z</time>
      </trkpt>
      <trkpt lat="44.426824087277055" lon="8.719207048416138">
        <ele>315.44999999999999</ele>
        <time>2018-04-15T13:11:47Z</time>
      </trkpt>
      <trkpt lat="44.42683657631278" lon="8.719175448641181">
        <ele>314.97000000000003</ele>
        <time>2018-04-15T13:11:50Z</time>
      </trkpt>
      <trkpt lat="44.426858788356185" lon="8.719151644036174">
        <ele>318.32999999999998</ele>
        <time>2018-04-15T13:11:56Z</time>
      </trkpt>
      <trkpt lat="44.4268580339849" lon="8.719152817502618">
        <ele>318.32999999999998</ele>
        <time>2018-04-15T13:11:57Z</time>
      </trkpt>
      <trkpt lat="44.426854010671377" lon="8.719147453084588">
        <ele>318.32999999999998</ele>
        <time>2018-04-15T13:11:58Z</time>
      </trkpt>
      <trkpt lat="44.426864823326468" lon="8.719077212736011">
        <ele>318.32999999999998</ele>
        <time>2018-04-15T13:12:04Z</time>
      </trkpt>
      <trkpt lat="44.426892399787903" lon="8.719010995700955">
        <ele>320.25999999999999</ele>
        <time>2018-04-15T13:12:16Z</time>
      </trkpt>
      <trkpt lat="44.426900362595916" lon="8.718998674303293">
        <ele>319.30000000000001</ele>
        <time>2018-04-15T13:12:18Z</time>
      </trkpt>
      <trkpt lat="44.42690690048039" lon="8.718976210802794">
        <ele>318.81</ele>
        <time>2018-04-15T13:12:35Z</time>
      </trkpt>
      <trkpt lat="44.426906146109104" lon="8.718998422846198">
        <ele>320.25999999999999</ele>
        <time>2018-04-15T13:12:56Z</time>
      </trkpt>
      <trkpt lat="44.426886951550841" lon="8.719007642939687">
        <ele>319.77999999999997</ele>
        <time>2018-04-15T13:13:09Z</time>
      </trkpt>
      <trkpt lat="44.42690446972847" lon="8.718984592705965">
        <ele>316.88999999999999</ele>
        <time>2018-04-15T13:13:13Z</time>
      </trkpt>
      <trkpt lat="44.426908493041992" lon="8.718982916325331">
        <ele>316.88999999999999</ele>
        <time>2018-04-15T13:13:14Z</time>
      </trkpt>
      <trkpt lat="44.426948307082057" lon="8.718946035951376">
        <ele>318.81</ele>
        <time>2018-04-15T13:13:24Z</time>
      </trkpt>
      <trkpt lat="44.427020391449332" lon="8.718816870823503">
        <ele>319.77999999999997</ele>
        <time>2018-04-15T13:13:33Z</time>
      </trkpt>
      <trkpt lat="44.427148215472698" lon="8.718691058456898">
        <ele>320.25999999999999</ele>
        <time>2018-04-15T13:13:45Z</time>
      </trkpt>
      <trkpt lat="44.427170595154166" lon="8.718694495037198">
        <ele>319.30000000000001</ele>
        <time>2018-04-15T13:13:47Z</time>
      </trkpt>
      <trkpt lat="44.427281403914094" lon="8.718713521957398">
        <ele>321.69999999999999</ele>
        <time>2018-04-15T13:13:58Z</time>
      </trkpt>
      <trkpt lat="44.42735449410975" lon="8.718695919960737">
        <ele>324.57999999999998</ele>
        <time>2018-04-15T13:14:05Z</time>
      </trkpt>
      <trkpt lat="44.427397577092052" lon="8.718684101477265">
        <ele>323.62</ele>
        <time>2018-04-15T13:14:09Z</time>
      </trkpt>
      <trkpt lat="44.427568903192878" lon="8.718665326014161">
        <ele>322.18000000000001</ele>
        <time>2018-04-15T13:14:22Z</time>
      </trkpt>
      <trkpt lat="44.427602766081691" lon="8.718652417883277">
        <ele>323.62</ele>
        <time>2018-04-15T13:14:25Z</time>
      </trkpt>
      <trkpt lat="44.427681555971503" lon="8.718605898320675">
        <ele>320.74000000000001</ele>
        <time>2018-04-15T13:14:33Z</time>
      </trkpt>
      <trkpt lat="44.427689267322421" lon="8.718598941341043">
        <ele>320.25999999999999</ele>
        <time>2018-04-15T13:14:34Z</time>
      </trkpt>
      <trkpt lat="44.427717514336109" lon="8.718562312424183">
        <ele>321.22000000000003</ele>
        <time>2018-04-15T13:14:38Z</time>
      </trkpt>
      <trkpt lat="44.42773025482893" lon="8.718532724305987">
        <ele>321.69999999999999</ele>
        <time>2018-04-15T13:14:40Z</time>
      </trkpt>
      <trkpt lat="44.427745677530766" lon="8.718500453978777">
        <ele>322.66000000000003</ele>
        <time>2018-04-15T13:14:43Z</time>
      </trkpt>
      <trkpt lat="44.427774678915739" lon="8.718437170609832">
        <ele>320.25999999999999</ele>
        <time>2018-04-15T13:14:48Z</time>
      </trkpt>
      <trkpt lat="44.427787503227592" lon="8.718389980494976">
        <ele>318.32999999999998</ele>
        <time>2018-04-15T13:14:51Z</time>
      </trkpt>
      <trkpt lat="44.427799573168159" lon="8.718363661319017">
        <ele>319.30000000000001</ele>
        <time>2018-04-15T13:14:53Z</time>
      </trkpt>
      <trkpt lat="44.427803931757808" lon="8.718347316607833">
        <ele>323.13999999999999</ele>
        <time>2018-04-15T13:14:54Z</time>
      </trkpt>
      <trkpt lat="44.427809128537774" lon="8.718332229182124">
        <ele>323.13999999999999</ele>
        <time>2018-04-15T13:14:55Z</time>
      </trkpt>
      <trkpt lat="44.427826143801212" lon="8.718235166743398">
        <ele>327.47000000000003</ele>
        <time>2018-04-15T13:15:02Z</time>
      </trkpt>
      <trkpt lat="44.427828658372164" lon="8.718218570575118">
        <ele>326.99000000000001</ele>
        <time>2018-04-15T13:15:03Z</time>
      </trkpt>
      <trkpt lat="44.427830586209893" lon="8.718182444572449">
        <ele>323.13999999999999</ele>
        <time>2018-04-15T13:15:05Z</time>
      </trkpt>
      <trkpt lat="44.42783435806632" lon="8.718151012435556">
        <ele>321.22000000000003</ele>
        <time>2018-04-15T13:15:07Z</time>
      </trkpt>
      <trkpt lat="44.427840812131763" lon="8.718123687431216">
        <ele>322.18000000000001</ele>
        <time>2018-04-15T13:15:09Z</time>
      </trkpt>
      <trkpt lat="44.427845338359475" lon="8.718097619712353">
        <ele>325.06</ele>
        <time>2018-04-15T13:15:11Z</time>
      </trkpt>
      <trkpt lat="44.427857743576169" lon="8.718043640255928">
        <ele>320.25999999999999</ele>
        <time>2018-04-15T13:15:15Z</time>
      </trkpt>
      <trkpt lat="44.427862856537104" lon="8.718013549223542">
        <ele>318.81</ele>
        <time>2018-04-15T13:15:17Z</time>
      </trkpt>
      <trkpt lat="44.427869142964482" lon="8.717982536181808">
        <ele>320.25999999999999</ele>
        <time>2018-04-15T13:15:19Z</time>
      </trkpt>
      <trkpt lat="44.427883476018906" lon="8.71794649399817">
        <ele>325.54000000000002</ele>
        <time>2018-04-15T13:15:22Z</time>
      </trkpt>
      <trkpt lat="44.427925134077668" lon="8.717803414911032">
        <ele>327.47000000000003</ele>
        <time>2018-04-15T13:15:33Z</time>
      </trkpt>
      <trkpt lat="44.427977604791522" lon="8.717694114893675">
        <ele>330.35000000000002</ele>
        <time>2018-04-15T13:15:43Z</time>
      </trkpt>
      <trkpt lat="44.427980538457632" lon="8.717686571180821">
        <ele>330.35000000000002</ele>
        <time>2018-04-15T13:15:44Z</time>
      </trkpt>
      <trkpt lat="44.428004091605544" lon="8.717688163742423">
        <ele>329.38999999999999</ele>
        <time>2018-04-15T13:15:55Z</time>
      </trkpt>
      <trkpt lat="44.428007528185844" lon="8.717692187055945">
        <ele>330.82999999999998</ele>
        <time>2018-04-15T13:15:58Z</time>
      </trkpt>
      <trkpt lat="44.428003504872322" lon="8.717705849558115">
        <ele>327.47000000000003</ele>
        <time>2018-04-15T13:16:12Z</time>
      </trkpt>
      <trkpt lat="44.428008198738098" lon="8.717705681920052">
        <ele>326.5</ele>
        <time>2018-04-15T13:16:15Z</time>
      </trkpt>
      <trkpt lat="44.428008617833257" lon="8.717690007761121">
        <ele>328.43000000000001</ele>
        <time>2018-04-15T13:16:26Z</time>
      </trkpt>
      <trkpt lat="44.428013144060969" lon="8.717690762132406">
        <ele>331.79000000000002</ele>
        <time>2018-04-15T13:16:32Z</time>
      </trkpt>
      <trkpt lat="44.428009539842606" lon="8.717688918113709">
        <ele>329.38999999999999</ele>
        <time>2018-04-15T13:16:42Z</time>
      </trkpt>
      <trkpt lat="44.428012641146779" lon="8.717688834294677">
        <ele>330.35000000000002</ele>
        <time>2018-04-15T13:17:04Z</time>
      </trkpt>
      <trkpt lat="44.428010964766145" lon="8.717699563130736">
        <ele>330.35000000000002</ele>
        <time>2018-04-15T13:17:24Z</time>
      </trkpt>
      <trkpt lat="44.428053880110383" lon="8.717684643343091">
        <ele>329.87</ele>
        <time>2018-04-15T13:17:32Z</time>
      </trkpt>
      <trkpt lat="44.428127473220229" lon="8.717647679150105">
        <ele>329.38999999999999</ele>
        <time>2018-04-15T13:17:42Z</time>
      </trkpt>
      <trkpt lat="44.428174663335085" lon="8.717660838738084">
        <ele>332.26999999999998</ele>
        <time>2018-04-15T13:17:48Z</time>
      </trkpt>
      <trkpt lat="44.428197629749775" lon="8.717666789889336">
        <ele>333.70999999999998</ele>
        <time>2018-04-15T13:17:50Z</time>
      </trkpt>
      <trkpt lat="44.428208274766803" lon="8.717669388279319">
        <ele>333.23000000000002</ele>
        <time>2018-04-15T13:17:51Z</time>
      </trkpt>
      <trkpt lat="44.428310533985496" lon="8.717670561745763">
        <ele>332.75</ele>
        <time>2018-04-15T13:18:02Z</time>
      </trkpt>
      <trkpt lat="44.428327884525061" lon="8.717664359137416">
        <ele>333.23000000000002</ele>
        <time>2018-04-15T13:18:04Z</time>
      </trkpt>
      <trkpt lat="44.428419331088662" lon="8.717688079923391">
        <ele>334.68000000000001</ele>
        <time>2018-04-15T13:18:15Z</time>
      </trkpt>
      <trkpt lat="44.428462581709027" lon="8.717681122943759">
        <ele>336.60000000000002</ele>
        <time>2018-04-15T13:18:21Z</time>
      </trkpt>
      <trkpt lat="44.4285296369344" lon="8.717647511512041">
        <ele>335.63999999999999</ele>
        <time>2018-04-15T13:18:29Z</time>
      </trkpt>
      <trkpt lat="44.428578000515699" lon="8.717613313347101">
        <ele>338.51999999999998</ele>
        <time>2018-04-15T13:18:37Z</time>
      </trkpt>
      <trkpt lat="44.42857657559216" lon="8.717609625309706">
        <ele>340.92000000000002</ele>
        <time>2018-04-15T13:18:41Z</time>
      </trkpt>
      <trkpt lat="44.428588980808854" lon="8.717641644179821">
        <ele>337.56</ele>
        <time>2018-04-15T13:18:46Z</time>
      </trkpt>
      <trkpt lat="44.428577749058604" lon="8.717649187892675">
        <ele>337.56</ele>
        <time>2018-04-15T13:18:47Z</time>
      </trkpt>
      <trkpt lat="44.428482782095671" lon="8.717711046338081">
        <ele>336.12</ele>
        <time>2018-04-15T13:18:58Z</time>
      </trkpt>
      <trkpt lat="44.428408015519381" lon="8.71772613376379">
        <ele>335.63999999999999</ele>
        <time>2018-04-15T13:19:09Z</time>
      </trkpt>
      <trkpt lat="44.428336266428232" lon="8.71772370301187">
        <ele>333.23000000000002</ele>
        <time>2018-04-15T13:19:17Z</time>
      </trkpt>
      <trkpt lat="44.428292429074645" lon="8.717735605314374">
        <ele>331.31</ele>
        <time>2018-04-15T13:19:22Z</time>
      </trkpt>
      <trkpt lat="44.428211040794849" lon="8.717724625021219">
        <ele>332.75</ele>
        <time>2018-04-15T13:19:32Z</time>
      </trkpt>
      <trkpt lat="44.428125964477658" lon="8.717684308066964">
        <ele>329.87</ele>
        <time>2018-04-15T13:19:41Z</time>
      </trkpt>
      <trkpt lat="44.428106769919395" lon="8.717683302238584">
        <ele>328.91000000000003</ele>
        <time>2018-04-15T13:19:43Z</time>
      </trkpt>
      <trkpt lat="44.428053377196193" lon="8.717714147642255">
        <ele>329.87</ele>
        <time>2018-04-15T13:19:53Z</time>
      </trkpt>
      <trkpt lat="44.427946340292692" lon="8.717823028564453">
        <ele>327.47000000000003</ele>
        <time>2018-04-15T13:20:06Z</time>
      </trkpt>
      <trkpt lat="44.427915243431926" lon="8.717905171215534">
        <ele>329.38999999999999</ele>
        <time>2018-04-15T13:20:13Z</time>
      </trkpt>
      <trkpt lat="44.427912812680006" lon="8.71791522949934">
        <ele>328.43000000000001</ele>
        <time>2018-04-15T13:20:14Z</time>
      </trkpt>
      <trkpt lat="44.427906358614564" lon="8.717943979427218">
        <ele>327.47000000000003</ele>
        <time>2018-04-15T13:20:16Z</time>
      </trkpt>
      <trkpt lat="44.427897138521075" lon="8.717986391857266">
        <ele>324.10000000000002</ele>
        <time>2018-04-15T13:20:19Z</time>
      </trkpt>
      <trkpt lat="44.427871154621243" lon="8.718157801777124">
        <ele>325.06</ele>
        <time>2018-04-15T13:20:30Z</time>
      </trkpt>
      <trkpt lat="44.427858246490359" lon="8.718251427635551">
        <ele>324.10000000000002</ele>
        <time>2018-04-15T13:20:36Z</time>
      </trkpt>
      <trkpt lat="44.427846008911729" lon="8.718311777338386">
        <ele>320.74000000000001</ele>
        <time>2018-04-15T13:20:40Z</time>
      </trkpt>
      <trkpt lat="44.427843578159809" lon="8.71832761913538">
        <ele>320.74000000000001</ele>
        <time>2018-04-15T13:20:41Z</time>
      </trkpt>
      <trkpt lat="44.427810553461313" lon="8.718430800363421">
        <ele>320.74000000000001</ele>
        <time>2018-04-15T13:20:48Z</time>
      </trkpt>
      <trkpt lat="44.427781719714403" lon="8.718556025996804">
        <ele>323.13999999999999</ele>
        <time>2018-04-15T13:20:57Z</time>
      </trkpt>
      <trkpt lat="44.427760681137443" lon="8.718590056523681">
        <ele>323.13999999999999</ele>
        <time>2018-04-15T13:21:00Z</time>
      </trkpt>
      <trkpt lat="44.427606537938118" lon="8.718698266893625">
        <ele>321.22000000000003</ele>
        <time>2018-04-15T13:21:15Z</time>
      </trkpt>
      <trkpt lat="44.427548199892044" lon="8.718717209994793">
        <ele>324.57999999999998</ele>
        <time>2018-04-15T13:21:20Z</time>
      </trkpt>
      <trkpt lat="44.427521880716085" lon="8.718720730394125">
        <ele>325.06</ele>
        <time>2018-04-15T13:21:22Z</time>
      </trkpt>
      <trkpt lat="44.427387937903404" lon="8.718750905245543">
        <ele>323.13999999999999</ele>
        <time>2018-04-15T13:21:34Z</time>
      </trkpt>
      <trkpt lat="44.427298838272691" lon="8.7187859416008">
        <ele>321.22000000000003</ele>
        <time>2018-04-15T13:21:42Z</time>
      </trkpt>
      <trkpt lat="44.427160369232297" lon="8.718749983236194">
        <ele>319.30000000000001</ele>
        <time>2018-04-15T13:21:55Z</time>
      </trkpt>
      <trkpt lat="44.427132708951831" lon="8.718773284927011">
        <ele>319.30000000000001</ele>
        <time>2018-04-15T13:22:00Z</time>
      </trkpt>
      <trkpt lat="44.42708233371377" lon="8.718826258555055">
        <ele>319.30000000000001</ele>
        <time>2018-04-15T13:22:06Z</time>
      </trkpt>
      <trkpt lat="44.427049979567528" lon="8.718862636014819">
        <ele>317.37</ele>
        <time>2018-04-15T13:22:10Z</time>
      </trkpt>
      <trkpt lat="44.426957108080387" lon="8.718969086185098">
        <ele>316.41000000000003</ele>
        <time>2018-04-15T13:22:22Z</time>
      </trkpt>
      <trkpt lat="44.426914360374212" lon="8.719049468636513">
        <ele>315.44999999999999</ele>
        <time>2018-04-15T13:22:29Z</time>
      </trkpt>
      <trkpt lat="44.426874043419957" lon="8.719122055917978">
        <ele>314.97000000000003</ele>
        <time>2018-04-15T13:22:34Z</time>
      </trkpt>
      <trkpt lat="44.426811430603266" lon="8.719282737001777">
        <ele>311.60000000000002</ele>
        <time>2018-04-15T13:22:45Z</time>
      </trkpt>
      <trkpt lat="44.426749153062701" lon="8.719410141929984">
        <ele>314.00999999999999</ele>
        <time>2018-04-15T13:22:55Z</time>
      </trkpt>
      <trkpt lat="44.426714703440666" lon="8.719513658434153">
        <ele>310.16000000000003</ele>
        <time>2018-04-15T13:23:01Z</time>
      </trkpt>
      <trkpt lat="44.426665417850018" lon="8.719605356454849">
        <ele>310.63999999999999</ele>
        <time>2018-04-15T13:23:15Z</time>
      </trkpt>
      <trkpt lat="44.426635578274727" lon="8.719656486064196">
        <ele>308.24000000000001</ele>
        <time>2018-04-15T13:23:25Z</time>
      </trkpt>
      <trkpt lat="44.426618563011289" lon="8.719682050868869">
        <ele>308.24000000000001</ele>
        <time>2018-04-15T13:23:35Z</time>
      </trkpt>
      <trkpt lat="44.426621999591589" lon="8.719670064747334">
        <ele>310.63999999999999</ele>
        <time>2018-04-15T13:23:47Z</time>
      </trkpt>
      <trkpt lat="44.426645217463374" lon="8.719654222950339">
        <ele>308.72000000000003</ele>
        <time>2018-04-15T13:24:02Z</time>
      </trkpt>
      <trkpt lat="44.426639936864376" lon="8.71965573169291">
        <ele>308.72000000000003</ele>
        <time>2018-04-15T13:24:15Z</time>
      </trkpt>
      <trkpt lat="44.426627699285746" lon="8.719671992585063">
        <ele>308.24000000000001</ele>
        <time>2018-04-15T13:24:29Z</time>
      </trkpt>
      <trkpt lat="44.426634907722473" lon="8.719684481620789">
        <ele>311.60000000000002</ele>
        <time>2018-04-15T13:24:35Z</time>
      </trkpt>
      <trkpt lat="44.426623592153192" lon="8.71968062594533">
        <ele>308.24000000000001</ele>
        <time>2018-04-15T13:24:46Z</time>
      </trkpt>
      <trkpt lat="44.426613198593259" lon="8.719686074182391">
        <ele>307.27999999999997</ele>
        <time>2018-04-15T13:24:56Z</time>
      </trkpt>
      <trkpt lat="44.426612528041005" lon="8.719690013676882">
        <ele>310.16000000000003</ele>
        <time>2018-04-15T13:25:05Z</time>
      </trkpt>
      <trkpt lat="44.426597189158201" lon="8.719700407236815">
        <ele>309.68000000000001</ele>
        <time>2018-04-15T13:25:11Z</time>
      </trkpt>
      <trkpt lat="44.426545556634665" lon="8.71978078968823">
        <ele>308.72000000000003</ele>
        <time>2018-04-15T13:25:17Z</time>
      </trkpt>
      <trkpt lat="44.426508005708456" lon="8.719835942611098">
        <ele>306.80000000000001</ele>
        <time>2018-04-15T13:25:21Z</time>
      </trkpt>
      <trkpt lat="44.426353108137846" lon="8.719981955364347">
        <ele>303.43000000000001</ele>
        <time>2018-04-15T13:25:35Z</time>
      </trkpt>
      <trkpt lat="44.426229726523161" lon="8.720139032229781">
        <ele>302.47000000000003</ele>
        <time>2018-04-15T13:25:48Z</time>
      </trkpt>
      <trkpt lat="44.426198378205299" lon="8.720184545964003">
        <ele>302.47000000000003</ele>
        <time>2018-04-15T13:25:51Z</time>
      </trkpt>
      <trkpt lat="44.426156301051378" lon="8.720259061083198">
        <ele>301.50999999999999</ele>
        <time>2018-04-15T13:25:56Z</time>
      </trkpt>
      <trkpt lat="44.426126712933183" lon="8.72044094838202">
        <ele>298.14999999999998</ele>
        <time>2018-04-15T13:26:06Z</time>
      </trkpt>
      <trkpt lat="44.426123108714819" lon="8.720584865659475">
        <ele>297.67000000000002</ele>
        <time>2018-04-15T13:26:14Z</time>
      </trkpt>
      <trkpt lat="44.426136016845703" lon="8.720684191212058">
        <ele>294.77999999999997</ele>
        <time>2018-04-15T13:26:21Z</time>
      </trkpt>
      <trkpt lat="44.426153535023332" lon="8.720800280570984">
        <ele>293.81999999999999</ele>
        <time>2018-04-15T13:26:28Z</time>
      </trkpt>
      <trkpt lat="44.426152864471078" lon="8.720882087945938">
        <ele>292.86000000000001</ele>
        <time>2018-04-15T13:26:33Z</time>
      </trkpt>
      <trkpt lat="44.42610114812851" lon="8.721027849242091">
        <ele>290.45999999999998</ele>
        <time>2018-04-15T13:26:46Z</time>
      </trkpt>
      <trkpt lat="44.426065105944872" lon="8.721112087368965">
        <ele>289.49000000000001</ele>
        <time>2018-04-15T13:26:52Z</time>
      </trkpt>
      <trkpt lat="44.425984974950552" lon="8.721283581107855">
        <ele>287.56999999999999</ele>
        <time>2018-04-15T13:27:05Z</time>
      </trkpt>
      <trkpt lat="44.425925547257066" lon="8.7214470282197">
        <ele>285.64999999999998</ele>
        <time>2018-04-15T13:27:19Z</time>
      </trkpt>
      <trkpt lat="44.425914734601974" lon="8.721488015726209">
        <ele>282.76999999999998</ele>
        <time>2018-04-15T13:27:23Z</time>
      </trkpt>
      <trkpt lat="44.425908867269754" lon="8.721509389579296">
        <ele>280.83999999999997</ele>
        <time>2018-04-15T13:27:25Z</time>
      </trkpt>
      <trkpt lat="44.425909873098135" lon="8.721539899706841">
        <ele>284.20999999999998</ele>
        <time>2018-04-15T13:27:27Z</time>
      </trkpt>
      <trkpt lat="44.425868382677436" lon="8.721723966300488">
        <ele>282.76999999999998</ele>
        <time>2018-04-15T13:27:40Z</time>
      </trkpt>
      <trkpt lat="44.425835274159908" lon="8.72191515751183">
        <ele>282.27999999999997</ele>
        <time>2018-04-15T13:27:54Z</time>
      </trkpt>
      <trkpt lat="44.42579235881567" lon="8.722125710919499">
        <ele>284.69</ele>
        <time>2018-04-15T13:28:08Z</time>
      </trkpt>
      <trkpt lat="44.42572396248579" lon="8.722264682874084">
        <ele>283.73000000000002</ele>
        <time>2018-04-15T13:28:18Z</time>
      </trkpt>
      <trkpt lat="44.425676017999649" lon="8.722343556582928">
        <ele>284.20999999999998</ele>
        <time>2018-04-15T13:28:24Z</time>
      </trkpt>
      <trkpt lat="44.425644921138883" lon="8.722390495240688">
        <ele>283.25</ele>
        <time>2018-04-15T13:28:28Z</time>
      </trkpt>
      <trkpt lat="44.425626983866096" lon="8.722419831901789">
        <ele>281.80000000000001</ele>
        <time>2018-04-15T13:28:30Z</time>
      </trkpt>
      <trkpt lat="44.425612399354577" lon="8.722449755296111">
        <ele>280.83999999999997</ele>
        <time>2018-04-15T13:28:32Z</time>
      </trkpt>
      <trkpt lat="44.425579709932208" lon="8.722523935139179">
        <ele>282.27999999999997</ele>
        <time>2018-04-15T13:28:37Z</time>
      </trkpt>
      <trkpt lat="44.425490275025368" lon="8.72270037420094">
        <ele>283.25</ele>
        <time>2018-04-15T13:28:49Z</time>
      </trkpt>
      <trkpt lat="44.425456076860428" lon="8.722780421376228">
        <ele>281.80000000000001</ele>
        <time>2018-04-15T13:28:54Z</time>
      </trkpt>
      <trkpt lat="44.425389356911182" lon="8.723005894571543">
        <ele>280.83999999999997</ele>
        <time>2018-04-15T13:29:09Z</time>
      </trkpt>
      <trkpt lat="44.425419364124537" lon="8.72322122566402">
        <ele>278.92000000000002</ele>
        <time>2018-04-15T13:29:22Z</time>
      </trkpt>
      <trkpt lat="44.425430679693818" lon="8.723251735791564">
        <ele>277.95999999999998</ele>
        <time>2018-04-15T13:29:24Z</time>
      </trkpt>
      <trkpt lat="44.425454400479794" lon="8.723333710804582">
        <ele>274.11000000000001</ele>
        <time>2018-04-15T13:29:29Z</time>
      </trkpt>
      <trkpt lat="44.425455909222364" lon="8.72336589731276">
        <ele>274.58999999999997</ele>
        <time>2018-04-15T13:29:31Z</time>
      </trkpt>
      <trkpt lat="44.425463788211346" lon="8.723407723009586">
        <ele>272.19</ele>
        <time>2018-04-15T13:29:34Z</time>
      </trkpt>
      <trkpt lat="44.425471499562263" lon="8.723479639738798">
        <ele>273.63</ele>
        <time>2018-04-15T13:29:38Z</time>
      </trkpt>
      <trkpt lat="44.425474181771278" lon="8.723543677479029">
        <ele>269.79000000000002</ele>
        <time>2018-04-15T13:29:42Z</time>
      </trkpt>
      <trkpt lat="44.425476109609008" lon="8.72357502579689">
        <ele>273.14999999999998</ele>
        <time>2018-04-15T13:29:44Z</time>
      </trkpt>
      <trkpt lat="44.425478037446737" lon="8.72358919121325">
        <ele>273.14999999999998</ele>
        <time>2018-04-15T13:29:45Z</time>
      </trkpt>
      <trkpt lat="44.425501171499491" lon="8.723766217008233">
        <ele>271.70999999999998</ele>
        <time>2018-04-15T13:29:56Z</time>
      </trkpt>
      <trkpt lat="44.425528328865767" lon="8.723834529519081">
        <ele>271.23000000000002</ele>
        <time>2018-04-15T13:30:01Z</time>
      </trkpt>
      <trkpt lat="44.42553780041635" lon="8.723871661350131">
        <ele>269.31</ele>
        <time>2018-04-15T13:30:03Z</time>
      </trkpt>
      <trkpt lat="44.425561102107167" lon="8.724067630246282">
        <ele>268.82999999999998</ele>
        <time>2018-04-15T13:30:14Z</time>
      </trkpt>
      <trkpt lat="44.425565795972943" lon="8.724144827574492">
        <ele>270.75</ele>
        <time>2018-04-15T13:30:18Z</time>
      </trkpt>
      <trkpt lat="44.42557786591351" lon="8.724346747621894">
        <ele>267.86000000000001</ele>
        <time>2018-04-15T13:30:30Z</time>
      </trkpt>
      <trkpt lat="44.425611896440387" lon="8.724469961598516">
        <ele>266.89999999999998</ele>
        <time>2018-04-15T13:30:38Z</time>
      </trkpt>
      <trkpt lat="44.425624385476112" lon="8.724522097036243">
        <ele>270.26999999999998</ele>
        <time>2018-04-15T13:30:41Z</time>
      </trkpt>
      <trkpt lat="44.42563259974122" lon="8.724559228867292">
        <ele>266.42000000000002</ele>
        <time>2018-04-15T13:30:43Z</time>
      </trkpt>
      <trkpt lat="44.425635868683457" lon="8.724574148654938">
        <ele>267.38</ele>
        <time>2018-04-15T13:30:44Z</time>
      </trkpt>
      <trkpt lat="44.425642155110836" lon="8.724602898582816">
        <ele>268.35000000000002</ele>
        <time>2018-04-15T13:30:46Z</time>
      </trkpt>
      <trkpt lat="44.425657913088799" lon="8.724716473370791">
        <ele>266.42000000000002</ele>
        <time>2018-04-15T13:30:53Z</time>
      </trkpt>
      <trkpt lat="44.425692614167929" lon="8.7248195707798">
        <ele>265.94</ele>
        <time>2018-04-15T13:30:59Z</time>
      </trkpt>
      <trkpt lat="44.425720777362585" lon="8.724926607683301">
        <ele>268.35000000000002</ele>
        <time>2018-04-15T13:31:05Z</time>
      </trkpt>
      <trkpt lat="44.425759669393301" lon="8.725100867450237">
        <ele>266.89999999999998</ele>
        <time>2018-04-15T13:31:15Z</time>
      </trkpt>
      <trkpt lat="44.425790095701814" lon="8.725232547149062">
        <ele>265.45999999999998</ele>
        <time>2018-04-15T13:31:23Z</time>
      </trkpt>
      <trkpt lat="44.425835022702813" lon="8.725453745573759">
        <ele>262.10000000000002</ele>
        <time>2018-04-15T13:31:36Z</time>
      </trkpt>
      <trkpt lat="44.425849355757236" lon="8.725518453866243">
        <ele>264.01999999999998</ele>
        <time>2018-04-15T13:31:40Z</time>
      </trkpt>
      <trkpt lat="44.425881206989288" lon="8.725642589852214">
        <ele>260.64999999999998</ele>
        <time>2018-04-15T13:31:47Z</time>
      </trkpt>
      <trkpt lat="44.425927558913827" lon="8.725839229300618">
        <ele>262.10000000000002</ele>
        <time>2018-04-15T13:31:59Z</time>
      </trkpt>
      <trkpt lat="44.425945747643709" lon="8.726015500724316">
        <ele>260.64999999999998</ele>
        <time>2018-04-15T13:32:11Z</time>
      </trkpt>
      <trkpt lat="44.425955638289452" lon="8.726082723587751">
        <ele>259.69</ele>
        <time>2018-04-15T13:32:16Z</time>
      </trkpt>
      <trkpt lat="44.425965612754226" lon="8.726140474900603">
        <ele>257.76999999999998</ele>
        <time>2018-04-15T13:32:20Z</time>
      </trkpt>
      <trkpt lat="44.425977934151888" lon="8.726352620869875">
        <ele>256.81</ele>
        <time>2018-04-15T13:32:33Z</time>
      </trkpt>
      <trkpt lat="44.425979610532522" lon="8.726392770186067">
        <ele>255.37</ele>
        <time>2018-04-15T13:32:36Z</time>
      </trkpt>
      <trkpt lat="44.425981286913157" lon="8.72645010240376">
        <ele>256.81</ele>
        <time>2018-04-15T13:32:40Z</time>
      </trkpt>
      <trkpt lat="44.425977515056729" lon="8.726533921435475">
        <ele>253.93000000000001</ele>
        <time>2018-04-15T13:32:45Z</time>
      </trkpt>
      <trkpt lat="44.425974916666746" lon="8.7265913374722">
        <ele>255.37</ele>
        <time>2018-04-15T13:32:49Z</time>
      </trkpt>
      <trkpt lat="44.425965528935194" lon="8.726718155667186">
        <ele>254.88999999999999</ele>
        <time>2018-04-15T13:32:57Z</time>
      </trkpt>
      <trkpt lat="44.425926553085446" lon="8.726876322180033">
        <ele>252</ele>
        <time>2018-04-15T13:33:08Z</time>
      </trkpt>
      <trkpt lat="44.425914650782943" lon="8.726918315514922">
        <ele>252.96000000000001</ele>
        <time>2018-04-15T13:33:11Z</time>
      </trkpt>
      <trkpt lat="44.425894031301141" lon="8.726989310234785">
        <ele>252.47999999999999</ele>
        <time>2018-04-15T13:33:16Z</time>
      </trkpt>
      <trkpt lat="44.425868969410658" lon="8.72702375985682">
        <ele>252.96000000000001</ele>
        <time>2018-04-15T13:33:20Z</time>
      </trkpt>
      <trkpt lat="44.425842147320509" lon="8.727218639105558">
        <ele>250.56</ele>
        <time>2018-04-15T13:33:33Z</time>
      </trkpt>
      <trkpt lat="44.425816833972931" lon="8.727459954097867">
        <ele>250.08000000000001</ele>
        <time>2018-04-15T13:33:49Z</time>
      </trkpt>
      <trkpt lat="44.425819935277104" lon="8.727476634085178">
        <ele>250.08000000000001</ele>
        <time>2018-04-15T13:33:50Z</time>
      </trkpt>
      <trkpt lat="44.425842734053731" lon="8.727619796991348">
        <ele>250.56</ele>
        <time>2018-04-15T13:33:59Z</time>
      </trkpt>
      <trkpt lat="44.42586662247777" lon="8.727841498330236">
        <ele>249.12</ele>
        <time>2018-04-15T13:34:13Z</time>
      </trkpt>
      <trkpt lat="44.42588129080832" lon="8.727915342897177">
        <ele>250.56</ele>
        <time>2018-04-15T13:34:18Z</time>
      </trkpt>
      <trkpt lat="44.42586176097393" lon="8.72812950052321">
        <ele>248.63999999999999</ele>
        <time>2018-04-15T13:34:32Z</time>
      </trkpt>
      <trkpt lat="44.425828736275434" lon="8.728311220183969">
        <ele>247.19999999999999</ele>
        <time>2018-04-15T13:34:46Z</time>
      </trkpt>
      <trkpt lat="44.42582655698061" lon="8.728341143578291">
        <ele>246.22999999999999</ele>
        <time>2018-04-15T13:34:48Z</time>
      </trkpt>
      <trkpt lat="44.425826389342546" lon="8.728379532694817">
        <ele>245.75</ele>
        <time>2018-04-15T13:34:51Z</time>
      </trkpt>
      <trkpt lat="44.425829742103815" lon="8.728523785248399">
        <ele>243.34999999999999</ele>
        <time>2018-04-15T13:35:03Z</time>
      </trkpt>
      <trkpt lat="44.425836363807321" lon="8.728676084429026">
        <ele>240.94999999999999</ele>
        <time>2018-04-15T13:35:17Z</time>
      </trkpt>
      <trkpt lat="44.425839129835367" lon="8.72872612439096">
        <ele>239.99000000000001</ele>
        <time>2018-04-15T13:35:21Z</time>
      </trkpt>
      <trkpt lat="44.425860587507486" lon="8.728815726935864">
        <ele>239.02000000000001</ele>
        <time>2018-04-15T13:35:27Z</time>
      </trkpt>
      <trkpt lat="44.425869807600975" lon="8.728869119659066">
        <ele>238.53999999999999</ele>
        <time>2018-04-15T13:35:33Z</time>
      </trkpt>
      <trkpt lat="44.425917500630021" lon="8.72900415211916">
        <ele>238.06</ele>
        <time>2018-04-15T13:35:45Z</time>
      </trkpt>
      <trkpt lat="44.425951950252056" lon="8.729113871231675">
        <ele>234.69999999999999</ele>
        <time>2018-04-15T13:35:56Z</time>
      </trkpt>
      <trkpt lat="44.425944155082107" lon="8.72925971634686">
        <ele>234.22</ele>
        <time>2018-04-15T13:36:07Z</time>
      </trkpt>
      <trkpt lat="44.425940383225679" lon="8.729300536215305">
        <ele>232.78</ele>
        <time>2018-04-15T13:36:10Z</time>
      </trkpt>
      <trkpt lat="44.425934180617332" lon="8.729501282796264">
        <ele>232.30000000000001</ele>
        <time>2018-04-15T13:36:25Z</time>
      </trkpt>
      <trkpt lat="44.425938287749887" lon="8.729578144848347">
        <ele>230.84999999999999</ele>
        <time>2018-04-15T13:36:30Z</time>
      </trkpt>
      <trkpt lat="44.425886319950223" lon="8.729804791510105">
        <ele>228.44999999999999</ele>
        <time>2018-04-15T13:36:45Z</time>
      </trkpt>
      <trkpt lat="44.425895037129521" lon="8.730005202814937">
        <ele>227.00999999999999</ele>
        <time>2018-04-15T13:37:00Z</time>
      </trkpt>
      <trkpt lat="44.425914399325848" lon="8.730094889178872">
        <ele>226.53</ele>
        <time>2018-04-15T13:37:06Z</time>
      </trkpt>
      <trkpt lat="44.425923619419336" lon="8.730148868635297">
        <ele>226.05000000000001</ele>
        <time>2018-04-15T13:37:10Z</time>
      </trkpt>
      <trkpt lat="44.425975419580936" lon="8.730336287990212">
        <ele>226.53</ele>
        <time>2018-04-15T13:37:23Z</time>
      </trkpt>
      <trkpt lat="44.425997296348214" lon="8.730444246903062">
        <ele>226.05000000000001</ele>
        <time>2018-04-15T13:37:30Z</time>
      </trkpt>
      <trkpt lat="44.425981370732188" lon="8.730565533041954">
        <ele>224.12</ele>
        <time>2018-04-15T13:37:40Z</time>
      </trkpt>
      <trkpt lat="44.425969384610653" lon="8.730596546083689">
        <ele>225.09</ele>
        <time>2018-04-15T13:37:43Z</time>
      </trkpt>
      <trkpt lat="44.425892438739538" lon="8.730690507218242">
        <ele>222.19999999999999</ele>
        <time>2018-04-15T13:37:52Z</time>
      </trkpt>
      <trkpt lat="44.425854301080108" lon="8.730848003178835">
        <ele>221.24000000000001</ele>
        <time>2018-04-15T13:38:06Z</time>
      </trkpt>
      <trkpt lat="44.425843236967921" lon="8.730965266004205">
        <ele>217.40000000000001</ele>
        <time>2018-04-15T13:38:17Z</time>
      </trkpt>
      <trkpt lat="44.425839297473431" lon="8.730975408107042">
        <ele>217.40000000000001</ele>
        <time>2018-04-15T13:38:18Z</time>
      </trkpt>
      <trkpt lat="44.42580308765173" lon="8.731104824692011">
        <ele>217.40000000000001</ele>
        <time>2018-04-15T13:38:29Z</time>
      </trkpt>
      <trkpt lat="44.425801578909159" lon="8.731119157746434">
        <ele>217.88</ele>
        <time>2018-04-15T13:38:30Z</time>
      </trkpt>
      <trkpt lat="44.425794286653399" lon="8.731162743642926">
        <ele>216.43000000000001</ele>
        <time>2018-04-15T13:38:33Z</time>
      </trkpt>
      <trkpt lat="44.425786575302482" lon="8.731304984539747">
        <ele>214.03</ele>
        <time>2018-04-15T13:38:44Z</time>
      </trkpt>
      <trkpt lat="44.425786575302482" lon="8.731416128575802">
        <ele>214.99000000000001</ele>
        <time>2018-04-15T13:38:53Z</time>
      </trkpt>
      <trkpt lat="44.425782300531864" lon="8.731441525742412">
        <ele>211.15000000000001</ele>
        <time>2018-04-15T13:38:55Z</time>
      </trkpt>
      <trkpt lat="44.425781965255737" lon="8.731496846303344">
        <ele>212.59</ele>
        <time>2018-04-15T13:38:59Z</time>
      </trkpt>
      <trkpt lat="44.425774589180946" lon="8.731532050296664">
        <ele>211.15000000000001</ele>
        <time>2018-04-15T13:39:02Z</time>
      </trkpt>
      <trkpt lat="44.425733266398311" lon="8.731588795781136">
        <ele>210.19</ele>
        <time>2018-04-15T13:39:07Z</time>
      </trkpt>
      <trkpt lat="44.425680376589298" lon="8.731636237353087">
        <ele>209.69999999999999</ele>
        <time>2018-04-15T13:39:11Z</time>
      </trkpt>
      <trkpt lat="44.425618853420019" lon="8.731766156852245">
        <ele>208.74000000000001</ele>
        <time>2018-04-15T13:39:24Z</time>
      </trkpt>
      <trkpt lat="44.425566550344229" lon="8.731929017230868">
        <ele>205.38</ele>
        <time>2018-04-15T13:39:37Z</time>
      </trkpt>
      <trkpt lat="44.425497902557254" lon="8.732010992243886">
        <ele>202.49000000000001</ele>
        <time>2018-04-15T13:39:48Z</time>
      </trkpt>
      <trkpt lat="44.425440151244402" lon="8.732084417715669">
        <ele>199.61000000000001</ele>
        <time>2018-04-15T13:40:01Z</time>
      </trkpt>
      <trkpt lat="44.425389859825373" lon="8.732145689427853">
        <ele>196.72999999999999</ele>
        <time>2018-04-15T13:40:12Z</time>
      </trkpt>
      <trkpt lat="44.425347028300166" lon="8.732188940048218">
        <ele>194.80000000000001</ele>
        <time>2018-04-15T13:40:22Z</time>
      </trkpt>
      <trkpt lat="44.425257341936231" lon="8.73214703053236">
        <ele>194.31999999999999</ele>
        <time>2018-04-15T13:40:34Z</time>
      </trkpt>
      <trkpt lat="44.425184084102511" lon="8.732167817652226">
        <ele>191.91999999999999</ele>
        <time>2018-04-15T13:40:44Z</time>
      </trkpt>
      <trkpt lat="44.425157764926553" lon="8.732179719954729">
        <ele>189.52000000000001</ele>
        <time>2018-04-15T13:40:56Z</time>
      </trkpt>
      <trkpt lat="44.42514787428081" lon="8.732175612822175">
        <ele>190</ele>
        <time>2018-04-15T13:41:05Z</time>
      </trkpt>
      <trkpt lat="44.425135385245085" lon="8.732199585065246">
        <ele>190.47999999999999</ele>
        <time>2018-04-15T13:41:18Z</time>
      </trkpt>
      <trkpt lat="44.425127170979977" lon="8.732236046344042">
        <ele>190</ele>
        <time>2018-04-15T13:41:32Z</time>
      </trkpt>
      <trkpt lat="44.425129517912865" lon="8.732239818200469">
        <ele>190</ele>
        <time>2018-04-15T13:41:33Z</time>
      </trkpt>
      <trkpt lat="44.425128176808357" lon="8.732297737151384">
        <ele>189.52000000000001</ele>
        <time>2018-04-15T13:41:38Z</time>
      </trkpt>
      <trkpt lat="44.425132619217038" lon="8.732340820133686">
        <ele>188.56</ele>
        <time>2018-04-15T13:41:42Z</time>
      </trkpt>
      <trkpt lat="44.4251415040344" lon="8.732416341081262">
        <ele>189.03999999999999</ele>
        <time>2018-04-15T13:41:48Z</time>
      </trkpt>
      <trkpt lat="44.425154076889157" lon="8.732459004968405">
        <ele>188.56</ele>
        <time>2018-04-15T13:41:51Z</time>
      </trkpt>
      <trkpt lat="44.425196405500174" lon="8.732581799849868">
        <ele>185.66999999999999</ele>
        <time>2018-04-15T13:42:02Z</time>
      </trkpt>
      <trkpt lat="44.425199842080474" lon="8.732602167874575">
        <ele>185.66999999999999</ele>
        <time>2018-04-15T13:42:04Z</time>
      </trkpt>
      <trkpt lat="44.425171092152596" lon="8.732697973027825">
        <ele>184.71000000000001</ele>
        <time>2018-04-15T13:42:16Z</time>
      </trkpt>
      <trkpt lat="44.425138654187322" lon="8.732796125113964">
        <ele>183.75</ele>
        <time>2018-04-15T13:42:26Z</time>
      </trkpt>
      <trkpt lat="44.425127422437072" lon="8.73288438655436">
        <ele>182.78999999999999</ele>
        <time>2018-04-15T13:42:32Z</time>
      </trkpt>
      <trkpt lat="44.425137061625719" lon="8.732951609417796">
        <ele>180.87</ele>
        <time>2018-04-15T13:42:41Z</time>
      </trkpt>
      <trkpt lat="44.425119543448091" lon="8.733020089566708">
        <ele>177.97999999999999</ele>
        <time>2018-04-15T13:42:52Z</time>
      </trkpt>
      <trkpt lat="44.425114765763283" lon="8.733025873079896">
        <ele>177.97999999999999</ele>
        <time>2018-04-15T13:42:53Z</time>
      </trkpt>
      <trkpt lat="44.425027426332235" lon="8.733191918581724">
        <ele>174.62</ele>
        <time>2018-04-15T13:43:06Z</time>
      </trkpt>
      <trkpt lat="44.424970261752605" lon="8.733287304639816">
        <ele>171.72999999999999</ele>
        <time>2018-04-15T13:43:15Z</time>
      </trkpt>
      <trkpt lat="44.424889795482159" lon="8.733371458947659">
        <ele>169.33000000000001</ele>
        <time>2018-04-15T13:43:27Z</time>
      </trkpt>
      <trkpt lat="44.424835313111544" lon="8.73340180143714">
        <ele>168.84999999999999</ele>
        <time>2018-04-15T13:43:33Z</time>
      </trkpt>
      <trkpt lat="44.424732550978661" lon="8.733474221080542">
        <ele>165.47999999999999</ele>
        <time>2018-04-15T13:43:46Z</time>
      </trkpt>
      <trkpt lat="44.42464604973793" lon="8.733524177223444">
        <ele>162.59999999999999</ele>
        <time>2018-04-15T13:43:58Z</time>
      </trkpt>
      <trkpt lat="44.424590561538935" lon="8.733565332368016">
        <ele>159.24000000000001</ele>
        <time>2018-04-15T13:44:06Z</time>
      </trkpt>
      <trkpt lat="44.424537252634764" lon="8.733554016798735">
        <ele>159.72</ele>
        <time>2018-04-15T13:44:14Z</time>
      </trkpt>
      <trkpt lat="44.424482937902212" lon="8.733335332944989">
        <ele>157.31</ele>
        <time>2018-04-15T13:44:29Z</time>
      </trkpt>
      <trkpt lat="44.424482434988022" lon="8.733156211674213">
        <ele>154.91</ele>
        <time>2018-04-15T13:44:43Z</time>
      </trkpt>
      <trkpt lat="44.424424264580011" lon="8.733076918870211">
        <ele>153.94999999999999</ele>
        <time>2018-04-15T13:44:55Z</time>
      </trkpt>
      <trkpt lat="44.424351174384356" lon="8.733108351007104">
        <ele>151.53999999999999</ele>
        <time>2018-04-15T13:45:09Z</time>
      </trkpt>
      <trkpt lat="44.424290405586362" lon="8.733160318806768">
        <ele>148.18000000000001</ele>
        <time>2018-04-15T13:45:23Z</time>
      </trkpt>
      <trkpt lat="44.424202395603061" lon="8.733192840591073">
        <ele>145.30000000000001</ele>
        <time>2018-04-15T13:45:39Z</time>
      </trkpt>
      <trkpt lat="44.424168616533279" lon="8.733226787298918">
        <ele>142.88999999999999</ele>
        <time>2018-04-15T13:45:50Z</time>
      </trkpt>
      <trkpt lat="44.424139363691211" lon="8.733206922188401">
        <ele>140.49000000000001</ele>
        <time>2018-04-15T13:45:59Z</time>
      </trkpt>
      <trkpt lat="44.424059567973018" lon="8.733225613832474">
        <ele>138.09</ele>
        <time>2018-04-15T13:46:12Z</time>
      </trkpt>
      <trkpt lat="44.424000140279531" lon="8.733157049864531">
        <ele>135.68000000000001</ele>
        <time>2018-04-15T13:46:26Z</time>
      </trkpt>
      <trkpt lat="44.423944819718599" lon="8.733086055144668">
        <ele>132.80000000000001</ele>
        <time>2018-04-15T13:46:38Z</time>
      </trkpt>
      <trkpt lat="44.42387449555099" lon="8.733062166720629">
        <ele>130.40000000000001</ele>
        <time>2018-04-15T13:46:50Z</time>
      </trkpt>
      <trkpt lat="44.423781540244818" lon="8.733062334358692">
        <ele>127.03</ele>
        <time>2018-04-15T13:47:02Z</time>
      </trkpt>
      <trkpt lat="44.423677939921618" lon="8.733072811737657">
        <ele>124.15000000000001</ele>
        <time>2018-04-15T13:47:16Z</time>
      </trkpt>
      <trkpt lat="44.42359060049057" lon="8.7330671120435">
        <ele>122.70999999999999</ele>
        <time>2018-04-15T13:47:28Z</time>
      </trkpt>
      <trkpt lat="44.423558246344328" lon="8.73307247646153">
        <ele>121.26000000000001</ele>
        <time>2018-04-15T13:47:31Z</time>
      </trkpt>
      <trkpt lat="44.423523209989071" lon="8.733015647158027">
        <ele>119.34</ele>
        <time>2018-04-15T13:47:41Z</time>
      </trkpt>
      <trkpt lat="44.423511559143662" lon="8.73298061080277">
        <ele>117.90000000000001</ele>
        <time>2018-04-15T13:47:53Z</time>
      </trkpt>
      <trkpt lat="44.423505440354347" lon="8.732961332425475">
        <ele>117.90000000000001</ele>
        <time>2018-04-15T13:48:04Z</time>
      </trkpt>
      <trkpt lat="44.423503093421459" lon="8.732945825904608">
        <ele>117.90000000000001</ele>
        <time>2018-04-15T13:48:17Z</time>
      </trkpt>
      <trkpt lat="44.423486161977053" lon="8.732827389612794">
        <ele>117.42</ele>
        <time>2018-04-15T13:48:26Z</time>
      </trkpt>
      <trkpt lat="44.423474678769708" lon="8.732703505083919">
        <ele>114.53</ele>
        <time>2018-04-15T13:48:35Z</time>
      </trkpt>
      <trkpt lat="44.423466715961695" lon="8.732616920024157">
        <ele>113.56999999999999</ele>
        <time>2018-04-15T13:48:45Z</time>
      </trkpt>
      <trkpt lat="44.423448108136654" lon="8.732443330809474">
        <ele>110.20999999999999</ele>
        <time>2018-04-15T13:48:57Z</time>
      </trkpt>
      <trkpt lat="44.423447186127305" lon="8.732426650822163">
        <ele>109.73</ele>
        <time>2018-04-15T13:48:58Z</time>
      </trkpt>
      <trkpt lat="44.423462525010109" lon="8.732341155409813">
        <ele>109.25</ele>
        <time>2018-04-15T13:49:04Z</time>
      </trkpt>
      <trkpt lat="44.423467135056853" lon="8.732207044959068">
        <ele>107.81</ele>
        <time>2018-04-15T13:49:13Z</time>
      </trkpt>
      <trkpt lat="44.423454981297255" lon="8.732186676934362">
        <ele>106.84</ele>
        <time>2018-04-15T13:49:17Z</time>
      </trkpt>
      <trkpt lat="44.423355488106608" lon="8.732246775180101">
        <ele>103.48</ele>
        <time>2018-04-15T13:49:29Z</time>
      </trkpt>
      <trkpt lat="44.423287678509951" lon="8.732350962236524">
        <ele>100.11</ele>
        <time>2018-04-15T13:49:40Z</time>
      </trkpt>
      <trkpt lat="44.423264628276229" lon="8.732378371059895">
        <ele>99.150000000000006</ele>
        <time>2018-04-15T13:49:43Z</time>
      </trkpt>
      <trkpt lat="44.423250798135996" lon="8.732411311939359">
        <ele>98.670000000000002</ele>
        <time>2018-04-15T13:49:49Z</time>
      </trkpt>
      <trkpt lat="44.423173014074564" lon="8.732559839263558">
        <ele>95.310000000000002</ele>
        <time>2018-04-15T13:50:01Z</time>
      </trkpt>
      <trkpt lat="44.42312347702682" lon="8.732783887535334">
        <ele>94.829999999999998</ele>
        <time>2018-04-15T13:50:15Z</time>
      </trkpt>
      <trkpt lat="44.423064468428493" lon="8.732985053211451">
        <ele>93.390000000000001</ele>
        <time>2018-04-15T13:50:28Z</time>
      </trkpt>
      <trkpt lat="44.4230433460325" lon="8.733006762340665">
        <ele>92.900000000000006</ele>
        <time>2018-04-15T13:50:30Z</time>
      </trkpt>
      <trkpt lat="44.423005878925323" lon="8.733064848929644">
        <ele>91.459999999999994</ele>
        <time>2018-04-15T13:50:34Z</time>
      </trkpt>
      <trkpt lat="44.422948965802789" lon="8.733196360990405">
        <ele>89.060000000000002</ele>
        <time>2018-04-15T13:50:45Z</time>
      </trkpt>
      <trkpt lat="44.422913258895278" lon="8.73337053693831">
        <ele>87.620000000000005</ele>
        <time>2018-04-15T13:50:56Z</time>
      </trkpt>
      <trkpt lat="44.422937566414475" lon="8.733451506122947">
        <ele>88.099999999999994</ele>
        <time>2018-04-15T13:51:03Z</time>
      </trkpt>
      <trkpt lat="44.422969417646527" lon="8.733534654602408">
        <ele>88.099999999999994</ele>
        <time>2018-04-15T13:51:09Z</time>
      </trkpt>
      <trkpt lat="44.42298567853868" lon="8.733625682070851">
        <ele>88.099999999999994</ele>
        <time>2018-04-15T13:51:15Z</time>
      </trkpt>
      <trkpt lat="44.422959527000785" lon="8.733845455572009">
        <ele>86.180000000000007</ele>
        <time>2018-04-15T13:51:30Z</time>
      </trkpt>
      <trkpt lat="44.42293094471097" lon="8.734035976231098">
        <ele>82.810000000000002</ele>
        <time>2018-04-15T13:51:43Z</time>
      </trkpt>
      <trkpt lat="44.422909738495946" lon="8.734094062820077">
        <ele>81.849999999999994</ele>
        <time>2018-04-15T13:51:47Z</time>
      </trkpt>
      <trkpt lat="44.422905799001455" lon="8.734130021184683">
        <ele>80.890000000000001</ele>
        <time>2018-04-15T13:51:50Z</time>
      </trkpt>
      <trkpt lat="44.422872439026833" lon="8.734293300658464">
        <ele>77.519999999999996</ele>
        <time>2018-04-15T13:52:02Z</time>
      </trkpt>
      <trkpt lat="44.422858105972409" lon="8.734378460794687">
        <ele>76.079999999999998</ele>
        <time>2018-04-15T13:52:09Z</time>
      </trkpt>
      <trkpt lat="44.422819884493947" lon="8.734571496024728">
        <ele>73.680000000000007</ele>
        <time>2018-04-15T13:52:22Z</time>
      </trkpt>
      <trkpt lat="44.422817872837186" lon="8.734579291194677">
        <ele>73.680000000000007</ele>
        <time>2018-04-15T13:52:23Z</time>
      </trkpt>
      <trkpt lat="44.422793816775084" lon="8.734763441607356">
        <ele>73.680000000000007</ele>
        <time>2018-04-15T13:52:35Z</time>
      </trkpt>
      <trkpt lat="44.422840923070908" lon="8.734911633655429">
        <ele>71.760000000000005</ele>
        <time>2018-04-15T13:52:49Z</time>
      </trkpt>
      <trkpt lat="44.422820471227169" lon="8.734936444088817">
        <ele>71.760000000000005</ele>
        <time>2018-04-15T13:53:03Z</time>
      </trkpt>
      <trkpt lat="44.42280488088727" lon="8.734944742172957">
        <ele>71.760000000000005</ele>
        <time>2018-04-15T13:53:15Z</time>
      </trkpt>
      <trkpt lat="44.422809490934014" lon="8.734909873455763">
        <ele>70.790000000000006</ele>
        <time>2018-04-15T13:53:26Z</time>
      </trkpt>
      <trkpt lat="44.422826506197453" lon="8.734919680282474">
        <ele>70.790000000000006</ele>
        <time>2018-04-15T13:53:37Z</time>
      </trkpt>
      <trkpt lat="44.422824997454882" lon="8.734929487109184">
        <ele>71.269999999999996</ele>
        <time>2018-04-15T13:53:48Z</time>
      </trkpt>
      <trkpt lat="44.422811502590775" lon="8.734964272007346">
        <ele>70.790000000000006</ele>
        <time>2018-04-15T13:53:58Z</time>
      </trkpt>
      <trkpt lat="44.422831032425165" lon="8.734986400231719">
        <ele>70.310000000000002</ele>
        <time>2018-04-15T13:54:14Z</time>
      </trkpt>
      <trkpt lat="44.422829356044531" lon="8.734995704144239">
        <ele>69.829999999999998</ele>
        <time>2018-04-15T13:54:15Z</time>
      </trkpt>
      <trkpt lat="44.422869924455881" lon="8.735075583681464">
        <ele>67.909999999999997</ele>
        <time>2018-04-15T13:54:27Z</time>
      </trkpt>
      <trkpt lat="44.422851232811809" lon="8.735074326395989">
        <ele>67.430000000000007</ele>
        <time>2018-04-15T13:54:31Z</time>
      </trkpt>
      <trkpt lat="44.422805299982429" lon="8.734966116026044">
        <ele>69.829999999999998</ele>
        <time>2018-04-15T13:54:42Z</time>
      </trkpt>
      <trkpt lat="44.422809407114983" lon="8.734968714416027">
        <ele>68.870000000000005</ele>
        <time>2018-04-15T13:54:52Z</time>
      </trkpt>
      <trkpt lat="44.422814436256886" lon="8.734983718022704">
        <ele>68.390000000000001</ele>
        <time>2018-04-15T13:54:54Z</time>
      </trkpt>
      <trkpt lat="44.422841761261225" lon="8.735051779076457">
        <ele>66.469999999999999</ele>
        <time>2018-04-15T13:54:58Z</time>
      </trkpt>
      <trkpt lat="44.422852573916316" lon="8.73507390730083">
        <ele>65.989999999999995</ele>
        <time>2018-04-15T13:55:00Z</time>
      </trkpt>
      <trkpt lat="44.422936560586095" lon="8.735246742144227">
        <ele>63.579999999999998</ele>
        <time>2018-04-15T13:55:14Z</time>
      </trkpt>
      <trkpt lat="44.423002609983087" lon="8.735439525917172">
        <ele>63.100000000000001</ele>
        <time>2018-04-15T13:55:27Z</time>
      </trkpt>
      <trkpt lat="44.423084417358041" lon="8.735640775412321">
        <ele>61.18</ele>
        <time>2018-04-15T13:55:40Z</time>
      </trkpt>
      <trkpt lat="44.423152478411794" lon="8.735845126211643">
        <ele>58.299999999999997</ele>
        <time>2018-04-15T13:55:54Z</time>
      </trkpt>
      <trkpt lat="44.423169074580073" lon="8.735935315489769">
        <ele>55.409999999999997</ele>
        <time>2018-04-15T13:56:02Z</time>
      </trkpt>
      <trkpt lat="44.423188269138336" lon="8.736084681004286">
        <ele>57.340000000000003</ele>
        <time>2018-04-15T13:56:13Z</time>
      </trkpt>
      <trkpt lat="44.423324642702937" lon="8.736198842525482">
        <ele>54.450000000000003</ele>
        <time>2018-04-15T13:56:27Z</time>
      </trkpt>
      <trkpt lat="44.423332186415792" lon="8.736204290762544">
        <ele>53.969999999999999</ele>
        <time>2018-04-15T13:56:28Z</time>
      </trkpt>
      <trkpt lat="44.423425644636154" lon="8.736309986561537">
        <ele>53.490000000000002</ele>
        <time>2018-04-15T13:56:39Z</time>
      </trkpt>
      <trkpt lat="44.42353880032897" lon="8.736422555521131">
        <ele>52.530000000000001</ele>
        <time>2018-04-15T13:56:51Z</time>
      </trkpt>
      <trkpt lat="44.423612141981721" lon="8.736494639888406">
        <ele>51.57</ele>
        <time>2018-04-15T13:56:59Z</time>
      </trkpt>
      <trkpt lat="44.423691434785724" lon="8.736623385921121">
        <ele>50.609999999999999</ele>
        <time>2018-04-15T13:57:10Z</time>
      </trkpt>
      <trkpt lat="44.423819342628121" lon="8.736804602667689">
        <ele>49.159999999999997</ele>
        <time>2018-04-15T13:57:26Z</time>
      </trkpt>
      <trkpt lat="44.423840381205082" lon="8.736827066168189">
        <ele>49.649999999999999</ele>
        <time>2018-04-15T13:57:28Z</time>
      </trkpt>
      <trkpt lat="44.423855971544981" lon="8.736845757812262">
        <ele>49.649999999999999</ele>
        <time>2018-04-15T13:57:30Z</time>
      </trkpt>
      <trkpt lat="44.42390232346952" lon="8.736904598772526">
        <ele>48.200000000000003</ele>
        <time>2018-04-15T13:57:36Z</time>
      </trkpt>
      <trkpt lat="44.42404598928988" lon="8.737030997872353">
        <ele>48.200000000000003</ele>
        <time>2018-04-15T13:57:51Z</time>
      </trkpt>
      <trkpt lat="44.424172472208738" lon="8.737046085298061">
        <ele>44.840000000000003</ele>
        <time>2018-04-15T13:58:02Z</time>
      </trkpt>
      <trkpt lat="44.42434798926115" lon="8.737036865204573">
        <ele>43.880000000000003</ele>
        <time>2018-04-15T13:58:17Z</time>
      </trkpt>
      <trkpt lat="44.424506155773997" lon="8.737049521878362">
        <ele>41.950000000000003</ele>
        <time>2018-04-15T13:58:30Z</time>
      </trkpt>
      <trkpt lat="44.424575641751289" lon="8.737065782770515">
        <ele>41.469999999999999</ele>
        <time>2018-04-15T13:58:36Z</time>
      </trkpt>
      <trkpt lat="44.424720648676157" lon="8.737112218514085">
        <ele>40.030000000000001</ele>
        <time>2018-04-15T13:58:49Z</time>
      </trkpt>
      <trkpt lat="44.424799103289843" lon="8.737206179648638">
        <ele>40.030000000000001</ele>
        <time>2018-04-15T13:58:58Z</time>
      </trkpt>
      <trkpt lat="44.424876300618052" lon="8.737446488812566">
        <ele>39.07</ele>
        <time>2018-04-15T13:59:15Z</time>
      </trkpt>
      <trkpt lat="44.424905553460121" lon="8.737666932865977">
        <ele>38.590000000000003</ele>
        <time>2018-04-15T13:59:29Z</time>
      </trkpt>
      <trkpt lat="44.424906559288502" lon="8.737773969769478">
        <ele>38.590000000000003</ele>
        <time>2018-04-15T13:59:37Z</time>
      </trkpt>
      <trkpt lat="44.424935895949602" lon="8.737833732739091">
        <ele>39.07</ele>
        <time>2018-04-15T13:59:51Z</time>
      </trkpt>
      <trkpt lat="44.424925083294511" lon="8.737852172926068">
        <ele>38.590000000000003</ele>
        <time>2018-04-15T13:59:54Z</time>
      </trkpt>
      <trkpt lat="44.424923909828067" lon="8.738048812374473">
        <ele>39.549999999999997</ele>
        <time>2018-04-15T14:00:07Z</time>
      </trkpt>
      <trkpt lat="44.425007561221719" lon="8.738244948908687">
        <ele>39.549999999999997</ele>
        <time>2018-04-15T14:00:20Z</time>
      </trkpt>
      <trkpt lat="44.42510780878365" lon="8.738381154835224">
        <ele>37.149999999999999</ele>
        <time>2018-04-15T14:00:30Z</time>
      </trkpt>
      <trkpt lat="44.425242505967617" lon="8.738545523956418">
        <ele>37.630000000000003</ele>
        <time>2018-04-15T14:00:45Z</time>
      </trkpt>
      <trkpt lat="44.42539656534791" lon="8.738733697682619">
        <ele>37.149999999999999</ele>
        <time>2018-04-15T14:01:01Z</time>
      </trkpt>
      <trkpt lat="44.425548780709505" lon="8.738921619951725">
        <ele>37.149999999999999</ele>
        <time>2018-04-15T14:01:18Z</time>
      </trkpt>
      <trkpt lat="44.42566629499197" lon="8.739138459786773">
        <ele>35.229999999999997</ele>
        <time>2018-04-15T14:01:34Z</time>
      </trkpt>
      <trkpt lat="44.425741899758577" lon="8.739262511953712">
        <ele>35.229999999999997</ele>
        <time>2018-04-15T14:01:43Z</time>
      </trkpt>
      <trkpt lat="44.425834435969591" lon="8.73940366320312">
        <ele>34.740000000000002</ele>
        <time>2018-04-15T14:01:54Z</time>
      </trkpt>
      <trkpt lat="44.425971060991287" lon="8.73959275893867">
        <ele>33.780000000000001</ele>
        <time>2018-04-15T14:02:10Z</time>
      </trkpt>
      <trkpt lat="44.426104668527842" lon="8.739751093089581">
        <ele>33.299999999999997</ele>
        <time>2018-04-15T14:02:25Z</time>
      </trkpt>
      <trkpt lat="44.42621162161231" lon="8.739879503846169">
        <ele>32.82</ele>
        <time>2018-04-15T14:02:37Z</time>
      </trkpt>
      <trkpt lat="44.426327627152205" lon="8.739990228787065">
        <ele>31.859999999999999</ele>
        <time>2018-04-15T14:02:48Z</time>
      </trkpt>
      <trkpt lat="44.426393592730165" lon="8.740155436098576">
        <ele>30.899999999999999</ele>
        <time>2018-04-15T14:02:58Z</time>
      </trkpt>
      <trkpt lat="44.426427539438009" lon="8.740396331995726">
        <ele>29.460000000000001</ele>
        <time>2018-04-15T14:03:11Z</time>
      </trkpt>
      <trkpt lat="44.426415972411633" lon="8.740604622289538">
        <ele>28.02</ele>
        <time>2018-04-15T14:03:24Z</time>
      </trkpt>
      <trkpt lat="44.426428796723485" lon="8.740726159885526">
        <ele>27.530000000000001</ele>
        <time>2018-04-15T14:03:35Z</time>
      </trkpt>
      <trkpt lat="44.426456792280078" lon="8.740724734961987">
        <ele>28.5</ele>
        <time>2018-04-15T14:03:48Z</time>
      </trkpt>
      <trkpt lat="44.426482189446688" lon="8.740774607285857">
        <ele>28.98</ele>
        <time>2018-04-15T14:04:00Z</time>
      </trkpt>
      <trkpt lat="44.42659568041563" lon="8.740918021649122">
        <ele>27.050000000000001</ele>
        <time>2018-04-15T14:04:14Z</time>
      </trkpt>
      <trkpt lat="44.426709422841668" lon="8.741038721054792">
        <ele>26.57</ele>
        <time>2018-04-15T14:04:27Z</time>
      </trkpt>
      <trkpt lat="44.426818639039993" lon="8.741192109882832">
        <ele>25.609999999999999</ele>
        <time>2018-04-15T14:04:41Z</time>
      </trkpt>
      <trkpt lat="44.426953000947833" lon="8.74133862555027">
        <ele>22.73</ele>
        <time>2018-04-15T14:04:55Z</time>
      </trkpt>
      <trkpt lat="44.426988791674376" lon="8.741388078778982">
        <ele>22.25</ele>
        <time>2018-04-15T14:04:59Z</time>
      </trkpt>
      <trkpt lat="44.427078142762184" lon="8.741513304412365">
        <ele>19.84</ele>
        <time>2018-04-15T14:05:13Z</time>
      </trkpt>
      <trkpt lat="44.427149808034301" lon="8.741611624136567">
        <ele>16.48</ele>
        <time>2018-04-15T14:05:25Z</time>
      </trkpt>
      <trkpt lat="44.427162883803248" lon="8.741645570844412">
        <ele>15.039999999999999</ele>
        <time>2018-04-15T14:05:28Z</time>
      </trkpt>
      <trkpt lat="44.427173528820276" lon="8.741738609969616">
        <ele>13.119999999999999</ele>
        <time>2018-04-15T14:05:37Z</time>
      </trkpt>
      <trkpt lat="44.427231783047318" lon="8.741951426491141">
        <ele>14.56</ele>
        <time>2018-04-15T14:05:51Z</time>
      </trkpt>
      <trkpt lat="44.427301688119769" lon="8.742017475888133">
        <ele>14.56</ele>
        <time>2018-04-15T14:06:03Z</time>
      </trkpt>
      <trkpt lat="44.427325911819935" lon="8.742036167532206">
        <ele>14.56</ele>
        <time>2018-04-15T14:06:13Z</time>
      </trkpt>
      <trkpt lat="44.42734963260591" lon="8.742194417864084">
        <ele>13.119999999999999</ele>
        <time>2018-04-15T14:06:24Z</time>
      </trkpt>
      <trkpt lat="44.427354745566845" lon="8.742316961288452">
        <ele>13.6</ele>
        <time>2018-04-15T14:06:32Z</time>
      </trkpt>
      <trkpt lat="44.427366983145475" lon="8.742453083395958">
        <ele>12.630000000000001</ele>
        <time>2018-04-15T14:06:41Z</time>
      </trkpt>
      <trkpt lat="44.427393386140466" lon="8.742488035932183">
        <ele>13.6</ele>
        <time>2018-04-15T14:06:53Z</time>
      </trkpt>
      <trkpt lat="44.427393553778529" lon="8.742502788081765">
        <ele>13.6</ele>
        <time>2018-04-15T14:06:59Z</time>
      </trkpt>
      <trkpt lat="44.427391458302736" lon="8.742504045367241">
        <ele>12.630000000000001</ele>
        <time>2018-04-15T14:07:01Z</time>
      </trkpt>
      <trkpt lat="44.427370419725776" lon="8.742492813616991">
        <ele>13.6</ele>
        <time>2018-04-15T14:07:15Z</time>
      </trkpt>
      <trkpt lat="44.427344184368849" lon="8.742514941841364">
        <ele>13.119999999999999</ele>
        <time>2018-04-15T14:07:22Z</time>
      </trkpt>
      <trkpt lat="44.427286433055997" lon="8.742548134177923">
        <ele>12.630000000000001</ele>
        <time>2018-04-15T14:07:27Z</time>
      </trkpt>
      <trkpt lat="44.427243517711759" lon="8.7425821647048">
        <ele>12.15</ele>
        <time>2018-04-15T14:07:32Z</time>
      </trkpt>
      <trkpt lat="44.427247792482376" lon="8.742633042857051">
        <ele>13.119999999999999</ele>
        <time>2018-04-15T14:07:36Z</time>
      </trkpt>
      <trkpt lat="44.427252067252994" lon="8.742663133889437">
        <ele>13.119999999999999</ele>
        <time>2018-04-15T14:07:38Z</time>
      </trkpt>
      <trkpt lat="44.427241506054997" lon="8.742705965414643">
        <ele>12.15</ele>
        <time>2018-04-15T14:07:41Z</time>
      </trkpt>
      <trkpt lat="44.427231028676033" lon="8.742796322330833">
        <ele>11.67</ele>
        <time>2018-04-15T14:07:47Z</time>
      </trkpt>
      <trkpt lat="44.427194567397237" lon="8.742906376719475">
        <ele>11.67</ele>
        <time>2018-04-15T14:07:54Z</time>
      </trkpt>
      <trkpt lat="44.427191382274032" lon="8.742906292900443">
        <ele>12.15</ele>
        <time>2018-04-15T14:08:04Z</time>
      </trkpt>
      <trkpt lat="44.427182162180543" lon="8.742953734472394">
        <ele>12.15</ele>
        <time>2018-04-15T14:08:20Z</time>
      </trkpt>
      <trkpt lat="44.42718643695116" lon="8.742974437773228">
        <ele>11.67</ele>
        <time>2018-04-15T14:08:22Z</time>
      </trkpt>
      <trkpt lat="44.427188951522112" lon="8.743021124973893">
        <ele>10.710000000000001</ele>
        <time>2018-04-15T14:08:25Z</time>
      </trkpt>
      <trkpt lat="44.427203787490726" lon="8.743169736117125">
        <ele>11.19</ele>
        <time>2018-04-15T14:08:35Z</time>
      </trkpt>
      <trkpt lat="44.427206134423614" lon="8.743201168254018">
        <ele>11.67</ele>
        <time>2018-04-15T14:08:37Z</time>
      </trkpt>
      <trkpt lat="44.427185514941812" lon="8.74324475415051">
        <ele>11.19</ele>
        <time>2018-04-15T14:08:40Z</time>
      </trkpt>
    </trkseg>
  </trk>

</gpx>